<?xml version="1.0" encoding="UTF-8"?>
<gpx version="1.1" creator="https://www.www-youtrack-es.amenigma.com" xsi:schemaLocation="http://www.topografix.com/GPX/1/1 http://www.topografix.com/GPX/1/1/gpx.xsd http://www.garmin.com/xmlschemas/GpxExtensions/v3 http://www.garmin.com/xmlschemas/GpxExtensionsv3.xsd http://www.garmin.com/xmlschemas/TrackPointExtension/v1 http://www.garmin.com/xmlschemas/TrackPointExtensionv1.xsd" xmlns:gpxtpx="http://www.garmin.com/xmlschemas/TrackPointExtension/v1" xmlns:gpxx="http://www.garmin.com/xmlschemas/GpxExtensions/v3" xmlns:xsi="http://www.w3.org/2001/XMLSchema-instance">
  <metadata>
    <link href="https://www.www-youtrack-es.amenigma.com">
      <text>YouTrack.es</text>
    </link>
    <time>2026-08-31T06:15:30Z</time>
  </metadata>
  <trk>
    <src>https://www.www-youtrack-es.amenigma.com</src>
    <link href="https://www.www-youtrack-es.amenigma.com/ruta/18303-bicicleta-de-montanha">
      <text>YouTrack.es</text>
    </link>
    <trkseg>
      <trkpt lat="37.1803210" lon="-7.4510560">
        <ele>12.9</ele>
        <time>2020-12-22T13:52:13Z</time>
      </trkpt>
      <trkpt lat="37.1803210" lon="-7.4510530">
        <ele>12.9</ele>
        <time>2020-12-22T13:52:14Z</time>
      </trkpt>
      <trkpt lat="37.1803210" lon="-7.4510480">
        <ele>12.9</ele>
        <time>2020-12-22T13:52:15Z</time>
      </trkpt>
      <trkpt lat="37.1803210" lon="-7.4510360">
        <ele>12.9</ele>
        <time>2020-12-22T13:52:16Z</time>
      </trkpt>
      <trkpt lat="37.1803170" lon="-7.4510200">
        <ele>13.0</ele>
        <time>2020-12-22T13:52:17Z</time>
      </trkpt>
      <trkpt lat="37.1803210" lon="-7.4510030">
        <ele>13.0</ele>
        <time>2020-12-22T13:52:18Z</time>
      </trkpt>
      <trkpt lat="37.1803250" lon="-7.4509780">
        <ele>13.0</ele>
        <time>2020-12-22T13:52:19Z</time>
      </trkpt>
      <trkpt lat="37.1803280" lon="-7.4509560">
        <ele>13.0</ele>
        <time>2020-12-22T13:52:20Z</time>
      </trkpt>
      <trkpt lat="37.1803320" lon="-7.4509320">
        <ele>13.1</ele>
        <time>2020-12-22T13:52:21Z</time>
      </trkpt>
      <trkpt lat="37.1803360" lon="-7.4509060">
        <ele>13.0</ele>
        <time>2020-12-22T13:52:22Z</time>
      </trkpt>
      <trkpt lat="37.1803400" lon="-7.4508810">
        <ele>13.0</ele>
        <time>2020-12-22T13:52:23Z</time>
      </trkpt>
      <trkpt lat="37.1803470" lon="-7.4508630">
        <ele>13.0</ele>
        <time>2020-12-22T13:52:24Z</time>
      </trkpt>
      <trkpt lat="37.1803550" lon="-7.4508570">
        <ele>13.0</ele>
        <time>2020-12-22T13:52:25Z</time>
      </trkpt>
      <trkpt lat="37.1803630" lon="-7.4508610">
        <ele>13.0</ele>
        <time>2020-12-22T13:52:26Z</time>
      </trkpt>
      <trkpt lat="37.1803670" lon="-7.4508680">
        <ele>13.0</ele>
        <time>2020-12-22T13:52:27Z</time>
      </trkpt>
      <trkpt lat="37.1803700" lon="-7.4508750">
        <ele>13.0</ele>
        <time>2020-12-22T13:52:28Z</time>
      </trkpt>
      <trkpt lat="37.1803740" lon="-7.4508860">
        <ele>13.0</ele>
        <time>2020-12-22T13:52:29Z</time>
      </trkpt>
      <trkpt lat="37.1803670" lon="-7.4509050">
        <ele>13.0</ele>
        <time>2020-12-22T13:52:30Z</time>
      </trkpt>
      <trkpt lat="37.1803550" lon="-7.4509290">
        <ele>12.9</ele>
        <time>2020-12-22T13:52:31Z</time>
      </trkpt>
      <trkpt lat="37.1803400" lon="-7.4509480">
        <ele>12.9</ele>
        <time>2020-12-22T13:52:32Z</time>
      </trkpt>
      <trkpt lat="37.1803130" lon="-7.4509540">
        <ele>12.9</ele>
        <time>2020-12-22T13:52:33Z</time>
      </trkpt>
      <trkpt lat="37.1802860" lon="-7.4509530">
        <ele>12.9</ele>
        <time>2020-12-22T13:52:34Z</time>
      </trkpt>
      <trkpt lat="37.1802600" lon="-7.4509490">
        <ele>12.9</ele>
        <time>2020-12-22T13:52:35Z</time>
      </trkpt>
      <trkpt lat="37.1802330" lon="-7.4509430">
        <ele>12.9</ele>
        <time>2020-12-22T13:52:36Z</time>
      </trkpt>
      <trkpt lat="37.1802140" lon="-7.4509340">
        <ele>12.8</ele>
        <time>2020-12-22T13:52:37Z</time>
      </trkpt>
      <trkpt lat="37.1801950" lon="-7.4509240">
        <ele>12.8</ele>
        <time>2020-12-22T13:52:38Z</time>
      </trkpt>
      <trkpt lat="37.1801800" lon="-7.4509180">
        <ele>12.8</ele>
        <time>2020-12-22T13:52:39Z</time>
      </trkpt>
      <trkpt lat="37.1801680" lon="-7.4509180">
        <ele>12.8</ele>
        <time>2020-12-22T13:52:40Z</time>
      </trkpt>
      <trkpt lat="37.1801570" lon="-7.4509260">
        <ele>12.8</ele>
        <time>2020-12-22T13:52:41Z</time>
      </trkpt>
      <trkpt lat="37.1801450" lon="-7.4509410">
        <ele>12.8</ele>
        <time>2020-12-22T13:52:42Z</time>
      </trkpt>
      <trkpt lat="37.1801380" lon="-7.4509610">
        <ele>12.8</ele>
        <time>2020-12-22T13:52:43Z</time>
      </trkpt>
      <trkpt lat="37.1801300" lon="-7.4509810">
        <ele>12.8</ele>
        <time>2020-12-22T13:52:44Z</time>
      </trkpt>
      <trkpt lat="37.1801260" lon="-7.4510000">
        <ele>12.8</ele>
        <time>2020-12-22T13:52:45Z</time>
      </trkpt>
      <trkpt lat="37.1801220" lon="-7.4510150">
        <ele>12.8</ele>
        <time>2020-12-22T13:52:46Z</time>
      </trkpt>
      <trkpt lat="37.1801150" lon="-7.4510270">
        <ele>12.7</ele>
        <time>2020-12-22T13:52:47Z</time>
      </trkpt>
      <trkpt lat="37.1801110" lon="-7.4510310">
        <ele>12.7</ele>
        <time>2020-12-22T13:52:48Z</time>
      </trkpt>
      <trkpt lat="37.1801110" lon="-7.4510300">
        <ele>12.7</ele>
        <time>2020-12-22T13:52:49Z</time>
      </trkpt>
      <trkpt lat="37.1801070" lon="-7.4510300">
        <ele>12.7</ele>
        <time>2020-12-22T13:52:50Z</time>
      </trkpt>
      <trkpt lat="37.1801070" lon="-7.4510300">
        <ele>12.7</ele>
        <time>2020-12-22T13:52:51Z</time>
      </trkpt>
      <trkpt lat="37.1801070" lon="-7.4510300">
        <ele>12.7</ele>
        <time>2020-12-22T13:52:52Z</time>
      </trkpt>
      <trkpt lat="37.1800960" lon="-7.4511050">
        <ele>12.7</ele>
        <time>2020-12-22T13:53:16Z</time>
      </trkpt>
      <trkpt lat="37.1800880" lon="-7.4511230">
        <ele>12.8</ele>
        <time>2020-12-22T13:53:17Z</time>
      </trkpt>
      <trkpt lat="37.1800800" lon="-7.4511410">
        <ele>12.8</ele>
        <time>2020-12-22T13:53:18Z</time>
      </trkpt>
      <trkpt lat="37.1800730" lon="-7.4511590">
        <ele>12.8</ele>
        <time>2020-12-22T13:53:19Z</time>
      </trkpt>
      <trkpt lat="37.1800690" lon="-7.4511790">
        <ele>12.8</ele>
        <time>2020-12-22T13:53:20Z</time>
      </trkpt>
      <trkpt lat="37.1800650" lon="-7.4512000">
        <ele>12.8</ele>
        <time>2020-12-22T13:53:21Z</time>
      </trkpt>
      <trkpt lat="37.1800610" lon="-7.4512260">
        <ele>12.7</ele>
        <time>2020-12-22T13:53:22Z</time>
      </trkpt>
      <trkpt lat="37.1800540" lon="-7.4512530">
        <ele>12.7</ele>
        <time>2020-12-22T13:53:23Z</time>
      </trkpt>
      <trkpt lat="37.1800420" lon="-7.4512830">
        <ele>12.7</ele>
        <time>2020-12-22T13:53:24Z</time>
      </trkpt>
      <trkpt lat="37.1800350" lon="-7.4513120">
        <ele>12.7</ele>
        <time>2020-12-22T13:53:25Z</time>
      </trkpt>
      <trkpt lat="37.1800270" lon="-7.4513400">
        <ele>12.7</ele>
        <time>2020-12-22T13:53:26Z</time>
      </trkpt>
      <trkpt lat="37.1800230" lon="-7.4513760">
        <ele>12.7</ele>
        <time>2020-12-22T13:53:27Z</time>
      </trkpt>
      <trkpt lat="37.1800270" lon="-7.4514220">
        <ele>12.7</ele>
        <time>2020-12-22T13:53:28Z</time>
      </trkpt>
      <trkpt lat="37.1800230" lon="-7.4514480">
        <ele>12.8</ele>
        <time>2020-12-22T13:53:29Z</time>
      </trkpt>
      <trkpt lat="37.1800120" lon="-7.4514780">
        <ele>12.8</ele>
        <time>2020-12-22T13:53:30Z</time>
      </trkpt>
      <trkpt lat="37.1800080" lon="-7.4515130">
        <ele>12.9</ele>
        <time>2020-12-22T13:53:31Z</time>
      </trkpt>
      <trkpt lat="37.1800080" lon="-7.4515450">
        <ele>12.9</ele>
        <time>2020-12-22T13:53:32Z</time>
      </trkpt>
      <trkpt lat="37.1800080" lon="-7.4515790">
        <ele>12.4</ele>
        <time>2020-12-22T13:53:33Z</time>
      </trkpt>
      <trkpt lat="37.1799930" lon="-7.4516090">
        <ele>11.7</ele>
        <time>2020-12-22T13:53:34Z</time>
      </trkpt>
      <trkpt lat="37.1799810" lon="-7.4516380">
        <ele>11.7</ele>
        <time>2020-12-22T13:53:35Z</time>
      </trkpt>
      <trkpt lat="37.1799660" lon="-7.4516620">
        <ele>11.7</ele>
        <time>2020-12-22T13:53:36Z</time>
      </trkpt>
      <trkpt lat="37.1799470" lon="-7.4516780">
        <ele>11.7</ele>
        <time>2020-12-22T13:53:37Z</time>
      </trkpt>
      <trkpt lat="37.1799240" lon="-7.4516950">
        <ele>11.6</ele>
        <time>2020-12-22T13:53:38Z</time>
      </trkpt>
      <trkpt lat="37.1798970" lon="-7.4517090">
        <ele>11.6</ele>
        <time>2020-12-22T13:53:39Z</time>
      </trkpt>
      <trkpt lat="37.1798670" lon="-7.4517150">
        <ele>11.6</ele>
        <time>2020-12-22T13:53:40Z</time>
      </trkpt>
      <trkpt lat="37.1798400" lon="-7.4517150">
        <ele>11.6</ele>
        <time>2020-12-22T13:53:41Z</time>
      </trkpt>
      <trkpt lat="37.1798130" lon="-7.4517110">
        <ele>11.6</ele>
        <time>2020-12-22T13:53:42Z</time>
      </trkpt>
      <trkpt lat="37.1797830" lon="-7.4517030">
        <ele>11.5</ele>
        <time>2020-12-22T13:53:43Z</time>
      </trkpt>
      <trkpt lat="37.1797520" lon="-7.4516970">
        <ele>11.5</ele>
        <time>2020-12-22T13:53:44Z</time>
      </trkpt>
      <trkpt lat="37.1797260" lon="-7.4516970">
        <ele>11.5</ele>
        <time>2020-12-22T13:53:45Z</time>
      </trkpt>
      <trkpt lat="37.1796990" lon="-7.4516990">
        <ele>11.5</ele>
        <time>2020-12-22T13:53:46Z</time>
      </trkpt>
      <trkpt lat="37.1796720" lon="-7.4517050">
        <ele>11.4</ele>
        <time>2020-12-22T13:53:47Z</time>
      </trkpt>
      <trkpt lat="37.1796460" lon="-7.4517090">
        <ele>11.4</ele>
        <time>2020-12-22T13:53:48Z</time>
      </trkpt>
      <trkpt lat="37.1796190" lon="-7.4517080">
        <ele>11.3</ele>
        <time>2020-12-22T13:53:49Z</time>
      </trkpt>
      <trkpt lat="37.1795920" lon="-7.4517020">
        <ele>11.3</ele>
        <time>2020-12-22T13:53:50Z</time>
      </trkpt>
      <trkpt lat="37.1795770" lon="-7.4516940">
        <ele>11.3</ele>
        <time>2020-12-22T13:53:51Z</time>
      </trkpt>
      <trkpt lat="37.1795580" lon="-7.4516870">
        <ele>11.2</ele>
        <time>2020-12-22T13:53:52Z</time>
      </trkpt>
      <trkpt lat="37.1795390" lon="-7.4516850">
        <ele>11.1</ele>
        <time>2020-12-22T13:53:53Z</time>
      </trkpt>
      <trkpt lat="37.1795160" lon="-7.4516840">
        <ele>11.2</ele>
        <time>2020-12-22T13:53:54Z</time>
      </trkpt>
      <trkpt lat="37.1794930" lon="-7.4516810">
        <ele>11.4</ele>
        <time>2020-12-22T13:53:55Z</time>
      </trkpt>
      <trkpt lat="37.1794700" lon="-7.4516790">
        <ele>11.3</ele>
        <time>2020-12-22T13:53:56Z</time>
      </trkpt>
      <trkpt lat="37.1794470" lon="-7.4516780">
        <ele>11.2</ele>
        <time>2020-12-22T13:53:57Z</time>
      </trkpt>
      <trkpt lat="37.1794200" lon="-7.4516750">
        <ele>11.1</ele>
        <time>2020-12-22T13:53:58Z</time>
      </trkpt>
      <trkpt lat="37.1793980" lon="-7.4516660">
        <ele>11.0</ele>
        <time>2020-12-22T13:53:59Z</time>
      </trkpt>
      <trkpt lat="37.1793710" lon="-7.4516570">
        <ele>10.9</ele>
        <time>2020-12-22T13:54:00Z</time>
      </trkpt>
      <trkpt lat="37.1793440" lon="-7.4516480">
        <ele>10.8</ele>
        <time>2020-12-22T13:54:01Z</time>
      </trkpt>
      <trkpt lat="37.1793140" lon="-7.4516430">
        <ele>10.7</ele>
        <time>2020-12-22T13:54:02Z</time>
      </trkpt>
      <trkpt lat="37.1792870" lon="-7.4516350">
        <ele>10.7</ele>
        <time>2020-12-22T13:54:03Z</time>
      </trkpt>
      <trkpt lat="37.1792600" lon="-7.4516260">
        <ele>10.7</ele>
        <time>2020-12-22T13:54:04Z</time>
      </trkpt>
      <trkpt lat="37.1792370" lon="-7.4516150">
        <ele>10.7</ele>
        <time>2020-12-22T13:54:05Z</time>
      </trkpt>
      <trkpt lat="37.1792110" lon="-7.4515990">
        <ele>10.7</ele>
        <time>2020-12-22T13:54:06Z</time>
      </trkpt>
      <trkpt lat="37.1791840" lon="-7.4515720">
        <ele>9.1</ele>
        <time>2020-12-22T13:54:07Z</time>
      </trkpt>
      <trkpt lat="37.1791610" lon="-7.4515430">
        <ele>9.0</ele>
        <time>2020-12-22T13:54:08Z</time>
      </trkpt>
      <trkpt lat="37.1791380" lon="-7.4515120">
        <ele>8.9</ele>
        <time>2020-12-22T13:54:09Z</time>
      </trkpt>
      <trkpt lat="37.1791190" lon="-7.4514780">
        <ele>8.8</ele>
        <time>2020-12-22T13:54:10Z</time>
      </trkpt>
      <trkpt lat="37.1791080" lon="-7.4514390">
        <ele>8.3</ele>
        <time>2020-12-22T13:54:11Z</time>
      </trkpt>
      <trkpt lat="37.1791040" lon="-7.4514000">
        <ele>8.3</ele>
        <time>2020-12-22T13:54:12Z</time>
      </trkpt>
      <trkpt lat="37.1791040" lon="-7.4513640">
        <ele>8.3</ele>
        <time>2020-12-22T13:54:13Z</time>
      </trkpt>
      <trkpt lat="37.1791080" lon="-7.4513290">
        <ele>8.3</ele>
        <time>2020-12-22T13:54:14Z</time>
      </trkpt>
      <trkpt lat="37.1791120" lon="-7.4512950">
        <ele>8.3</ele>
        <time>2020-12-22T13:54:15Z</time>
      </trkpt>
      <trkpt lat="37.1791150" lon="-7.4512590">
        <ele>8.3</ele>
        <time>2020-12-22T13:54:16Z</time>
      </trkpt>
      <trkpt lat="37.1791190" lon="-7.4512200">
        <ele>8.3</ele>
        <time>2020-12-22T13:54:17Z</time>
      </trkpt>
      <trkpt lat="37.1791230" lon="-7.4511790">
        <ele>8.3</ele>
        <time>2020-12-22T13:54:18Z</time>
      </trkpt>
      <trkpt lat="37.1791270" lon="-7.4511350">
        <ele>8.3</ele>
        <time>2020-12-22T13:54:19Z</time>
      </trkpt>
      <trkpt lat="37.1791310" lon="-7.4510900">
        <ele>8.3</ele>
        <time>2020-12-22T13:54:20Z</time>
      </trkpt>
      <trkpt lat="37.1791340" lon="-7.4510470">
        <ele>8.3</ele>
        <time>2020-12-22T13:54:21Z</time>
      </trkpt>
      <trkpt lat="37.1791420" lon="-7.4510060">
        <ele>8.3</ele>
        <time>2020-12-22T13:54:22Z</time>
      </trkpt>
      <trkpt lat="37.1791460" lon="-7.4509670">
        <ele>8.3</ele>
        <time>2020-12-22T13:54:23Z</time>
      </trkpt>
      <trkpt lat="37.1791500" lon="-7.4509310">
        <ele>8.2</ele>
        <time>2020-12-22T13:54:24Z</time>
      </trkpt>
      <trkpt lat="37.1791500" lon="-7.4508940">
        <ele>8.2</ele>
        <time>2020-12-22T13:54:25Z</time>
      </trkpt>
      <trkpt lat="37.1791570" lon="-7.4508600">
        <ele>8.2</ele>
        <time>2020-12-22T13:54:26Z</time>
      </trkpt>
      <trkpt lat="37.1791610" lon="-7.4508290">
        <ele>8.2</ele>
        <time>2020-12-22T13:54:27Z</time>
      </trkpt>
      <trkpt lat="37.1791690" lon="-7.4507980">
        <ele>8.2</ele>
        <time>2020-12-22T13:54:28Z</time>
      </trkpt>
      <trkpt lat="37.1791760" lon="-7.4507660">
        <ele>8.2</ele>
        <time>2020-12-22T13:54:29Z</time>
      </trkpt>
      <trkpt lat="37.1791800" lon="-7.4507330">
        <ele>8.2</ele>
        <time>2020-12-22T13:54:30Z</time>
      </trkpt>
      <trkpt lat="37.1791880" lon="-7.4506960">
        <ele>8.1</ele>
        <time>2020-12-22T13:54:31Z</time>
      </trkpt>
      <trkpt lat="37.1791920" lon="-7.4506580">
        <ele>8.1</ele>
        <time>2020-12-22T13:54:32Z</time>
      </trkpt>
      <trkpt lat="37.1791950" lon="-7.4506220">
        <ele>8.1</ele>
        <time>2020-12-22T13:54:33Z</time>
      </trkpt>
      <trkpt lat="37.1791990" lon="-7.4505880">
        <ele>8.1</ele>
        <time>2020-12-22T13:54:34Z</time>
      </trkpt>
      <trkpt lat="37.1792070" lon="-7.4505560">
        <ele>8.1</ele>
        <time>2020-12-22T13:54:35Z</time>
      </trkpt>
      <trkpt lat="37.1792110" lon="-7.4505210">
        <ele>8.1</ele>
        <time>2020-12-22T13:54:36Z</time>
      </trkpt>
      <trkpt lat="37.1792180" lon="-7.4504820">
        <ele>8.1</ele>
        <time>2020-12-22T13:54:37Z</time>
      </trkpt>
      <trkpt lat="37.1792260" lon="-7.4504420">
        <ele>8.1</ele>
        <time>2020-12-22T13:54:38Z</time>
      </trkpt>
      <trkpt lat="37.1792340" lon="-7.4504010">
        <ele>8.1</ele>
        <time>2020-12-22T13:54:39Z</time>
      </trkpt>
      <trkpt lat="37.1792450" lon="-7.4503620">
        <ele>8.1</ele>
        <time>2020-12-22T13:54:40Z</time>
      </trkpt>
      <trkpt lat="37.1792530" lon="-7.4503240">
        <ele>8.1</ele>
        <time>2020-12-22T13:54:41Z</time>
      </trkpt>
      <trkpt lat="37.1792560" lon="-7.4502870">
        <ele>8.1</ele>
        <time>2020-12-22T13:54:42Z</time>
      </trkpt>
      <trkpt lat="37.1792640" lon="-7.4502510">
        <ele>8.1</ele>
        <time>2020-12-22T13:54:43Z</time>
      </trkpt>
      <trkpt lat="37.1792720" lon="-7.4502160">
        <ele>8.0</ele>
        <time>2020-12-22T13:54:44Z</time>
      </trkpt>
      <trkpt lat="37.1792750" lon="-7.4501830">
        <ele>8.0</ele>
        <time>2020-12-22T13:54:45Z</time>
      </trkpt>
      <trkpt lat="37.1792790" lon="-7.4501510">
        <ele>8.0</ele>
        <time>2020-12-22T13:54:46Z</time>
      </trkpt>
      <trkpt lat="37.1792830" lon="-7.4501200">
        <ele>8.0</ele>
        <time>2020-12-22T13:54:47Z</time>
      </trkpt>
      <trkpt lat="37.1792830" lon="-7.4500920">
        <ele>8.0</ele>
        <time>2020-12-22T13:54:48Z</time>
      </trkpt>
      <trkpt lat="37.1792830" lon="-7.4500670">
        <ele>8.0</ele>
        <time>2020-12-22T13:54:49Z</time>
      </trkpt>
      <trkpt lat="37.1792870" lon="-7.4500440">
        <ele>8.0</ele>
        <time>2020-12-22T13:54:50Z</time>
      </trkpt>
      <trkpt lat="37.1792910" lon="-7.4500230">
        <ele>8.0</ele>
        <time>2020-12-22T13:54:51Z</time>
      </trkpt>
      <trkpt lat="37.1792910" lon="-7.4500040">
        <ele>8.0</ele>
        <time>2020-12-22T13:54:52Z</time>
      </trkpt>
      <trkpt lat="37.1792910" lon="-7.4499850">
        <ele>8.0</ele>
        <time>2020-12-22T13:54:53Z</time>
      </trkpt>
      <trkpt lat="37.1792910" lon="-7.4499690">
        <ele>8.0</ele>
        <time>2020-12-22T13:54:54Z</time>
      </trkpt>
      <trkpt lat="37.1792870" lon="-7.4499550">
        <ele>8.0</ele>
        <time>2020-12-22T13:54:55Z</time>
      </trkpt>
      <trkpt lat="37.1792830" lon="-7.4499440">
        <ele>8.0</ele>
        <time>2020-12-22T13:54:56Z</time>
      </trkpt>
      <trkpt lat="37.1792870" lon="-7.4499350">
        <ele>8.0</ele>
        <time>2020-12-22T13:54:57Z</time>
      </trkpt>
      <trkpt lat="37.1792870" lon="-7.4499280">
        <ele>8.0</ele>
        <time>2020-12-22T13:54:58Z</time>
      </trkpt>
      <trkpt lat="37.1792790" lon="-7.4499010">
        <ele>8.0</ele>
        <time>2020-12-22T13:55:01Z</time>
      </trkpt>
      <trkpt lat="37.1792720" lon="-7.4498860">
        <ele>8.0</ele>
        <time>2020-12-22T13:55:02Z</time>
      </trkpt>
      <trkpt lat="37.1792680" lon="-7.4498750">
        <ele>8.0</ele>
        <time>2020-12-22T13:55:03Z</time>
      </trkpt>
      <trkpt lat="37.1792680" lon="-7.4498650">
        <ele>8.0</ele>
        <time>2020-12-22T13:55:04Z</time>
      </trkpt>
      <trkpt lat="37.1792680" lon="-7.4498540">
        <ele>8.0</ele>
        <time>2020-12-22T13:55:05Z</time>
      </trkpt>
      <trkpt lat="37.1792720" lon="-7.4498420">
        <ele>8.0</ele>
        <time>2020-12-22T13:55:06Z</time>
      </trkpt>
      <trkpt lat="37.1792720" lon="-7.4498290">
        <ele>8.0</ele>
        <time>2020-12-22T13:55:07Z</time>
      </trkpt>
      <trkpt lat="37.1792750" lon="-7.4498140">
        <ele>8.0</ele>
        <time>2020-12-22T13:55:08Z</time>
      </trkpt>
      <trkpt lat="37.1792750" lon="-7.4497990">
        <ele>8.0</ele>
        <time>2020-12-22T13:55:09Z</time>
      </trkpt>
      <trkpt lat="37.1792790" lon="-7.4497850">
        <ele>8.0</ele>
        <time>2020-12-22T13:55:10Z</time>
      </trkpt>
      <trkpt lat="37.1792790" lon="-7.4497710">
        <ele>8.0</ele>
        <time>2020-12-22T13:55:11Z</time>
      </trkpt>
      <trkpt lat="37.1792790" lon="-7.4497560">
        <ele>8.0</ele>
        <time>2020-12-22T13:55:12Z</time>
      </trkpt>
      <trkpt lat="37.1792830" lon="-7.4497440">
        <ele>8.0</ele>
        <time>2020-12-22T13:55:13Z</time>
      </trkpt>
      <trkpt lat="37.1792830" lon="-7.4497290">
        <ele>8.0</ele>
        <time>2020-12-22T13:55:14Z</time>
      </trkpt>
      <trkpt lat="37.1792870" lon="-7.4497060">
        <ele>8.0</ele>
        <time>2020-12-22T13:55:15Z</time>
      </trkpt>
      <trkpt lat="37.1792910" lon="-7.4496770">
        <ele>8.0</ele>
        <time>2020-12-22T13:55:16Z</time>
      </trkpt>
      <trkpt lat="37.1792950" lon="-7.4496460">
        <ele>8.0</ele>
        <time>2020-12-22T13:55:17Z</time>
      </trkpt>
      <trkpt lat="37.1792980" lon="-7.4496140">
        <ele>8.0</ele>
        <time>2020-12-22T13:55:18Z</time>
      </trkpt>
      <trkpt lat="37.1793060" lon="-7.4495820">
        <ele>8.0</ele>
        <time>2020-12-22T13:55:19Z</time>
      </trkpt>
      <trkpt lat="37.1793100" lon="-7.4495520">
        <ele>8.0</ele>
        <time>2020-12-22T13:55:20Z</time>
      </trkpt>
      <trkpt lat="37.1793140" lon="-7.4495220">
        <ele>8.0</ele>
        <time>2020-12-22T13:55:21Z</time>
      </trkpt>
      <trkpt lat="37.1793140" lon="-7.4494930">
        <ele>8.0</ele>
        <time>2020-12-22T13:55:22Z</time>
      </trkpt>
      <trkpt lat="37.1792950" lon="-7.4494700">
        <ele>8.0</ele>
        <time>2020-12-22T13:55:23Z</time>
      </trkpt>
      <trkpt lat="37.1792680" lon="-7.4494510">
        <ele>8.0</ele>
        <time>2020-12-22T13:55:24Z</time>
      </trkpt>
      <trkpt lat="37.1792490" lon="-7.4494210">
        <ele>8.0</ele>
        <time>2020-12-22T13:55:25Z</time>
      </trkpt>
      <trkpt lat="37.1792450" lon="-7.4493840">
        <ele>8.0</ele>
        <time>2020-12-22T13:55:26Z</time>
      </trkpt>
      <trkpt lat="37.1792490" lon="-7.4493480">
        <ele>8.0</ele>
        <time>2020-12-22T13:55:27Z</time>
      </trkpt>
      <trkpt lat="37.1792530" lon="-7.4493140">
        <ele>8.0</ele>
        <time>2020-12-22T13:55:28Z</time>
      </trkpt>
      <trkpt lat="37.1792560" lon="-7.4492800">
        <ele>8.0</ele>
        <time>2020-12-22T13:55:29Z</time>
      </trkpt>
      <trkpt lat="37.1792560" lon="-7.4492470">
        <ele>8.0</ele>
        <time>2020-12-22T13:55:30Z</time>
      </trkpt>
      <trkpt lat="37.1792600" lon="-7.4492140">
        <ele>8.0</ele>
        <time>2020-12-22T13:55:31Z</time>
      </trkpt>
      <trkpt lat="37.1792600" lon="-7.4491820">
        <ele>8.0</ele>
        <time>2020-12-22T13:55:32Z</time>
      </trkpt>
      <trkpt lat="37.1792640" lon="-7.4491510">
        <ele>8.0</ele>
        <time>2020-12-22T13:55:33Z</time>
      </trkpt>
      <trkpt lat="37.1792680" lon="-7.4491210">
        <ele>8.0</ele>
        <time>2020-12-22T13:55:34Z</time>
      </trkpt>
      <trkpt lat="37.1792720" lon="-7.4490910">
        <ele>8.0</ele>
        <time>2020-12-22T13:55:35Z</time>
      </trkpt>
      <trkpt lat="37.1792750" lon="-7.4490640">
        <ele>8.0</ele>
        <time>2020-12-22T13:55:36Z</time>
      </trkpt>
      <trkpt lat="37.1792750" lon="-7.4490380">
        <ele>7.9</ele>
        <time>2020-12-22T13:55:37Z</time>
      </trkpt>
      <trkpt lat="37.1792750" lon="-7.4490120">
        <ele>7.9</ele>
        <time>2020-12-22T13:55:38Z</time>
      </trkpt>
      <trkpt lat="37.1792720" lon="-7.4489880">
        <ele>7.9</ele>
        <time>2020-12-22T13:55:39Z</time>
      </trkpt>
      <trkpt lat="37.1792720" lon="-7.4489650">
        <ele>7.9</ele>
        <time>2020-12-22T13:55:40Z</time>
      </trkpt>
      <trkpt lat="37.1792750" lon="-7.4489390">
        <ele>7.9</ele>
        <time>2020-12-22T13:55:41Z</time>
      </trkpt>
      <trkpt lat="37.1792790" lon="-7.4489150">
        <ele>7.9</ele>
        <time>2020-12-22T13:55:42Z</time>
      </trkpt>
      <trkpt lat="37.1792830" lon="-7.4488920">
        <ele>7.9</ele>
        <time>2020-12-22T13:55:43Z</time>
      </trkpt>
      <trkpt lat="37.1792950" lon="-7.4488700">
        <ele>7.9</ele>
        <time>2020-12-22T13:55:44Z</time>
      </trkpt>
      <trkpt lat="37.1793060" lon="-7.4488530">
        <ele>7.9</ele>
        <time>2020-12-22T13:55:45Z</time>
      </trkpt>
      <trkpt lat="37.1793100" lon="-7.4488380">
        <ele>7.9</ele>
        <time>2020-12-22T13:55:46Z</time>
      </trkpt>
      <trkpt lat="37.1793140" lon="-7.4488240">
        <ele>7.9</ele>
        <time>2020-12-22T13:55:47Z</time>
      </trkpt>
      <trkpt lat="37.1793170" lon="-7.4488110">
        <ele>7.9</ele>
        <time>2020-12-22T13:55:48Z</time>
      </trkpt>
      <trkpt lat="37.1793140" lon="-7.4487940">
        <ele>7.9</ele>
        <time>2020-12-22T13:55:49Z</time>
      </trkpt>
      <trkpt lat="37.1793140" lon="-7.4487720">
        <ele>7.9</ele>
        <time>2020-12-22T13:55:50Z</time>
      </trkpt>
      <trkpt lat="37.1793100" lon="-7.4487490">
        <ele>7.9</ele>
        <time>2020-12-22T13:55:51Z</time>
      </trkpt>
      <trkpt lat="37.1793060" lon="-7.4487240">
        <ele>7.9</ele>
        <time>2020-12-22T13:55:52Z</time>
      </trkpt>
      <trkpt lat="37.1793060" lon="-7.4487010">
        <ele>7.9</ele>
        <time>2020-12-22T13:55:53Z</time>
      </trkpt>
      <trkpt lat="37.1793060" lon="-7.4486780">
        <ele>7.9</ele>
        <time>2020-12-22T13:55:54Z</time>
      </trkpt>
      <trkpt lat="37.1793060" lon="-7.4486580">
        <ele>7.9</ele>
        <time>2020-12-22T13:55:55Z</time>
      </trkpt>
      <trkpt lat="37.1793060" lon="-7.4486360">
        <ele>7.9</ele>
        <time>2020-12-22T13:55:56Z</time>
      </trkpt>
      <trkpt lat="37.1793020" lon="-7.4486150">
        <ele>7.9</ele>
        <time>2020-12-22T13:55:57Z</time>
      </trkpt>
      <trkpt lat="37.1792980" lon="-7.4485950">
        <ele>7.9</ele>
        <time>2020-12-22T13:55:58Z</time>
      </trkpt>
      <trkpt lat="37.1792910" lon="-7.4485740">
        <ele>7.9</ele>
        <time>2020-12-22T13:55:59Z</time>
      </trkpt>
      <trkpt lat="37.1792830" lon="-7.4485530">
        <ele>8.2</ele>
        <time>2020-12-22T13:56:00Z</time>
      </trkpt>
      <trkpt lat="37.1792640" lon="-7.4485410">
        <ele>8.7</ele>
        <time>2020-12-22T13:56:01Z</time>
      </trkpt>
      <trkpt lat="37.1792450" lon="-7.4485420">
        <ele>8.8</ele>
        <time>2020-12-22T13:56:02Z</time>
      </trkpt>
      <trkpt lat="37.1792370" lon="-7.4485600">
        <ele>8.9</ele>
        <time>2020-12-22T13:56:03Z</time>
      </trkpt>
      <trkpt lat="37.1792450" lon="-7.4485860">
        <ele>9.0</ele>
        <time>2020-12-22T13:56:04Z</time>
      </trkpt>
      <trkpt lat="37.1792560" lon="-7.4486020">
        <ele>9.0</ele>
        <time>2020-12-22T13:56:05Z</time>
      </trkpt>
      <trkpt lat="37.1792750" lon="-7.4486020">
        <ele>9.1</ele>
        <time>2020-12-22T13:56:06Z</time>
      </trkpt>
      <trkpt lat="37.1792910" lon="-7.4485890">
        <ele>9.2</ele>
        <time>2020-12-22T13:56:07Z</time>
      </trkpt>
      <trkpt lat="37.1792910" lon="-7.4485640">
        <ele>9.3</ele>
        <time>2020-12-22T13:56:08Z</time>
      </trkpt>
      <trkpt lat="37.1792830" lon="-7.4485400">
        <ele>9.3</ele>
        <time>2020-12-22T13:56:09Z</time>
      </trkpt>
      <trkpt lat="37.1792720" lon="-7.4485200">
        <ele>9.4</ele>
        <time>2020-12-22T13:56:10Z</time>
      </trkpt>
      <trkpt lat="37.1792560" lon="-7.4485070">
        <ele>9.5</ele>
        <time>2020-12-22T13:56:11Z</time>
      </trkpt>
      <trkpt lat="37.1792410" lon="-7.4485030">
        <ele>9.6</ele>
        <time>2020-12-22T13:56:12Z</time>
      </trkpt>
      <trkpt lat="37.1792260" lon="-7.4485080">
        <ele>9.6</ele>
        <time>2020-12-22T13:56:13Z</time>
      </trkpt>
      <trkpt lat="37.1792220" lon="-7.4485180">
        <ele>9.7</ele>
        <time>2020-12-22T13:56:14Z</time>
      </trkpt>
      <trkpt lat="37.1792260" lon="-7.4485360">
        <ele>9.7</ele>
        <time>2020-12-22T13:56:15Z</time>
      </trkpt>
      <trkpt lat="37.1792370" lon="-7.4485510">
        <ele>9.8</ele>
        <time>2020-12-22T13:56:16Z</time>
      </trkpt>
      <trkpt lat="37.1792560" lon="-7.4485550">
        <ele>9.9</ele>
        <time>2020-12-22T13:56:17Z</time>
      </trkpt>
      <trkpt lat="37.1792720" lon="-7.4485440">
        <ele>9.9</ele>
        <time>2020-12-22T13:56:18Z</time>
      </trkpt>
      <trkpt lat="37.1792750" lon="-7.4485160">
        <ele>10.0</ele>
        <time>2020-12-22T13:56:19Z</time>
      </trkpt>
      <trkpt lat="37.1792640" lon="-7.4484940">
        <ele>10.1</ele>
        <time>2020-12-22T13:56:20Z</time>
      </trkpt>
      <trkpt lat="37.1792410" lon="-7.4484920">
        <ele>10.2</ele>
        <time>2020-12-22T13:56:21Z</time>
      </trkpt>
      <trkpt lat="37.1792220" lon="-7.4485140">
        <ele>10.3</ele>
        <time>2020-12-22T13:56:22Z</time>
      </trkpt>
      <trkpt lat="37.1792030" lon="-7.4485440">
        <ele>10.4</ele>
        <time>2020-12-22T13:56:23Z</time>
      </trkpt>
      <trkpt lat="37.1791800" lon="-7.4485730">
        <ele>10.6</ele>
        <time>2020-12-22T13:56:24Z</time>
      </trkpt>
      <trkpt lat="37.1791500" lon="-7.4485930">
        <ele>10.7</ele>
        <time>2020-12-22T13:56:25Z</time>
      </trkpt>
      <trkpt lat="37.1791190" lon="-7.4486080">
        <ele>10.8</ele>
        <time>2020-12-22T13:56:26Z</time>
      </trkpt>
      <trkpt lat="37.1790810" lon="-7.4486160">
        <ele>11.0</ele>
        <time>2020-12-22T13:56:27Z</time>
      </trkpt>
      <trkpt lat="37.1790390" lon="-7.4486160">
        <ele>10.9</ele>
        <time>2020-12-22T13:56:28Z</time>
      </trkpt>
      <trkpt lat="37.1789970" lon="-7.4486080">
        <ele>10.6</ele>
        <time>2020-12-22T13:56:29Z</time>
      </trkpt>
      <trkpt lat="37.1789550" lon="-7.4485960">
        <ele>10.0</ele>
        <time>2020-12-22T13:56:30Z</time>
      </trkpt>
      <trkpt lat="37.1789170" lon="-7.4485670">
        <ele>9.0</ele>
        <time>2020-12-22T13:56:31Z</time>
      </trkpt>
      <trkpt lat="37.1788940" lon="-7.4485210">
        <ele>8.7</ele>
        <time>2020-12-22T13:56:32Z</time>
      </trkpt>
      <trkpt lat="37.1788900" lon="-7.4484680">
        <ele>8.4</ele>
        <time>2020-12-22T13:56:33Z</time>
      </trkpt>
      <trkpt lat="37.1788900" lon="-7.4484160">
        <ele>8.0</ele>
        <time>2020-12-22T13:56:34Z</time>
      </trkpt>
      <trkpt lat="37.1788940" lon="-7.4483670">
        <ele>7.5</ele>
        <time>2020-12-22T13:56:35Z</time>
      </trkpt>
      <trkpt lat="37.1789020" lon="-7.4483180">
        <ele>7.5</ele>
        <time>2020-12-22T13:56:36Z</time>
      </trkpt>
      <trkpt lat="37.1789050" lon="-7.4482730">
        <ele>7.5</ele>
        <time>2020-12-22T13:56:37Z</time>
      </trkpt>
      <trkpt lat="37.1789130" lon="-7.4482300">
        <ele>7.6</ele>
        <time>2020-12-22T13:56:38Z</time>
      </trkpt>
      <trkpt lat="37.1789210" lon="-7.4481880">
        <ele>7.6</ele>
        <time>2020-12-22T13:56:39Z</time>
      </trkpt>
      <trkpt lat="37.1789250" lon="-7.4481480">
        <ele>7.6</ele>
        <time>2020-12-22T13:56:40Z</time>
      </trkpt>
      <trkpt lat="37.1789320" lon="-7.4481110">
        <ele>7.6</ele>
        <time>2020-12-22T13:56:41Z</time>
      </trkpt>
      <trkpt lat="37.1789360" lon="-7.4480750">
        <ele>7.6</ele>
        <time>2020-12-22T13:56:42Z</time>
      </trkpt>
      <trkpt lat="37.1789440" lon="-7.4480390">
        <ele>7.6</ele>
        <time>2020-12-22T13:56:43Z</time>
      </trkpt>
      <trkpt lat="37.1789470" lon="-7.4480050">
        <ele>7.6</ele>
        <time>2020-12-22T13:56:44Z</time>
      </trkpt>
      <trkpt lat="37.1789550" lon="-7.4479710">
        <ele>7.6</ele>
        <time>2020-12-22T13:56:45Z</time>
      </trkpt>
      <trkpt lat="37.1789590" lon="-7.4479370">
        <ele>7.6</ele>
        <time>2020-12-22T13:56:46Z</time>
      </trkpt>
      <trkpt lat="37.1789630" lon="-7.4478990">
        <ele>7.6</ele>
        <time>2020-12-22T13:56:47Z</time>
      </trkpt>
      <trkpt lat="37.1789670" lon="-7.4478590">
        <ele>7.6</ele>
        <time>2020-12-22T13:56:48Z</time>
      </trkpt>
      <trkpt lat="37.1789700" lon="-7.4478190">
        <ele>7.6</ele>
        <time>2020-12-22T13:56:49Z</time>
      </trkpt>
      <trkpt lat="37.1789780" lon="-7.4477820">
        <ele>7.6</ele>
        <time>2020-12-22T13:56:50Z</time>
      </trkpt>
      <trkpt lat="37.1789820" lon="-7.4477460">
        <ele>7.6</ele>
        <time>2020-12-22T13:56:51Z</time>
      </trkpt>
      <trkpt lat="37.1789890" lon="-7.4477110">
        <ele>7.6</ele>
        <time>2020-12-22T13:56:52Z</time>
      </trkpt>
      <trkpt lat="37.1789970" lon="-7.4476760">
        <ele>7.6</ele>
        <time>2020-12-22T13:56:53Z</time>
      </trkpt>
      <trkpt lat="37.1790050" lon="-7.4476430">
        <ele>7.6</ele>
        <time>2020-12-22T13:56:54Z</time>
      </trkpt>
      <trkpt lat="37.1790160" lon="-7.4476160">
        <ele>7.6</ele>
        <time>2020-12-22T13:56:55Z</time>
      </trkpt>
      <trkpt lat="37.1790350" lon="-7.4475950">
        <ele>7.6</ele>
        <time>2020-12-22T13:56:56Z</time>
      </trkpt>
      <trkpt lat="37.1790580" lon="-7.4475810">
        <ele>7.7</ele>
        <time>2020-12-22T13:56:57Z</time>
      </trkpt>
      <trkpt lat="37.1790890" lon="-7.4475770">
        <ele>7.7</ele>
        <time>2020-12-22T13:56:58Z</time>
      </trkpt>
      <trkpt lat="37.1791150" lon="-7.4475760">
        <ele>7.7</ele>
        <time>2020-12-22T13:56:59Z</time>
      </trkpt>
      <trkpt lat="37.1791420" lon="-7.4475750">
        <ele>7.7</ele>
        <time>2020-12-22T13:57:00Z</time>
      </trkpt>
      <trkpt lat="37.1791650" lon="-7.4475710">
        <ele>7.7</ele>
        <time>2020-12-22T13:57:01Z</time>
      </trkpt>
      <trkpt lat="37.1791840" lon="-7.4475640">
        <ele>7.7</ele>
        <time>2020-12-22T13:57:02Z</time>
      </trkpt>
      <trkpt lat="37.1791990" lon="-7.4475520">
        <ele>7.7</ele>
        <time>2020-12-22T13:57:03Z</time>
      </trkpt>
      <trkpt lat="37.1792110" lon="-7.4475390">
        <ele>7.7</ele>
        <time>2020-12-22T13:57:04Z</time>
      </trkpt>
      <trkpt lat="37.1792260" lon="-7.4475290">
        <ele>7.7</ele>
        <time>2020-12-22T13:57:05Z</time>
      </trkpt>
      <trkpt lat="37.1792340" lon="-7.4475170">
        <ele>7.7</ele>
        <time>2020-12-22T13:57:06Z</time>
      </trkpt>
      <trkpt lat="37.1792450" lon="-7.4474940">
        <ele>7.7</ele>
        <time>2020-12-22T13:57:07Z</time>
      </trkpt>
      <trkpt lat="37.1792490" lon="-7.4474610">
        <ele>7.7</ele>
        <time>2020-12-22T13:57:08Z</time>
      </trkpt>
      <trkpt lat="37.1792490" lon="-7.4474250">
        <ele>7.7</ele>
        <time>2020-12-22T13:57:09Z</time>
      </trkpt>
      <trkpt lat="37.1792450" lon="-7.4473900">
        <ele>7.7</ele>
        <time>2020-12-22T13:57:10Z</time>
      </trkpt>
      <trkpt lat="37.1792410" lon="-7.4473540">
        <ele>7.7</ele>
        <time>2020-12-22T13:57:11Z</time>
      </trkpt>
      <trkpt lat="37.1792410" lon="-7.4473190">
        <ele>7.7</ele>
        <time>2020-12-22T13:57:12Z</time>
      </trkpt>
      <trkpt lat="37.1792340" lon="-7.4472860">
        <ele>7.7</ele>
        <time>2020-12-22T13:57:13Z</time>
      </trkpt>
      <trkpt lat="37.1792260" lon="-7.4472580">
        <ele>7.7</ele>
        <time>2020-12-22T13:57:14Z</time>
      </trkpt>
      <trkpt lat="37.1792180" lon="-7.4472300">
        <ele>7.7</ele>
        <time>2020-12-22T13:57:15Z</time>
      </trkpt>
      <trkpt lat="37.1792140" lon="-7.4471990">
        <ele>7.7</ele>
        <time>2020-12-22T13:57:16Z</time>
      </trkpt>
      <trkpt lat="37.1792110" lon="-7.4471630">
        <ele>7.7</ele>
        <time>2020-12-22T13:57:17Z</time>
      </trkpt>
      <trkpt lat="37.1792110" lon="-7.4471220">
        <ele>7.7</ele>
        <time>2020-12-22T13:57:18Z</time>
      </trkpt>
      <trkpt lat="37.1792110" lon="-7.4470800">
        <ele>7.7</ele>
        <time>2020-12-22T13:57:19Z</time>
      </trkpt>
      <trkpt lat="37.1792110" lon="-7.4470350">
        <ele>7.7</ele>
        <time>2020-12-22T13:57:20Z</time>
      </trkpt>
      <trkpt lat="37.1792110" lon="-7.4469900">
        <ele>7.7</ele>
        <time>2020-12-22T13:57:21Z</time>
      </trkpt>
      <trkpt lat="37.1792110" lon="-7.4469440">
        <ele>7.7</ele>
        <time>2020-12-22T13:57:22Z</time>
      </trkpt>
      <trkpt lat="37.1792070" lon="-7.4468990">
        <ele>7.7</ele>
        <time>2020-12-22T13:57:23Z</time>
      </trkpt>
      <trkpt lat="37.1792030" lon="-7.4468560">
        <ele>7.7</ele>
        <time>2020-12-22T13:57:24Z</time>
      </trkpt>
      <trkpt lat="37.1792030" lon="-7.4468140">
        <ele>7.7</ele>
        <time>2020-12-22T13:57:25Z</time>
      </trkpt>
      <trkpt lat="37.1792030" lon="-7.4467720">
        <ele>7.7</ele>
        <time>2020-12-22T13:57:26Z</time>
      </trkpt>
      <trkpt lat="37.1792030" lon="-7.4467310">
        <ele>7.7</ele>
        <time>2020-12-22T13:57:27Z</time>
      </trkpt>
      <trkpt lat="37.1791990" lon="-7.4466930">
        <ele>7.7</ele>
        <time>2020-12-22T13:57:28Z</time>
      </trkpt>
      <trkpt lat="37.1791990" lon="-7.4466550">
        <ele>7.7</ele>
        <time>2020-12-22T13:57:29Z</time>
      </trkpt>
      <trkpt lat="37.1791990" lon="-7.4466170">
        <ele>7.7</ele>
        <time>2020-12-22T13:57:30Z</time>
      </trkpt>
      <trkpt lat="37.1791920" lon="-7.4465810">
        <ele>7.7</ele>
        <time>2020-12-22T13:57:31Z</time>
      </trkpt>
      <trkpt lat="37.1791840" lon="-7.4465460">
        <ele>7.6</ele>
        <time>2020-12-22T13:57:32Z</time>
      </trkpt>
      <trkpt lat="37.1791800" lon="-7.4465110">
        <ele>7.6</ele>
        <time>2020-12-22T13:57:33Z</time>
      </trkpt>
      <trkpt lat="37.1791800" lon="-7.4464760">
        <ele>7.6</ele>
        <time>2020-12-22T13:57:34Z</time>
      </trkpt>
      <trkpt lat="37.1791760" lon="-7.4464420">
        <ele>7.6</ele>
        <time>2020-12-22T13:57:35Z</time>
      </trkpt>
      <trkpt lat="37.1791760" lon="-7.4464080">
        <ele>7.6</ele>
        <time>2020-12-22T13:57:36Z</time>
      </trkpt>
      <trkpt lat="37.1791760" lon="-7.4463750">
        <ele>7.6</ele>
        <time>2020-12-22T13:57:37Z</time>
      </trkpt>
      <trkpt lat="37.1791760" lon="-7.4463430">
        <ele>7.6</ele>
        <time>2020-12-22T13:57:38Z</time>
      </trkpt>
      <trkpt lat="37.1791800" lon="-7.4463110">
        <ele>7.6</ele>
        <time>2020-12-22T13:57:39Z</time>
      </trkpt>
      <trkpt lat="37.1791800" lon="-7.4462780">
        <ele>7.6</ele>
        <time>2020-12-22T13:57:40Z</time>
      </trkpt>
      <trkpt lat="37.1791760" lon="-7.4462420">
        <ele>7.6</ele>
        <time>2020-12-22T13:57:41Z</time>
      </trkpt>
      <trkpt lat="37.1791760" lon="-7.4462030">
        <ele>7.6</ele>
        <time>2020-12-22T13:57:42Z</time>
      </trkpt>
      <trkpt lat="37.1791760" lon="-7.4461610">
        <ele>7.6</ele>
        <time>2020-12-22T13:57:43Z</time>
      </trkpt>
      <trkpt lat="37.1791730" lon="-7.4461190">
        <ele>7.6</ele>
        <time>2020-12-22T13:57:44Z</time>
      </trkpt>
      <trkpt lat="37.1791730" lon="-7.4460750">
        <ele>7.6</ele>
        <time>2020-12-22T13:57:45Z</time>
      </trkpt>
      <trkpt lat="37.1791730" lon="-7.4460320">
        <ele>7.6</ele>
        <time>2020-12-22T13:57:46Z</time>
      </trkpt>
      <trkpt lat="37.1791690" lon="-7.4459880">
        <ele>7.6</ele>
        <time>2020-12-22T13:57:47Z</time>
      </trkpt>
      <trkpt lat="37.1791650" lon="-7.4459440">
        <ele>7.6</ele>
        <time>2020-12-22T13:57:48Z</time>
      </trkpt>
      <trkpt lat="37.1791650" lon="-7.4459020">
        <ele>7.6</ele>
        <time>2020-12-22T13:57:49Z</time>
      </trkpt>
      <trkpt lat="37.1791610" lon="-7.4458620">
        <ele>7.6</ele>
        <time>2020-12-22T13:57:50Z</time>
      </trkpt>
      <trkpt lat="37.1791610" lon="-7.4458240">
        <ele>7.6</ele>
        <time>2020-12-22T13:57:51Z</time>
      </trkpt>
      <trkpt lat="37.1791610" lon="-7.4457860">
        <ele>7.6</ele>
        <time>2020-12-22T13:57:52Z</time>
      </trkpt>
      <trkpt lat="37.1791610" lon="-7.4457520">
        <ele>7.6</ele>
        <time>2020-12-22T13:57:53Z</time>
      </trkpt>
      <trkpt lat="37.1791570" lon="-7.4457160">
        <ele>7.6</ele>
        <time>2020-12-22T13:57:54Z</time>
      </trkpt>
      <trkpt lat="37.1791530" lon="-7.4456780">
        <ele>7.6</ele>
        <time>2020-12-22T13:57:55Z</time>
      </trkpt>
      <trkpt lat="37.1791500" lon="-7.4456400">
        <ele>7.6</ele>
        <time>2020-12-22T13:57:56Z</time>
      </trkpt>
      <trkpt lat="37.1791460" lon="-7.4456030">
        <ele>7.6</ele>
        <time>2020-12-22T13:57:57Z</time>
      </trkpt>
      <trkpt lat="37.1791420" lon="-7.4455680">
        <ele>7.6</ele>
        <time>2020-12-22T13:57:58Z</time>
      </trkpt>
      <trkpt lat="37.1791380" lon="-7.4455330">
        <ele>7.6</ele>
        <time>2020-12-22T13:57:59Z</time>
      </trkpt>
      <trkpt lat="37.1791380" lon="-7.4454990">
        <ele>7.6</ele>
        <time>2020-12-22T13:58:00Z</time>
      </trkpt>
      <trkpt lat="37.1791380" lon="-7.4454670">
        <ele>7.6</ele>
        <time>2020-12-22T13:58:01Z</time>
      </trkpt>
      <trkpt lat="37.1791340" lon="-7.4454370">
        <ele>7.6</ele>
        <time>2020-12-22T13:58:02Z</time>
      </trkpt>
      <trkpt lat="37.1791340" lon="-7.4454050">
        <ele>7.6</ele>
        <time>2020-12-22T13:58:03Z</time>
      </trkpt>
      <trkpt lat="37.1791310" lon="-7.4453710">
        <ele>7.6</ele>
        <time>2020-12-22T13:58:04Z</time>
      </trkpt>
      <trkpt lat="37.1791270" lon="-7.4453340">
        <ele>7.6</ele>
        <time>2020-12-22T13:58:05Z</time>
      </trkpt>
      <trkpt lat="37.1791230" lon="-7.4452990">
        <ele>7.6</ele>
        <time>2020-12-22T13:58:06Z</time>
      </trkpt>
      <trkpt lat="37.1791190" lon="-7.4452650">
        <ele>7.6</ele>
        <time>2020-12-22T13:58:07Z</time>
      </trkpt>
      <trkpt lat="37.1791190" lon="-7.4452310">
        <ele>7.6</ele>
        <time>2020-12-22T13:58:08Z</time>
      </trkpt>
      <trkpt lat="37.1791190" lon="-7.4452000">
        <ele>7.6</ele>
        <time>2020-12-22T13:58:09Z</time>
      </trkpt>
      <trkpt lat="37.1791190" lon="-7.4451700">
        <ele>7.6</ele>
        <time>2020-12-22T13:58:10Z</time>
      </trkpt>
      <trkpt lat="37.1791150" lon="-7.4451400">
        <ele>7.6</ele>
        <time>2020-12-22T13:58:11Z</time>
      </trkpt>
      <trkpt lat="37.1791150" lon="-7.4451110">
        <ele>7.6</ele>
        <time>2020-12-22T13:58:12Z</time>
      </trkpt>
      <trkpt lat="37.1791120" lon="-7.4450830">
        <ele>7.6</ele>
        <time>2020-12-22T13:58:13Z</time>
      </trkpt>
      <trkpt lat="37.1791080" lon="-7.4450550">
        <ele>7.6</ele>
        <time>2020-12-22T13:58:14Z</time>
      </trkpt>
      <trkpt lat="37.1791080" lon="-7.4450270">
        <ele>7.6</ele>
        <time>2020-12-22T13:58:15Z</time>
      </trkpt>
      <trkpt lat="37.1791080" lon="-7.4449980">
        <ele>7.6</ele>
        <time>2020-12-22T13:58:16Z</time>
      </trkpt>
      <trkpt lat="37.1791080" lon="-7.4449660">
        <ele>7.6</ele>
        <time>2020-12-22T13:58:17Z</time>
      </trkpt>
      <trkpt lat="37.1791080" lon="-7.4449340">
        <ele>7.6</ele>
        <time>2020-12-22T13:58:18Z</time>
      </trkpt>
      <trkpt lat="37.1791080" lon="-7.4449020">
        <ele>7.6</ele>
        <time>2020-12-22T13:58:19Z</time>
      </trkpt>
      <trkpt lat="37.1791080" lon="-7.4448710">
        <ele>7.6</ele>
        <time>2020-12-22T13:58:20Z</time>
      </trkpt>
      <trkpt lat="37.1791120" lon="-7.4448410">
        <ele>7.6</ele>
        <time>2020-12-22T13:58:21Z</time>
      </trkpt>
      <trkpt lat="37.1791150" lon="-7.4448120">
        <ele>7.6</ele>
        <time>2020-12-22T13:58:22Z</time>
      </trkpt>
      <trkpt lat="37.1791190" lon="-7.4447860">
        <ele>7.6</ele>
        <time>2020-12-22T13:58:23Z</time>
      </trkpt>
      <trkpt lat="37.1791230" lon="-7.4447580">
        <ele>7.6</ele>
        <time>2020-12-22T13:58:24Z</time>
      </trkpt>
      <trkpt lat="37.1791230" lon="-7.4447320">
        <ele>7.6</ele>
        <time>2020-12-22T13:58:25Z</time>
      </trkpt>
      <trkpt lat="37.1791190" lon="-7.4447050">
        <ele>7.6</ele>
        <time>2020-12-22T13:58:26Z</time>
      </trkpt>
      <trkpt lat="37.1791270" lon="-7.4446810">
        <ele>7.6</ele>
        <time>2020-12-22T13:58:27Z</time>
      </trkpt>
      <trkpt lat="37.1791310" lon="-7.4446540">
        <ele>7.6</ele>
        <time>2020-12-22T13:58:28Z</time>
      </trkpt>
      <trkpt lat="37.1791340" lon="-7.4446240">
        <ele>7.6</ele>
        <time>2020-12-22T13:58:29Z</time>
      </trkpt>
      <trkpt lat="37.1791340" lon="-7.4445910">
        <ele>7.6</ele>
        <time>2020-12-22T13:58:30Z</time>
      </trkpt>
      <trkpt lat="37.1791380" lon="-7.4445600">
        <ele>7.6</ele>
        <time>2020-12-22T13:58:31Z</time>
      </trkpt>
      <trkpt lat="37.1791380" lon="-7.4445300">
        <ele>7.6</ele>
        <time>2020-12-22T13:58:32Z</time>
      </trkpt>
      <trkpt lat="37.1791420" lon="-7.4445000">
        <ele>7.6</ele>
        <time>2020-12-22T13:58:33Z</time>
      </trkpt>
      <trkpt lat="37.1791420" lon="-7.4444700">
        <ele>7.6</ele>
        <time>2020-12-22T13:58:34Z</time>
      </trkpt>
      <trkpt lat="37.1791420" lon="-7.4444390">
        <ele>7.6</ele>
        <time>2020-12-22T13:58:35Z</time>
      </trkpt>
      <trkpt lat="37.1791420" lon="-7.4444090">
        <ele>7.6</ele>
        <time>2020-12-22T13:58:36Z</time>
      </trkpt>
      <trkpt lat="37.1791380" lon="-7.4443790">
        <ele>7.7</ele>
        <time>2020-12-22T13:58:37Z</time>
      </trkpt>
      <trkpt lat="37.1791310" lon="-7.4443500">
        <ele>7.7</ele>
        <time>2020-12-22T13:58:38Z</time>
      </trkpt>
      <trkpt lat="37.1791270" lon="-7.4443220">
        <ele>7.7</ele>
        <time>2020-12-22T13:58:39Z</time>
      </trkpt>
      <trkpt lat="37.1791230" lon="-7.4442910">
        <ele>7.7</ele>
        <time>2020-12-22T13:58:40Z</time>
      </trkpt>
      <trkpt lat="37.1791190" lon="-7.4442570">
        <ele>7.8</ele>
        <time>2020-12-22T13:58:41Z</time>
      </trkpt>
      <trkpt lat="37.1791230" lon="-7.4442200">
        <ele>7.8</ele>
        <time>2020-12-22T13:58:42Z</time>
      </trkpt>
      <trkpt lat="37.1791310" lon="-7.4441820">
        <ele>7.8</ele>
        <time>2020-12-22T13:58:43Z</time>
      </trkpt>
      <trkpt lat="37.1791460" lon="-7.4441470">
        <ele>7.8</ele>
        <time>2020-12-22T13:58:44Z</time>
      </trkpt>
      <trkpt lat="37.1791610" lon="-7.4441150">
        <ele>7.9</ele>
        <time>2020-12-22T13:58:45Z</time>
      </trkpt>
      <trkpt lat="37.1791760" lon="-7.4440840">
        <ele>7.9</ele>
        <time>2020-12-22T13:58:46Z</time>
      </trkpt>
      <trkpt lat="37.1791880" lon="-7.4440530">
        <ele>7.9</ele>
        <time>2020-12-22T13:58:47Z</time>
      </trkpt>
      <trkpt lat="37.1791950" lon="-7.4440200">
        <ele>7.9</ele>
        <time>2020-12-22T13:58:48Z</time>
      </trkpt>
      <trkpt lat="37.1791990" lon="-7.4439870">
        <ele>7.9</ele>
        <time>2020-12-22T13:58:49Z</time>
      </trkpt>
      <trkpt lat="37.1791990" lon="-7.4439540">
        <ele>7.9</ele>
        <time>2020-12-22T13:58:50Z</time>
      </trkpt>
      <trkpt lat="37.1791990" lon="-7.4439230">
        <ele>7.9</ele>
        <time>2020-12-22T13:58:51Z</time>
      </trkpt>
      <trkpt lat="37.1792030" lon="-7.4438890">
        <ele>7.9</ele>
        <time>2020-12-22T13:58:52Z</time>
      </trkpt>
      <trkpt lat="37.1792070" lon="-7.4438550">
        <ele>7.9</ele>
        <time>2020-12-22T13:58:53Z</time>
      </trkpt>
      <trkpt lat="37.1792140" lon="-7.4438180">
        <ele>7.9</ele>
        <time>2020-12-22T13:58:54Z</time>
      </trkpt>
      <trkpt lat="37.1792220" lon="-7.4437800">
        <ele>7.9</ele>
        <time>2020-12-22T13:58:55Z</time>
      </trkpt>
      <trkpt lat="37.1792340" lon="-7.4437430">
        <ele>7.9</ele>
        <time>2020-12-22T13:58:56Z</time>
      </trkpt>
      <trkpt lat="37.1792370" lon="-7.4437050">
        <ele>7.9</ele>
        <time>2020-12-22T13:58:57Z</time>
      </trkpt>
      <trkpt lat="37.1792410" lon="-7.4436670">
        <ele>7.9</ele>
        <time>2020-12-22T13:58:58Z</time>
      </trkpt>
      <trkpt lat="37.1792490" lon="-7.4436320">
        <ele>7.9</ele>
        <time>2020-12-22T13:58:59Z</time>
      </trkpt>
      <trkpt lat="37.1792530" lon="-7.4435980">
        <ele>7.9</ele>
        <time>2020-12-22T13:59:00Z</time>
      </trkpt>
      <trkpt lat="37.1792560" lon="-7.4435630">
        <ele>7.9</ele>
        <time>2020-12-22T13:59:01Z</time>
      </trkpt>
      <trkpt lat="37.1792600" lon="-7.4435280">
        <ele>7.8</ele>
        <time>2020-12-22T13:59:02Z</time>
      </trkpt>
      <trkpt lat="37.1792640" lon="-7.4434930">
        <ele>7.8</ele>
        <time>2020-12-22T13:59:03Z</time>
      </trkpt>
      <trkpt lat="37.1792720" lon="-7.4434600">
        <ele>7.8</ele>
        <time>2020-12-22T13:59:04Z</time>
      </trkpt>
      <trkpt lat="37.1792830" lon="-7.4434230">
        <ele>7.8</ele>
        <time>2020-12-22T13:59:05Z</time>
      </trkpt>
      <trkpt lat="37.1792980" lon="-7.4433770">
        <ele>7.8</ele>
        <time>2020-12-22T13:59:06Z</time>
      </trkpt>
      <trkpt lat="37.1793140" lon="-7.4433220">
        <ele>7.7</ele>
        <time>2020-12-22T13:59:07Z</time>
      </trkpt>
      <trkpt lat="37.1793250" lon="-7.4432620">
        <ele>7.7</ele>
        <time>2020-12-22T13:59:08Z</time>
      </trkpt>
      <trkpt lat="37.1793330" lon="-7.4431970">
        <ele>7.7</ele>
        <time>2020-12-22T13:59:09Z</time>
      </trkpt>
      <trkpt lat="37.1793480" lon="-7.4431440">
        <ele>7.6</ele>
        <time>2020-12-22T13:59:10Z</time>
      </trkpt>
      <trkpt lat="37.1793590" lon="-7.4430930">
        <ele>7.6</ele>
        <time>2020-12-22T13:59:11Z</time>
      </trkpt>
      <trkpt lat="37.1793710" lon="-7.4430480">
        <ele>7.6</ele>
        <time>2020-12-22T13:59:12Z</time>
      </trkpt>
      <trkpt lat="37.1793820" lon="-7.4430030">
        <ele>7.6</ele>
        <time>2020-12-22T13:59:13Z</time>
      </trkpt>
      <trkpt lat="37.1793940" lon="-7.4429620">
        <ele>7.5</ele>
        <time>2020-12-22T13:59:14Z</time>
      </trkpt>
      <trkpt lat="37.1794050" lon="-7.4429240">
        <ele>7.5</ele>
        <time>2020-12-22T13:59:15Z</time>
      </trkpt>
      <trkpt lat="37.1794170" lon="-7.4428870">
        <ele>7.5</ele>
        <time>2020-12-22T13:59:16Z</time>
      </trkpt>
      <trkpt lat="37.1794240" lon="-7.4428520">
        <ele>7.5</ele>
        <time>2020-12-22T13:59:17Z</time>
      </trkpt>
      <trkpt lat="37.1794360" lon="-7.4428180">
        <ele>7.4</ele>
        <time>2020-12-22T13:59:18Z</time>
      </trkpt>
      <trkpt lat="37.1794470" lon="-7.4427830">
        <ele>7.4</ele>
        <time>2020-12-22T13:59:19Z</time>
      </trkpt>
      <trkpt lat="37.1794590" lon="-7.4427490">
        <ele>7.4</ele>
        <time>2020-12-22T13:59:20Z</time>
      </trkpt>
      <trkpt lat="37.1794660" lon="-7.4427150">
        <ele>7.4</ele>
        <time>2020-12-22T13:59:21Z</time>
      </trkpt>
      <trkpt lat="37.1794740" lon="-7.4426800">
        <ele>7.4</ele>
        <time>2020-12-22T13:59:22Z</time>
      </trkpt>
      <trkpt lat="37.1794850" lon="-7.4426450">
        <ele>7.4</ele>
        <time>2020-12-22T13:59:23Z</time>
      </trkpt>
      <trkpt lat="37.1794930" lon="-7.4426100">
        <ele>7.3</ele>
        <time>2020-12-22T13:59:24Z</time>
      </trkpt>
      <trkpt lat="37.1795040" lon="-7.4425730">
        <ele>7.3</ele>
        <time>2020-12-22T13:59:25Z</time>
      </trkpt>
      <trkpt lat="37.1795160" lon="-7.4425370">
        <ele>7.3</ele>
        <time>2020-12-22T13:59:26Z</time>
      </trkpt>
      <trkpt lat="37.1795230" lon="-7.4425010">
        <ele>7.3</ele>
        <time>2020-12-22T13:59:27Z</time>
      </trkpt>
      <trkpt lat="37.1795350" lon="-7.4424660">
        <ele>7.3</ele>
        <time>2020-12-22T13:59:28Z</time>
      </trkpt>
      <trkpt lat="37.1795430" lon="-7.4424300">
        <ele>7.3</ele>
        <time>2020-12-22T13:59:29Z</time>
      </trkpt>
      <trkpt lat="37.1795500" lon="-7.4423960">
        <ele>7.3</ele>
        <time>2020-12-22T13:59:30Z</time>
      </trkpt>
      <trkpt lat="37.1795620" lon="-7.4423620">
        <ele>7.3</ele>
        <time>2020-12-22T13:59:31Z</time>
      </trkpt>
      <trkpt lat="37.1795690" lon="-7.4423290">
        <ele>7.3</ele>
        <time>2020-12-22T13:59:32Z</time>
      </trkpt>
      <trkpt lat="37.1795810" lon="-7.4422950">
        <ele>7.3</ele>
        <time>2020-12-22T13:59:33Z</time>
      </trkpt>
      <trkpt lat="37.1795880" lon="-7.4422540">
        <ele>7.2</ele>
        <time>2020-12-22T13:59:34Z</time>
      </trkpt>
      <trkpt lat="37.1796000" lon="-7.4422060">
        <ele>7.2</ele>
        <time>2020-12-22T13:59:35Z</time>
      </trkpt>
      <trkpt lat="37.1796070" lon="-7.4421580">
        <ele>7.2</ele>
        <time>2020-12-22T13:59:36Z</time>
      </trkpt>
      <trkpt lat="37.1796230" lon="-7.4421120">
        <ele>7.2</ele>
        <time>2020-12-22T13:59:37Z</time>
      </trkpt>
      <trkpt lat="37.1796380" lon="-7.4420700">
        <ele>7.2</ele>
        <time>2020-12-22T13:59:38Z</time>
      </trkpt>
      <trkpt lat="37.1796570" lon="-7.4420340">
        <ele>7.2</ele>
        <time>2020-12-22T13:59:39Z</time>
      </trkpt>
      <trkpt lat="37.1796720" lon="-7.4419980">
        <ele>7.2</ele>
        <time>2020-12-22T13:59:40Z</time>
      </trkpt>
      <trkpt lat="37.1796720" lon="-7.4419590">
        <ele>7.2</ele>
        <time>2020-12-22T13:59:41Z</time>
      </trkpt>
      <trkpt lat="37.1796800" lon="-7.4419210">
        <ele>7.2</ele>
        <time>2020-12-22T13:59:42Z</time>
      </trkpt>
      <trkpt lat="37.1796880" lon="-7.4418850">
        <ele>7.2</ele>
        <time>2020-12-22T13:59:43Z</time>
      </trkpt>
      <trkpt lat="37.1796950" lon="-7.4418510">
        <ele>7.2</ele>
        <time>2020-12-22T13:59:44Z</time>
      </trkpt>
      <trkpt lat="37.1797100" lon="-7.4418190">
        <ele>7.2</ele>
        <time>2020-12-22T13:59:45Z</time>
      </trkpt>
      <trkpt lat="37.1797220" lon="-7.4417890">
        <ele>7.2</ele>
        <time>2020-12-22T13:59:46Z</time>
      </trkpt>
      <trkpt lat="37.1797330" lon="-7.4417590">
        <ele>7.2</ele>
        <time>2020-12-22T13:59:47Z</time>
      </trkpt>
      <trkpt lat="37.1797410" lon="-7.4417300">
        <ele>7.2</ele>
        <time>2020-12-22T13:59:48Z</time>
      </trkpt>
      <trkpt lat="37.1797490" lon="-7.4417040">
        <ele>7.2</ele>
        <time>2020-12-22T13:59:49Z</time>
      </trkpt>
      <trkpt lat="37.1797600" lon="-7.4416780">
        <ele>7.2</ele>
        <time>2020-12-22T13:59:50Z</time>
      </trkpt>
      <trkpt lat="37.1797680" lon="-7.4416530">
        <ele>7.2</ele>
        <time>2020-12-22T13:59:51Z</time>
      </trkpt>
      <trkpt lat="37.1797710" lon="-7.4416290">
        <ele>7.2</ele>
        <time>2020-12-22T13:59:52Z</time>
      </trkpt>
      <trkpt lat="37.1797750" lon="-7.4416040">
        <ele>7.2</ele>
        <time>2020-12-22T13:59:53Z</time>
      </trkpt>
      <trkpt lat="37.1797680" lon="-7.4415820">
        <ele>7.2</ele>
        <time>2020-12-22T13:59:54Z</time>
      </trkpt>
      <trkpt lat="37.1797600" lon="-7.4415660">
        <ele>7.2</ele>
        <time>2020-12-22T13:59:55Z</time>
      </trkpt>
      <trkpt lat="37.1797490" lon="-7.4415510">
        <ele>7.2</ele>
        <time>2020-12-22T13:59:56Z</time>
      </trkpt>
      <trkpt lat="37.1797410" lon="-7.4415340">
        <ele>7.2</ele>
        <time>2020-12-22T13:59:57Z</time>
      </trkpt>
      <trkpt lat="37.1797410" lon="-7.4415150">
        <ele>7.2</ele>
        <time>2020-12-22T13:59:58Z</time>
      </trkpt>
      <trkpt lat="37.1797410" lon="-7.4414950">
        <ele>7.2</ele>
        <time>2020-12-22T13:59:59Z</time>
      </trkpt>
      <trkpt lat="37.1797490" lon="-7.4414760">
        <ele>7.2</ele>
        <time>2020-12-22T14:00:00Z</time>
      </trkpt>
      <trkpt lat="37.1797600" lon="-7.4414490">
        <ele>7.2</ele>
        <time>2020-12-22T14:00:45Z</time>
      </trkpt>
      <trkpt lat="37.1797680" lon="-7.4414460">
        <ele>7.2</ele>
        <time>2020-12-22T14:00:46Z</time>
      </trkpt>
      <trkpt lat="37.1797790" lon="-7.4414440">
        <ele>7.2</ele>
        <time>2020-12-22T14:00:47Z</time>
      </trkpt>
      <trkpt lat="37.1797900" lon="-7.4414420">
        <ele>7.2</ele>
        <time>2020-12-22T14:00:48Z</time>
      </trkpt>
      <trkpt lat="37.1798020" lon="-7.4414450">
        <ele>7.2</ele>
        <time>2020-12-22T14:00:49Z</time>
      </trkpt>
      <trkpt lat="37.1798170" lon="-7.4414460">
        <ele>7.1</ele>
        <time>2020-12-22T14:00:50Z</time>
      </trkpt>
      <trkpt lat="37.1798290" lon="-7.4414380">
        <ele>7.1</ele>
        <time>2020-12-22T14:00:51Z</time>
      </trkpt>
      <trkpt lat="37.1798320" lon="-7.4414220">
        <ele>7.1</ele>
        <time>2020-12-22T14:00:52Z</time>
      </trkpt>
      <trkpt lat="37.1798320" lon="-7.4414050">
        <ele>7.1</ele>
        <time>2020-12-22T14:00:53Z</time>
      </trkpt>
      <trkpt lat="37.1798360" lon="-7.4413900">
        <ele>7.1</ele>
        <time>2020-12-22T14:00:54Z</time>
      </trkpt>
      <trkpt lat="37.1798400" lon="-7.4413770">
        <ele>7.1</ele>
        <time>2020-12-22T14:00:55Z</time>
      </trkpt>
      <trkpt lat="37.1798480" lon="-7.4413630">
        <ele>7.2</ele>
        <time>2020-12-22T14:00:56Z</time>
      </trkpt>
      <trkpt lat="37.1798550" lon="-7.4413470">
        <ele>7.2</ele>
        <time>2020-12-22T14:00:57Z</time>
      </trkpt>
      <trkpt lat="37.1798590" lon="-7.4413280">
        <ele>7.2</ele>
        <time>2020-12-22T14:00:58Z</time>
      </trkpt>
      <trkpt lat="37.1798630" lon="-7.4413080">
        <ele>7.2</ele>
        <time>2020-12-22T14:00:59Z</time>
      </trkpt>
      <trkpt lat="37.1798710" lon="-7.4412860">
        <ele>7.2</ele>
        <time>2020-12-22T14:01:00Z</time>
      </trkpt>
      <trkpt lat="37.1798780" lon="-7.4412630">
        <ele>7.2</ele>
        <time>2020-12-22T14:01:01Z</time>
      </trkpt>
      <trkpt lat="37.1798860" lon="-7.4412390">
        <ele>7.2</ele>
        <time>2020-12-22T14:01:02Z</time>
      </trkpt>
      <trkpt lat="37.1798970" lon="-7.4412120">
        <ele>7.2</ele>
        <time>2020-12-22T14:01:03Z</time>
      </trkpt>
      <trkpt lat="37.1799050" lon="-7.4411870">
        <ele>7.2</ele>
        <time>2020-12-22T14:01:04Z</time>
      </trkpt>
      <trkpt lat="37.1799160" lon="-7.4411640">
        <ele>7.2</ele>
        <time>2020-12-22T14:01:05Z</time>
      </trkpt>
      <trkpt lat="37.1799240" lon="-7.4411400">
        <ele>7.2</ele>
        <time>2020-12-22T14:01:06Z</time>
      </trkpt>
      <trkpt lat="37.1799280" lon="-7.4411170">
        <ele>7.2</ele>
        <time>2020-12-22T14:01:07Z</time>
      </trkpt>
      <trkpt lat="37.1799320" lon="-7.4410960">
        <ele>7.2</ele>
        <time>2020-12-22T14:01:08Z</time>
      </trkpt>
      <trkpt lat="37.1799390" lon="-7.4410750">
        <ele>7.3</ele>
        <time>2020-12-22T14:01:09Z</time>
      </trkpt>
      <trkpt lat="37.1799470" lon="-7.4410540">
        <ele>7.3</ele>
        <time>2020-12-22T14:01:10Z</time>
      </trkpt>
      <trkpt lat="37.1799540" lon="-7.4410300">
        <ele>7.3</ele>
        <time>2020-12-22T14:01:11Z</time>
      </trkpt>
      <trkpt lat="37.1799620" lon="-7.4410040">
        <ele>7.3</ele>
        <time>2020-12-22T14:01:12Z</time>
      </trkpt>
      <trkpt lat="37.1799700" lon="-7.4409760">
        <ele>7.3</ele>
        <time>2020-12-22T14:01:13Z</time>
      </trkpt>
      <trkpt lat="37.1799770" lon="-7.4409480">
        <ele>7.3</ele>
        <time>2020-12-22T14:01:14Z</time>
      </trkpt>
      <trkpt lat="37.1799890" lon="-7.4409220">
        <ele>7.3</ele>
        <time>2020-12-22T14:01:15Z</time>
      </trkpt>
      <trkpt lat="37.1799960" lon="-7.4408970">
        <ele>7.3</ele>
        <time>2020-12-22T14:01:16Z</time>
      </trkpt>
      <trkpt lat="37.1800000" lon="-7.4408750">
        <ele>7.3</ele>
        <time>2020-12-22T14:01:17Z</time>
      </trkpt>
      <trkpt lat="37.1800080" lon="-7.4408520">
        <ele>7.3</ele>
        <time>2020-12-22T14:01:18Z</time>
      </trkpt>
      <trkpt lat="37.1800120" lon="-7.4408300">
        <ele>7.3</ele>
        <time>2020-12-22T14:01:19Z</time>
      </trkpt>
      <trkpt lat="37.1800190" lon="-7.4408050">
        <ele>7.4</ele>
        <time>2020-12-22T14:01:20Z</time>
      </trkpt>
      <trkpt lat="37.1800270" lon="-7.4407800">
        <ele>7.4</ele>
        <time>2020-12-22T14:01:21Z</time>
      </trkpt>
      <trkpt lat="37.1800350" lon="-7.4407550">
        <ele>7.4</ele>
        <time>2020-12-22T14:01:22Z</time>
      </trkpt>
      <trkpt lat="37.1800420" lon="-7.4407290">
        <ele>7.4</ele>
        <time>2020-12-22T14:01:23Z</time>
      </trkpt>
      <trkpt lat="37.1800460" lon="-7.4407020">
        <ele>7.4</ele>
        <time>2020-12-22T14:01:24Z</time>
      </trkpt>
      <trkpt lat="37.1800540" lon="-7.4406750">
        <ele>7.4</ele>
        <time>2020-12-22T14:01:25Z</time>
      </trkpt>
      <trkpt lat="37.1800610" lon="-7.4406470">
        <ele>7.4</ele>
        <time>2020-12-22T14:01:26Z</time>
      </trkpt>
      <trkpt lat="37.1800690" lon="-7.4406190">
        <ele>7.4</ele>
        <time>2020-12-22T14:01:27Z</time>
      </trkpt>
      <trkpt lat="37.1800800" lon="-7.4405910">
        <ele>7.5</ele>
        <time>2020-12-22T14:01:28Z</time>
      </trkpt>
      <trkpt lat="37.1800880" lon="-7.4405620">
        <ele>7.5</ele>
        <time>2020-12-22T14:01:29Z</time>
      </trkpt>
      <trkpt lat="37.1800960" lon="-7.4405340">
        <ele>7.5</ele>
        <time>2020-12-22T14:01:30Z</time>
      </trkpt>
      <trkpt lat="37.1801030" lon="-7.4405050">
        <ele>7.5</ele>
        <time>2020-12-22T14:01:31Z</time>
      </trkpt>
      <trkpt lat="37.1801150" lon="-7.4404760">
        <ele>7.5</ele>
        <time>2020-12-22T14:01:32Z</time>
      </trkpt>
      <trkpt lat="37.1801220" lon="-7.4404470">
        <ele>7.5</ele>
        <time>2020-12-22T14:01:33Z</time>
      </trkpt>
      <trkpt lat="37.1801300" lon="-7.4404170">
        <ele>7.5</ele>
        <time>2020-12-22T14:01:34Z</time>
      </trkpt>
      <trkpt lat="37.1801380" lon="-7.4403870">
        <ele>7.5</ele>
        <time>2020-12-22T14:01:35Z</time>
      </trkpt>
      <trkpt lat="37.1801490" lon="-7.4403570">
        <ele>7.5</ele>
        <time>2020-12-22T14:01:36Z</time>
      </trkpt>
      <trkpt lat="37.1801610" lon="-7.4403270">
        <ele>7.5</ele>
        <time>2020-12-22T14:01:37Z</time>
      </trkpt>
      <trkpt lat="37.1801680" lon="-7.4402970">
        <ele>7.6</ele>
        <time>2020-12-22T14:01:38Z</time>
      </trkpt>
      <trkpt lat="37.1801800" lon="-7.4402680">
        <ele>7.6</ele>
        <time>2020-12-22T14:01:39Z</time>
      </trkpt>
      <trkpt lat="37.1801910" lon="-7.4402390">
        <ele>7.6</ele>
        <time>2020-12-22T14:01:40Z</time>
      </trkpt>
      <trkpt lat="37.1801990" lon="-7.4402090">
        <ele>7.6</ele>
        <time>2020-12-22T14:01:41Z</time>
      </trkpt>
      <trkpt lat="37.1802060" lon="-7.4401810">
        <ele>7.6</ele>
        <time>2020-12-22T14:01:42Z</time>
      </trkpt>
      <trkpt lat="37.1802140" lon="-7.4401540">
        <ele>7.6</ele>
        <time>2020-12-22T14:01:43Z</time>
      </trkpt>
      <trkpt lat="37.1802250" lon="-7.4401260">
        <ele>7.6</ele>
        <time>2020-12-22T14:01:44Z</time>
      </trkpt>
      <trkpt lat="37.1802330" lon="-7.4400980">
        <ele>7.6</ele>
        <time>2020-12-22T14:01:45Z</time>
      </trkpt>
      <trkpt lat="37.1802410" lon="-7.4400700">
        <ele>7.6</ele>
        <time>2020-12-22T14:01:46Z</time>
      </trkpt>
      <trkpt lat="37.1802480" lon="-7.4400410">
        <ele>7.6</ele>
        <time>2020-12-22T14:01:47Z</time>
      </trkpt>
      <trkpt lat="37.1802560" lon="-7.4400120">
        <ele>7.7</ele>
        <time>2020-12-22T14:01:48Z</time>
      </trkpt>
      <trkpt lat="37.1802640" lon="-7.4399830">
        <ele>7.7</ele>
        <time>2020-12-22T14:01:49Z</time>
      </trkpt>
      <trkpt lat="37.1802710" lon="-7.4399560">
        <ele>7.7</ele>
        <time>2020-12-22T14:01:50Z</time>
      </trkpt>
      <trkpt lat="37.1802830" lon="-7.4399290">
        <ele>7.7</ele>
        <time>2020-12-22T14:01:51Z</time>
      </trkpt>
      <trkpt lat="37.1802940" lon="-7.4399010">
        <ele>7.7</ele>
        <time>2020-12-22T14:01:52Z</time>
      </trkpt>
      <trkpt lat="37.1803090" lon="-7.4398740">
        <ele>7.7</ele>
        <time>2020-12-22T14:01:53Z</time>
      </trkpt>
      <trkpt lat="37.1803130" lon="-7.4398410">
        <ele>7.7</ele>
        <time>2020-12-22T14:01:54Z</time>
      </trkpt>
      <trkpt lat="37.1803170" lon="-7.4398060">
        <ele>7.8</ele>
        <time>2020-12-22T14:01:55Z</time>
      </trkpt>
      <trkpt lat="37.1803280" lon="-7.4397730">
        <ele>7.8</ele>
        <time>2020-12-22T14:01:56Z</time>
      </trkpt>
      <trkpt lat="37.1803360" lon="-7.4397400">
        <ele>7.8</ele>
        <time>2020-12-22T14:01:57Z</time>
      </trkpt>
      <trkpt lat="37.1803470" lon="-7.4397070">
        <ele>7.8</ele>
        <time>2020-12-22T14:01:58Z</time>
      </trkpt>
      <trkpt lat="37.1803550" lon="-7.4396780">
        <ele>7.8</ele>
        <time>2020-12-22T14:01:59Z</time>
      </trkpt>
      <trkpt lat="37.1803670" lon="-7.4396500">
        <ele>7.8</ele>
        <time>2020-12-22T14:02:00Z</time>
      </trkpt>
      <trkpt lat="37.1803740" lon="-7.4396230">
        <ele>7.9</ele>
        <time>2020-12-22T14:02:01Z</time>
      </trkpt>
      <trkpt lat="37.1803820" lon="-7.4395980">
        <ele>7.9</ele>
        <time>2020-12-22T14:02:02Z</time>
      </trkpt>
      <trkpt lat="37.1803890" lon="-7.4395720">
        <ele>7.9</ele>
        <time>2020-12-22T14:02:03Z</time>
      </trkpt>
      <trkpt lat="37.1803970" lon="-7.4395470">
        <ele>7.9</ele>
        <time>2020-12-22T14:02:04Z</time>
      </trkpt>
      <trkpt lat="37.1804050" lon="-7.4395190">
        <ele>7.9</ele>
        <time>2020-12-22T14:02:05Z</time>
      </trkpt>
      <trkpt lat="37.1804080" lon="-7.4394890">
        <ele>7.9</ele>
        <time>2020-12-22T14:02:06Z</time>
      </trkpt>
      <trkpt lat="37.1804160" lon="-7.4394570">
        <ele>7.9</ele>
        <time>2020-12-22T14:02:07Z</time>
      </trkpt>
      <trkpt lat="37.1804240" lon="-7.4394250">
        <ele>7.9</ele>
        <time>2020-12-22T14:02:08Z</time>
      </trkpt>
      <trkpt lat="37.1804280" lon="-7.4393930">
        <ele>8.0</ele>
        <time>2020-12-22T14:02:09Z</time>
      </trkpt>
      <trkpt lat="37.1804350" lon="-7.4393630">
        <ele>8.0</ele>
        <time>2020-12-22T14:02:10Z</time>
      </trkpt>
      <trkpt lat="37.1804430" lon="-7.4393350">
        <ele>8.0</ele>
        <time>2020-12-22T14:02:11Z</time>
      </trkpt>
      <trkpt lat="37.1804500" lon="-7.4393080">
        <ele>8.0</ele>
        <time>2020-12-22T14:02:12Z</time>
      </trkpt>
      <trkpt lat="37.1804580" lon="-7.4392820">
        <ele>8.0</ele>
        <time>2020-12-22T14:02:13Z</time>
      </trkpt>
      <trkpt lat="37.1804660" lon="-7.4392590">
        <ele>8.0</ele>
        <time>2020-12-22T14:02:14Z</time>
      </trkpt>
      <trkpt lat="37.1804730" lon="-7.4392370">
        <ele>8.0</ele>
        <time>2020-12-22T14:02:15Z</time>
      </trkpt>
      <trkpt lat="37.1804770" lon="-7.4392160">
        <ele>8.0</ele>
        <time>2020-12-22T14:02:16Z</time>
      </trkpt>
      <trkpt lat="37.1804850" lon="-7.4391970">
        <ele>8.0</ele>
        <time>2020-12-22T14:02:17Z</time>
      </trkpt>
      <trkpt lat="37.1804890" lon="-7.4391790">
        <ele>8.1</ele>
        <time>2020-12-22T14:02:18Z</time>
      </trkpt>
      <trkpt lat="37.1804960" lon="-7.4391610">
        <ele>8.1</ele>
        <time>2020-12-22T14:02:19Z</time>
      </trkpt>
      <trkpt lat="37.1805040" lon="-7.4391410">
        <ele>8.1</ele>
        <time>2020-12-22T14:02:20Z</time>
      </trkpt>
      <trkpt lat="37.1805110" lon="-7.4391200">
        <ele>8.1</ele>
        <time>2020-12-22T14:02:21Z</time>
      </trkpt>
      <trkpt lat="37.1805190" lon="-7.4390990">
        <ele>8.1</ele>
        <time>2020-12-22T14:02:22Z</time>
      </trkpt>
      <trkpt lat="37.1805270" lon="-7.4390760">
        <ele>8.1</ele>
        <time>2020-12-22T14:02:23Z</time>
      </trkpt>
      <trkpt lat="37.1805340" lon="-7.4390520">
        <ele>8.1</ele>
        <time>2020-12-22T14:02:24Z</time>
      </trkpt>
      <trkpt lat="37.1805420" lon="-7.4390250">
        <ele>8.2</ele>
        <time>2020-12-22T14:02:25Z</time>
      </trkpt>
      <trkpt lat="37.1805500" lon="-7.4390000">
        <ele>8.2</ele>
        <time>2020-12-22T14:02:26Z</time>
      </trkpt>
      <trkpt lat="37.1805570" lon="-7.4389750">
        <ele>8.2</ele>
        <time>2020-12-22T14:02:27Z</time>
      </trkpt>
      <trkpt lat="37.1805650" lon="-7.4389480">
        <ele>8.2</ele>
        <time>2020-12-22T14:02:28Z</time>
      </trkpt>
      <trkpt lat="37.1805720" lon="-7.4389160">
        <ele>8.2</ele>
        <time>2020-12-22T14:02:29Z</time>
      </trkpt>
      <trkpt lat="37.1805840" lon="-7.4388780">
        <ele>8.3</ele>
        <time>2020-12-22T14:02:30Z</time>
      </trkpt>
      <trkpt lat="37.1805950" lon="-7.4388340">
        <ele>8.3</ele>
        <time>2020-12-22T14:02:31Z</time>
      </trkpt>
      <trkpt lat="37.1806070" lon="-7.4387880">
        <ele>8.3</ele>
        <time>2020-12-22T14:02:32Z</time>
      </trkpt>
      <trkpt lat="37.1806180" lon="-7.4387430">
        <ele>8.3</ele>
        <time>2020-12-22T14:02:33Z</time>
      </trkpt>
      <trkpt lat="37.1806300" lon="-7.4387040">
        <ele>8.3</ele>
        <time>2020-12-22T14:02:34Z</time>
      </trkpt>
      <trkpt lat="37.1806490" lon="-7.4386430">
        <ele>8.4</ele>
        <time>2020-12-22T14:02:35Z</time>
      </trkpt>
      <trkpt lat="37.1806680" lon="-7.4385850">
        <ele>8.4</ele>
        <time>2020-12-22T14:02:36Z</time>
      </trkpt>
      <trkpt lat="37.1806910" lon="-7.4385310">
        <ele>8.4</ele>
        <time>2020-12-22T14:02:37Z</time>
      </trkpt>
      <trkpt lat="37.1807060" lon="-7.4384780">
        <ele>8.5</ele>
        <time>2020-12-22T14:02:38Z</time>
      </trkpt>
      <trkpt lat="37.1807250" lon="-7.4384260">
        <ele>8.5</ele>
        <time>2020-12-22T14:02:39Z</time>
      </trkpt>
      <trkpt lat="37.1807440" lon="-7.4383810">
        <ele>8.5</ele>
        <time>2020-12-22T14:02:40Z</time>
      </trkpt>
      <trkpt lat="37.1807630" lon="-7.4383360">
        <ele>8.6</ele>
        <time>2020-12-22T14:02:41Z</time>
      </trkpt>
      <trkpt lat="37.1807820" lon="-7.4382900">
        <ele>8.6</ele>
        <time>2020-12-22T14:02:42Z</time>
      </trkpt>
      <trkpt lat="37.1808050" lon="-7.4382520">
        <ele>8.7</ele>
        <time>2020-12-22T14:02:43Z</time>
      </trkpt>
      <trkpt lat="37.1808320" lon="-7.4382390">
        <ele>8.7</ele>
        <time>2020-12-22T14:02:44Z</time>
      </trkpt>
      <trkpt lat="37.1808510" lon="-7.4382640">
        <ele>8.7</ele>
        <time>2020-12-22T14:02:45Z</time>
      </trkpt>
      <trkpt lat="37.1808400" lon="-7.4382980">
        <ele>8.7</ele>
        <time>2020-12-22T14:02:46Z</time>
      </trkpt>
      <trkpt lat="37.1808200" lon="-7.4383290">
        <ele>8.8</ele>
        <time>2020-12-22T14:02:47Z</time>
      </trkpt>
      <trkpt lat="37.1808050" lon="-7.4383640">
        <ele>8.8</ele>
        <time>2020-12-22T14:02:48Z</time>
      </trkpt>
      <trkpt lat="37.1807940" lon="-7.4384030">
        <ele>8.8</ele>
        <time>2020-12-22T14:02:49Z</time>
      </trkpt>
      <trkpt lat="37.1807820" lon="-7.4384460">
        <ele>8.8</ele>
        <time>2020-12-22T14:02:50Z</time>
      </trkpt>
      <trkpt lat="37.1807670" lon="-7.4384890">
        <ele>8.9</ele>
        <time>2020-12-22T14:02:51Z</time>
      </trkpt>
      <trkpt lat="37.1807480" lon="-7.4385330">
        <ele>8.9</ele>
        <time>2020-12-22T14:02:52Z</time>
      </trkpt>
      <trkpt lat="37.1807330" lon="-7.4385750">
        <ele>8.9</ele>
        <time>2020-12-22T14:02:53Z</time>
      </trkpt>
      <trkpt lat="37.1807210" lon="-7.4386170">
        <ele>8.9</ele>
        <time>2020-12-22T14:02:54Z</time>
      </trkpt>
      <trkpt lat="37.1807100" lon="-7.4386580">
        <ele>9.0</ele>
        <time>2020-12-22T14:02:55Z</time>
      </trkpt>
      <trkpt lat="37.1806910" lon="-7.4386890">
        <ele>9.0</ele>
        <time>2020-12-22T14:02:56Z</time>
      </trkpt>
      <trkpt lat="37.1806640" lon="-7.4386980">
        <ele>9.0</ele>
        <time>2020-12-22T14:02:57Z</time>
      </trkpt>
      <trkpt lat="37.1806490" lon="-7.4386780">
        <ele>9.0</ele>
        <time>2020-12-22T14:02:58Z</time>
      </trkpt>
      <trkpt lat="37.1806450" lon="-7.4386440">
        <ele>9.1</ele>
        <time>2020-12-22T14:02:59Z</time>
      </trkpt>
      <trkpt lat="37.1806490" lon="-7.4386080">
        <ele>9.1</ele>
        <time>2020-12-22T14:03:00Z</time>
      </trkpt>
      <trkpt lat="37.1806530" lon="-7.4385730">
        <ele>9.1</ele>
        <time>2020-12-22T14:03:01Z</time>
      </trkpt>
      <trkpt lat="37.1806600" lon="-7.4385390">
        <ele>9.1</ele>
        <time>2020-12-22T14:03:02Z</time>
      </trkpt>
      <trkpt lat="37.1806680" lon="-7.4385030">
        <ele>9.2</ele>
        <time>2020-12-22T14:03:03Z</time>
      </trkpt>
      <trkpt lat="37.1806760" lon="-7.4384680">
        <ele>9.2</ele>
        <time>2020-12-22T14:03:04Z</time>
      </trkpt>
      <trkpt lat="37.1806870" lon="-7.4384350">
        <ele>9.2</ele>
        <time>2020-12-22T14:03:05Z</time>
      </trkpt>
      <trkpt lat="37.1806950" lon="-7.4384020">
        <ele>9.2</ele>
        <time>2020-12-22T14:03:06Z</time>
      </trkpt>
      <trkpt lat="37.1807060" lon="-7.4383700">
        <ele>9.3</ele>
        <time>2020-12-22T14:03:07Z</time>
      </trkpt>
      <trkpt lat="37.1807170" lon="-7.4383380">
        <ele>9.3</ele>
        <time>2020-12-22T14:03:08Z</time>
      </trkpt>
      <trkpt lat="37.1807290" lon="-7.4383050">
        <ele>9.3</ele>
        <time>2020-12-22T14:03:09Z</time>
      </trkpt>
      <trkpt lat="37.1807400" lon="-7.4382720">
        <ele>9.3</ele>
        <time>2020-12-22T14:03:10Z</time>
      </trkpt>
      <trkpt lat="37.1807520" lon="-7.4382380">
        <ele>9.3</ele>
        <time>2020-12-22T14:03:11Z</time>
      </trkpt>
      <trkpt lat="37.1807630" lon="-7.4382040">
        <ele>9.4</ele>
        <time>2020-12-22T14:03:12Z</time>
      </trkpt>
      <trkpt lat="37.1807750" lon="-7.4381710">
        <ele>9.4</ele>
        <time>2020-12-22T14:03:13Z</time>
      </trkpt>
      <trkpt lat="37.1807900" lon="-7.4381390">
        <ele>9.4</ele>
        <time>2020-12-22T14:03:14Z</time>
      </trkpt>
      <trkpt lat="37.1808010" lon="-7.4381070">
        <ele>9.4</ele>
        <time>2020-12-22T14:03:15Z</time>
      </trkpt>
      <trkpt lat="37.1808130" lon="-7.4380750">
        <ele>9.5</ele>
        <time>2020-12-22T14:03:16Z</time>
      </trkpt>
      <trkpt lat="37.1808280" lon="-7.4380410">
        <ele>9.5</ele>
        <time>2020-12-22T14:03:17Z</time>
      </trkpt>
      <trkpt lat="37.1808400" lon="-7.4380060">
        <ele>9.5</ele>
        <time>2020-12-22T14:03:18Z</time>
      </trkpt>
      <trkpt lat="37.1808510" lon="-7.4379710">
        <ele>9.5</ele>
        <time>2020-12-22T14:03:19Z</time>
      </trkpt>
      <trkpt lat="37.1808590" lon="-7.4379350">
        <ele>9.5</ele>
        <time>2020-12-22T14:03:20Z</time>
      </trkpt>
      <trkpt lat="37.1808740" lon="-7.4379000">
        <ele>9.6</ele>
        <time>2020-12-22T14:03:21Z</time>
      </trkpt>
      <trkpt lat="37.1808850" lon="-7.4378650">
        <ele>9.6</ele>
        <time>2020-12-22T14:03:22Z</time>
      </trkpt>
      <trkpt lat="37.1808970" lon="-7.4378310">
        <ele>9.6</ele>
        <time>2020-12-22T14:03:23Z</time>
      </trkpt>
      <trkpt lat="37.1809080" lon="-7.4377990">
        <ele>9.6</ele>
        <time>2020-12-22T14:03:24Z</time>
      </trkpt>
      <trkpt lat="37.1809160" lon="-7.4377650">
        <ele>9.6</ele>
        <time>2020-12-22T14:03:25Z</time>
      </trkpt>
      <trkpt lat="37.1809270" lon="-7.4377310">
        <ele>9.6</ele>
        <time>2020-12-22T14:03:26Z</time>
      </trkpt>
      <trkpt lat="37.1809390" lon="-7.4376960">
        <ele>9.7</ele>
        <time>2020-12-22T14:03:27Z</time>
      </trkpt>
      <trkpt lat="37.1809500" lon="-7.4376620">
        <ele>9.7</ele>
        <time>2020-12-22T14:03:28Z</time>
      </trkpt>
      <trkpt lat="37.1809620" lon="-7.4376260">
        <ele>9.7</ele>
        <time>2020-12-22T14:03:29Z</time>
      </trkpt>
      <trkpt lat="37.1809730" lon="-7.4375910">
        <ele>9.7</ele>
        <time>2020-12-22T14:03:30Z</time>
      </trkpt>
      <trkpt lat="37.1809840" lon="-7.4375580">
        <ele>9.7</ele>
        <time>2020-12-22T14:03:31Z</time>
      </trkpt>
      <trkpt lat="37.1809920" lon="-7.4375280">
        <ele>9.8</ele>
        <time>2020-12-22T14:03:32Z</time>
      </trkpt>
      <trkpt lat="37.1810040" lon="-7.4374990">
        <ele>9.8</ele>
        <time>2020-12-22T14:03:33Z</time>
      </trkpt>
      <trkpt lat="37.1810110" lon="-7.4374700">
        <ele>9.8</ele>
        <time>2020-12-22T14:03:34Z</time>
      </trkpt>
      <trkpt lat="37.1810190" lon="-7.4374440">
        <ele>9.8</ele>
        <time>2020-12-22T14:03:35Z</time>
      </trkpt>
      <trkpt lat="37.1810260" lon="-7.4374190">
        <ele>9.8</ele>
        <time>2020-12-22T14:03:36Z</time>
      </trkpt>
      <trkpt lat="37.1810340" lon="-7.4373970">
        <ele>9.8</ele>
        <time>2020-12-22T14:03:37Z</time>
      </trkpt>
      <trkpt lat="37.1810460" lon="-7.4373720">
        <ele>9.8</ele>
        <time>2020-12-22T14:03:38Z</time>
      </trkpt>
      <trkpt lat="37.1810530" lon="-7.4373450">
        <ele>9.9</ele>
        <time>2020-12-22T14:03:39Z</time>
      </trkpt>
      <trkpt lat="37.1810610" lon="-7.4373180">
        <ele>9.9</ele>
        <time>2020-12-22T14:03:40Z</time>
      </trkpt>
      <trkpt lat="37.1810720" lon="-7.4372900">
        <ele>9.9</ele>
        <time>2020-12-22T14:03:41Z</time>
      </trkpt>
      <trkpt lat="37.1810800" lon="-7.4372620">
        <ele>9.9</ele>
        <time>2020-12-22T14:03:42Z</time>
      </trkpt>
      <trkpt lat="37.1810910" lon="-7.4372330">
        <ele>9.9</ele>
        <time>2020-12-22T14:03:43Z</time>
      </trkpt>
      <trkpt lat="37.1810990" lon="-7.4372020">
        <ele>9.9</ele>
        <time>2020-12-22T14:03:44Z</time>
      </trkpt>
      <trkpt lat="37.1811100" lon="-7.4371710">
        <ele>9.9</ele>
        <time>2020-12-22T14:03:45Z</time>
      </trkpt>
      <trkpt lat="37.1811180" lon="-7.4371390">
        <ele>10.0</ele>
        <time>2020-12-22T14:03:46Z</time>
      </trkpt>
      <trkpt lat="37.1811290" lon="-7.4371070">
        <ele>10.0</ele>
        <time>2020-12-22T14:03:47Z</time>
      </trkpt>
      <trkpt lat="37.1811410" lon="-7.4370740">
        <ele>10.0</ele>
        <time>2020-12-22T14:03:48Z</time>
      </trkpt>
      <trkpt lat="37.1811520" lon="-7.4370420">
        <ele>10.0</ele>
        <time>2020-12-22T14:03:49Z</time>
      </trkpt>
      <trkpt lat="37.1811600" lon="-7.4370110">
        <ele>10.0</ele>
        <time>2020-12-22T14:03:50Z</time>
      </trkpt>
      <trkpt lat="37.1811680" lon="-7.4369810">
        <ele>10.1</ele>
        <time>2020-12-22T14:03:51Z</time>
      </trkpt>
      <trkpt lat="37.1811750" lon="-7.4369540">
        <ele>10.1</ele>
        <time>2020-12-22T14:03:52Z</time>
      </trkpt>
      <trkpt lat="37.1811830" lon="-7.4369270">
        <ele>10.1</ele>
        <time>2020-12-22T14:03:53Z</time>
      </trkpt>
      <trkpt lat="37.1811900" lon="-7.4368980">
        <ele>10.1</ele>
        <time>2020-12-22T14:03:54Z</time>
      </trkpt>
      <trkpt lat="37.1812020" lon="-7.4368680">
        <ele>10.1</ele>
        <time>2020-12-22T14:03:55Z</time>
      </trkpt>
      <trkpt lat="37.1812100" lon="-7.4368360">
        <ele>10.1</ele>
        <time>2020-12-22T14:03:56Z</time>
      </trkpt>
      <trkpt lat="37.1812170" lon="-7.4368040">
        <ele>10.2</ele>
        <time>2020-12-22T14:03:57Z</time>
      </trkpt>
      <trkpt lat="37.1812290" lon="-7.4367720">
        <ele>10.2</ele>
        <time>2020-12-22T14:03:58Z</time>
      </trkpt>
      <trkpt lat="37.1812400" lon="-7.4367400">
        <ele>10.2</ele>
        <time>2020-12-22T14:03:59Z</time>
      </trkpt>
      <trkpt lat="37.1812520" lon="-7.4367070">
        <ele>10.2</ele>
        <time>2020-12-22T14:04:00Z</time>
      </trkpt>
      <trkpt lat="37.1812590" lon="-7.4366770">
        <ele>10.2</ele>
        <time>2020-12-22T14:04:01Z</time>
      </trkpt>
      <trkpt lat="37.1812710" lon="-7.4366470">
        <ele>10.2</ele>
        <time>2020-12-22T14:04:02Z</time>
      </trkpt>
      <trkpt lat="37.1812780" lon="-7.4366200">
        <ele>10.2</ele>
        <time>2020-12-22T14:04:03Z</time>
      </trkpt>
      <trkpt lat="37.1812860" lon="-7.4365920">
        <ele>10.2</ele>
        <time>2020-12-22T14:04:04Z</time>
      </trkpt>
      <trkpt lat="37.1812970" lon="-7.4365630">
        <ele>10.3</ele>
        <time>2020-12-22T14:04:05Z</time>
      </trkpt>
      <trkpt lat="37.1813090" lon="-7.4365310">
        <ele>10.3</ele>
        <time>2020-12-22T14:04:06Z</time>
      </trkpt>
      <trkpt lat="37.1813160" lon="-7.4364990">
        <ele>10.3</ele>
        <time>2020-12-22T14:04:07Z</time>
      </trkpt>
      <trkpt lat="37.1813280" lon="-7.4364690">
        <ele>10.3</ele>
        <time>2020-12-22T14:04:08Z</time>
      </trkpt>
      <trkpt lat="37.1813350" lon="-7.4364390">
        <ele>10.3</ele>
        <time>2020-12-22T14:04:09Z</time>
      </trkpt>
      <trkpt lat="37.1813430" lon="-7.4364120">
        <ele>10.3</ele>
        <time>2020-12-22T14:04:10Z</time>
      </trkpt>
      <trkpt lat="37.1813510" lon="-7.4363880">
        <ele>10.3</ele>
        <time>2020-12-22T14:04:11Z</time>
      </trkpt>
      <trkpt lat="37.1813580" lon="-7.4363630">
        <ele>10.3</ele>
        <time>2020-12-22T14:04:12Z</time>
      </trkpt>
      <trkpt lat="37.1813660" lon="-7.4363380">
        <ele>10.3</ele>
        <time>2020-12-22T14:04:13Z</time>
      </trkpt>
      <trkpt lat="37.1813770" lon="-7.4363110">
        <ele>10.3</ele>
        <time>2020-12-22T14:04:14Z</time>
      </trkpt>
      <trkpt lat="37.1813850" lon="-7.4362810">
        <ele>10.3</ele>
        <time>2020-12-22T14:04:15Z</time>
      </trkpt>
      <trkpt lat="37.1813930" lon="-7.4362510">
        <ele>10.3</ele>
        <time>2020-12-22T14:04:16Z</time>
      </trkpt>
      <trkpt lat="37.1814000" lon="-7.4362220">
        <ele>10.3</ele>
        <time>2020-12-22T14:04:17Z</time>
      </trkpt>
      <trkpt lat="37.1814080" lon="-7.4361910">
        <ele>10.3</ele>
        <time>2020-12-22T14:04:18Z</time>
      </trkpt>
      <trkpt lat="37.1814190" lon="-7.4361600">
        <ele>10.3</ele>
        <time>2020-12-22T14:04:19Z</time>
      </trkpt>
      <trkpt lat="37.1814270" lon="-7.4361270">
        <ele>10.3</ele>
        <time>2020-12-22T14:04:20Z</time>
      </trkpt>
      <trkpt lat="37.1814350" lon="-7.4360920">
        <ele>10.3</ele>
        <time>2020-12-22T14:04:21Z</time>
      </trkpt>
      <trkpt lat="37.1814420" lon="-7.4360580">
        <ele>10.3</ele>
        <time>2020-12-22T14:04:22Z</time>
      </trkpt>
      <trkpt lat="37.1814500" lon="-7.4360230">
        <ele>10.3</ele>
        <time>2020-12-22T14:04:23Z</time>
      </trkpt>
      <trkpt lat="37.1814610" lon="-7.4359880">
        <ele>10.3</ele>
        <time>2020-12-22T14:04:24Z</time>
      </trkpt>
      <trkpt lat="37.1814690" lon="-7.4359560">
        <ele>10.3</ele>
        <time>2020-12-22T14:04:25Z</time>
      </trkpt>
      <trkpt lat="37.1814800" lon="-7.4359250">
        <ele>10.3</ele>
        <time>2020-12-22T14:04:26Z</time>
      </trkpt>
      <trkpt lat="37.1814880" lon="-7.4358940">
        <ele>10.2</ele>
        <time>2020-12-22T14:04:27Z</time>
      </trkpt>
      <trkpt lat="37.1814990" lon="-7.4358630">
        <ele>10.2</ele>
        <time>2020-12-22T14:04:28Z</time>
      </trkpt>
      <trkpt lat="37.1815070" lon="-7.4358300">
        <ele>10.2</ele>
        <time>2020-12-22T14:04:29Z</time>
      </trkpt>
      <trkpt lat="37.1815150" lon="-7.4357960">
        <ele>10.2</ele>
        <time>2020-12-22T14:04:30Z</time>
      </trkpt>
      <trkpt lat="37.1815220" lon="-7.4357640">
        <ele>10.2</ele>
        <time>2020-12-22T14:04:31Z</time>
      </trkpt>
      <trkpt lat="37.1815300" lon="-7.4357340">
        <ele>10.2</ele>
        <time>2020-12-22T14:04:32Z</time>
      </trkpt>
      <trkpt lat="37.1815410" lon="-7.4357060">
        <ele>10.2</ele>
        <time>2020-12-22T14:04:33Z</time>
      </trkpt>
      <trkpt lat="37.1815530" lon="-7.4356760">
        <ele>10.2</ele>
        <time>2020-12-22T14:04:34Z</time>
      </trkpt>
      <trkpt lat="37.1815610" lon="-7.4356420">
        <ele>10.2</ele>
        <time>2020-12-22T14:04:35Z</time>
      </trkpt>
      <trkpt lat="37.1815720" lon="-7.4356070">
        <ele>10.2</ele>
        <time>2020-12-22T14:04:36Z</time>
      </trkpt>
      <trkpt lat="37.1815800" lon="-7.4355720">
        <ele>10.2</ele>
        <time>2020-12-22T14:04:37Z</time>
      </trkpt>
      <trkpt lat="37.1815910" lon="-7.4355360">
        <ele>10.2</ele>
        <time>2020-12-22T14:04:38Z</time>
      </trkpt>
      <trkpt lat="37.1816020" lon="-7.4355020">
        <ele>10.2</ele>
        <time>2020-12-22T14:04:39Z</time>
      </trkpt>
      <trkpt lat="37.1816140" lon="-7.4354690">
        <ele>10.2</ele>
        <time>2020-12-22T14:04:40Z</time>
      </trkpt>
      <trkpt lat="37.1816220" lon="-7.4354370">
        <ele>10.2</ele>
        <time>2020-12-22T14:04:41Z</time>
      </trkpt>
      <trkpt lat="37.1816290" lon="-7.4354050">
        <ele>10.1</ele>
        <time>2020-12-22T14:04:42Z</time>
      </trkpt>
      <trkpt lat="37.1816370" lon="-7.4353740">
        <ele>10.1</ele>
        <time>2020-12-22T14:04:43Z</time>
      </trkpt>
      <trkpt lat="37.1816480" lon="-7.4353450">
        <ele>10.1</ele>
        <time>2020-12-22T14:04:44Z</time>
      </trkpt>
      <trkpt lat="37.1816560" lon="-7.4353150">
        <ele>10.1</ele>
        <time>2020-12-22T14:04:45Z</time>
      </trkpt>
      <trkpt lat="37.1816630" lon="-7.4352850">
        <ele>10.1</ele>
        <time>2020-12-22T14:04:46Z</time>
      </trkpt>
      <trkpt lat="37.1816710" lon="-7.4352560">
        <ele>10.1</ele>
        <time>2020-12-22T14:04:47Z</time>
      </trkpt>
      <trkpt lat="37.1816790" lon="-7.4352250">
        <ele>10.1</ele>
        <time>2020-12-22T14:04:48Z</time>
      </trkpt>
      <trkpt lat="37.1816900" lon="-7.4351920">
        <ele>10.1</ele>
        <time>2020-12-22T14:04:49Z</time>
      </trkpt>
      <trkpt lat="37.1816980" lon="-7.4351570">
        <ele>10.1</ele>
        <time>2020-12-22T14:04:50Z</time>
      </trkpt>
      <trkpt lat="37.1817090" lon="-7.4351210">
        <ele>10.0</ele>
        <time>2020-12-22T14:04:51Z</time>
      </trkpt>
      <trkpt lat="37.1817170" lon="-7.4350840">
        <ele>10.0</ele>
        <time>2020-12-22T14:04:52Z</time>
      </trkpt>
      <trkpt lat="37.1817280" lon="-7.4350480">
        <ele>10.0</ele>
        <time>2020-12-22T14:04:53Z</time>
      </trkpt>
      <trkpt lat="37.1817400" lon="-7.4350130">
        <ele>10.0</ele>
        <time>2020-12-22T14:04:54Z</time>
      </trkpt>
      <trkpt lat="37.1817510" lon="-7.4349780">
        <ele>10.0</ele>
        <time>2020-12-22T14:04:55Z</time>
      </trkpt>
      <trkpt lat="37.1817590" lon="-7.4349440">
        <ele>10.0</ele>
        <time>2020-12-22T14:04:56Z</time>
      </trkpt>
      <trkpt lat="37.1817700" lon="-7.4349110">
        <ele>10.0</ele>
        <time>2020-12-22T14:04:57Z</time>
      </trkpt>
      <trkpt lat="37.1817780" lon="-7.4348760">
        <ele>10.0</ele>
        <time>2020-12-22T14:04:58Z</time>
      </trkpt>
      <trkpt lat="37.1817890" lon="-7.4348420">
        <ele>9.9</ele>
        <time>2020-12-22T14:04:59Z</time>
      </trkpt>
      <trkpt lat="37.1818010" lon="-7.4348080">
        <ele>9.9</ele>
        <time>2020-12-22T14:05:00Z</time>
      </trkpt>
      <trkpt lat="37.1818120" lon="-7.4347750">
        <ele>9.9</ele>
        <time>2020-12-22T14:05:01Z</time>
      </trkpt>
      <trkpt lat="37.1818200" lon="-7.4347430">
        <ele>9.9</ele>
        <time>2020-12-22T14:05:02Z</time>
      </trkpt>
      <trkpt lat="37.1818310" lon="-7.4347120">
        <ele>9.9</ele>
        <time>2020-12-22T14:05:03Z</time>
      </trkpt>
      <trkpt lat="37.1818430" lon="-7.4346810">
        <ele>9.9</ele>
        <time>2020-12-22T14:05:04Z</time>
      </trkpt>
      <trkpt lat="37.1818500" lon="-7.4346490">
        <ele>9.9</ele>
        <time>2020-12-22T14:05:05Z</time>
      </trkpt>
      <trkpt lat="37.1818620" lon="-7.4346150">
        <ele>9.9</ele>
        <time>2020-12-22T14:05:06Z</time>
      </trkpt>
      <trkpt lat="37.1818700" lon="-7.4345800">
        <ele>9.9</ele>
        <time>2020-12-22T14:05:07Z</time>
      </trkpt>
      <trkpt lat="37.1818810" lon="-7.4345450">
        <ele>9.9</ele>
        <time>2020-12-22T14:05:08Z</time>
      </trkpt>
      <trkpt lat="37.1818920" lon="-7.4345110">
        <ele>9.9</ele>
        <time>2020-12-22T14:05:09Z</time>
      </trkpt>
      <trkpt lat="37.1819040" lon="-7.4344770">
        <ele>9.9</ele>
        <time>2020-12-22T14:05:10Z</time>
      </trkpt>
      <trkpt lat="37.1819150" lon="-7.4344440">
        <ele>9.9</ele>
        <time>2020-12-22T14:05:11Z</time>
      </trkpt>
      <trkpt lat="37.1819230" lon="-7.4344130">
        <ele>9.9</ele>
        <time>2020-12-22T14:05:12Z</time>
      </trkpt>
      <trkpt lat="37.1819310" lon="-7.4343820">
        <ele>9.9</ele>
        <time>2020-12-22T14:05:13Z</time>
      </trkpt>
      <trkpt lat="37.1819380" lon="-7.4343510">
        <ele>9.9</ele>
        <time>2020-12-22T14:05:14Z</time>
      </trkpt>
      <trkpt lat="37.1819500" lon="-7.4343220">
        <ele>9.9</ele>
        <time>2020-12-22T14:05:15Z</time>
      </trkpt>
      <trkpt lat="37.1819570" lon="-7.4342910">
        <ele>9.9</ele>
        <time>2020-12-22T14:05:16Z</time>
      </trkpt>
      <trkpt lat="37.1819650" lon="-7.4342580">
        <ele>9.9</ele>
        <time>2020-12-22T14:05:17Z</time>
      </trkpt>
      <trkpt lat="37.1819760" lon="-7.4342250">
        <ele>9.9</ele>
        <time>2020-12-22T14:05:18Z</time>
      </trkpt>
      <trkpt lat="37.1819880" lon="-7.4341900">
        <ele>9.9</ele>
        <time>2020-12-22T14:05:19Z</time>
      </trkpt>
      <trkpt lat="37.1819990" lon="-7.4341540">
        <ele>9.9</ele>
        <time>2020-12-22T14:05:20Z</time>
      </trkpt>
      <trkpt lat="37.1820140" lon="-7.4341160">
        <ele>9.9</ele>
        <time>2020-12-22T14:05:21Z</time>
      </trkpt>
      <trkpt lat="37.1820260" lon="-7.4340790">
        <ele>9.9</ele>
        <time>2020-12-22T14:05:22Z</time>
      </trkpt>
      <trkpt lat="37.1820370" lon="-7.4340420">
        <ele>9.9</ele>
        <time>2020-12-22T14:05:23Z</time>
      </trkpt>
      <trkpt lat="37.1820490" lon="-7.4340060">
        <ele>9.9</ele>
        <time>2020-12-22T14:05:24Z</time>
      </trkpt>
      <trkpt lat="37.1820600" lon="-7.4339700">
        <ele>9.9</ele>
        <time>2020-12-22T14:05:25Z</time>
      </trkpt>
      <trkpt lat="37.1820720" lon="-7.4339320">
        <ele>9.9</ele>
        <time>2020-12-22T14:05:26Z</time>
      </trkpt>
      <trkpt lat="37.1820830" lon="-7.4338940">
        <ele>9.9</ele>
        <time>2020-12-22T14:05:27Z</time>
      </trkpt>
      <trkpt lat="37.1820950" lon="-7.4338560">
        <ele>9.9</ele>
        <time>2020-12-22T14:05:28Z</time>
      </trkpt>
      <trkpt lat="37.1821060" lon="-7.4338190">
        <ele>9.9</ele>
        <time>2020-12-22T14:05:29Z</time>
      </trkpt>
      <trkpt lat="37.1821170" lon="-7.4337800">
        <ele>9.9</ele>
        <time>2020-12-22T14:05:30Z</time>
      </trkpt>
      <trkpt lat="37.1821290" lon="-7.4337430">
        <ele>9.9</ele>
        <time>2020-12-22T14:05:31Z</time>
      </trkpt>
      <trkpt lat="37.1821400" lon="-7.4337080">
        <ele>9.8</ele>
        <time>2020-12-22T14:05:32Z</time>
      </trkpt>
      <trkpt lat="37.1821480" lon="-7.4336710">
        <ele>9.8</ele>
        <time>2020-12-22T14:05:33Z</time>
      </trkpt>
      <trkpt lat="37.1821560" lon="-7.4336330">
        <ele>9.8</ele>
        <time>2020-12-22T14:05:34Z</time>
      </trkpt>
      <trkpt lat="37.1821710" lon="-7.4335930">
        <ele>9.8</ele>
        <time>2020-12-22T14:05:35Z</time>
      </trkpt>
      <trkpt lat="37.1821820" lon="-7.4335520">
        <ele>9.8</ele>
        <time>2020-12-22T14:05:36Z</time>
      </trkpt>
      <trkpt lat="37.1821980" lon="-7.4335100">
        <ele>9.8</ele>
        <time>2020-12-22T14:05:37Z</time>
      </trkpt>
      <trkpt lat="37.1822090" lon="-7.4334690">
        <ele>9.8</ele>
        <time>2020-12-22T14:05:38Z</time>
      </trkpt>
      <trkpt lat="37.1822200" lon="-7.4334300">
        <ele>9.8</ele>
        <time>2020-12-22T14:05:39Z</time>
      </trkpt>
      <trkpt lat="37.1822320" lon="-7.4333930">
        <ele>9.8</ele>
        <time>2020-12-22T14:05:40Z</time>
      </trkpt>
      <trkpt lat="37.1822430" lon="-7.4333570">
        <ele>9.8</ele>
        <time>2020-12-22T14:05:41Z</time>
      </trkpt>
      <trkpt lat="37.1822510" lon="-7.4333240">
        <ele>9.8</ele>
        <time>2020-12-22T14:05:42Z</time>
      </trkpt>
      <trkpt lat="37.1822550" lon="-7.4332910">
        <ele>9.8</ele>
        <time>2020-12-22T14:05:43Z</time>
      </trkpt>
      <trkpt lat="37.1822620" lon="-7.4332600">
        <ele>9.8</ele>
        <time>2020-12-22T14:05:44Z</time>
      </trkpt>
      <trkpt lat="37.1822700" lon="-7.4332300">
        <ele>9.8</ele>
        <time>2020-12-22T14:05:45Z</time>
      </trkpt>
      <trkpt lat="37.1822810" lon="-7.4332040">
        <ele>9.8</ele>
        <time>2020-12-22T14:05:46Z</time>
      </trkpt>
      <trkpt lat="37.1822890" lon="-7.4331780">
        <ele>9.8</ele>
        <time>2020-12-22T14:05:47Z</time>
      </trkpt>
      <trkpt lat="37.1823010" lon="-7.4331480">
        <ele>9.8</ele>
        <time>2020-12-22T14:05:48Z</time>
      </trkpt>
      <trkpt lat="37.1823120" lon="-7.4331170">
        <ele>9.8</ele>
        <time>2020-12-22T14:05:49Z</time>
      </trkpt>
      <trkpt lat="37.1823200" lon="-7.4330840">
        <ele>9.8</ele>
        <time>2020-12-22T14:05:50Z</time>
      </trkpt>
      <trkpt lat="37.1823310" lon="-7.4330520">
        <ele>9.8</ele>
        <time>2020-12-22T14:05:51Z</time>
      </trkpt>
      <trkpt lat="37.1823390" lon="-7.4330190">
        <ele>9.8</ele>
        <time>2020-12-22T14:05:52Z</time>
      </trkpt>
      <trkpt lat="37.1823460" lon="-7.4329860">
        <ele>9.8</ele>
        <time>2020-12-22T14:05:53Z</time>
      </trkpt>
      <trkpt lat="37.1823580" lon="-7.4329560">
        <ele>9.8</ele>
        <time>2020-12-22T14:05:54Z</time>
      </trkpt>
      <trkpt lat="37.1823690" lon="-7.4329260">
        <ele>9.7</ele>
        <time>2020-12-22T14:05:55Z</time>
      </trkpt>
      <trkpt lat="37.1823770" lon="-7.4328960">
        <ele>9.7</ele>
        <time>2020-12-22T14:05:56Z</time>
      </trkpt>
      <trkpt lat="37.1823840" lon="-7.4328640">
        <ele>9.7</ele>
        <time>2020-12-22T14:05:57Z</time>
      </trkpt>
      <trkpt lat="37.1823920" lon="-7.4328340">
        <ele>9.7</ele>
        <time>2020-12-22T14:05:58Z</time>
      </trkpt>
      <trkpt lat="37.1824000" lon="-7.4328040">
        <ele>9.7</ele>
        <time>2020-12-22T14:05:59Z</time>
      </trkpt>
      <trkpt lat="37.1824070" lon="-7.4327750">
        <ele>9.7</ele>
        <time>2020-12-22T14:06:00Z</time>
      </trkpt>
      <trkpt lat="37.1824190" lon="-7.4327480">
        <ele>9.7</ele>
        <time>2020-12-22T14:06:01Z</time>
      </trkpt>
      <trkpt lat="37.1824230" lon="-7.4327220">
        <ele>9.7</ele>
        <time>2020-12-22T14:06:02Z</time>
      </trkpt>
      <trkpt lat="37.1824300" lon="-7.4326950">
        <ele>9.7</ele>
        <time>2020-12-22T14:06:03Z</time>
      </trkpt>
      <trkpt lat="37.1824380" lon="-7.4326690">
        <ele>9.7</ele>
        <time>2020-12-22T14:06:04Z</time>
      </trkpt>
      <trkpt lat="37.1824460" lon="-7.4326410">
        <ele>9.7</ele>
        <time>2020-12-22T14:06:05Z</time>
      </trkpt>
      <trkpt lat="37.1824570" lon="-7.4326110">
        <ele>9.7</ele>
        <time>2020-12-22T14:06:06Z</time>
      </trkpt>
      <trkpt lat="37.1824650" lon="-7.4325790">
        <ele>9.7</ele>
        <time>2020-12-22T14:06:07Z</time>
      </trkpt>
      <trkpt lat="37.1824680" lon="-7.4325450">
        <ele>9.7</ele>
        <time>2020-12-22T14:06:08Z</time>
      </trkpt>
      <trkpt lat="37.1824680" lon="-7.4325110">
        <ele>9.7</ele>
        <time>2020-12-22T14:06:09Z</time>
      </trkpt>
      <trkpt lat="37.1824650" lon="-7.4324770">
        <ele>9.7</ele>
        <time>2020-12-22T14:06:10Z</time>
      </trkpt>
      <trkpt lat="37.1824680" lon="-7.4324390">
        <ele>9.7</ele>
        <time>2020-12-22T14:06:11Z</time>
      </trkpt>
      <trkpt lat="37.1824760" lon="-7.4323940">
        <ele>9.7</ele>
        <time>2020-12-22T14:06:12Z</time>
      </trkpt>
      <trkpt lat="37.1824880" lon="-7.4323470">
        <ele>9.7</ele>
        <time>2020-12-22T14:06:13Z</time>
      </trkpt>
      <trkpt lat="37.1825030" lon="-7.4323030">
        <ele>9.7</ele>
        <time>2020-12-22T14:06:14Z</time>
      </trkpt>
      <trkpt lat="37.1825180" lon="-7.4322620">
        <ele>9.7</ele>
        <time>2020-12-22T14:06:15Z</time>
      </trkpt>
      <trkpt lat="37.1825330" lon="-7.4322240">
        <ele>9.7</ele>
        <time>2020-12-22T14:06:16Z</time>
      </trkpt>
      <trkpt lat="37.1825450" lon="-7.4321870">
        <ele>9.7</ele>
        <time>2020-12-22T14:06:17Z</time>
      </trkpt>
      <trkpt lat="37.1825560" lon="-7.4321520">
        <ele>9.7</ele>
        <time>2020-12-22T14:06:18Z</time>
      </trkpt>
      <trkpt lat="37.1825680" lon="-7.4321180">
        <ele>9.7</ele>
        <time>2020-12-22T14:06:19Z</time>
      </trkpt>
      <trkpt lat="37.1825750" lon="-7.4320860">
        <ele>9.7</ele>
        <time>2020-12-22T14:06:20Z</time>
      </trkpt>
      <trkpt lat="37.1825870" lon="-7.4320550">
        <ele>9.7</ele>
        <time>2020-12-22T14:06:21Z</time>
      </trkpt>
      <trkpt lat="37.1825940" lon="-7.4320210">
        <ele>9.7</ele>
        <time>2020-12-22T14:06:22Z</time>
      </trkpt>
      <trkpt lat="37.1826060" lon="-7.4319850">
        <ele>9.7</ele>
        <time>2020-12-22T14:06:23Z</time>
      </trkpt>
      <trkpt lat="37.1826130" lon="-7.4319460">
        <ele>9.7</ele>
        <time>2020-12-22T14:06:24Z</time>
      </trkpt>
      <trkpt lat="37.1826290" lon="-7.4319070">
        <ele>9.7</ele>
        <time>2020-12-22T14:06:25Z</time>
      </trkpt>
      <trkpt lat="37.1826400" lon="-7.4318680">
        <ele>9.7</ele>
        <time>2020-12-22T14:06:26Z</time>
      </trkpt>
      <trkpt lat="37.1826520" lon="-7.4318290">
        <ele>9.7</ele>
        <time>2020-12-22T14:06:27Z</time>
      </trkpt>
      <trkpt lat="37.1826630" lon="-7.4317930">
        <ele>9.7</ele>
        <time>2020-12-22T14:06:28Z</time>
      </trkpt>
      <trkpt lat="37.1826780" lon="-7.4317580">
        <ele>9.7</ele>
        <time>2020-12-22T14:06:29Z</time>
      </trkpt>
      <trkpt lat="37.1826900" lon="-7.4317250">
        <ele>9.7</ele>
        <time>2020-12-22T14:06:30Z</time>
      </trkpt>
      <trkpt lat="37.1827010" lon="-7.4316910">
        <ele>9.7</ele>
        <time>2020-12-22T14:06:31Z</time>
      </trkpt>
      <trkpt lat="37.1827130" lon="-7.4316560">
        <ele>9.7</ele>
        <time>2020-12-22T14:06:32Z</time>
      </trkpt>
      <trkpt lat="37.1827240" lon="-7.4316220">
        <ele>9.7</ele>
        <time>2020-12-22T14:06:33Z</time>
      </trkpt>
      <trkpt lat="37.1827350" lon="-7.4315900">
        <ele>9.6</ele>
        <time>2020-12-22T14:06:34Z</time>
      </trkpt>
      <trkpt lat="37.1827430" lon="-7.4315600">
        <ele>9.6</ele>
        <time>2020-12-22T14:06:35Z</time>
      </trkpt>
      <trkpt lat="37.1827510" lon="-7.4315310">
        <ele>9.6</ele>
        <time>2020-12-22T14:06:36Z</time>
      </trkpt>
      <trkpt lat="37.1827580" lon="-7.4315040">
        <ele>9.6</ele>
        <time>2020-12-22T14:06:37Z</time>
      </trkpt>
      <trkpt lat="37.1827660" lon="-7.4314740">
        <ele>9.6</ele>
        <time>2020-12-22T14:06:38Z</time>
      </trkpt>
      <trkpt lat="37.1827740" lon="-7.4314410">
        <ele>9.6</ele>
        <time>2020-12-22T14:06:39Z</time>
      </trkpt>
      <trkpt lat="37.1827850" lon="-7.4314050">
        <ele>9.6</ele>
        <time>2020-12-22T14:06:40Z</time>
      </trkpt>
      <trkpt lat="37.1827930" lon="-7.4313670">
        <ele>9.6</ele>
        <time>2020-12-22T14:06:41Z</time>
      </trkpt>
      <trkpt lat="37.1828040" lon="-7.4313280">
        <ele>9.6</ele>
        <time>2020-12-22T14:06:42Z</time>
      </trkpt>
      <trkpt lat="37.1828190" lon="-7.4312890">
        <ele>9.6</ele>
        <time>2020-12-22T14:06:43Z</time>
      </trkpt>
      <trkpt lat="37.1828310" lon="-7.4312510">
        <ele>9.6</ele>
        <time>2020-12-22T14:06:44Z</time>
      </trkpt>
      <trkpt lat="37.1828460" lon="-7.4312120">
        <ele>9.6</ele>
        <time>2020-12-22T14:06:45Z</time>
      </trkpt>
      <trkpt lat="37.1828610" lon="-7.4311750">
        <ele>9.5</ele>
        <time>2020-12-22T14:06:46Z</time>
      </trkpt>
      <trkpt lat="37.1828730" lon="-7.4311370">
        <ele>9.5</ele>
        <time>2020-12-22T14:06:47Z</time>
      </trkpt>
      <trkpt lat="37.1828840" lon="-7.4310980">
        <ele>9.5</ele>
        <time>2020-12-22T14:06:48Z</time>
      </trkpt>
      <trkpt lat="37.1828960" lon="-7.4310590">
        <ele>9.5</ele>
        <time>2020-12-22T14:06:49Z</time>
      </trkpt>
      <trkpt lat="37.1829070" lon="-7.4310210">
        <ele>9.5</ele>
        <time>2020-12-22T14:06:50Z</time>
      </trkpt>
      <trkpt lat="37.1829150" lon="-7.4309860">
        <ele>9.5</ele>
        <time>2020-12-22T14:06:51Z</time>
      </trkpt>
      <trkpt lat="37.1829260" lon="-7.4309540">
        <ele>9.5</ele>
        <time>2020-12-22T14:06:52Z</time>
      </trkpt>
      <trkpt lat="37.1829340" lon="-7.4309250">
        <ele>9.5</ele>
        <time>2020-12-22T14:06:53Z</time>
      </trkpt>
      <trkpt lat="37.1829410" lon="-7.4308980">
        <ele>9.5</ele>
        <time>2020-12-22T14:06:54Z</time>
      </trkpt>
      <trkpt lat="37.1829530" lon="-7.4308700">
        <ele>9.5</ele>
        <time>2020-12-22T14:06:55Z</time>
      </trkpt>
      <trkpt lat="37.1829600" lon="-7.4308400">
        <ele>9.5</ele>
        <time>2020-12-22T14:06:56Z</time>
      </trkpt>
      <trkpt lat="37.1829680" lon="-7.4308070">
        <ele>9.5</ele>
        <time>2020-12-22T14:06:57Z</time>
      </trkpt>
      <trkpt lat="37.1829800" lon="-7.4307700">
        <ele>9.4</ele>
        <time>2020-12-22T14:06:58Z</time>
      </trkpt>
      <trkpt lat="37.1829910" lon="-7.4307320">
        <ele>9.4</ele>
        <time>2020-12-22T14:06:59Z</time>
      </trkpt>
      <trkpt lat="37.1830020" lon="-7.4306930">
        <ele>9.4</ele>
        <time>2020-12-22T14:07:00Z</time>
      </trkpt>
      <trkpt lat="37.1830180" lon="-7.4306540">
        <ele>9.4</ele>
        <time>2020-12-22T14:07:01Z</time>
      </trkpt>
      <trkpt lat="37.1830330" lon="-7.4306130">
        <ele>9.4</ele>
        <time>2020-12-22T14:07:02Z</time>
      </trkpt>
      <trkpt lat="37.1830440" lon="-7.4305720">
        <ele>9.4</ele>
        <time>2020-12-22T14:07:03Z</time>
      </trkpt>
      <trkpt lat="37.1830560" lon="-7.4305290">
        <ele>9.4</ele>
        <time>2020-12-22T14:07:04Z</time>
      </trkpt>
      <trkpt lat="37.1830710" lon="-7.4304850">
        <ele>9.3</ele>
        <time>2020-12-22T14:07:05Z</time>
      </trkpt>
      <trkpt lat="37.1830830" lon="-7.4304440">
        <ele>9.3</ele>
        <time>2020-12-22T14:07:06Z</time>
      </trkpt>
      <trkpt lat="37.1830940" lon="-7.4304050">
        <ele>9.3</ele>
        <time>2020-12-22T14:07:07Z</time>
      </trkpt>
      <trkpt lat="37.1831020" lon="-7.4303680">
        <ele>9.3</ele>
        <time>2020-12-22T14:07:08Z</time>
      </trkpt>
      <trkpt lat="37.1831130" lon="-7.4303340">
        <ele>9.3</ele>
        <time>2020-12-22T14:07:09Z</time>
      </trkpt>
      <trkpt lat="37.1831250" lon="-7.4303020">
        <ele>9.3</ele>
        <time>2020-12-22T14:07:10Z</time>
      </trkpt>
      <trkpt lat="37.1831320" lon="-7.4302730">
        <ele>9.3</ele>
        <time>2020-12-22T14:07:11Z</time>
      </trkpt>
      <trkpt lat="37.1831440" lon="-7.4302460">
        <ele>9.3</ele>
        <time>2020-12-22T14:07:12Z</time>
      </trkpt>
      <trkpt lat="37.1831510" lon="-7.4302190">
        <ele>9.3</ele>
        <time>2020-12-22T14:07:13Z</time>
      </trkpt>
      <trkpt lat="37.1831590" lon="-7.4301930">
        <ele>9.3</ele>
        <time>2020-12-22T14:07:14Z</time>
      </trkpt>
      <trkpt lat="37.1831670" lon="-7.4301710">
        <ele>9.3</ele>
        <time>2020-12-22T14:07:15Z</time>
      </trkpt>
      <trkpt lat="37.1831740" lon="-7.4301500">
        <ele>9.3</ele>
        <time>2020-12-22T14:07:16Z</time>
      </trkpt>
      <trkpt lat="37.1831780" lon="-7.4301320">
        <ele>9.3</ele>
        <time>2020-12-22T14:07:17Z</time>
      </trkpt>
      <trkpt lat="37.1831860" lon="-7.4301170">
        <ele>9.3</ele>
        <time>2020-12-22T14:07:18Z</time>
      </trkpt>
      <trkpt lat="37.1831890" lon="-7.4301090">
        <ele>9.3</ele>
        <time>2020-12-22T14:07:19Z</time>
      </trkpt>
      <trkpt lat="37.1832080" lon="-7.4300140">
        <ele>9.3</ele>
        <time>2020-12-22T14:13:05Z</time>
      </trkpt>
      <trkpt lat="37.1832160" lon="-7.4299960">
        <ele>9.3</ele>
        <time>2020-12-22T14:13:06Z</time>
      </trkpt>
      <trkpt lat="37.1832240" lon="-7.4299800">
        <ele>9.3</ele>
        <time>2020-12-22T14:13:07Z</time>
      </trkpt>
      <trkpt lat="37.1832280" lon="-7.4299660">
        <ele>9.3</ele>
        <time>2020-12-22T14:13:08Z</time>
      </trkpt>
      <trkpt lat="37.1832350" lon="-7.4299550">
        <ele>9.3</ele>
        <time>2020-12-22T14:13:09Z</time>
      </trkpt>
      <trkpt lat="37.1832390" lon="-7.4299430">
        <ele>9.3</ele>
        <time>2020-12-22T14:13:10Z</time>
      </trkpt>
      <trkpt lat="37.1832390" lon="-7.4299310">
        <ele>9.3</ele>
        <time>2020-12-22T14:13:11Z</time>
      </trkpt>
      <trkpt lat="37.1832390" lon="-7.4299180">
        <ele>9.3</ele>
        <time>2020-12-22T14:13:12Z</time>
      </trkpt>
      <trkpt lat="37.1832390" lon="-7.4299040">
        <ele>9.3</ele>
        <time>2020-12-22T14:13:13Z</time>
      </trkpt>
      <trkpt lat="37.1832470" lon="-7.4298890">
        <ele>9.3</ele>
        <time>2020-12-22T14:13:14Z</time>
      </trkpt>
      <trkpt lat="37.1832500" lon="-7.4298740">
        <ele>9.3</ele>
        <time>2020-12-22T14:13:15Z</time>
      </trkpt>
      <trkpt lat="37.1832580" lon="-7.4298590">
        <ele>9.3</ele>
        <time>2020-12-22T14:13:16Z</time>
      </trkpt>
      <trkpt lat="37.1832660" lon="-7.4298420">
        <ele>9.3</ele>
        <time>2020-12-22T14:13:17Z</time>
      </trkpt>
      <trkpt lat="37.1832730" lon="-7.4298230">
        <ele>9.3</ele>
        <time>2020-12-22T14:13:18Z</time>
      </trkpt>
      <trkpt lat="37.1832810" lon="-7.4298020">
        <ele>9.3</ele>
        <time>2020-12-22T14:13:19Z</time>
      </trkpt>
      <trkpt lat="37.1832890" lon="-7.4297810">
        <ele>9.3</ele>
        <time>2020-12-22T14:13:20Z</time>
      </trkpt>
      <trkpt lat="37.1832960" lon="-7.4297620">
        <ele>9.3</ele>
        <time>2020-12-22T14:13:21Z</time>
      </trkpt>
      <trkpt lat="37.1833040" lon="-7.4297430">
        <ele>9.3</ele>
        <time>2020-12-22T14:13:22Z</time>
      </trkpt>
      <trkpt lat="37.1833150" lon="-7.4297220">
        <ele>9.3</ele>
        <time>2020-12-22T14:13:23Z</time>
      </trkpt>
      <trkpt lat="37.1833310" lon="-7.4296960">
        <ele>9.3</ele>
        <time>2020-12-22T14:13:24Z</time>
      </trkpt>
      <trkpt lat="37.1833460" lon="-7.4296660">
        <ele>9.3</ele>
        <time>2020-12-22T14:13:25Z</time>
      </trkpt>
      <trkpt lat="37.1833610" lon="-7.4296300">
        <ele>9.3</ele>
        <time>2020-12-22T14:13:26Z</time>
      </trkpt>
      <trkpt lat="37.1833760" lon="-7.4295900">
        <ele>9.3</ele>
        <time>2020-12-22T14:13:27Z</time>
      </trkpt>
      <trkpt lat="37.1833920" lon="-7.4295450">
        <ele>9.3</ele>
        <time>2020-12-22T14:13:28Z</time>
      </trkpt>
      <trkpt lat="37.1833990" lon="-7.4294990">
        <ele>9.3</ele>
        <time>2020-12-22T14:13:29Z</time>
      </trkpt>
      <trkpt lat="37.1834110" lon="-7.4294580">
        <ele>9.3</ele>
        <time>2020-12-22T14:13:30Z</time>
      </trkpt>
      <trkpt lat="37.1834220" lon="-7.4294180">
        <ele>9.3</ele>
        <time>2020-12-22T14:13:31Z</time>
      </trkpt>
      <trkpt lat="37.1834300" lon="-7.4293810">
        <ele>9.3</ele>
        <time>2020-12-22T14:13:32Z</time>
      </trkpt>
      <trkpt lat="37.1834410" lon="-7.4293470">
        <ele>9.4</ele>
        <time>2020-12-22T14:13:33Z</time>
      </trkpt>
      <trkpt lat="37.1834530" lon="-7.4293120">
        <ele>9.4</ele>
        <time>2020-12-22T14:13:34Z</time>
      </trkpt>
      <trkpt lat="37.1834600" lon="-7.4292770">
        <ele>9.4</ele>
        <time>2020-12-22T14:13:35Z</time>
      </trkpt>
      <trkpt lat="37.1834720" lon="-7.4292400">
        <ele>9.4</ele>
        <time>2020-12-22T14:13:36Z</time>
      </trkpt>
      <trkpt lat="37.1834830" lon="-7.4292000">
        <ele>9.4</ele>
        <time>2020-12-22T14:13:37Z</time>
      </trkpt>
      <trkpt lat="37.1834950" lon="-7.4291620">
        <ele>9.4</ele>
        <time>2020-12-22T14:13:38Z</time>
      </trkpt>
      <trkpt lat="37.1835100" lon="-7.4291270">
        <ele>9.4</ele>
        <time>2020-12-22T14:13:39Z</time>
      </trkpt>
      <trkpt lat="37.1835210" lon="-7.4290930">
        <ele>9.4</ele>
        <time>2020-12-22T14:13:40Z</time>
      </trkpt>
      <trkpt lat="37.1835330" lon="-7.4290600">
        <ele>9.4</ele>
        <time>2020-12-22T14:13:41Z</time>
      </trkpt>
      <trkpt lat="37.1835440" lon="-7.4290280">
        <ele>9.4</ele>
        <time>2020-12-22T14:13:42Z</time>
      </trkpt>
      <trkpt lat="37.1835520" lon="-7.4289950">
        <ele>9.4</ele>
        <time>2020-12-22T14:13:43Z</time>
      </trkpt>
      <trkpt lat="37.1835590" lon="-7.4289630">
        <ele>9.4</ele>
        <time>2020-12-22T14:13:44Z</time>
      </trkpt>
      <trkpt lat="37.1835670" lon="-7.4289300">
        <ele>9.4</ele>
        <time>2020-12-22T14:13:45Z</time>
      </trkpt>
      <trkpt lat="37.1835750" lon="-7.4288990">
        <ele>9.4</ele>
        <time>2020-12-22T14:13:46Z</time>
      </trkpt>
      <trkpt lat="37.1835860" lon="-7.4288690">
        <ele>9.4</ele>
        <time>2020-12-22T14:13:47Z</time>
      </trkpt>
      <trkpt lat="37.1835940" lon="-7.4288400">
        <ele>9.4</ele>
        <time>2020-12-22T14:13:48Z</time>
      </trkpt>
      <trkpt lat="37.1836050" lon="-7.4288120">
        <ele>9.4</ele>
        <time>2020-12-22T14:13:49Z</time>
      </trkpt>
      <trkpt lat="37.1836130" lon="-7.4287850">
        <ele>9.4</ele>
        <time>2020-12-22T14:13:50Z</time>
      </trkpt>
      <trkpt lat="37.1836240" lon="-7.4287600">
        <ele>9.4</ele>
        <time>2020-12-22T14:13:51Z</time>
      </trkpt>
      <trkpt lat="37.1836360" lon="-7.4287350">
        <ele>9.4</ele>
        <time>2020-12-22T14:13:52Z</time>
      </trkpt>
      <trkpt lat="37.1836430" lon="-7.4287100">
        <ele>9.4</ele>
        <time>2020-12-22T14:13:53Z</time>
      </trkpt>
      <trkpt lat="37.1836470" lon="-7.4286870">
        <ele>9.3</ele>
        <time>2020-12-22T14:13:54Z</time>
      </trkpt>
      <trkpt lat="37.1836510" lon="-7.4286620">
        <ele>9.3</ele>
        <time>2020-12-22T14:13:55Z</time>
      </trkpt>
      <trkpt lat="37.1836590" lon="-7.4286380">
        <ele>9.3</ele>
        <time>2020-12-22T14:13:56Z</time>
      </trkpt>
      <trkpt lat="37.1836660" lon="-7.4286110">
        <ele>9.3</ele>
        <time>2020-12-22T14:13:57Z</time>
      </trkpt>
      <trkpt lat="37.1836740" lon="-7.4285810">
        <ele>9.3</ele>
        <time>2020-12-22T14:13:58Z</time>
      </trkpt>
      <trkpt lat="37.1836850" lon="-7.4285490">
        <ele>9.3</ele>
        <time>2020-12-22T14:13:59Z</time>
      </trkpt>
      <trkpt lat="37.1836970" lon="-7.4285180">
        <ele>9.3</ele>
        <time>2020-12-22T14:14:00Z</time>
      </trkpt>
      <trkpt lat="37.1837120" lon="-7.4284880">
        <ele>9.3</ele>
        <time>2020-12-22T14:14:01Z</time>
      </trkpt>
      <trkpt lat="37.1837200" lon="-7.4284560">
        <ele>9.3</ele>
        <time>2020-12-22T14:14:02Z</time>
      </trkpt>
      <trkpt lat="37.1837310" lon="-7.4284250">
        <ele>9.3</ele>
        <time>2020-12-22T14:14:03Z</time>
      </trkpt>
      <trkpt lat="37.1837430" lon="-7.4283950">
        <ele>9.3</ele>
        <time>2020-12-22T14:14:04Z</time>
      </trkpt>
      <trkpt lat="37.1837500" lon="-7.4283660">
        <ele>9.3</ele>
        <time>2020-12-22T14:14:05Z</time>
      </trkpt>
      <trkpt lat="37.1837580" lon="-7.4283370">
        <ele>9.3</ele>
        <time>2020-12-22T14:14:06Z</time>
      </trkpt>
      <trkpt lat="37.1837650" lon="-7.4283080">
        <ele>9.3</ele>
        <time>2020-12-22T14:14:07Z</time>
      </trkpt>
      <trkpt lat="37.1837730" lon="-7.4282780">
        <ele>9.3</ele>
        <time>2020-12-22T14:14:08Z</time>
      </trkpt>
      <trkpt lat="37.1837810" lon="-7.4282470">
        <ele>9.3</ele>
        <time>2020-12-22T14:14:09Z</time>
      </trkpt>
      <trkpt lat="37.1837880" lon="-7.4282140">
        <ele>9.3</ele>
        <time>2020-12-22T14:14:10Z</time>
      </trkpt>
      <trkpt lat="37.1838000" lon="-7.4281790">
        <ele>9.3</ele>
        <time>2020-12-22T14:14:11Z</time>
      </trkpt>
      <trkpt lat="37.1838110" lon="-7.4281440">
        <ele>9.3</ele>
        <time>2020-12-22T14:14:12Z</time>
      </trkpt>
      <trkpt lat="37.1838190" lon="-7.4281080">
        <ele>9.3</ele>
        <time>2020-12-22T14:14:13Z</time>
      </trkpt>
      <trkpt lat="37.1838300" lon="-7.4280720">
        <ele>9.3</ele>
        <time>2020-12-22T14:14:14Z</time>
      </trkpt>
      <trkpt lat="37.1838420" lon="-7.4280360">
        <ele>9.3</ele>
        <time>2020-12-22T14:14:15Z</time>
      </trkpt>
      <trkpt lat="37.1838490" lon="-7.4280020">
        <ele>9.3</ele>
        <time>2020-12-22T14:14:16Z</time>
      </trkpt>
      <trkpt lat="37.1838570" lon="-7.4279690">
        <ele>9.3</ele>
        <time>2020-12-22T14:14:17Z</time>
      </trkpt>
      <trkpt lat="37.1838680" lon="-7.4279370">
        <ele>9.3</ele>
        <time>2020-12-22T14:14:18Z</time>
      </trkpt>
      <trkpt lat="37.1838760" lon="-7.4279050">
        <ele>9.3</ele>
        <time>2020-12-22T14:14:19Z</time>
      </trkpt>
      <trkpt lat="37.1838870" lon="-7.4278730">
        <ele>9.3</ele>
        <time>2020-12-22T14:14:20Z</time>
      </trkpt>
      <trkpt lat="37.1838950" lon="-7.4278400">
        <ele>9.3</ele>
        <time>2020-12-22T14:14:21Z</time>
      </trkpt>
      <trkpt lat="37.1839070" lon="-7.4278080">
        <ele>9.3</ele>
        <time>2020-12-22T14:14:22Z</time>
      </trkpt>
      <trkpt lat="37.1839140" lon="-7.4277740">
        <ele>9.3</ele>
        <time>2020-12-22T14:14:23Z</time>
      </trkpt>
      <trkpt lat="37.1839220" lon="-7.4277410">
        <ele>9.3</ele>
        <time>2020-12-22T14:14:24Z</time>
      </trkpt>
      <trkpt lat="37.1839330" lon="-7.4277090">
        <ele>9.3</ele>
        <time>2020-12-22T14:14:25Z</time>
      </trkpt>
      <trkpt lat="37.1839410" lon="-7.4276780">
        <ele>9.3</ele>
        <time>2020-12-22T14:14:26Z</time>
      </trkpt>
      <trkpt lat="37.1839490" lon="-7.4276490">
        <ele>9.3</ele>
        <time>2020-12-22T14:14:27Z</time>
      </trkpt>
      <trkpt lat="37.1839560" lon="-7.4276180">
        <ele>9.3</ele>
        <time>2020-12-22T14:14:28Z</time>
      </trkpt>
      <trkpt lat="37.1839640" lon="-7.4275840">
        <ele>9.3</ele>
        <time>2020-12-22T14:14:29Z</time>
      </trkpt>
      <trkpt lat="37.1839750" lon="-7.4275490">
        <ele>9.3</ele>
        <time>2020-12-22T14:14:30Z</time>
      </trkpt>
      <trkpt lat="37.1839830" lon="-7.4275130">
        <ele>9.3</ele>
        <time>2020-12-22T14:14:31Z</time>
      </trkpt>
      <trkpt lat="37.1839940" lon="-7.4274760">
        <ele>9.3</ele>
        <time>2020-12-22T14:14:32Z</time>
      </trkpt>
      <trkpt lat="37.1840060" lon="-7.4274400">
        <ele>9.3</ele>
        <time>2020-12-22T14:14:33Z</time>
      </trkpt>
      <trkpt lat="37.1840130" lon="-7.4274030">
        <ele>9.3</ele>
        <time>2020-12-22T14:14:34Z</time>
      </trkpt>
      <trkpt lat="37.1840210" lon="-7.4273660">
        <ele>9.4</ele>
        <time>2020-12-22T14:14:35Z</time>
      </trkpt>
      <trkpt lat="37.1840320" lon="-7.4273300">
        <ele>9.4</ele>
        <time>2020-12-22T14:14:36Z</time>
      </trkpt>
      <trkpt lat="37.1840440" lon="-7.4272960">
        <ele>9.4</ele>
        <time>2020-12-22T14:14:37Z</time>
      </trkpt>
      <trkpt lat="37.1840550" lon="-7.4272600">
        <ele>9.4</ele>
        <time>2020-12-22T14:14:38Z</time>
      </trkpt>
      <trkpt lat="37.1840630" lon="-7.4272250">
        <ele>9.4</ele>
        <time>2020-12-22T14:14:39Z</time>
      </trkpt>
      <trkpt lat="37.1840780" lon="-7.4271890">
        <ele>9.4</ele>
        <time>2020-12-22T14:14:40Z</time>
      </trkpt>
      <trkpt lat="37.1840900" lon="-7.4271540">
        <ele>9.5</ele>
        <time>2020-12-22T14:14:41Z</time>
      </trkpt>
      <trkpt lat="37.1840970" lon="-7.4271180">
        <ele>9.5</ele>
        <time>2020-12-22T14:14:42Z</time>
      </trkpt>
      <trkpt lat="37.1841130" lon="-7.4270840">
        <ele>9.5</ele>
        <time>2020-12-22T14:14:43Z</time>
      </trkpt>
      <trkpt lat="37.1841240" lon="-7.4270480">
        <ele>9.5</ele>
        <time>2020-12-22T14:14:44Z</time>
      </trkpt>
      <trkpt lat="37.1841350" lon="-7.4270140">
        <ele>9.5</ele>
        <time>2020-12-22T14:14:45Z</time>
      </trkpt>
      <trkpt lat="37.1841470" lon="-7.4269810">
        <ele>9.5</ele>
        <time>2020-12-22T14:14:46Z</time>
      </trkpt>
      <trkpt lat="37.1841580" lon="-7.4269490">
        <ele>9.6</ele>
        <time>2020-12-22T14:14:47Z</time>
      </trkpt>
      <trkpt lat="37.1841700" lon="-7.4269180">
        <ele>9.6</ele>
        <time>2020-12-22T14:14:48Z</time>
      </trkpt>
      <trkpt lat="37.1841770" lon="-7.4268890">
        <ele>9.6</ele>
        <time>2020-12-22T14:14:49Z</time>
      </trkpt>
      <trkpt lat="37.1841850" lon="-7.4268600">
        <ele>9.6</ele>
        <time>2020-12-22T14:14:50Z</time>
      </trkpt>
      <trkpt lat="37.1842000" lon="-7.4268310">
        <ele>9.6</ele>
        <time>2020-12-22T14:14:51Z</time>
      </trkpt>
      <trkpt lat="37.1842080" lon="-7.4267980">
        <ele>9.6</ele>
        <time>2020-12-22T14:14:52Z</time>
      </trkpt>
      <trkpt lat="37.1842160" lon="-7.4267650">
        <ele>9.6</ele>
        <time>2020-12-22T14:14:53Z</time>
      </trkpt>
      <trkpt lat="37.1842230" lon="-7.4267300">
        <ele>9.6</ele>
        <time>2020-12-22T14:14:54Z</time>
      </trkpt>
      <trkpt lat="37.1842350" lon="-7.4266930">
        <ele>9.6</ele>
        <time>2020-12-22T14:14:55Z</time>
      </trkpt>
      <trkpt lat="37.1842460" lon="-7.4266580">
        <ele>9.6</ele>
        <time>2020-12-22T14:14:56Z</time>
      </trkpt>
      <trkpt lat="37.1842580" lon="-7.4266240">
        <ele>9.6</ele>
        <time>2020-12-22T14:14:57Z</time>
      </trkpt>
      <trkpt lat="37.1842690" lon="-7.4265920">
        <ele>9.7</ele>
        <time>2020-12-22T14:14:58Z</time>
      </trkpt>
      <trkpt lat="37.1842770" lon="-7.4265610">
        <ele>9.7</ele>
        <time>2020-12-22T14:14:59Z</time>
      </trkpt>
      <trkpt lat="37.1842840" lon="-7.4265330">
        <ele>9.7</ele>
        <time>2020-12-22T14:15:00Z</time>
      </trkpt>
      <trkpt lat="37.1842960" lon="-7.4265060">
        <ele>9.7</ele>
        <time>2020-12-22T14:15:01Z</time>
      </trkpt>
      <trkpt lat="37.1843030" lon="-7.4264790">
        <ele>9.7</ele>
        <time>2020-12-22T14:15:02Z</time>
      </trkpt>
      <trkpt lat="37.1843110" lon="-7.4264520">
        <ele>9.7</ele>
        <time>2020-12-22T14:15:03Z</time>
      </trkpt>
      <trkpt lat="37.1843190" lon="-7.4264230">
        <ele>9.7</ele>
        <time>2020-12-22T14:15:04Z</time>
      </trkpt>
      <trkpt lat="37.1843260" lon="-7.4263920">
        <ele>9.7</ele>
        <time>2020-12-22T14:15:05Z</time>
      </trkpt>
      <trkpt lat="37.1843340" lon="-7.4263610">
        <ele>9.7</ele>
        <time>2020-12-22T14:15:06Z</time>
      </trkpt>
      <trkpt lat="37.1843450" lon="-7.4263320">
        <ele>9.8</ele>
        <time>2020-12-22T14:15:07Z</time>
      </trkpt>
      <trkpt lat="37.1843530" lon="-7.4263040">
        <ele>9.8</ele>
        <time>2020-12-22T14:15:08Z</time>
      </trkpt>
      <trkpt lat="37.1843610" lon="-7.4262760">
        <ele>9.8</ele>
        <time>2020-12-22T14:15:09Z</time>
      </trkpt>
      <trkpt lat="37.1843680" lon="-7.4262480">
        <ele>9.8</ele>
        <time>2020-12-22T14:15:10Z</time>
      </trkpt>
      <trkpt lat="37.1843760" lon="-7.4262190">
        <ele>9.8</ele>
        <time>2020-12-22T14:15:11Z</time>
      </trkpt>
      <trkpt lat="37.1843870" lon="-7.4261890">
        <ele>9.8</ele>
        <time>2020-12-22T14:15:12Z</time>
      </trkpt>
      <trkpt lat="37.1843990" lon="-7.4261590">
        <ele>9.8</ele>
        <time>2020-12-22T14:15:13Z</time>
      </trkpt>
      <trkpt lat="37.1844020" lon="-7.4261290">
        <ele>9.8</ele>
        <time>2020-12-22T14:15:14Z</time>
      </trkpt>
      <trkpt lat="37.1844100" lon="-7.4261000">
        <ele>9.8</ele>
        <time>2020-12-22T14:15:15Z</time>
      </trkpt>
      <trkpt lat="37.1844180" lon="-7.4260710">
        <ele>9.8</ele>
        <time>2020-12-22T14:15:16Z</time>
      </trkpt>
      <trkpt lat="37.1844290" lon="-7.4260440">
        <ele>9.8</ele>
        <time>2020-12-22T14:15:17Z</time>
      </trkpt>
      <trkpt lat="37.1844370" lon="-7.4260170">
        <ele>9.8</ele>
        <time>2020-12-22T14:15:18Z</time>
      </trkpt>
      <trkpt lat="37.1844440" lon="-7.4259900">
        <ele>9.8</ele>
        <time>2020-12-22T14:15:19Z</time>
      </trkpt>
      <trkpt lat="37.1844560" lon="-7.4259620">
        <ele>9.8</ele>
        <time>2020-12-22T14:15:20Z</time>
      </trkpt>
      <trkpt lat="37.1844640" lon="-7.4259340">
        <ele>9.8</ele>
        <time>2020-12-22T14:15:21Z</time>
      </trkpt>
      <trkpt lat="37.1844670" lon="-7.4259050">
        <ele>9.8</ele>
        <time>2020-12-22T14:15:22Z</time>
      </trkpt>
      <trkpt lat="37.1844750" lon="-7.4258760">
        <ele>9.8</ele>
        <time>2020-12-22T14:15:23Z</time>
      </trkpt>
      <trkpt lat="37.1844860" lon="-7.4258480">
        <ele>9.8</ele>
        <time>2020-12-22T14:15:24Z</time>
      </trkpt>
      <trkpt lat="37.1844940" lon="-7.4258200">
        <ele>9.8</ele>
        <time>2020-12-22T14:15:25Z</time>
      </trkpt>
      <trkpt lat="37.1845050" lon="-7.4257910">
        <ele>9.8</ele>
        <time>2020-12-22T14:15:26Z</time>
      </trkpt>
      <trkpt lat="37.1845130" lon="-7.4257610">
        <ele>9.8</ele>
        <time>2020-12-22T14:15:27Z</time>
      </trkpt>
      <trkpt lat="37.1845250" lon="-7.4257300">
        <ele>9.8</ele>
        <time>2020-12-22T14:15:28Z</time>
      </trkpt>
      <trkpt lat="37.1845320" lon="-7.4256980">
        <ele>9.8</ele>
        <time>2020-12-22T14:15:29Z</time>
      </trkpt>
      <trkpt lat="37.1845400" lon="-7.4256670">
        <ele>9.8</ele>
        <time>2020-12-22T14:15:30Z</time>
      </trkpt>
      <trkpt lat="37.1845470" lon="-7.4256350">
        <ele>9.8</ele>
        <time>2020-12-22T14:15:31Z</time>
      </trkpt>
      <trkpt lat="37.1845590" lon="-7.4256020">
        <ele>9.8</ele>
        <time>2020-12-22T14:15:32Z</time>
      </trkpt>
      <trkpt lat="37.1845660" lon="-7.4255690">
        <ele>9.9</ele>
        <time>2020-12-22T14:15:33Z</time>
      </trkpt>
      <trkpt lat="37.1845780" lon="-7.4255360">
        <ele>9.9</ele>
        <time>2020-12-22T14:15:34Z</time>
      </trkpt>
      <trkpt lat="37.1845890" lon="-7.4255030">
        <ele>9.9</ele>
        <time>2020-12-22T14:15:35Z</time>
      </trkpt>
      <trkpt lat="37.1845970" lon="-7.4254700">
        <ele>9.9</ele>
        <time>2020-12-22T14:15:36Z</time>
      </trkpt>
      <trkpt lat="37.1846080" lon="-7.4254370">
        <ele>9.9</ele>
        <time>2020-12-22T14:15:37Z</time>
      </trkpt>
      <trkpt lat="37.1846120" lon="-7.4254050">
        <ele>9.9</ele>
        <time>2020-12-22T14:15:38Z</time>
      </trkpt>
      <trkpt lat="37.1846200" lon="-7.4253730">
        <ele>9.9</ele>
        <time>2020-12-22T14:15:39Z</time>
      </trkpt>
      <trkpt lat="37.1846280" lon="-7.4253440">
        <ele>9.9</ele>
        <time>2020-12-22T14:15:40Z</time>
      </trkpt>
      <trkpt lat="37.1846350" lon="-7.4253160">
        <ele>9.9</ele>
        <time>2020-12-22T14:15:41Z</time>
      </trkpt>
      <trkpt lat="37.1846430" lon="-7.4252890">
        <ele>9.9</ele>
        <time>2020-12-22T14:15:42Z</time>
      </trkpt>
      <trkpt lat="37.1846500" lon="-7.4252600">
        <ele>9.9</ele>
        <time>2020-12-22T14:15:43Z</time>
      </trkpt>
      <trkpt lat="37.1846580" lon="-7.4252280">
        <ele>10.0</ele>
        <time>2020-12-22T14:15:44Z</time>
      </trkpt>
      <trkpt lat="37.1846660" lon="-7.4251950">
        <ele>10.0</ele>
        <time>2020-12-22T14:15:45Z</time>
      </trkpt>
      <trkpt lat="37.1846770" lon="-7.4251600">
        <ele>10.0</ele>
        <time>2020-12-22T14:15:46Z</time>
      </trkpt>
      <trkpt lat="37.1846890" lon="-7.4251240">
        <ele>10.0</ele>
        <time>2020-12-22T14:15:47Z</time>
      </trkpt>
      <trkpt lat="37.1847000" lon="-7.4250880">
        <ele>10.0</ele>
        <time>2020-12-22T14:15:48Z</time>
      </trkpt>
      <trkpt lat="37.1847080" lon="-7.4250520">
        <ele>10.0</ele>
        <time>2020-12-22T14:15:49Z</time>
      </trkpt>
      <trkpt lat="37.1847190" lon="-7.4250160">
        <ele>10.0</ele>
        <time>2020-12-22T14:15:50Z</time>
      </trkpt>
      <trkpt lat="37.1847340" lon="-7.4249800">
        <ele>10.0</ele>
        <time>2020-12-22T14:15:51Z</time>
      </trkpt>
      <trkpt lat="37.1847460" lon="-7.4249430">
        <ele>10.0</ele>
        <time>2020-12-22T14:15:52Z</time>
      </trkpt>
      <trkpt lat="37.1847570" lon="-7.4249070">
        <ele>10.0</ele>
        <time>2020-12-22T14:15:53Z</time>
      </trkpt>
      <trkpt lat="37.1847690" lon="-7.4248700">
        <ele>10.0</ele>
        <time>2020-12-22T14:15:54Z</time>
      </trkpt>
      <trkpt lat="37.1847800" lon="-7.4248330">
        <ele>10.0</ele>
        <time>2020-12-22T14:15:55Z</time>
      </trkpt>
      <trkpt lat="37.1847920" lon="-7.4247960">
        <ele>10.0</ele>
        <time>2020-12-22T14:15:56Z</time>
      </trkpt>
      <trkpt lat="37.1848030" lon="-7.4247580">
        <ele>10.1</ele>
        <time>2020-12-22T14:15:57Z</time>
      </trkpt>
      <trkpt lat="37.1848140" lon="-7.4247200">
        <ele>10.1</ele>
        <time>2020-12-22T14:15:58Z</time>
      </trkpt>
      <trkpt lat="37.1848260" lon="-7.4246840">
        <ele>10.1</ele>
        <time>2020-12-22T14:15:59Z</time>
      </trkpt>
      <trkpt lat="37.1848410" lon="-7.4246510">
        <ele>10.1</ele>
        <time>2020-12-22T14:16:00Z</time>
      </trkpt>
      <trkpt lat="37.1848530" lon="-7.4246180">
        <ele>10.1</ele>
        <time>2020-12-22T14:16:01Z</time>
      </trkpt>
      <trkpt lat="37.1848640" lon="-7.4245840">
        <ele>10.1</ele>
        <time>2020-12-22T14:16:02Z</time>
      </trkpt>
      <trkpt lat="37.1848720" lon="-7.4245460">
        <ele>10.1</ele>
        <time>2020-12-22T14:16:03Z</time>
      </trkpt>
      <trkpt lat="37.1848830" lon="-7.4245030">
        <ele>10.1</ele>
        <time>2020-12-22T14:16:04Z</time>
      </trkpt>
      <trkpt lat="37.1849020" lon="-7.4244490">
        <ele>10.1</ele>
        <time>2020-12-22T14:16:05Z</time>
      </trkpt>
      <trkpt lat="37.1849250" lon="-7.4243850">
        <ele>10.1</ele>
        <time>2020-12-22T14:16:06Z</time>
      </trkpt>
      <trkpt lat="37.1849480" lon="-7.4243250">
        <ele>10.1</ele>
        <time>2020-12-22T14:16:07Z</time>
      </trkpt>
      <trkpt lat="37.1849630" lon="-7.4242600">
        <ele>10.1</ele>
        <time>2020-12-22T14:16:08Z</time>
      </trkpt>
      <trkpt lat="37.1849820" lon="-7.4241930">
        <ele>10.1</ele>
        <time>2020-12-22T14:16:09Z</time>
      </trkpt>
      <trkpt lat="37.1850050" lon="-7.4241260">
        <ele>10.1</ele>
        <time>2020-12-22T14:16:10Z</time>
      </trkpt>
      <trkpt lat="37.1850240" lon="-7.4240580">
        <ele>10.1</ele>
        <time>2020-12-22T14:16:11Z</time>
      </trkpt>
      <trkpt lat="37.1850470" lon="-7.4239890">
        <ele>10.1</ele>
        <time>2020-12-22T14:16:12Z</time>
      </trkpt>
      <trkpt lat="37.1850660" lon="-7.4239160">
        <ele>10.1</ele>
        <time>2020-12-22T14:16:13Z</time>
      </trkpt>
      <trkpt lat="37.1850890" lon="-7.4238400">
        <ele>10.1</ele>
        <time>2020-12-22T14:16:14Z</time>
      </trkpt>
      <trkpt lat="37.1851120" lon="-7.4237620">
        <ele>10.1</ele>
        <time>2020-12-22T14:16:15Z</time>
      </trkpt>
      <trkpt lat="37.1851310" lon="-7.4236790">
        <ele>10.1</ele>
        <time>2020-12-22T14:16:16Z</time>
      </trkpt>
      <trkpt lat="37.1851650" lon="-7.4235940">
        <ele>10.0</ele>
        <time>2020-12-22T14:16:17Z</time>
      </trkpt>
      <trkpt lat="37.1851920" lon="-7.4235110">
        <ele>10.0</ele>
        <time>2020-12-22T14:16:18Z</time>
      </trkpt>
      <trkpt lat="37.1852150" lon="-7.4234220">
        <ele>10.0</ele>
        <time>2020-12-22T14:16:19Z</time>
      </trkpt>
      <trkpt lat="37.1852450" lon="-7.4233350">
        <ele>9.9</ele>
        <time>2020-12-22T14:16:20Z</time>
      </trkpt>
      <trkpt lat="37.1852720" lon="-7.4232440">
        <ele>9.8</ele>
        <time>2020-12-22T14:16:21Z</time>
      </trkpt>
      <trkpt lat="37.1852990" lon="-7.4231550">
        <ele>9.8</ele>
        <time>2020-12-22T14:16:22Z</time>
      </trkpt>
      <trkpt lat="37.1853260" lon="-7.4230670">
        <ele>9.7</ele>
        <time>2020-12-22T14:16:23Z</time>
      </trkpt>
      <trkpt lat="37.1853480" lon="-7.4229810">
        <ele>9.6</ele>
        <time>2020-12-22T14:16:24Z</time>
      </trkpt>
      <trkpt lat="37.1853710" lon="-7.4228970">
        <ele>9.6</ele>
        <time>2020-12-22T14:16:25Z</time>
      </trkpt>
      <trkpt lat="37.1853980" lon="-7.4228150">
        <ele>9.5</ele>
        <time>2020-12-22T14:16:26Z</time>
      </trkpt>
      <trkpt lat="37.1854210" lon="-7.4227350">
        <ele>9.4</ele>
        <time>2020-12-22T14:16:27Z</time>
      </trkpt>
      <trkpt lat="37.1854440" lon="-7.4226620">
        <ele>9.4</ele>
        <time>2020-12-22T14:16:28Z</time>
      </trkpt>
      <trkpt lat="37.1854590" lon="-7.4226060">
        <ele>9.4</ele>
        <time>2020-12-22T14:16:29Z</time>
      </trkpt>
      <trkpt lat="37.1854740" lon="-7.4225640">
        <ele>9.4</ele>
        <time>2020-12-22T14:16:30Z</time>
      </trkpt>
      <trkpt lat="37.1854780" lon="-7.4225330">
        <ele>9.4</ele>
        <time>2020-12-22T14:16:31Z</time>
      </trkpt>
      <trkpt lat="37.1854820" lon="-7.4225130">
        <ele>9.3</ele>
        <time>2020-12-22T14:16:32Z</time>
      </trkpt>
      <trkpt lat="37.1854820" lon="-7.4225060">
        <ele>9.3</ele>
        <time>2020-12-22T14:16:33Z</time>
      </trkpt>
      <trkpt lat="37.1854860" lon="-7.4224940">
        <ele>9.3</ele>
        <time>2020-12-22T14:18:15Z</time>
      </trkpt>
      <trkpt lat="37.1854940" lon="-7.4224800">
        <ele>9.3</ele>
        <time>2020-12-22T14:18:16Z</time>
      </trkpt>
      <trkpt lat="37.1854970" lon="-7.4224620">
        <ele>9.3</ele>
        <time>2020-12-22T14:18:17Z</time>
      </trkpt>
      <trkpt lat="37.1855010" lon="-7.4224420">
        <ele>9.3</ele>
        <time>2020-12-22T14:18:18Z</time>
      </trkpt>
      <trkpt lat="37.1855050" lon="-7.4224200">
        <ele>9.3</ele>
        <time>2020-12-22T14:18:19Z</time>
      </trkpt>
      <trkpt lat="37.1855130" lon="-7.4223960">
        <ele>9.3</ele>
        <time>2020-12-22T14:18:20Z</time>
      </trkpt>
      <trkpt lat="37.1855200" lon="-7.4223710">
        <ele>9.3</ele>
        <time>2020-12-22T14:18:21Z</time>
      </trkpt>
      <trkpt lat="37.1855280" lon="-7.4223450">
        <ele>9.3</ele>
        <time>2020-12-22T14:18:22Z</time>
      </trkpt>
      <trkpt lat="37.1855350" lon="-7.4223180">
        <ele>9.2</ele>
        <time>2020-12-22T14:18:23Z</time>
      </trkpt>
      <trkpt lat="37.1855470" lon="-7.4222890">
        <ele>9.2</ele>
        <time>2020-12-22T14:18:24Z</time>
      </trkpt>
      <trkpt lat="37.1855580" lon="-7.4222600">
        <ele>9.2</ele>
        <time>2020-12-22T14:18:25Z</time>
      </trkpt>
      <trkpt lat="37.1855700" lon="-7.4222280">
        <ele>9.2</ele>
        <time>2020-12-22T14:18:26Z</time>
      </trkpt>
      <trkpt lat="37.1855770" lon="-7.4221950">
        <ele>9.2</ele>
        <time>2020-12-22T14:18:27Z</time>
      </trkpt>
      <trkpt lat="37.1855850" lon="-7.4221630">
        <ele>9.2</ele>
        <time>2020-12-22T14:18:28Z</time>
      </trkpt>
      <trkpt lat="37.1855960" lon="-7.4221330">
        <ele>9.1</ele>
        <time>2020-12-22T14:18:29Z</time>
      </trkpt>
      <trkpt lat="37.1856080" lon="-7.4221020">
        <ele>9.1</ele>
        <time>2020-12-22T14:18:30Z</time>
      </trkpt>
      <trkpt lat="37.1856190" lon="-7.4220710">
        <ele>9.1</ele>
        <time>2020-12-22T14:18:31Z</time>
      </trkpt>
      <trkpt lat="37.1856310" lon="-7.4220410">
        <ele>9.1</ele>
        <time>2020-12-22T14:18:32Z</time>
      </trkpt>
      <trkpt lat="37.1856380" lon="-7.4220090">
        <ele>9.1</ele>
        <time>2020-12-22T14:18:33Z</time>
      </trkpt>
      <trkpt lat="37.1856460" lon="-7.4219730">
        <ele>9.1</ele>
        <time>2020-12-22T14:18:34Z</time>
      </trkpt>
      <trkpt lat="37.1856540" lon="-7.4219350">
        <ele>9.1</ele>
        <time>2020-12-22T14:18:35Z</time>
      </trkpt>
      <trkpt lat="37.1856610" lon="-7.4218970">
        <ele>9.1</ele>
        <time>2020-12-22T14:18:36Z</time>
      </trkpt>
      <trkpt lat="37.1856730" lon="-7.4218590">
        <ele>9.1</ele>
        <time>2020-12-22T14:18:37Z</time>
      </trkpt>
      <trkpt lat="37.1856800" lon="-7.4218180">
        <ele>9.0</ele>
        <time>2020-12-22T14:18:38Z</time>
      </trkpt>
      <trkpt lat="37.1856770" lon="-7.4217740">
        <ele>9.0</ele>
        <time>2020-12-22T14:18:39Z</time>
      </trkpt>
      <trkpt lat="37.1856690" lon="-7.4217310">
        <ele>9.0</ele>
        <time>2020-12-22T14:18:40Z</time>
      </trkpt>
      <trkpt lat="37.1856540" lon="-7.4216920">
        <ele>9.0</ele>
        <time>2020-12-22T14:18:41Z</time>
      </trkpt>
      <trkpt lat="37.1856350" lon="-7.4216550">
        <ele>9.0</ele>
        <time>2020-12-22T14:18:42Z</time>
      </trkpt>
      <trkpt lat="37.1856190" lon="-7.4216180">
        <ele>9.0</ele>
        <time>2020-12-22T14:18:43Z</time>
      </trkpt>
      <trkpt lat="37.1856040" lon="-7.4215800">
        <ele>9.0</ele>
        <time>2020-12-22T14:18:44Z</time>
      </trkpt>
      <trkpt lat="37.1856000" lon="-7.4215410">
        <ele>8.9</ele>
        <time>2020-12-22T14:18:45Z</time>
      </trkpt>
      <trkpt lat="37.1855960" lon="-7.4215010">
        <ele>8.9</ele>
        <time>2020-12-22T14:18:46Z</time>
      </trkpt>
      <trkpt lat="37.1856040" lon="-7.4214630">
        <ele>8.9</ele>
        <time>2020-12-22T14:18:47Z</time>
      </trkpt>
      <trkpt lat="37.1856120" lon="-7.4214260">
        <ele>8.9</ele>
        <time>2020-12-22T14:18:48Z</time>
      </trkpt>
      <trkpt lat="37.1856230" lon="-7.4213910">
        <ele>8.9</ele>
        <time>2020-12-22T14:18:49Z</time>
      </trkpt>
      <trkpt lat="37.1856420" lon="-7.4213580">
        <ele>8.9</ele>
        <time>2020-12-22T14:18:50Z</time>
      </trkpt>
      <trkpt lat="37.1856610" lon="-7.4213300">
        <ele>8.9</ele>
        <time>2020-12-22T14:18:51Z</time>
      </trkpt>
      <trkpt lat="37.1856840" lon="-7.4213050">
        <ele>8.9</ele>
        <time>2020-12-22T14:18:52Z</time>
      </trkpt>
      <trkpt lat="37.1857070" lon="-7.4212860">
        <ele>8.8</ele>
        <time>2020-12-22T14:18:53Z</time>
      </trkpt>
      <trkpt lat="37.1857340" lon="-7.4212690">
        <ele>8.8</ele>
        <time>2020-12-22T14:18:54Z</time>
      </trkpt>
      <trkpt lat="37.1857600" lon="-7.4212540">
        <ele>8.8</ele>
        <time>2020-12-22T14:18:55Z</time>
      </trkpt>
      <trkpt lat="37.1857870" lon="-7.4212370">
        <ele>8.8</ele>
        <time>2020-12-22T14:18:56Z</time>
      </trkpt>
      <trkpt lat="37.1858100" lon="-7.4212200">
        <ele>8.8</ele>
        <time>2020-12-22T14:18:57Z</time>
      </trkpt>
      <trkpt lat="37.1858330" lon="-7.4212010">
        <ele>8.7</ele>
        <time>2020-12-22T14:18:58Z</time>
      </trkpt>
      <trkpt lat="37.1858560" lon="-7.4211770">
        <ele>8.7</ele>
        <time>2020-12-22T14:18:59Z</time>
      </trkpt>
      <trkpt lat="37.1858750" lon="-7.4211490">
        <ele>8.7</ele>
        <time>2020-12-22T14:19:00Z</time>
      </trkpt>
      <trkpt lat="37.1858900" lon="-7.4211190">
        <ele>8.7</ele>
        <time>2020-12-22T14:19:01Z</time>
      </trkpt>
      <trkpt lat="37.1859050" lon="-7.4210900">
        <ele>8.7</ele>
        <time>2020-12-22T14:19:02Z</time>
      </trkpt>
      <trkpt lat="37.1859210" lon="-7.4210580">
        <ele>8.6</ele>
        <time>2020-12-22T14:19:03Z</time>
      </trkpt>
      <trkpt lat="37.1859360" lon="-7.4210240">
        <ele>8.6</ele>
        <time>2020-12-22T14:19:04Z</time>
      </trkpt>
      <trkpt lat="37.1859470" lon="-7.4209900">
        <ele>8.6</ele>
        <time>2020-12-22T14:19:05Z</time>
      </trkpt>
      <trkpt lat="37.1859590" lon="-7.4209570">
        <ele>8.6</ele>
        <time>2020-12-22T14:19:06Z</time>
      </trkpt>
      <trkpt lat="37.1859700" lon="-7.4209250">
        <ele>8.5</ele>
        <time>2020-12-22T14:19:07Z</time>
      </trkpt>
      <trkpt lat="37.1859780" lon="-7.4208920">
        <ele>8.5</ele>
        <time>2020-12-22T14:19:08Z</time>
      </trkpt>
      <trkpt lat="37.1859820" lon="-7.4208590">
        <ele>8.5</ele>
        <time>2020-12-22T14:19:09Z</time>
      </trkpt>
      <trkpt lat="37.1859890" lon="-7.4208280">
        <ele>8.5</ele>
        <time>2020-12-22T14:19:10Z</time>
      </trkpt>
      <trkpt lat="37.1859970" lon="-7.4207970">
        <ele>8.5</ele>
        <time>2020-12-22T14:19:11Z</time>
      </trkpt>
      <trkpt lat="37.1860050" lon="-7.4207660">
        <ele>8.4</ele>
        <time>2020-12-22T14:19:12Z</time>
      </trkpt>
      <trkpt lat="37.1860160" lon="-7.4207370">
        <ele>8.4</ele>
        <time>2020-12-22T14:19:13Z</time>
      </trkpt>
      <trkpt lat="37.1860240" lon="-7.4207070">
        <ele>8.4</ele>
        <time>2020-12-22T14:19:14Z</time>
      </trkpt>
      <trkpt lat="37.1860350" lon="-7.4206790">
        <ele>8.4</ele>
        <time>2020-12-22T14:19:15Z</time>
      </trkpt>
      <trkpt lat="37.1860430" lon="-7.4206510">
        <ele>8.4</ele>
        <time>2020-12-22T14:19:16Z</time>
      </trkpt>
      <trkpt lat="37.1860470" lon="-7.4206240">
        <ele>8.4</ele>
        <time>2020-12-22T14:19:17Z</time>
      </trkpt>
      <trkpt lat="37.1860540" lon="-7.4205980">
        <ele>8.4</ele>
        <time>2020-12-22T14:19:18Z</time>
      </trkpt>
      <trkpt lat="37.1860660" lon="-7.4205700">
        <ele>8.3</ele>
        <time>2020-12-22T14:19:19Z</time>
      </trkpt>
      <trkpt lat="37.1860770" lon="-7.4205370">
        <ele>8.3</ele>
        <time>2020-12-22T14:19:20Z</time>
      </trkpt>
      <trkpt lat="37.1860890" lon="-7.4205000">
        <ele>8.3</ele>
        <time>2020-12-22T14:19:21Z</time>
      </trkpt>
      <trkpt lat="37.1861000" lon="-7.4204610">
        <ele>8.3</ele>
        <time>2020-12-22T14:19:22Z</time>
      </trkpt>
      <trkpt lat="37.1861110" lon="-7.4204220">
        <ele>8.3</ele>
        <time>2020-12-22T14:19:23Z</time>
      </trkpt>
      <trkpt lat="37.1861230" lon="-7.4203820">
        <ele>8.3</ele>
        <time>2020-12-22T14:19:24Z</time>
      </trkpt>
      <trkpt lat="37.1861310" lon="-7.4203430">
        <ele>8.3</ele>
        <time>2020-12-22T14:19:25Z</time>
      </trkpt>
      <trkpt lat="37.1861420" lon="-7.4203050">
        <ele>8.3</ele>
        <time>2020-12-22T14:19:26Z</time>
      </trkpt>
      <trkpt lat="37.1861570" lon="-7.4202670">
        <ele>8.2</ele>
        <time>2020-12-22T14:19:27Z</time>
      </trkpt>
      <trkpt lat="37.1861650" lon="-7.4202300">
        <ele>8.2</ele>
        <time>2020-12-22T14:19:28Z</time>
      </trkpt>
      <trkpt lat="37.1861760" lon="-7.4201950">
        <ele>8.2</ele>
        <time>2020-12-22T14:19:29Z</time>
      </trkpt>
      <trkpt lat="37.1861880" lon="-7.4201600">
        <ele>8.2</ele>
        <time>2020-12-22T14:19:30Z</time>
      </trkpt>
      <trkpt lat="37.1861950" lon="-7.4201270">
        <ele>8.2</ele>
        <time>2020-12-22T14:19:31Z</time>
      </trkpt>
      <trkpt lat="37.1862030" lon="-7.4200970">
        <ele>8.2</ele>
        <time>2020-12-22T14:19:32Z</time>
      </trkpt>
      <trkpt lat="37.1862140" lon="-7.4200680">
        <ele>8.2</ele>
        <time>2020-12-22T14:19:33Z</time>
      </trkpt>
      <trkpt lat="37.1862180" lon="-7.4200410">
        <ele>8.2</ele>
        <time>2020-12-22T14:19:34Z</time>
      </trkpt>
      <trkpt lat="37.1862260" lon="-7.4200160">
        <ele>8.2</ele>
        <time>2020-12-22T14:19:35Z</time>
      </trkpt>
      <trkpt lat="37.1862300" lon="-7.4199940">
        <ele>8.2</ele>
        <time>2020-12-22T14:19:36Z</time>
      </trkpt>
      <trkpt lat="37.1862300" lon="-7.4199730">
        <ele>8.2</ele>
        <time>2020-12-22T14:19:37Z</time>
      </trkpt>
      <trkpt lat="37.1862300" lon="-7.4199550">
        <ele>8.2</ele>
        <time>2020-12-22T14:19:38Z</time>
      </trkpt>
      <trkpt lat="37.1862340" lon="-7.4199400">
        <ele>8.2</ele>
        <time>2020-12-22T14:19:39Z</time>
      </trkpt>
      <trkpt lat="37.1862180" lon="-7.4199050">
        <ele>8.1</ele>
        <time>2020-12-22T14:20:44Z</time>
      </trkpt>
      <trkpt lat="37.1862220" lon="-7.4198920">
        <ele>8.1</ele>
        <time>2020-12-22T14:20:45Z</time>
      </trkpt>
      <trkpt lat="37.1862300" lon="-7.4198740">
        <ele>8.1</ele>
        <time>2020-12-22T14:20:46Z</time>
      </trkpt>
      <trkpt lat="37.1862340" lon="-7.4198540">
        <ele>8.1</ele>
        <time>2020-12-22T14:20:47Z</time>
      </trkpt>
      <trkpt lat="37.1862370" lon="-7.4198340">
        <ele>8.1</ele>
        <time>2020-12-22T14:20:48Z</time>
      </trkpt>
      <trkpt lat="37.1862450" lon="-7.4198170">
        <ele>8.1</ele>
        <time>2020-12-22T14:20:49Z</time>
      </trkpt>
      <trkpt lat="37.1862490" lon="-7.4198020">
        <ele>8.1</ele>
        <time>2020-12-22T14:20:50Z</time>
      </trkpt>
      <trkpt lat="37.1862560" lon="-7.4197870">
        <ele>8.1</ele>
        <time>2020-12-22T14:20:51Z</time>
      </trkpt>
      <trkpt lat="37.1862640" lon="-7.4197700">
        <ele>8.1</ele>
        <time>2020-12-22T14:20:52Z</time>
      </trkpt>
      <trkpt lat="37.1862750" lon="-7.4197490">
        <ele>8.1</ele>
        <time>2020-12-22T14:20:53Z</time>
      </trkpt>
      <trkpt lat="37.1862870" lon="-7.4197280">
        <ele>8.1</ele>
        <time>2020-12-22T14:20:54Z</time>
      </trkpt>
      <trkpt lat="37.1862950" lon="-7.4197060">
        <ele>8.1</ele>
        <time>2020-12-22T14:20:55Z</time>
      </trkpt>
      <trkpt lat="37.1863060" lon="-7.4196800">
        <ele>8.1</ele>
        <time>2020-12-22T14:20:56Z</time>
      </trkpt>
      <trkpt lat="37.1863140" lon="-7.4196490">
        <ele>8.1</ele>
        <time>2020-12-22T14:20:57Z</time>
      </trkpt>
      <trkpt lat="37.1863210" lon="-7.4196200">
        <ele>8.1</ele>
        <time>2020-12-22T14:20:58Z</time>
      </trkpt>
      <trkpt lat="37.1863330" lon="-7.4195900">
        <ele>8.1</ele>
        <time>2020-12-22T14:20:59Z</time>
      </trkpt>
      <trkpt lat="37.1863480" lon="-7.4195590">
        <ele>8.1</ele>
        <time>2020-12-22T14:21:00Z</time>
      </trkpt>
      <trkpt lat="37.1863670" lon="-7.4195270">
        <ele>8.0</ele>
        <time>2020-12-22T14:21:01Z</time>
      </trkpt>
      <trkpt lat="37.1863820" lon="-7.4194950">
        <ele>8.0</ele>
        <time>2020-12-22T14:21:02Z</time>
      </trkpt>
      <trkpt lat="37.1863980" lon="-7.4194610">
        <ele>8.0</ele>
        <time>2020-12-22T14:21:03Z</time>
      </trkpt>
      <trkpt lat="37.1864090" lon="-7.4194250">
        <ele>8.0</ele>
        <time>2020-12-22T14:21:04Z</time>
      </trkpt>
      <trkpt lat="37.1864200" lon="-7.4193910">
        <ele>8.0</ele>
        <time>2020-12-22T14:21:05Z</time>
      </trkpt>
      <trkpt lat="37.1864320" lon="-7.4193540">
        <ele>8.0</ele>
        <time>2020-12-22T14:21:06Z</time>
      </trkpt>
      <trkpt lat="37.1864430" lon="-7.4193150">
        <ele>8.0</ele>
        <time>2020-12-22T14:21:07Z</time>
      </trkpt>
      <trkpt lat="37.1864590" lon="-7.4192750">
        <ele>8.1</ele>
        <time>2020-12-22T14:21:08Z</time>
      </trkpt>
      <trkpt lat="37.1864740" lon="-7.4192330">
        <ele>8.1</ele>
        <time>2020-12-22T14:21:09Z</time>
      </trkpt>
      <trkpt lat="37.1864850" lon="-7.4191890">
        <ele>8.1</ele>
        <time>2020-12-22T14:21:10Z</time>
      </trkpt>
      <trkpt lat="37.1864970" lon="-7.4191450">
        <ele>8.1</ele>
        <time>2020-12-22T14:21:11Z</time>
      </trkpt>
      <trkpt lat="37.1865120" lon="-7.4191040">
        <ele>8.1</ele>
        <time>2020-12-22T14:21:12Z</time>
      </trkpt>
      <trkpt lat="37.1865230" lon="-7.4190640">
        <ele>8.1</ele>
        <time>2020-12-22T14:21:13Z</time>
      </trkpt>
      <trkpt lat="37.1865350" lon="-7.4190250">
        <ele>8.1</ele>
        <time>2020-12-22T14:21:14Z</time>
      </trkpt>
      <trkpt lat="37.1865420" lon="-7.4189860">
        <ele>8.1</ele>
        <time>2020-12-22T14:21:15Z</time>
      </trkpt>
      <trkpt lat="37.1865540" lon="-7.4189510">
        <ele>8.1</ele>
        <time>2020-12-22T14:21:16Z</time>
      </trkpt>
      <trkpt lat="37.1865620" lon="-7.4189170">
        <ele>8.1</ele>
        <time>2020-12-22T14:21:17Z</time>
      </trkpt>
      <trkpt lat="37.1865730" lon="-7.4188850">
        <ele>8.1</ele>
        <time>2020-12-22T14:21:18Z</time>
      </trkpt>
      <trkpt lat="37.1865810" lon="-7.4188550">
        <ele>8.1</ele>
        <time>2020-12-22T14:21:19Z</time>
      </trkpt>
      <trkpt lat="37.1865880" lon="-7.4188240">
        <ele>8.1</ele>
        <time>2020-12-22T14:21:20Z</time>
      </trkpt>
      <trkpt lat="37.1865960" lon="-7.4187940">
        <ele>8.1</ele>
        <time>2020-12-22T14:21:21Z</time>
      </trkpt>
      <trkpt lat="37.1866040" lon="-7.4187670">
        <ele>8.1</ele>
        <time>2020-12-22T14:21:22Z</time>
      </trkpt>
      <trkpt lat="37.1866110" lon="-7.4187390">
        <ele>8.1</ele>
        <time>2020-12-22T14:21:23Z</time>
      </trkpt>
      <trkpt lat="37.1866190" lon="-7.4187130">
        <ele>8.1</ele>
        <time>2020-12-22T14:21:24Z</time>
      </trkpt>
      <trkpt lat="37.1866300" lon="-7.4186840">
        <ele>8.1</ele>
        <time>2020-12-22T14:21:25Z</time>
      </trkpt>
      <trkpt lat="37.1866380" lon="-7.4186530">
        <ele>8.1</ele>
        <time>2020-12-22T14:21:26Z</time>
      </trkpt>
      <trkpt lat="37.1866460" lon="-7.4186210">
        <ele>8.1</ele>
        <time>2020-12-22T14:21:27Z</time>
      </trkpt>
      <trkpt lat="37.1866530" lon="-7.4185890">
        <ele>8.1</ele>
        <time>2020-12-22T14:21:28Z</time>
      </trkpt>
      <trkpt lat="37.1866610" lon="-7.4185560">
        <ele>8.1</ele>
        <time>2020-12-22T14:21:29Z</time>
      </trkpt>
      <trkpt lat="37.1866720" lon="-7.4185260">
        <ele>8.1</ele>
        <time>2020-12-22T14:21:30Z</time>
      </trkpt>
      <trkpt lat="37.1866800" lon="-7.4184970">
        <ele>8.1</ele>
        <time>2020-12-22T14:21:31Z</time>
      </trkpt>
      <trkpt lat="37.1866880" lon="-7.4184670">
        <ele>8.1</ele>
        <time>2020-12-22T14:21:32Z</time>
      </trkpt>
      <trkpt lat="37.1866990" lon="-7.4184350">
        <ele>8.1</ele>
        <time>2020-12-22T14:21:33Z</time>
      </trkpt>
      <trkpt lat="37.1867100" lon="-7.4184020">
        <ele>8.1</ele>
        <time>2020-12-22T14:21:34Z</time>
      </trkpt>
      <trkpt lat="37.1867220" lon="-7.4183690">
        <ele>8.1</ele>
        <time>2020-12-22T14:21:35Z</time>
      </trkpt>
      <trkpt lat="37.1867290" lon="-7.4183350">
        <ele>8.2</ele>
        <time>2020-12-22T14:21:36Z</time>
      </trkpt>
      <trkpt lat="37.1867370" lon="-7.4183020">
        <ele>8.2</ele>
        <time>2020-12-22T14:21:37Z</time>
      </trkpt>
      <trkpt lat="37.1867450" lon="-7.4182670">
        <ele>8.2</ele>
        <time>2020-12-22T14:21:38Z</time>
      </trkpt>
      <trkpt lat="37.1867560" lon="-7.4182330">
        <ele>8.2</ele>
        <time>2020-12-22T14:21:39Z</time>
      </trkpt>
      <trkpt lat="37.1867680" lon="-7.4181990">
        <ele>8.2</ele>
        <time>2020-12-22T14:21:40Z</time>
      </trkpt>
      <trkpt lat="37.1867750" lon="-7.4181640">
        <ele>8.2</ele>
        <time>2020-12-22T14:21:41Z</time>
      </trkpt>
      <trkpt lat="37.1867870" lon="-7.4181290">
        <ele>8.3</ele>
        <time>2020-12-22T14:21:42Z</time>
      </trkpt>
      <trkpt lat="37.1867940" lon="-7.4180960">
        <ele>8.3</ele>
        <time>2020-12-22T14:21:43Z</time>
      </trkpt>
      <trkpt lat="37.1868060" lon="-7.4180630">
        <ele>8.3</ele>
        <time>2020-12-22T14:21:44Z</time>
      </trkpt>
      <trkpt lat="37.1868170" lon="-7.4180300">
        <ele>8.3</ele>
        <time>2020-12-22T14:21:45Z</time>
      </trkpt>
      <trkpt lat="37.1868250" lon="-7.4179960">
        <ele>8.3</ele>
        <time>2020-12-22T14:21:46Z</time>
      </trkpt>
      <trkpt lat="37.1868360" lon="-7.4179630">
        <ele>8.3</ele>
        <time>2020-12-22T14:21:47Z</time>
      </trkpt>
      <trkpt lat="37.1868480" lon="-7.4179300">
        <ele>8.3</ele>
        <time>2020-12-22T14:21:48Z</time>
      </trkpt>
      <trkpt lat="37.1868590" lon="-7.4178980">
        <ele>8.3</ele>
        <time>2020-12-22T14:21:49Z</time>
      </trkpt>
      <trkpt lat="37.1868670" lon="-7.4178670">
        <ele>8.3</ele>
        <time>2020-12-22T14:21:50Z</time>
      </trkpt>
      <trkpt lat="37.1868780" lon="-7.4178370">
        <ele>8.3</ele>
        <time>2020-12-22T14:21:51Z</time>
      </trkpt>
      <trkpt lat="37.1868860" lon="-7.4178070">
        <ele>8.3</ele>
        <time>2020-12-22T14:21:52Z</time>
      </trkpt>
      <trkpt lat="37.1868930" lon="-7.4177760">
        <ele>8.3</ele>
        <time>2020-12-22T14:21:53Z</time>
      </trkpt>
      <trkpt lat="37.1869010" lon="-7.4177440">
        <ele>8.3</ele>
        <time>2020-12-22T14:21:54Z</time>
      </trkpt>
      <trkpt lat="37.1869090" lon="-7.4177100">
        <ele>8.4</ele>
        <time>2020-12-22T14:21:55Z</time>
      </trkpt>
      <trkpt lat="37.1869160" lon="-7.4176770">
        <ele>8.4</ele>
        <time>2020-12-22T14:21:56Z</time>
      </trkpt>
      <trkpt lat="37.1869240" lon="-7.4176450">
        <ele>8.4</ele>
        <time>2020-12-22T14:21:57Z</time>
      </trkpt>
      <trkpt lat="37.1869320" lon="-7.4176150">
        <ele>8.4</ele>
        <time>2020-12-22T14:21:58Z</time>
      </trkpt>
      <trkpt lat="37.1869390" lon="-7.4175880">
        <ele>8.4</ele>
        <time>2020-12-22T14:21:59Z</time>
      </trkpt>
      <trkpt lat="37.1869470" lon="-7.4175620">
        <ele>8.4</ele>
        <time>2020-12-22T14:22:00Z</time>
      </trkpt>
      <trkpt lat="37.1869540" lon="-7.4175360">
        <ele>8.4</ele>
        <time>2020-12-22T14:22:01Z</time>
      </trkpt>
      <trkpt lat="37.1869620" lon="-7.4175090">
        <ele>8.4</ele>
        <time>2020-12-22T14:22:02Z</time>
      </trkpt>
      <trkpt lat="37.1869700" lon="-7.4174780">
        <ele>8.4</ele>
        <time>2020-12-22T14:22:03Z</time>
      </trkpt>
      <trkpt lat="37.1869810" lon="-7.4174450">
        <ele>8.5</ele>
        <time>2020-12-22T14:22:04Z</time>
      </trkpt>
      <trkpt lat="37.1869890" lon="-7.4174110">
        <ele>8.5</ele>
        <time>2020-12-22T14:22:05Z</time>
      </trkpt>
      <trkpt lat="37.1870000" lon="-7.4173750">
        <ele>8.5</ele>
        <time>2020-12-22T14:22:06Z</time>
      </trkpt>
      <trkpt lat="37.1870120" lon="-7.4173380">
        <ele>8.5</ele>
        <time>2020-12-22T14:22:07Z</time>
      </trkpt>
      <trkpt lat="37.1870230" lon="-7.4172990">
        <ele>8.5</ele>
        <time>2020-12-22T14:22:08Z</time>
      </trkpt>
      <trkpt lat="37.1870350" lon="-7.4172610">
        <ele>8.5</ele>
        <time>2020-12-22T14:22:09Z</time>
      </trkpt>
      <trkpt lat="37.1870460" lon="-7.4172240">
        <ele>8.5</ele>
        <time>2020-12-22T14:22:10Z</time>
      </trkpt>
      <trkpt lat="37.1870570" lon="-7.4171880">
        <ele>8.5</ele>
        <time>2020-12-22T14:22:11Z</time>
      </trkpt>
      <trkpt lat="37.1870690" lon="-7.4171540">
        <ele>8.5</ele>
        <time>2020-12-22T14:22:12Z</time>
      </trkpt>
      <trkpt lat="37.1870800" lon="-7.4171210">
        <ele>8.6</ele>
        <time>2020-12-22T14:22:13Z</time>
      </trkpt>
      <trkpt lat="37.1870920" lon="-7.4170900">
        <ele>8.6</ele>
        <time>2020-12-22T14:22:14Z</time>
      </trkpt>
      <trkpt lat="37.1871030" lon="-7.4170600">
        <ele>8.6</ele>
        <time>2020-12-22T14:22:15Z</time>
      </trkpt>
      <trkpt lat="37.1871110" lon="-7.4170290">
        <ele>8.6</ele>
        <time>2020-12-22T14:22:16Z</time>
      </trkpt>
      <trkpt lat="37.1871190" lon="-7.4169980">
        <ele>8.6</ele>
        <time>2020-12-22T14:22:17Z</time>
      </trkpt>
      <trkpt lat="37.1871260" lon="-7.4169660">
        <ele>8.6</ele>
        <time>2020-12-22T14:22:18Z</time>
      </trkpt>
      <trkpt lat="37.1871340" lon="-7.4169350">
        <ele>8.6</ele>
        <time>2020-12-22T14:22:19Z</time>
      </trkpt>
      <trkpt lat="37.1871410" lon="-7.4169060">
        <ele>8.6</ele>
        <time>2020-12-22T14:22:20Z</time>
      </trkpt>
      <trkpt lat="37.1871490" lon="-7.4168760">
        <ele>8.6</ele>
        <time>2020-12-22T14:22:21Z</time>
      </trkpt>
      <trkpt lat="37.1871600" lon="-7.4168460">
        <ele>8.6</ele>
        <time>2020-12-22T14:22:22Z</time>
      </trkpt>
      <trkpt lat="37.1871680" lon="-7.4168140">
        <ele>8.7</ele>
        <time>2020-12-22T14:22:23Z</time>
      </trkpt>
      <trkpt lat="37.1871760" lon="-7.4167810">
        <ele>8.7</ele>
        <time>2020-12-22T14:22:24Z</time>
      </trkpt>
      <trkpt lat="37.1871870" lon="-7.4167500">
        <ele>8.7</ele>
        <time>2020-12-22T14:22:25Z</time>
      </trkpt>
      <trkpt lat="37.1871950" lon="-7.4167210">
        <ele>8.7</ele>
        <time>2020-12-22T14:22:26Z</time>
      </trkpt>
      <trkpt lat="37.1872020" lon="-7.4166920">
        <ele>8.7</ele>
        <time>2020-12-22T14:22:27Z</time>
      </trkpt>
      <trkpt lat="37.1872100" lon="-7.4166650">
        <ele>8.7</ele>
        <time>2020-12-22T14:22:28Z</time>
      </trkpt>
      <trkpt lat="37.1872180" lon="-7.4166380">
        <ele>8.7</ele>
        <time>2020-12-22T14:22:29Z</time>
      </trkpt>
      <trkpt lat="37.1872250" lon="-7.4166090">
        <ele>8.7</ele>
        <time>2020-12-22T14:22:30Z</time>
      </trkpt>
      <trkpt lat="37.1872330" lon="-7.4165750">
        <ele>8.7</ele>
        <time>2020-12-22T14:22:31Z</time>
      </trkpt>
      <trkpt lat="37.1872410" lon="-7.4165380">
        <ele>8.7</ele>
        <time>2020-12-22T14:22:32Z</time>
      </trkpt>
      <trkpt lat="37.1872520" lon="-7.4165010">
        <ele>8.7</ele>
        <time>2020-12-22T14:22:33Z</time>
      </trkpt>
      <trkpt lat="37.1872640" lon="-7.4164660">
        <ele>8.7</ele>
        <time>2020-12-22T14:22:34Z</time>
      </trkpt>
      <trkpt lat="37.1872670" lon="-7.4164380">
        <ele>8.7</ele>
        <time>2020-12-22T14:22:35Z</time>
      </trkpt>
      <trkpt lat="37.1872600" lon="-7.4164260">
        <ele>8.7</ele>
        <time>2020-12-22T14:22:36Z</time>
      </trkpt>
      <trkpt lat="37.1872560" lon="-7.4164270">
        <ele>8.7</ele>
        <time>2020-12-22T14:22:37Z</time>
      </trkpt>
      <trkpt lat="37.1872520" lon="-7.4164380">
        <ele>8.7</ele>
        <time>2020-12-22T14:22:38Z</time>
      </trkpt>
      <trkpt lat="37.1872290" lon="-7.4164690">
        <ele>8.7</ele>
        <time>2020-12-22T14:22:43Z</time>
      </trkpt>
      <trkpt lat="37.1872250" lon="-7.4164840">
        <ele>8.7</ele>
        <time>2020-12-22T14:22:44Z</time>
      </trkpt>
      <trkpt lat="37.1872180" lon="-7.4165030">
        <ele>8.7</ele>
        <time>2020-12-22T14:22:45Z</time>
      </trkpt>
      <trkpt lat="37.1872140" lon="-7.4165210">
        <ele>8.7</ele>
        <time>2020-12-22T14:22:46Z</time>
      </trkpt>
      <trkpt lat="37.1872060" lon="-7.4165350">
        <ele>8.7</ele>
        <time>2020-12-22T14:22:47Z</time>
      </trkpt>
      <trkpt lat="37.1872020" lon="-7.4165480">
        <ele>8.7</ele>
        <time>2020-12-22T14:22:48Z</time>
      </trkpt>
      <trkpt lat="37.1871990" lon="-7.4165590">
        <ele>8.7</ele>
        <time>2020-12-22T14:22:49Z</time>
      </trkpt>
      <trkpt lat="37.1871950" lon="-7.4165670">
        <ele>8.7</ele>
        <time>2020-12-22T14:22:50Z</time>
      </trkpt>
      <trkpt lat="37.1871910" lon="-7.4165710">
        <ele>8.7</ele>
        <time>2020-12-22T14:22:51Z</time>
      </trkpt>
      <trkpt lat="37.1871910" lon="-7.4165730">
        <ele>8.7</ele>
        <time>2020-12-22T14:22:52Z</time>
      </trkpt>
      <trkpt lat="37.1871910" lon="-7.4165740">
        <ele>8.7</ele>
        <time>2020-12-22T14:22:53Z</time>
      </trkpt>
      <trkpt lat="37.1871910" lon="-7.4165770">
        <ele>8.7</ele>
        <time>2020-12-22T14:22:54Z</time>
      </trkpt>
      <trkpt lat="37.1871990" lon="-7.4165510">
        <ele>8.7</ele>
        <time>2020-12-22T14:25:02Z</time>
      </trkpt>
      <trkpt lat="37.1872060" lon="-7.4165380">
        <ele>8.7</ele>
        <time>2020-12-22T14:25:03Z</time>
      </trkpt>
      <trkpt lat="37.1872100" lon="-7.4165290">
        <ele>8.7</ele>
        <time>2020-12-22T14:25:04Z</time>
      </trkpt>
      <trkpt lat="37.1872140" lon="-7.4165270">
        <ele>8.7</ele>
        <time>2020-12-22T14:25:05Z</time>
      </trkpt>
      <trkpt lat="37.1872180" lon="-7.4165280">
        <ele>8.7</ele>
        <time>2020-12-22T14:25:06Z</time>
      </trkpt>
      <trkpt lat="37.1872180" lon="-7.4165310">
        <ele>8.7</ele>
        <time>2020-12-22T14:25:07Z</time>
      </trkpt>
      <trkpt lat="37.1872180" lon="-7.4165280">
        <ele>8.7</ele>
        <time>2020-12-22T14:25:08Z</time>
      </trkpt>
      <trkpt lat="37.1872290" lon="-7.4165230">
        <ele>8.7</ele>
        <time>2020-12-22T14:25:15Z</time>
      </trkpt>
      <trkpt lat="37.1872330" lon="-7.4165090">
        <ele>8.7</ele>
        <time>2020-12-22T14:25:16Z</time>
      </trkpt>
      <trkpt lat="37.1872370" lon="-7.4164880">
        <ele>8.7</ele>
        <time>2020-12-22T14:25:17Z</time>
      </trkpt>
      <trkpt lat="37.1872410" lon="-7.4164690">
        <ele>8.7</ele>
        <time>2020-12-22T14:25:18Z</time>
      </trkpt>
      <trkpt lat="37.1872440" lon="-7.4164480">
        <ele>8.7</ele>
        <time>2020-12-22T14:25:19Z</time>
      </trkpt>
      <trkpt lat="37.1872560" lon="-7.4164230">
        <ele>8.7</ele>
        <time>2020-12-22T14:25:20Z</time>
      </trkpt>
      <trkpt lat="37.1872710" lon="-7.4163980">
        <ele>8.7</ele>
        <time>2020-12-22T14:25:21Z</time>
      </trkpt>
      <trkpt lat="37.1872860" lon="-7.4163690">
        <ele>8.7</ele>
        <time>2020-12-22T14:25:22Z</time>
      </trkpt>
      <trkpt lat="37.1872940" lon="-7.4163350">
        <ele>8.7</ele>
        <time>2020-12-22T14:25:23Z</time>
      </trkpt>
      <trkpt lat="37.1873020" lon="-7.4162960">
        <ele>8.7</ele>
        <time>2020-12-22T14:25:24Z</time>
      </trkpt>
      <trkpt lat="37.1873050" lon="-7.4162560">
        <ele>8.7</ele>
        <time>2020-12-22T14:25:25Z</time>
      </trkpt>
      <trkpt lat="37.1873130" lon="-7.4162170">
        <ele>8.7</ele>
        <time>2020-12-22T14:25:26Z</time>
      </trkpt>
      <trkpt lat="37.1873210" lon="-7.4161800">
        <ele>8.7</ele>
        <time>2020-12-22T14:25:27Z</time>
      </trkpt>
      <trkpt lat="37.1873320" lon="-7.4161420">
        <ele>8.7</ele>
        <time>2020-12-22T14:25:28Z</time>
      </trkpt>
      <trkpt lat="37.1873400" lon="-7.4161060">
        <ele>8.7</ele>
        <time>2020-12-22T14:25:29Z</time>
      </trkpt>
      <trkpt lat="37.1873470" lon="-7.4160700">
        <ele>8.7</ele>
        <time>2020-12-22T14:25:30Z</time>
      </trkpt>
      <trkpt lat="37.1873590" lon="-7.4160330">
        <ele>8.7</ele>
        <time>2020-12-22T14:25:31Z</time>
      </trkpt>
      <trkpt lat="37.1873670" lon="-7.4159980">
        <ele>8.7</ele>
        <time>2020-12-22T14:25:32Z</time>
      </trkpt>
      <trkpt lat="37.1873740" lon="-7.4159630">
        <ele>8.7</ele>
        <time>2020-12-22T14:25:33Z</time>
      </trkpt>
      <trkpt lat="37.1873820" lon="-7.4159300">
        <ele>8.7</ele>
        <time>2020-12-22T14:25:34Z</time>
      </trkpt>
      <trkpt lat="37.1873890" lon="-7.4158970">
        <ele>8.6</ele>
        <time>2020-12-22T14:25:35Z</time>
      </trkpt>
      <trkpt lat="37.1873970" lon="-7.4158650">
        <ele>8.6</ele>
        <time>2020-12-22T14:25:36Z</time>
      </trkpt>
      <trkpt lat="37.1874050" lon="-7.4158340">
        <ele>8.6</ele>
        <time>2020-12-22T14:25:37Z</time>
      </trkpt>
      <trkpt lat="37.1874160" lon="-7.4158040">
        <ele>8.6</ele>
        <time>2020-12-22T14:25:38Z</time>
      </trkpt>
      <trkpt lat="37.1874240" lon="-7.4157750">
        <ele>8.6</ele>
        <time>2020-12-22T14:25:39Z</time>
      </trkpt>
      <trkpt lat="37.1874310" lon="-7.4157470">
        <ele>8.6</ele>
        <time>2020-12-22T14:25:40Z</time>
      </trkpt>
      <trkpt lat="37.1874350" lon="-7.4157190">
        <ele>8.6</ele>
        <time>2020-12-22T14:25:41Z</time>
      </trkpt>
      <trkpt lat="37.1874430" lon="-7.4156910">
        <ele>8.6</ele>
        <time>2020-12-22T14:25:42Z</time>
      </trkpt>
      <trkpt lat="37.1874470" lon="-7.4156650">
        <ele>8.6</ele>
        <time>2020-12-22T14:25:43Z</time>
      </trkpt>
      <trkpt lat="37.1874540" lon="-7.4156380">
        <ele>8.6</ele>
        <time>2020-12-22T14:25:44Z</time>
      </trkpt>
      <trkpt lat="37.1874580" lon="-7.4156130">
        <ele>8.6</ele>
        <time>2020-12-22T14:25:45Z</time>
      </trkpt>
      <trkpt lat="37.1874660" lon="-7.4155870">
        <ele>8.6</ele>
        <time>2020-12-22T14:25:46Z</time>
      </trkpt>
      <trkpt lat="37.1874690" lon="-7.4155630">
        <ele>8.5</ele>
        <time>2020-12-22T14:25:47Z</time>
      </trkpt>
      <trkpt lat="37.1874730" lon="-7.4155390">
        <ele>8.5</ele>
        <time>2020-12-22T14:25:48Z</time>
      </trkpt>
      <trkpt lat="37.1874810" lon="-7.4155150">
        <ele>8.5</ele>
        <time>2020-12-22T14:25:49Z</time>
      </trkpt>
      <trkpt lat="37.1874850" lon="-7.4154930">
        <ele>8.5</ele>
        <time>2020-12-22T14:25:50Z</time>
      </trkpt>
      <trkpt lat="37.1874890" lon="-7.4154710">
        <ele>8.5</ele>
        <time>2020-12-22T14:25:51Z</time>
      </trkpt>
      <trkpt lat="37.1874920" lon="-7.4154480">
        <ele>8.5</ele>
        <time>2020-12-22T14:25:52Z</time>
      </trkpt>
      <trkpt lat="37.1875000" lon="-7.4154210">
        <ele>8.5</ele>
        <time>2020-12-22T14:25:53Z</time>
      </trkpt>
      <trkpt lat="37.1875080" lon="-7.4153930">
        <ele>8.5</ele>
        <time>2020-12-22T14:25:54Z</time>
      </trkpt>
      <trkpt lat="37.1875110" lon="-7.4153630">
        <ele>8.5</ele>
        <time>2020-12-22T14:25:55Z</time>
      </trkpt>
      <trkpt lat="37.1875190" lon="-7.4153330">
        <ele>8.5</ele>
        <time>2020-12-22T14:25:56Z</time>
      </trkpt>
      <trkpt lat="37.1875230" lon="-7.4153050">
        <ele>8.5</ele>
        <time>2020-12-22T14:25:57Z</time>
      </trkpt>
      <trkpt lat="37.1875310" lon="-7.4152770">
        <ele>8.5</ele>
        <time>2020-12-22T14:25:58Z</time>
      </trkpt>
      <trkpt lat="37.1875340" lon="-7.4152520">
        <ele>8.5</ele>
        <time>2020-12-22T14:25:59Z</time>
      </trkpt>
      <trkpt lat="37.1875420" lon="-7.4152270">
        <ele>8.5</ele>
        <time>2020-12-22T14:26:00Z</time>
      </trkpt>
      <trkpt lat="37.1875530" lon="-7.4152010">
        <ele>8.5</ele>
        <time>2020-12-22T14:26:01Z</time>
      </trkpt>
      <trkpt lat="37.1875690" lon="-7.4151730">
        <ele>8.5</ele>
        <time>2020-12-22T14:26:02Z</time>
      </trkpt>
      <trkpt lat="37.1875760" lon="-7.4151380">
        <ele>8.5</ele>
        <time>2020-12-22T14:26:03Z</time>
      </trkpt>
      <trkpt lat="37.1875800" lon="-7.4150980">
        <ele>8.5</ele>
        <time>2020-12-22T14:26:04Z</time>
      </trkpt>
      <trkpt lat="37.1875880" lon="-7.4150570">
        <ele>8.5</ele>
        <time>2020-12-22T14:26:05Z</time>
      </trkpt>
      <trkpt lat="37.1875950" lon="-7.4150160">
        <ele>8.5</ele>
        <time>2020-12-22T14:26:06Z</time>
      </trkpt>
      <trkpt lat="37.1875880" lon="-7.4149780">
        <ele>8.5</ele>
        <time>2020-12-22T14:26:07Z</time>
      </trkpt>
      <trkpt lat="37.1875690" lon="-7.4149460">
        <ele>8.4</ele>
        <time>2020-12-22T14:26:08Z</time>
      </trkpt>
      <trkpt lat="37.1875570" lon="-7.4149160">
        <ele>8.4</ele>
        <time>2020-12-22T14:26:09Z</time>
      </trkpt>
      <trkpt lat="37.1875530" lon="-7.4148850">
        <ele>8.4</ele>
        <time>2020-12-22T14:26:10Z</time>
      </trkpt>
      <trkpt lat="37.1875500" lon="-7.4148560">
        <ele>8.4</ele>
        <time>2020-12-22T14:26:11Z</time>
      </trkpt>
      <trkpt lat="37.1875500" lon="-7.4148280">
        <ele>8.4</ele>
        <time>2020-12-22T14:26:12Z</time>
      </trkpt>
      <trkpt lat="37.1875530" lon="-7.4148010">
        <ele>8.4</ele>
        <time>2020-12-22T14:26:13Z</time>
      </trkpt>
      <trkpt lat="37.1875570" lon="-7.4147780">
        <ele>8.4</ele>
        <time>2020-12-22T14:26:14Z</time>
      </trkpt>
      <trkpt lat="37.1875570" lon="-7.4147580">
        <ele>8.4</ele>
        <time>2020-12-22T14:26:15Z</time>
      </trkpt>
      <trkpt lat="37.1875570" lon="-7.4147430">
        <ele>8.4</ele>
        <time>2020-12-22T14:26:16Z</time>
      </trkpt>
      <trkpt lat="37.1875610" lon="-7.4147330">
        <ele>8.3</ele>
        <time>2020-12-22T14:26:17Z</time>
      </trkpt>
      <trkpt lat="37.1875650" lon="-7.4147250">
        <ele>8.3</ele>
        <time>2020-12-22T14:26:18Z</time>
      </trkpt>
      <trkpt lat="37.1875650" lon="-7.4147170">
        <ele>8.3</ele>
        <time>2020-12-22T14:26:19Z</time>
      </trkpt>
      <trkpt lat="37.1875650" lon="-7.4147100">
        <ele>8.3</ele>
        <time>2020-12-22T14:26:20Z</time>
      </trkpt>
      <trkpt lat="37.1875610" lon="-7.4146950">
        <ele>8.3</ele>
        <time>2020-12-22T14:26:44Z</time>
      </trkpt>
      <trkpt lat="37.1875570" lon="-7.4146820">
        <ele>8.3</ele>
        <time>2020-12-22T14:26:45Z</time>
      </trkpt>
      <trkpt lat="37.1875500" lon="-7.4146680">
        <ele>8.3</ele>
        <time>2020-12-22T14:26:46Z</time>
      </trkpt>
      <trkpt lat="37.1875420" lon="-7.4146500">
        <ele>8.3</ele>
        <time>2020-12-22T14:26:47Z</time>
      </trkpt>
      <trkpt lat="37.1875310" lon="-7.4146310">
        <ele>8.2</ele>
        <time>2020-12-22T14:26:48Z</time>
      </trkpt>
      <trkpt lat="37.1875230" lon="-7.4146110">
        <ele>8.2</ele>
        <time>2020-12-22T14:26:49Z</time>
      </trkpt>
      <trkpt lat="37.1875270" lon="-7.4145870">
        <ele>8.2</ele>
        <time>2020-12-22T14:26:50Z</time>
      </trkpt>
      <trkpt lat="37.1875340" lon="-7.4145600">
        <ele>8.2</ele>
        <time>2020-12-22T14:26:51Z</time>
      </trkpt>
      <trkpt lat="37.1875420" lon="-7.4145320">
        <ele>8.2</ele>
        <time>2020-12-22T14:26:52Z</time>
      </trkpt>
      <trkpt lat="37.1875570" lon="-7.4145060">
        <ele>8.1</ele>
        <time>2020-12-22T14:26:53Z</time>
      </trkpt>
      <trkpt lat="37.1875840" lon="-7.4144910">
        <ele>8.1</ele>
        <time>2020-12-22T14:26:54Z</time>
      </trkpt>
      <trkpt lat="37.1876110" lon="-7.4144760">
        <ele>8.1</ele>
        <time>2020-12-22T14:26:55Z</time>
      </trkpt>
      <trkpt lat="37.1876260" lon="-7.4144560">
        <ele>8.1</ele>
        <time>2020-12-22T14:26:56Z</time>
      </trkpt>
      <trkpt lat="37.1876300" lon="-7.4144360">
        <ele>8.1</ele>
        <time>2020-12-22T14:26:57Z</time>
      </trkpt>
      <trkpt lat="37.1876330" lon="-7.4144160">
        <ele>8.1</ele>
        <time>2020-12-22T14:26:58Z</time>
      </trkpt>
      <trkpt lat="37.1876370" lon="-7.4143990">
        <ele>8.1</ele>
        <time>2020-12-22T14:26:59Z</time>
      </trkpt>
      <trkpt lat="37.1876490" lon="-7.4143900">
        <ele>8.1</ele>
        <time>2020-12-22T14:27:00Z</time>
      </trkpt>
      <trkpt lat="37.1876560" lon="-7.4143850">
        <ele>8.1</ele>
        <time>2020-12-22T14:27:01Z</time>
      </trkpt>
      <trkpt lat="37.1876600" lon="-7.4143850">
        <ele>8.1</ele>
        <time>2020-12-22T14:27:02Z</time>
      </trkpt>
      <trkpt lat="37.1876600" lon="-7.4143900">
        <ele>8.1</ele>
        <time>2020-12-22T14:27:03Z</time>
      </trkpt>
      <trkpt lat="37.1876600" lon="-7.4143920">
        <ele>8.1</ele>
        <time>2020-12-22T14:27:04Z</time>
      </trkpt>
      <trkpt lat="37.1876640" lon="-7.4143920">
        <ele>8.1</ele>
        <time>2020-12-22T14:27:05Z</time>
      </trkpt>
      <trkpt lat="37.1876640" lon="-7.4143930">
        <ele>8.1</ele>
        <time>2020-12-22T14:27:06Z</time>
      </trkpt>
      <trkpt lat="37.1876910" lon="-7.4143810">
        <ele>8.0</ele>
        <time>2020-12-22T14:27:21Z</time>
      </trkpt>
      <trkpt lat="37.1876910" lon="-7.4143580">
        <ele>8.0</ele>
        <time>2020-12-22T14:27:22Z</time>
      </trkpt>
      <trkpt lat="37.1876830" lon="-7.4143310">
        <ele>8.0</ele>
        <time>2020-12-22T14:27:23Z</time>
      </trkpt>
      <trkpt lat="37.1876790" lon="-7.4143050">
        <ele>8.0</ele>
        <time>2020-12-22T14:27:24Z</time>
      </trkpt>
      <trkpt lat="37.1876750" lon="-7.4142780">
        <ele>8.0</ele>
        <time>2020-12-22T14:27:25Z</time>
      </trkpt>
      <trkpt lat="37.1876790" lon="-7.4142500">
        <ele>8.0</ele>
        <time>2020-12-22T14:27:26Z</time>
      </trkpt>
      <trkpt lat="37.1876870" lon="-7.4142230">
        <ele>8.0</ele>
        <time>2020-12-22T14:27:27Z</time>
      </trkpt>
      <trkpt lat="37.1876910" lon="-7.4141940">
        <ele>8.0</ele>
        <time>2020-12-22T14:27:28Z</time>
      </trkpt>
      <trkpt lat="37.1876980" lon="-7.4141660">
        <ele>8.0</ele>
        <time>2020-12-22T14:27:29Z</time>
      </trkpt>
      <trkpt lat="37.1877020" lon="-7.4141420">
        <ele>8.0</ele>
        <time>2020-12-22T14:27:30Z</time>
      </trkpt>
      <trkpt lat="37.1877060" lon="-7.4141160">
        <ele>8.0</ele>
        <time>2020-12-22T14:27:31Z</time>
      </trkpt>
      <trkpt lat="37.1877140" lon="-7.4140890">
        <ele>8.0</ele>
        <time>2020-12-22T14:27:32Z</time>
      </trkpt>
      <trkpt lat="37.1877170" lon="-7.4140580">
        <ele>8.0</ele>
        <time>2020-12-22T14:27:33Z</time>
      </trkpt>
      <trkpt lat="37.1877210" lon="-7.4140250">
        <ele>7.9</ele>
        <time>2020-12-22T14:27:34Z</time>
      </trkpt>
      <trkpt lat="37.1877290" lon="-7.4139900">
        <ele>7.9</ele>
        <time>2020-12-22T14:27:35Z</time>
      </trkpt>
      <trkpt lat="37.1877330" lon="-7.4139530">
        <ele>7.9</ele>
        <time>2020-12-22T14:27:36Z</time>
      </trkpt>
      <trkpt lat="37.1877400" lon="-7.4139160">
        <ele>7.9</ele>
        <time>2020-12-22T14:27:37Z</time>
      </trkpt>
      <trkpt lat="37.1877440" lon="-7.4138790">
        <ele>7.9</ele>
        <time>2020-12-22T14:27:38Z</time>
      </trkpt>
      <trkpt lat="37.1877520" lon="-7.4138460">
        <ele>7.9</ele>
        <time>2020-12-22T14:27:39Z</time>
      </trkpt>
      <trkpt lat="37.1877560" lon="-7.4138200">
        <ele>7.9</ele>
        <time>2020-12-22T14:27:40Z</time>
      </trkpt>
      <trkpt lat="37.1877590" lon="-7.4138050">
        <ele>7.9</ele>
        <time>2020-12-22T14:27:41Z</time>
      </trkpt>
      <trkpt lat="37.1877630" lon="-7.4137940">
        <ele>7.9</ele>
        <time>2020-12-22T14:27:42Z</time>
      </trkpt>
      <trkpt lat="37.1877670" lon="-7.4137820">
        <ele>7.9</ele>
        <time>2020-12-22T14:27:43Z</time>
      </trkpt>
      <trkpt lat="37.1877670" lon="-7.4137660">
        <ele>7.9</ele>
        <time>2020-12-22T14:27:44Z</time>
      </trkpt>
      <trkpt lat="37.1877750" lon="-7.4137490">
        <ele>7.9</ele>
        <time>2020-12-22T14:27:45Z</time>
      </trkpt>
      <trkpt lat="37.1877780" lon="-7.4137350">
        <ele>7.9</ele>
        <time>2020-12-22T14:27:46Z</time>
      </trkpt>
      <trkpt lat="37.1877860" lon="-7.4137270">
        <ele>7.9</ele>
        <time>2020-12-22T14:27:47Z</time>
      </trkpt>
      <trkpt lat="37.1877940" lon="-7.4137210">
        <ele>7.9</ele>
        <time>2020-12-22T14:27:48Z</time>
      </trkpt>
      <trkpt lat="37.1877980" lon="-7.4137140">
        <ele>7.9</ele>
        <time>2020-12-22T14:27:49Z</time>
      </trkpt>
      <trkpt lat="37.1878010" lon="-7.4137110">
        <ele>7.9</ele>
        <time>2020-12-22T14:27:50Z</time>
      </trkpt>
      <trkpt lat="37.1878050" lon="-7.4137160">
        <ele>7.9</ele>
        <time>2020-12-22T14:27:51Z</time>
      </trkpt>
      <trkpt lat="37.1878010" lon="-7.4137360">
        <ele>7.9</ele>
        <time>2020-12-22T14:27:52Z</time>
      </trkpt>
      <trkpt lat="37.1877980" lon="-7.4137530">
        <ele>7.9</ele>
        <time>2020-12-22T14:27:53Z</time>
      </trkpt>
      <trkpt lat="37.1877940" lon="-7.4137550">
        <ele>7.9</ele>
        <time>2020-12-22T14:27:54Z</time>
      </trkpt>
      <trkpt lat="37.1877900" lon="-7.4137510">
        <ele>7.9</ele>
        <time>2020-12-22T14:27:55Z</time>
      </trkpt>
      <trkpt lat="37.1877900" lon="-7.4137480">
        <ele>7.9</ele>
        <time>2020-12-22T14:27:56Z</time>
      </trkpt>
      <trkpt lat="37.1877860" lon="-7.4137460">
        <ele>7.9</ele>
        <time>2020-12-22T14:27:57Z</time>
      </trkpt>
      <trkpt lat="37.1877860" lon="-7.4137460">
        <ele>7.9</ele>
        <time>2020-12-22T14:27:58Z</time>
      </trkpt>
      <trkpt lat="37.1877860" lon="-7.4137130">
        <ele>7.9</ele>
        <time>2020-12-22T14:28:05Z</time>
      </trkpt>
      <trkpt lat="37.1877940" lon="-7.4136960">
        <ele>7.9</ele>
        <time>2020-12-22T14:28:06Z</time>
      </trkpt>
      <trkpt lat="37.1878010" lon="-7.4136750">
        <ele>7.9</ele>
        <time>2020-12-22T14:28:07Z</time>
      </trkpt>
      <trkpt lat="37.1878130" lon="-7.4136470">
        <ele>7.9</ele>
        <time>2020-12-22T14:28:08Z</time>
      </trkpt>
      <trkpt lat="37.1878240" lon="-7.4136100">
        <ele>7.9</ele>
        <time>2020-12-22T14:28:09Z</time>
      </trkpt>
      <trkpt lat="37.1878400" lon="-7.4135680">
        <ele>7.9</ele>
        <time>2020-12-22T14:28:10Z</time>
      </trkpt>
      <trkpt lat="37.1878550" lon="-7.4135210">
        <ele>7.9</ele>
        <time>2020-12-22T14:28:11Z</time>
      </trkpt>
      <trkpt lat="37.1878700" lon="-7.4134710">
        <ele>7.9</ele>
        <time>2020-12-22T14:28:12Z</time>
      </trkpt>
      <trkpt lat="37.1878850" lon="-7.4134210">
        <ele>7.8</ele>
        <time>2020-12-22T14:28:13Z</time>
      </trkpt>
      <trkpt lat="37.1878970" lon="-7.4133760">
        <ele>7.8</ele>
        <time>2020-12-22T14:28:14Z</time>
      </trkpt>
      <trkpt lat="37.1879080" lon="-7.4133320">
        <ele>7.8</ele>
        <time>2020-12-22T14:28:15Z</time>
      </trkpt>
      <trkpt lat="37.1879200" lon="-7.4132840">
        <ele>7.8</ele>
        <time>2020-12-22T14:28:16Z</time>
      </trkpt>
      <trkpt lat="37.1879350" lon="-7.4132320">
        <ele>7.8</ele>
        <time>2020-12-22T14:28:17Z</time>
      </trkpt>
      <trkpt lat="37.1879430" lon="-7.4131770">
        <ele>7.9</ele>
        <time>2020-12-22T14:28:18Z</time>
      </trkpt>
      <trkpt lat="37.1879500" lon="-7.4131230">
        <ele>7.9</ele>
        <time>2020-12-22T14:28:19Z</time>
      </trkpt>
      <trkpt lat="37.1879580" lon="-7.4130700">
        <ele>7.9</ele>
        <time>2020-12-22T14:28:20Z</time>
      </trkpt>
      <trkpt lat="37.1879650" lon="-7.4130220">
        <ele>7.9</ele>
        <time>2020-12-22T14:28:21Z</time>
      </trkpt>
      <trkpt lat="37.1879690" lon="-7.4129780">
        <ele>7.9</ele>
        <time>2020-12-22T14:28:22Z</time>
      </trkpt>
      <trkpt lat="37.1879730" lon="-7.4129440">
        <ele>7.9</ele>
        <time>2020-12-22T14:28:23Z</time>
      </trkpt>
      <trkpt lat="37.1879770" lon="-7.4129260">
        <ele>7.9</ele>
        <time>2020-12-22T14:28:24Z</time>
      </trkpt>
      <trkpt lat="37.1879770" lon="-7.4129230">
        <ele>7.9</ele>
        <time>2020-12-22T14:28:25Z</time>
      </trkpt>
      <trkpt lat="37.1879730" lon="-7.4129250">
        <ele>7.9</ele>
        <time>2020-12-22T14:28:26Z</time>
      </trkpt>
      <trkpt lat="37.1879730" lon="-7.4129270">
        <ele>7.9</ele>
        <time>2020-12-22T14:28:27Z</time>
      </trkpt>
      <trkpt lat="37.1879690" lon="-7.4129260">
        <ele>7.9</ele>
        <time>2020-12-22T14:28:28Z</time>
      </trkpt>
      <trkpt lat="37.1879690" lon="-7.4129200">
        <ele>7.9</ele>
        <time>2020-12-22T14:28:29Z</time>
      </trkpt>
      <trkpt lat="37.1879730" lon="-7.4129050">
        <ele>7.9</ele>
        <time>2020-12-22T14:28:30Z</time>
      </trkpt>
      <trkpt lat="37.1879810" lon="-7.4128830">
        <ele>7.9</ele>
        <time>2020-12-22T14:28:31Z</time>
      </trkpt>
      <trkpt lat="37.1879880" lon="-7.4128560">
        <ele>7.9</ele>
        <time>2020-12-22T14:28:32Z</time>
      </trkpt>
      <trkpt lat="37.1880000" lon="-7.4128240">
        <ele>7.9</ele>
        <time>2020-12-22T14:28:33Z</time>
      </trkpt>
      <trkpt lat="37.1880040" lon="-7.4127920">
        <ele>7.9</ele>
        <time>2020-12-22T14:28:34Z</time>
      </trkpt>
      <trkpt lat="37.1880110" lon="-7.4127600">
        <ele>7.9</ele>
        <time>2020-12-22T14:28:35Z</time>
      </trkpt>
      <trkpt lat="37.1880190" lon="-7.4127250">
        <ele>7.9</ele>
        <time>2020-12-22T14:28:36Z</time>
      </trkpt>
      <trkpt lat="37.1880300" lon="-7.4126860">
        <ele>7.9</ele>
        <time>2020-12-22T14:28:37Z</time>
      </trkpt>
      <trkpt lat="37.1880380" lon="-7.4126430">
        <ele>7.9</ele>
        <time>2020-12-22T14:28:38Z</time>
      </trkpt>
      <trkpt lat="37.1880420" lon="-7.4126000">
        <ele>7.9</ele>
        <time>2020-12-22T14:28:39Z</time>
      </trkpt>
      <trkpt lat="37.1880340" lon="-7.4125620">
        <ele>7.9</ele>
        <time>2020-12-22T14:28:40Z</time>
      </trkpt>
      <trkpt lat="37.1880230" lon="-7.4125280">
        <ele>7.9</ele>
        <time>2020-12-22T14:28:41Z</time>
      </trkpt>
      <trkpt lat="37.1880110" lon="-7.4124960">
        <ele>7.9</ele>
        <time>2020-12-22T14:28:42Z</time>
      </trkpt>
      <trkpt lat="37.1879960" lon="-7.4124670">
        <ele>7.9</ele>
        <time>2020-12-22T14:28:43Z</time>
      </trkpt>
      <trkpt lat="37.1879840" lon="-7.4124390">
        <ele>7.9</ele>
        <time>2020-12-22T14:28:44Z</time>
      </trkpt>
      <trkpt lat="37.1879730" lon="-7.4124110">
        <ele>7.9</ele>
        <time>2020-12-22T14:28:45Z</time>
      </trkpt>
      <trkpt lat="37.1879620" lon="-7.4123870">
        <ele>7.9</ele>
        <time>2020-12-22T14:28:46Z</time>
      </trkpt>
      <trkpt lat="37.1879430" lon="-7.4123650">
        <ele>7.9</ele>
        <time>2020-12-22T14:28:47Z</time>
      </trkpt>
      <trkpt lat="37.1879230" lon="-7.4123480">
        <ele>7.9</ele>
        <time>2020-12-22T14:28:48Z</time>
      </trkpt>
      <trkpt lat="37.1879010" lon="-7.4123360">
        <ele>7.9</ele>
        <time>2020-12-22T14:28:49Z</time>
      </trkpt>
      <trkpt lat="37.1878780" lon="-7.4123290">
        <ele>8.0</ele>
        <time>2020-12-22T14:28:50Z</time>
      </trkpt>
      <trkpt lat="37.1878550" lon="-7.4123130">
        <ele>8.0</ele>
        <time>2020-12-22T14:28:51Z</time>
      </trkpt>
      <trkpt lat="37.1878430" lon="-7.4122910">
        <ele>8.0</ele>
        <time>2020-12-22T14:28:52Z</time>
      </trkpt>
      <trkpt lat="37.1878400" lon="-7.4122640">
        <ele>8.0</ele>
        <time>2020-12-22T14:28:53Z</time>
      </trkpt>
      <trkpt lat="37.1878400" lon="-7.4122380">
        <ele>8.0</ele>
        <time>2020-12-22T14:28:54Z</time>
      </trkpt>
      <trkpt lat="37.1878280" lon="-7.4122250">
        <ele>8.0</ele>
        <time>2020-12-22T14:28:55Z</time>
      </trkpt>
      <trkpt lat="37.1878130" lon="-7.4122230">
        <ele>8.0</ele>
        <time>2020-12-22T14:28:56Z</time>
      </trkpt>
      <trkpt lat="37.1877980" lon="-7.4122200">
        <ele>8.0</ele>
        <time>2020-12-22T14:28:57Z</time>
      </trkpt>
      <trkpt lat="37.1877860" lon="-7.4122130">
        <ele>8.0</ele>
        <time>2020-12-22T14:28:58Z</time>
      </trkpt>
      <trkpt lat="37.1877750" lon="-7.4122040">
        <ele>8.0</ele>
        <time>2020-12-22T14:28:59Z</time>
      </trkpt>
      <trkpt lat="37.1877630" lon="-7.4121950">
        <ele>8.0</ele>
        <time>2020-12-22T14:29:00Z</time>
      </trkpt>
      <trkpt lat="37.1877560" lon="-7.4121850">
        <ele>8.0</ele>
        <time>2020-12-22T14:29:01Z</time>
      </trkpt>
      <trkpt lat="37.1877480" lon="-7.4121760">
        <ele>8.0</ele>
        <time>2020-12-22T14:29:02Z</time>
      </trkpt>
      <trkpt lat="37.1877370" lon="-7.4121690">
        <ele>8.0</ele>
        <time>2020-12-22T14:29:03Z</time>
      </trkpt>
      <trkpt lat="37.1877290" lon="-7.4121630">
        <ele>8.0</ele>
        <time>2020-12-22T14:29:04Z</time>
      </trkpt>
      <trkpt lat="37.1877250" lon="-7.4121560">
        <ele>8.0</ele>
        <time>2020-12-22T14:29:05Z</time>
      </trkpt>
      <trkpt lat="37.1877210" lon="-7.4121520">
        <ele>8.0</ele>
        <time>2020-12-22T14:29:06Z</time>
      </trkpt>
      <trkpt lat="37.1877250" lon="-7.4121520">
        <ele>8.0</ele>
        <time>2020-12-22T14:29:07Z</time>
      </trkpt>
      <trkpt lat="37.1877440" lon="-7.4121350">
        <ele>8.0</ele>
        <time>2020-12-22T14:30:11Z</time>
      </trkpt>
      <trkpt lat="37.1877520" lon="-7.4121260">
        <ele>8.0</ele>
        <time>2020-12-22T14:30:12Z</time>
      </trkpt>
      <trkpt lat="37.1877670" lon="-7.4121230">
        <ele>8.0</ele>
        <time>2020-12-22T14:30:13Z</time>
      </trkpt>
      <trkpt lat="37.1877860" lon="-7.4121240">
        <ele>8.0</ele>
        <time>2020-12-22T14:30:14Z</time>
      </trkpt>
      <trkpt lat="37.1878090" lon="-7.4121270">
        <ele>8.0</ele>
        <time>2020-12-22T14:30:15Z</time>
      </trkpt>
      <trkpt lat="37.1878360" lon="-7.4121330">
        <ele>8.0</ele>
        <time>2020-12-22T14:30:16Z</time>
      </trkpt>
      <trkpt lat="37.1878590" lon="-7.4121440">
        <ele>8.0</ele>
        <time>2020-12-22T14:30:17Z</time>
      </trkpt>
      <trkpt lat="37.1878850" lon="-7.4121560">
        <ele>8.0</ele>
        <time>2020-12-22T14:30:18Z</time>
      </trkpt>
      <trkpt lat="37.1879120" lon="-7.4121660">
        <ele>8.0</ele>
        <time>2020-12-22T14:30:19Z</time>
      </trkpt>
      <trkpt lat="37.1879430" lon="-7.4121730">
        <ele>8.0</ele>
        <time>2020-12-22T14:30:20Z</time>
      </trkpt>
      <trkpt lat="37.1879690" lon="-7.4121800">
        <ele>8.0</ele>
        <time>2020-12-22T14:30:21Z</time>
      </trkpt>
      <trkpt lat="37.1879960" lon="-7.4121870">
        <ele>7.9</ele>
        <time>2020-12-22T14:30:22Z</time>
      </trkpt>
      <trkpt lat="37.1880230" lon="-7.4121970">
        <ele>7.9</ele>
        <time>2020-12-22T14:30:23Z</time>
      </trkpt>
      <trkpt lat="37.1880490" lon="-7.4122090">
        <ele>7.9</ele>
        <time>2020-12-22T14:30:24Z</time>
      </trkpt>
      <trkpt lat="37.1880720" lon="-7.4122210">
        <ele>7.9</ele>
        <time>2020-12-22T14:30:25Z</time>
      </trkpt>
      <trkpt lat="37.1880990" lon="-7.4122320">
        <ele>7.9</ele>
        <time>2020-12-22T14:30:26Z</time>
      </trkpt>
      <trkpt lat="37.1881260" lon="-7.4122400">
        <ele>7.9</ele>
        <time>2020-12-22T14:30:27Z</time>
      </trkpt>
      <trkpt lat="37.1881520" lon="-7.4122460">
        <ele>8.0</ele>
        <time>2020-12-22T14:30:28Z</time>
      </trkpt>
      <trkpt lat="37.1881750" lon="-7.4122500">
        <ele>8.0</ele>
        <time>2020-12-22T14:30:29Z</time>
      </trkpt>
      <trkpt lat="37.1881980" lon="-7.4122570">
        <ele>8.0</ele>
        <time>2020-12-22T14:30:30Z</time>
      </trkpt>
      <trkpt lat="37.1882210" lon="-7.4122650">
        <ele>8.0</ele>
        <time>2020-12-22T14:30:31Z</time>
      </trkpt>
      <trkpt lat="37.1882440" lon="-7.4122730">
        <ele>8.0</ele>
        <time>2020-12-22T14:30:32Z</time>
      </trkpt>
      <trkpt lat="37.1882710" lon="-7.4122800">
        <ele>8.0</ele>
        <time>2020-12-22T14:30:33Z</time>
      </trkpt>
      <trkpt lat="37.1882970" lon="-7.4122870">
        <ele>8.0</ele>
        <time>2020-12-22T14:30:34Z</time>
      </trkpt>
      <trkpt lat="37.1883240" lon="-7.4122940">
        <ele>8.0</ele>
        <time>2020-12-22T14:30:35Z</time>
      </trkpt>
      <trkpt lat="37.1883510" lon="-7.4123020">
        <ele>8.0</ele>
        <time>2020-12-22T14:30:36Z</time>
      </trkpt>
      <trkpt lat="37.1883770" lon="-7.4123110">
        <ele>8.0</ele>
        <time>2020-12-22T14:30:37Z</time>
      </trkpt>
      <trkpt lat="37.1884000" lon="-7.4123190">
        <ele>8.0</ele>
        <time>2020-12-22T14:30:38Z</time>
      </trkpt>
      <trkpt lat="37.1884270" lon="-7.4123240">
        <ele>8.0</ele>
        <time>2020-12-22T14:30:39Z</time>
      </trkpt>
      <trkpt lat="37.1884500" lon="-7.4123260">
        <ele>8.0</ele>
        <time>2020-12-22T14:30:40Z</time>
      </trkpt>
      <trkpt lat="37.1884730" lon="-7.4123280">
        <ele>8.0</ele>
        <time>2020-12-22T14:30:41Z</time>
      </trkpt>
      <trkpt lat="37.1884960" lon="-7.4123320">
        <ele>8.0</ele>
        <time>2020-12-22T14:30:42Z</time>
      </trkpt>
      <trkpt lat="37.1885190" lon="-7.4123350">
        <ele>8.0</ele>
        <time>2020-12-22T14:30:43Z</time>
      </trkpt>
      <trkpt lat="37.1885410" lon="-7.4123390">
        <ele>8.0</ele>
        <time>2020-12-22T14:30:44Z</time>
      </trkpt>
      <trkpt lat="37.1885640" lon="-7.4123440">
        <ele>8.0</ele>
        <time>2020-12-22T14:30:45Z</time>
      </trkpt>
      <trkpt lat="37.1885870" lon="-7.4123490">
        <ele>8.0</ele>
        <time>2020-12-22T14:30:46Z</time>
      </trkpt>
      <trkpt lat="37.1886100" lon="-7.4123560">
        <ele>8.0</ele>
        <time>2020-12-22T14:30:47Z</time>
      </trkpt>
      <trkpt lat="37.1886370" lon="-7.4123650">
        <ele>8.0</ele>
        <time>2020-12-22T14:30:48Z</time>
      </trkpt>
      <trkpt lat="37.1886670" lon="-7.4123740">
        <ele>8.0</ele>
        <time>2020-12-22T14:30:49Z</time>
      </trkpt>
      <trkpt lat="37.1887020" lon="-7.4123810">
        <ele>8.0</ele>
        <time>2020-12-22T14:30:50Z</time>
      </trkpt>
      <trkpt lat="37.1887360" lon="-7.4123850">
        <ele>8.0</ele>
        <time>2020-12-22T14:30:51Z</time>
      </trkpt>
      <trkpt lat="37.1887740" lon="-7.4123890">
        <ele>8.1</ele>
        <time>2020-12-22T14:30:52Z</time>
      </trkpt>
      <trkpt lat="37.1888120" lon="-7.4123940">
        <ele>8.1</ele>
        <time>2020-12-22T14:30:53Z</time>
      </trkpt>
      <trkpt lat="37.1888500" lon="-7.4123970">
        <ele>8.1</ele>
        <time>2020-12-22T14:30:54Z</time>
      </trkpt>
      <trkpt lat="37.1888920" lon="-7.4123980">
        <ele>8.1</ele>
        <time>2020-12-22T14:30:55Z</time>
      </trkpt>
      <trkpt lat="37.1889310" lon="-7.4123970">
        <ele>8.1</ele>
        <time>2020-12-22T14:30:56Z</time>
      </trkpt>
      <trkpt lat="37.1889690" lon="-7.4123970">
        <ele>8.1</ele>
        <time>2020-12-22T14:30:57Z</time>
      </trkpt>
      <trkpt lat="37.1890070" lon="-7.4124000">
        <ele>8.1</ele>
        <time>2020-12-22T14:30:58Z</time>
      </trkpt>
      <trkpt lat="37.1890450" lon="-7.4124030">
        <ele>8.1</ele>
        <time>2020-12-22T14:30:59Z</time>
      </trkpt>
      <trkpt lat="37.1890790" lon="-7.4124010">
        <ele>8.1</ele>
        <time>2020-12-22T14:31:00Z</time>
      </trkpt>
      <trkpt lat="37.1891170" lon="-7.4123960">
        <ele>8.1</ele>
        <time>2020-12-22T14:31:01Z</time>
      </trkpt>
      <trkpt lat="37.1891560" lon="-7.4123920">
        <ele>8.1</ele>
        <time>2020-12-22T14:31:02Z</time>
      </trkpt>
      <trkpt lat="37.1891900" lon="-7.4123920">
        <ele>8.1</ele>
        <time>2020-12-22T14:31:03Z</time>
      </trkpt>
      <trkpt lat="37.1892240" lon="-7.4123910">
        <ele>8.1</ele>
        <time>2020-12-22T14:31:04Z</time>
      </trkpt>
      <trkpt lat="37.1892590" lon="-7.4123890">
        <ele>8.1</ele>
        <time>2020-12-22T14:31:05Z</time>
      </trkpt>
      <trkpt lat="37.1892930" lon="-7.4123880">
        <ele>8.1</ele>
        <time>2020-12-22T14:31:06Z</time>
      </trkpt>
      <trkpt lat="37.1893200" lon="-7.4123940">
        <ele>8.1</ele>
        <time>2020-12-22T14:31:07Z</time>
      </trkpt>
      <trkpt lat="37.1893350" lon="-7.4124050">
        <ele>8.1</ele>
        <time>2020-12-22T14:31:08Z</time>
      </trkpt>
      <trkpt lat="37.1893420" lon="-7.4124110">
        <ele>8.1</ele>
        <time>2020-12-22T14:31:09Z</time>
      </trkpt>
      <trkpt lat="37.1893500" lon="-7.4124090">
        <ele>8.1</ele>
        <time>2020-12-22T14:31:10Z</time>
      </trkpt>
      <trkpt lat="37.1893620" lon="-7.4124060">
        <ele>8.1</ele>
        <time>2020-12-22T14:31:11Z</time>
      </trkpt>
      <trkpt lat="37.1893770" lon="-7.4124030">
        <ele>8.1</ele>
        <time>2020-12-22T14:31:12Z</time>
      </trkpt>
      <trkpt lat="37.1893960" lon="-7.4123990">
        <ele>8.1</ele>
        <time>2020-12-22T14:31:13Z</time>
      </trkpt>
      <trkpt lat="37.1894110" lon="-7.4123940">
        <ele>8.1</ele>
        <time>2020-12-22T14:31:14Z</time>
      </trkpt>
      <trkpt lat="37.1894260" lon="-7.4123930">
        <ele>8.1</ele>
        <time>2020-12-22T14:31:15Z</time>
      </trkpt>
      <trkpt lat="37.1894420" lon="-7.4123960">
        <ele>8.1</ele>
        <time>2020-12-22T14:31:16Z</time>
      </trkpt>
      <trkpt lat="37.1894530" lon="-7.4124010">
        <ele>8.1</ele>
        <time>2020-12-22T14:31:17Z</time>
      </trkpt>
      <trkpt lat="37.1894650" lon="-7.4124090">
        <ele>8.1</ele>
        <time>2020-12-22T14:31:18Z</time>
      </trkpt>
      <trkpt lat="37.1894760" lon="-7.4124180">
        <ele>8.1</ele>
        <time>2020-12-22T14:31:19Z</time>
      </trkpt>
      <trkpt lat="37.1894840" lon="-7.4124280">
        <ele>8.1</ele>
        <time>2020-12-22T14:31:20Z</time>
      </trkpt>
      <trkpt lat="37.1894950" lon="-7.4124360">
        <ele>8.1</ele>
        <time>2020-12-22T14:31:21Z</time>
      </trkpt>
      <trkpt lat="37.1895070" lon="-7.4124430">
        <ele>8.1</ele>
        <time>2020-12-22T14:31:22Z</time>
      </trkpt>
      <trkpt lat="37.1895180" lon="-7.4124480">
        <ele>8.1</ele>
        <time>2020-12-22T14:31:23Z</time>
      </trkpt>
      <trkpt lat="37.1895330" lon="-7.4124560">
        <ele>8.0</ele>
        <time>2020-12-22T14:31:24Z</time>
      </trkpt>
      <trkpt lat="37.1895480" lon="-7.4124630">
        <ele>8.0</ele>
        <time>2020-12-22T14:31:25Z</time>
      </trkpt>
      <trkpt lat="37.1895640" lon="-7.4124710">
        <ele>8.0</ele>
        <time>2020-12-22T14:31:26Z</time>
      </trkpt>
      <trkpt lat="37.1895750" lon="-7.4124810">
        <ele>8.0</ele>
        <time>2020-12-22T14:31:27Z</time>
      </trkpt>
      <trkpt lat="37.1895870" lon="-7.4124920">
        <ele>8.0</ele>
        <time>2020-12-22T14:31:28Z</time>
      </trkpt>
      <trkpt lat="37.1896060" lon="-7.4125020">
        <ele>8.0</ele>
        <time>2020-12-22T14:31:29Z</time>
      </trkpt>
      <trkpt lat="37.1896250" lon="-7.4125110">
        <ele>8.0</ele>
        <time>2020-12-22T14:31:30Z</time>
      </trkpt>
      <trkpt lat="37.1896440" lon="-7.4125180">
        <ele>8.0</ele>
        <time>2020-12-22T14:31:31Z</time>
      </trkpt>
      <trkpt lat="37.1896590" lon="-7.4125220">
        <ele>8.0</ele>
        <time>2020-12-22T14:31:32Z</time>
      </trkpt>
      <trkpt lat="37.1896780" lon="-7.4125240">
        <ele>8.0</ele>
        <time>2020-12-22T14:31:33Z</time>
      </trkpt>
      <trkpt lat="37.1896970" lon="-7.4125230">
        <ele>8.0</ele>
        <time>2020-12-22T14:31:34Z</time>
      </trkpt>
      <trkpt lat="37.1897160" lon="-7.4125180">
        <ele>8.0</ele>
        <time>2020-12-22T14:31:35Z</time>
      </trkpt>
      <trkpt lat="37.1897390" lon="-7.4125130">
        <ele>8.0</ele>
        <time>2020-12-22T14:31:36Z</time>
      </trkpt>
      <trkpt lat="37.1897620" lon="-7.4125080">
        <ele>8.0</ele>
        <time>2020-12-22T14:31:37Z</time>
      </trkpt>
      <trkpt lat="37.1897850" lon="-7.4125070">
        <ele>8.0</ele>
        <time>2020-12-22T14:31:38Z</time>
      </trkpt>
      <trkpt lat="37.1898120" lon="-7.4125090">
        <ele>8.0</ele>
        <time>2020-12-22T14:31:39Z</time>
      </trkpt>
      <trkpt lat="37.1898420" lon="-7.4125110">
        <ele>8.0</ele>
        <time>2020-12-22T14:31:40Z</time>
      </trkpt>
      <trkpt lat="37.1898650" lon="-7.4125100">
        <ele>8.0</ele>
        <time>2020-12-22T14:31:41Z</time>
      </trkpt>
      <trkpt lat="37.1898920" lon="-7.4125070">
        <ele>8.0</ele>
        <time>2020-12-22T14:31:42Z</time>
      </trkpt>
      <trkpt lat="37.1899150" lon="-7.4125000">
        <ele>8.0</ele>
        <time>2020-12-22T14:31:43Z</time>
      </trkpt>
      <trkpt lat="37.1899340" lon="-7.4124910">
        <ele>8.0</ele>
        <time>2020-12-22T14:31:44Z</time>
      </trkpt>
      <trkpt lat="37.1899530" lon="-7.4124820">
        <ele>8.0</ele>
        <time>2020-12-22T14:31:45Z</time>
      </trkpt>
      <trkpt lat="37.1899720" lon="-7.4124740">
        <ele>8.0</ele>
        <time>2020-12-22T14:31:46Z</time>
      </trkpt>
      <trkpt lat="37.1899950" lon="-7.4124650">
        <ele>7.9</ele>
        <time>2020-12-22T14:31:47Z</time>
      </trkpt>
      <trkpt lat="37.1900210" lon="-7.4124590">
        <ele>7.9</ele>
        <time>2020-12-22T14:31:48Z</time>
      </trkpt>
      <trkpt lat="37.1900480" lon="-7.4124570">
        <ele>7.9</ele>
        <time>2020-12-22T14:31:49Z</time>
      </trkpt>
      <trkpt lat="37.1900750" lon="-7.4124600">
        <ele>7.9</ele>
        <time>2020-12-22T14:31:50Z</time>
      </trkpt>
      <trkpt lat="37.1901020" lon="-7.4124680">
        <ele>7.9</ele>
        <time>2020-12-22T14:31:51Z</time>
      </trkpt>
      <trkpt lat="37.1901250" lon="-7.4124790">
        <ele>7.9</ele>
        <time>2020-12-22T14:31:52Z</time>
      </trkpt>
      <trkpt lat="37.1901510" lon="-7.4124950">
        <ele>7.9</ele>
        <time>2020-12-22T14:31:53Z</time>
      </trkpt>
      <trkpt lat="37.1901740" lon="-7.4125120">
        <ele>7.9</ele>
        <time>2020-12-22T14:31:54Z</time>
      </trkpt>
      <trkpt lat="37.1901970" lon="-7.4125310">
        <ele>7.8</ele>
        <time>2020-12-22T14:31:55Z</time>
      </trkpt>
      <trkpt lat="37.1902200" lon="-7.4125510">
        <ele>7.8</ele>
        <time>2020-12-22T14:31:56Z</time>
      </trkpt>
      <trkpt lat="37.1902430" lon="-7.4125700">
        <ele>7.8</ele>
        <time>2020-12-22T14:31:57Z</time>
      </trkpt>
      <trkpt lat="37.1902700" lon="-7.4125850">
        <ele>7.8</ele>
        <time>2020-12-22T14:31:58Z</time>
      </trkpt>
      <trkpt lat="37.1903000" lon="-7.4125970">
        <ele>7.8</ele>
        <time>2020-12-22T14:31:59Z</time>
      </trkpt>
      <trkpt lat="37.1903340" lon="-7.4126050">
        <ele>7.8</ele>
        <time>2020-12-22T14:32:00Z</time>
      </trkpt>
      <trkpt lat="37.1903690" lon="-7.4126160">
        <ele>7.7</ele>
        <time>2020-12-22T14:32:01Z</time>
      </trkpt>
      <trkpt lat="37.1903990" lon="-7.4126340">
        <ele>7.7</ele>
        <time>2020-12-22T14:32:02Z</time>
      </trkpt>
      <trkpt lat="37.1904260" lon="-7.4126530">
        <ele>7.7</ele>
        <time>2020-12-22T14:32:03Z</time>
      </trkpt>
      <trkpt lat="37.1904410" lon="-7.4126700">
        <ele>7.7</ele>
        <time>2020-12-22T14:32:04Z</time>
      </trkpt>
      <trkpt lat="37.1904560" lon="-7.4126830">
        <ele>7.7</ele>
        <time>2020-12-22T14:32:05Z</time>
      </trkpt>
      <trkpt lat="37.1904680" lon="-7.4126940">
        <ele>7.7</ele>
        <time>2020-12-22T14:32:06Z</time>
      </trkpt>
      <trkpt lat="37.1904790" lon="-7.4127020">
        <ele>7.7</ele>
        <time>2020-12-22T14:32:07Z</time>
      </trkpt>
      <trkpt lat="37.1904950" lon="-7.4127080">
        <ele>7.6</ele>
        <time>2020-12-22T14:32:08Z</time>
      </trkpt>
      <trkpt lat="37.1905100" lon="-7.4127120">
        <ele>7.6</ele>
        <time>2020-12-22T14:32:09Z</time>
      </trkpt>
      <trkpt lat="37.1905210" lon="-7.4127150">
        <ele>7.6</ele>
        <time>2020-12-22T14:32:10Z</time>
      </trkpt>
      <trkpt lat="37.1905290" lon="-7.4127180">
        <ele>7.6</ele>
        <time>2020-12-22T14:32:11Z</time>
      </trkpt>
      <trkpt lat="37.1905360" lon="-7.4127230">
        <ele>7.6</ele>
        <time>2020-12-22T14:32:12Z</time>
      </trkpt>
      <trkpt lat="37.1905560" lon="-7.4127280">
        <ele>7.6</ele>
        <time>2020-12-22T14:32:13Z</time>
      </trkpt>
      <trkpt lat="37.1905750" lon="-7.4127340">
        <ele>7.6</ele>
        <time>2020-12-22T14:32:14Z</time>
      </trkpt>
      <trkpt lat="37.1905970" lon="-7.4127410">
        <ele>7.6</ele>
        <time>2020-12-22T14:32:15Z</time>
      </trkpt>
      <trkpt lat="37.1906170" lon="-7.4127470">
        <ele>7.6</ele>
        <time>2020-12-22T14:32:16Z</time>
      </trkpt>
      <trkpt lat="37.1906360" lon="-7.4127540">
        <ele>7.6</ele>
        <time>2020-12-22T14:32:17Z</time>
      </trkpt>
      <trkpt lat="37.1906550" lon="-7.4127610">
        <ele>7.6</ele>
        <time>2020-12-22T14:32:18Z</time>
      </trkpt>
      <trkpt lat="37.1906740" lon="-7.4127670">
        <ele>7.6</ele>
        <time>2020-12-22T14:32:19Z</time>
      </trkpt>
      <trkpt lat="37.1906930" lon="-7.4127750">
        <ele>7.6</ele>
        <time>2020-12-22T14:32:20Z</time>
      </trkpt>
      <trkpt lat="37.1907120" lon="-7.4127830">
        <ele>7.6</ele>
        <time>2020-12-22T14:32:21Z</time>
      </trkpt>
      <trkpt lat="37.1907310" lon="-7.4127910">
        <ele>7.6</ele>
        <time>2020-12-22T14:32:22Z</time>
      </trkpt>
      <trkpt lat="37.1907500" lon="-7.4127970">
        <ele>7.5</ele>
        <time>2020-12-22T14:32:23Z</time>
      </trkpt>
      <trkpt lat="37.1907650" lon="-7.4128030">
        <ele>7.5</ele>
        <time>2020-12-22T14:32:24Z</time>
      </trkpt>
      <trkpt lat="37.1907810" lon="-7.4128100">
        <ele>7.5</ele>
        <time>2020-12-22T14:32:25Z</time>
      </trkpt>
      <trkpt lat="37.1908000" lon="-7.4128160">
        <ele>7.5</ele>
        <time>2020-12-22T14:32:26Z</time>
      </trkpt>
      <trkpt lat="37.1908190" lon="-7.4128220">
        <ele>7.5</ele>
        <time>2020-12-22T14:32:27Z</time>
      </trkpt>
      <trkpt lat="37.1908380" lon="-7.4128310">
        <ele>7.5</ele>
        <time>2020-12-22T14:32:28Z</time>
      </trkpt>
      <trkpt lat="37.1908610" lon="-7.4128410">
        <ele>7.5</ele>
        <time>2020-12-22T14:32:29Z</time>
      </trkpt>
      <trkpt lat="37.1908800" lon="-7.4128480">
        <ele>7.5</ele>
        <time>2020-12-22T14:32:30Z</time>
      </trkpt>
      <trkpt lat="37.1909070" lon="-7.4128580">
        <ele>7.5</ele>
        <time>2020-12-22T14:32:31Z</time>
      </trkpt>
      <trkpt lat="37.1909330" lon="-7.4128690">
        <ele>7.5</ele>
        <time>2020-12-22T14:32:32Z</time>
      </trkpt>
      <trkpt lat="37.1909640" lon="-7.4128790">
        <ele>7.5</ele>
        <time>2020-12-22T14:32:33Z</time>
      </trkpt>
      <trkpt lat="37.1909940" lon="-7.4128890">
        <ele>7.5</ele>
        <time>2020-12-22T14:32:34Z</time>
      </trkpt>
      <trkpt lat="37.1910250" lon="-7.4128980">
        <ele>7.5</ele>
        <time>2020-12-22T14:32:35Z</time>
      </trkpt>
      <trkpt lat="37.1910510" lon="-7.4129050">
        <ele>7.4</ele>
        <time>2020-12-22T14:32:36Z</time>
      </trkpt>
      <trkpt lat="37.1910780" lon="-7.4129120">
        <ele>7.4</ele>
        <time>2020-12-22T14:32:37Z</time>
      </trkpt>
      <trkpt lat="37.1911010" lon="-7.4129200">
        <ele>7.4</ele>
        <time>2020-12-22T14:32:38Z</time>
      </trkpt>
      <trkpt lat="37.1911240" lon="-7.4129270">
        <ele>7.4</ele>
        <time>2020-12-22T14:32:39Z</time>
      </trkpt>
      <trkpt lat="37.1911510" lon="-7.4129240">
        <ele>7.4</ele>
        <time>2020-12-22T14:32:40Z</time>
      </trkpt>
      <trkpt lat="37.1911700" lon="-7.4129020">
        <ele>7.4</ele>
        <time>2020-12-22T14:32:41Z</time>
      </trkpt>
      <trkpt lat="37.1911850" lon="-7.4128680">
        <ele>7.4</ele>
        <time>2020-12-22T14:32:42Z</time>
      </trkpt>
      <trkpt lat="37.1911890" lon="-7.4128290">
        <ele>7.4</ele>
        <time>2020-12-22T14:32:43Z</time>
      </trkpt>
      <trkpt lat="37.1911960" lon="-7.4127870">
        <ele>7.4</ele>
        <time>2020-12-22T14:32:44Z</time>
      </trkpt>
      <trkpt lat="37.1912120" lon="-7.4127470">
        <ele>7.4</ele>
        <time>2020-12-22T14:32:45Z</time>
      </trkpt>
      <trkpt lat="37.1912350" lon="-7.4127190">
        <ele>7.4</ele>
        <time>2020-12-22T14:32:46Z</time>
      </trkpt>
      <trkpt lat="37.1912690" lon="-7.4127060">
        <ele>7.4</ele>
        <time>2020-12-22T14:32:47Z</time>
      </trkpt>
      <trkpt lat="37.1913030" lon="-7.4127030">
        <ele>7.3</ele>
        <time>2020-12-22T14:32:48Z</time>
      </trkpt>
      <trkpt lat="37.1913380" lon="-7.4127080">
        <ele>7.3</ele>
        <time>2020-12-22T14:32:49Z</time>
      </trkpt>
      <trkpt lat="37.1913680" lon="-7.4127150">
        <ele>7.3</ele>
        <time>2020-12-22T14:32:50Z</time>
      </trkpt>
      <trkpt lat="37.1913990" lon="-7.4127250">
        <ele>7.3</ele>
        <time>2020-12-22T14:32:51Z</time>
      </trkpt>
      <trkpt lat="37.1914290" lon="-7.4127380">
        <ele>7.3</ele>
        <time>2020-12-22T14:32:52Z</time>
      </trkpt>
      <trkpt lat="37.1914560" lon="-7.4127510">
        <ele>7.3</ele>
        <time>2020-12-22T14:32:53Z</time>
      </trkpt>
      <trkpt lat="37.1914830" lon="-7.4127620">
        <ele>7.3</ele>
        <time>2020-12-22T14:32:54Z</time>
      </trkpt>
      <trkpt lat="37.1915090" lon="-7.4127720">
        <ele>7.3</ele>
        <time>2020-12-22T14:32:55Z</time>
      </trkpt>
      <trkpt lat="37.1915360" lon="-7.4127810">
        <ele>7.3</ele>
        <time>2020-12-22T14:32:56Z</time>
      </trkpt>
      <trkpt lat="37.1915590" lon="-7.4127880">
        <ele>7.3</ele>
        <time>2020-12-22T14:32:57Z</time>
      </trkpt>
      <trkpt lat="37.1915820" lon="-7.4127960">
        <ele>7.3</ele>
        <time>2020-12-22T14:32:58Z</time>
      </trkpt>
      <trkpt lat="37.1916050" lon="-7.4128040">
        <ele>7.3</ele>
        <time>2020-12-22T14:32:59Z</time>
      </trkpt>
      <trkpt lat="37.1916240" lon="-7.4128130">
        <ele>7.3</ele>
        <time>2020-12-22T14:33:00Z</time>
      </trkpt>
      <trkpt lat="37.1916350" lon="-7.4128280">
        <ele>7.3</ele>
        <time>2020-12-22T14:33:01Z</time>
      </trkpt>
      <trkpt lat="37.1916390" lon="-7.4128480">
        <ele>7.3</ele>
        <time>2020-12-22T14:33:02Z</time>
      </trkpt>
      <trkpt lat="37.1916470" lon="-7.4128650">
        <ele>7.2</ele>
        <time>2020-12-22T14:33:03Z</time>
      </trkpt>
      <trkpt lat="37.1916580" lon="-7.4128770">
        <ele>7.2</ele>
        <time>2020-12-22T14:33:04Z</time>
      </trkpt>
      <trkpt lat="37.1916730" lon="-7.4128850">
        <ele>7.2</ele>
        <time>2020-12-22T14:33:05Z</time>
      </trkpt>
      <trkpt lat="37.1916810" lon="-7.4128880">
        <ele>7.2</ele>
        <time>2020-12-22T14:33:06Z</time>
      </trkpt>
      <trkpt lat="37.1917300" lon="-7.4128400">
        <ele>7.2</ele>
        <time>2020-12-22T14:35:02Z</time>
      </trkpt>
      <trkpt lat="37.1917380" lon="-7.4128480">
        <ele>7.2</ele>
        <time>2020-12-22T14:35:03Z</time>
      </trkpt>
      <trkpt lat="37.1917460" lon="-7.4128560">
        <ele>7.2</ele>
        <time>2020-12-22T14:35:04Z</time>
      </trkpt>
      <trkpt lat="37.1917500" lon="-7.4128610">
        <ele>7.2</ele>
        <time>2020-12-22T14:35:05Z</time>
      </trkpt>
      <trkpt lat="37.1917530" lon="-7.4128630">
        <ele>7.2</ele>
        <time>2020-12-22T14:35:06Z</time>
      </trkpt>
      <trkpt lat="37.1917530" lon="-7.4128630">
        <ele>7.2</ele>
        <time>2020-12-22T14:35:07Z</time>
      </trkpt>
      <trkpt lat="37.1917530" lon="-7.4128640">
        <ele>7.2</ele>
        <time>2020-12-22T14:35:08Z</time>
      </trkpt>
      <trkpt lat="37.1917530" lon="-7.4128630">
        <ele>7.2</ele>
        <time>2020-12-22T14:35:09Z</time>
      </trkpt>
      <trkpt lat="37.1917530" lon="-7.4128630">
        <ele>7.2</ele>
        <time>2020-12-22T14:35:10Z</time>
      </trkpt>
      <trkpt lat="37.1917190" lon="-7.4128410">
        <ele>7.2</ele>
        <time>2020-12-22T14:35:26Z</time>
      </trkpt>
      <trkpt lat="37.1917150" lon="-7.4128470">
        <ele>7.2</ele>
        <time>2020-12-22T14:35:27Z</time>
      </trkpt>
      <trkpt lat="37.1917110" lon="-7.4128500">
        <ele>7.2</ele>
        <time>2020-12-22T14:35:28Z</time>
      </trkpt>
      <trkpt lat="37.1917080" lon="-7.4128520">
        <ele>7.2</ele>
        <time>2020-12-22T14:35:29Z</time>
      </trkpt>
      <trkpt lat="37.1917110" lon="-7.4128520">
        <ele>7.2</ele>
        <time>2020-12-22T14:35:30Z</time>
      </trkpt>
      <trkpt lat="37.1917080" lon="-7.4128540">
        <ele>7.2</ele>
        <time>2020-12-22T14:35:31Z</time>
      </trkpt>
      <trkpt lat="37.1917040" lon="-7.4128570">
        <ele>7.2</ele>
        <time>2020-12-22T14:35:32Z</time>
      </trkpt>
      <trkpt lat="37.1917420" lon="-7.4128630">
        <ele>7.1</ele>
        <time>2020-12-22T14:55:12Z</time>
      </trkpt>
      <trkpt lat="37.1917470" lon="-7.4128660">
        <ele>7.1</ele>
        <time>2020-12-22T14:55:13Z</time>
      </trkpt>
      <trkpt lat="37.1917520" lon="-7.4128670">
        <ele>7.1</ele>
        <time>2020-12-22T14:55:14Z</time>
      </trkpt>
      <trkpt lat="37.1917570" lon="-7.4128670">
        <ele>7.1</ele>
        <time>2020-12-22T14:55:15Z</time>
      </trkpt>
      <trkpt lat="37.1917620" lon="-7.4128680">
        <ele>7.1</ele>
        <time>2020-12-22T14:55:16Z</time>
      </trkpt>
      <trkpt lat="37.1917680" lon="-7.4128690">
        <ele>7.1</ele>
        <time>2020-12-22T14:55:17Z</time>
      </trkpt>
      <trkpt lat="37.1917730" lon="-7.4128700">
        <ele>7.1</ele>
        <time>2020-12-22T14:55:18Z</time>
      </trkpt>
      <trkpt lat="37.1917780" lon="-7.4128710">
        <ele>7.0</ele>
        <time>2020-12-22T14:55:19Z</time>
      </trkpt>
      <trkpt lat="37.1917830" lon="-7.4128710">
        <ele>7.0</ele>
        <time>2020-12-22T14:55:20Z</time>
      </trkpt>
      <trkpt lat="37.1917880" lon="-7.4128720">
        <ele>7.0</ele>
        <time>2020-12-22T14:55:21Z</time>
      </trkpt>
      <trkpt lat="37.1917930" lon="-7.4128730">
        <ele>7.0</ele>
        <time>2020-12-22T14:55:22Z</time>
      </trkpt>
      <trkpt lat="37.1917980" lon="-7.4128740">
        <ele>7.0</ele>
        <time>2020-12-22T14:55:23Z</time>
      </trkpt>
      <trkpt lat="37.1918030" lon="-7.4128750">
        <ele>7.0</ele>
        <time>2020-12-22T14:55:24Z</time>
      </trkpt>
      <trkpt lat="37.1918090" lon="-7.4128750">
        <ele>7.0</ele>
        <time>2020-12-22T14:55:25Z</time>
      </trkpt>
      <trkpt lat="37.1918140" lon="-7.4128760">
        <ele>6.9</ele>
        <time>2020-12-22T14:55:26Z</time>
      </trkpt>
      <trkpt lat="37.1918190" lon="-7.4128770">
        <ele>6.9</ele>
        <time>2020-12-22T14:55:27Z</time>
      </trkpt>
      <trkpt lat="37.1918240" lon="-7.4128780">
        <ele>6.9</ele>
        <time>2020-12-22T14:55:28Z</time>
      </trkpt>
      <trkpt lat="37.1918290" lon="-7.4128790">
        <ele>6.9</ele>
        <time>2020-12-22T14:55:29Z</time>
      </trkpt>
      <trkpt lat="37.1918340" lon="-7.4128800">
        <ele>6.9</ele>
        <time>2020-12-22T14:55:30Z</time>
      </trkpt>
      <trkpt lat="37.1918390" lon="-7.4128800">
        <ele>6.9</ele>
        <time>2020-12-22T14:55:31Z</time>
      </trkpt>
      <trkpt lat="37.1918440" lon="-7.4128810">
        <ele>6.8</ele>
        <time>2020-12-22T14:55:32Z</time>
      </trkpt>
      <trkpt lat="37.1918490" lon="-7.4128820">
        <ele>6.8</ele>
        <time>2020-12-22T14:55:33Z</time>
      </trkpt>
      <trkpt lat="37.1918550" lon="-7.4128830">
        <ele>6.8</ele>
        <time>2020-12-22T14:55:34Z</time>
      </trkpt>
      <trkpt lat="37.1918600" lon="-7.4128840">
        <ele>6.8</ele>
        <time>2020-12-22T14:55:35Z</time>
      </trkpt>
      <trkpt lat="37.1918650" lon="-7.4128840">
        <ele>6.8</ele>
        <time>2020-12-22T14:55:36Z</time>
      </trkpt>
      <trkpt lat="37.1918700" lon="-7.4128850">
        <ele>6.8</ele>
        <time>2020-12-22T14:55:37Z</time>
      </trkpt>
      <trkpt lat="37.1918750" lon="-7.4128860">
        <ele>6.8</ele>
        <time>2020-12-22T14:55:38Z</time>
      </trkpt>
      <trkpt lat="37.1918950" lon="-7.4129000">
        <ele>6.6</ele>
        <time>2020-12-22T14:55:39Z</time>
      </trkpt>
      <trkpt lat="37.1919170" lon="-7.4129120">
        <ele>6.5</ele>
        <time>2020-12-22T14:55:40Z</time>
      </trkpt>
      <trkpt lat="37.1919440" lon="-7.4129220">
        <ele>6.5</ele>
        <time>2020-12-22T14:55:41Z</time>
      </trkpt>
      <trkpt lat="37.1919710" lon="-7.4129300">
        <ele>6.4</ele>
        <time>2020-12-22T14:55:42Z</time>
      </trkpt>
      <trkpt lat="37.1919940" lon="-7.4129390">
        <ele>6.3</ele>
        <time>2020-12-22T14:55:43Z</time>
      </trkpt>
      <trkpt lat="37.1920200" lon="-7.4129480">
        <ele>6.3</ele>
        <time>2020-12-22T14:55:44Z</time>
      </trkpt>
      <trkpt lat="37.1920430" lon="-7.4129580">
        <ele>6.3</ele>
        <time>2020-12-22T14:55:45Z</time>
      </trkpt>
      <trkpt lat="37.1920620" lon="-7.4129660">
        <ele>6.2</ele>
        <time>2020-12-22T14:55:46Z</time>
      </trkpt>
      <trkpt lat="37.1920850" lon="-7.4129750">
        <ele>6.2</ele>
        <time>2020-12-22T14:55:47Z</time>
      </trkpt>
      <trkpt lat="37.1921040" lon="-7.4129840">
        <ele>6.4</ele>
        <time>2020-12-22T14:55:48Z</time>
      </trkpt>
      <trkpt lat="37.1921230" lon="-7.4129940">
        <ele>6.3</ele>
        <time>2020-12-22T14:55:49Z</time>
      </trkpt>
      <trkpt lat="37.1921460" lon="-7.4130030">
        <ele>6.3</ele>
        <time>2020-12-22T14:55:50Z</time>
      </trkpt>
      <trkpt lat="37.1921690" lon="-7.4130160">
        <ele>6.3</ele>
        <time>2020-12-22T14:55:51Z</time>
      </trkpt>
      <trkpt lat="37.1921920" lon="-7.4130360">
        <ele>6.5</ele>
        <time>2020-12-22T14:55:52Z</time>
      </trkpt>
      <trkpt lat="37.1922070" lon="-7.4130650">
        <ele>6.5</ele>
        <time>2020-12-22T14:55:53Z</time>
      </trkpt>
      <trkpt lat="37.1922230" lon="-7.4131030">
        <ele>6.7</ele>
        <time>2020-12-22T14:55:54Z</time>
      </trkpt>
      <trkpt lat="37.1922300" lon="-7.4131440">
        <ele>6.8</ele>
        <time>2020-12-22T14:55:55Z</time>
      </trkpt>
      <trkpt lat="37.1922340" lon="-7.4131840">
        <ele>6.9</ele>
        <time>2020-12-22T14:55:56Z</time>
      </trkpt>
      <trkpt lat="37.1922340" lon="-7.4132210">
        <ele>7.0</ele>
        <time>2020-12-22T14:55:57Z</time>
      </trkpt>
      <trkpt lat="37.1922340" lon="-7.4132530">
        <ele>7.1</ele>
        <time>2020-12-22T14:55:58Z</time>
      </trkpt>
      <trkpt lat="37.1922530" lon="-7.4132760">
        <ele>7.1</ele>
        <time>2020-12-22T14:55:59Z</time>
      </trkpt>
      <trkpt lat="37.1922760" lon="-7.4132900">
        <ele>7.1</ele>
        <time>2020-12-22T14:56:00Z</time>
      </trkpt>
      <trkpt lat="37.1922990" lon="-7.4133000">
        <ele>7.1</ele>
        <time>2020-12-22T14:56:01Z</time>
      </trkpt>
      <trkpt lat="37.1923220" lon="-7.4133110">
        <ele>7.1</ele>
        <time>2020-12-22T14:56:02Z</time>
      </trkpt>
      <trkpt lat="37.1923480" lon="-7.4133230">
        <ele>7.0</ele>
        <time>2020-12-22T14:56:03Z</time>
      </trkpt>
      <trkpt lat="37.1923750" lon="-7.4133340">
        <ele>7.1</ele>
        <time>2020-12-22T14:56:04Z</time>
      </trkpt>
      <trkpt lat="37.1924020" lon="-7.4133440">
        <ele>7.0</ele>
        <time>2020-12-22T14:56:05Z</time>
      </trkpt>
      <trkpt lat="37.1924320" lon="-7.4133510">
        <ele>7.0</ele>
        <time>2020-12-22T14:56:06Z</time>
      </trkpt>
      <trkpt lat="37.1924590" lon="-7.4133580">
        <ele>7.0</ele>
        <time>2020-12-22T14:56:07Z</time>
      </trkpt>
      <trkpt lat="37.1924820" lon="-7.4133630">
        <ele>7.0</ele>
        <time>2020-12-22T14:56:08Z</time>
      </trkpt>
      <trkpt lat="37.1925090" lon="-7.4133690">
        <ele>7.0</ele>
        <time>2020-12-22T14:56:09Z</time>
      </trkpt>
      <trkpt lat="37.1925320" lon="-7.4133770">
        <ele>7.0</ele>
        <time>2020-12-22T14:56:10Z</time>
      </trkpt>
      <trkpt lat="37.1925540" lon="-7.4133860">
        <ele>7.0</ele>
        <time>2020-12-22T14:56:11Z</time>
      </trkpt>
      <trkpt lat="37.1925770" lon="-7.4133950">
        <ele>7.0</ele>
        <time>2020-12-22T14:56:12Z</time>
      </trkpt>
      <trkpt lat="37.1925960" lon="-7.4134030">
        <ele>7.0</ele>
        <time>2020-12-22T14:56:13Z</time>
      </trkpt>
      <trkpt lat="37.1926120" lon="-7.4134100">
        <ele>7.0</ele>
        <time>2020-12-22T14:56:14Z</time>
      </trkpt>
      <trkpt lat="37.1926270" lon="-7.4134170">
        <ele>7.0</ele>
        <time>2020-12-22T14:56:15Z</time>
      </trkpt>
      <trkpt lat="37.1926420" lon="-7.4134300">
        <ele>7.0</ele>
        <time>2020-12-22T14:56:16Z</time>
      </trkpt>
      <trkpt lat="37.1926500" lon="-7.4134500">
        <ele>7.0</ele>
        <time>2020-12-22T14:56:17Z</time>
      </trkpt>
      <trkpt lat="37.1926540" lon="-7.4134730">
        <ele>7.0</ele>
        <time>2020-12-22T14:56:18Z</time>
      </trkpt>
      <trkpt lat="37.1926570" lon="-7.4134940">
        <ele>7.0</ele>
        <time>2020-12-22T14:56:19Z</time>
      </trkpt>
      <trkpt lat="37.1926650" lon="-7.4135130">
        <ele>7.0</ele>
        <time>2020-12-22T14:56:20Z</time>
      </trkpt>
      <trkpt lat="37.1926800" lon="-7.4135270">
        <ele>7.0</ele>
        <time>2020-12-22T14:56:21Z</time>
      </trkpt>
      <trkpt lat="37.1926960" lon="-7.4135370">
        <ele>7.0</ele>
        <time>2020-12-22T14:56:22Z</time>
      </trkpt>
      <trkpt lat="37.1927110" lon="-7.4135450">
        <ele>7.0</ele>
        <time>2020-12-22T14:56:23Z</time>
      </trkpt>
      <trkpt lat="37.1927260" lon="-7.4135500">
        <ele>7.0</ele>
        <time>2020-12-22T14:56:24Z</time>
      </trkpt>
      <trkpt lat="37.1927410" lon="-7.4135510">
        <ele>7.0</ele>
        <time>2020-12-22T14:56:25Z</time>
      </trkpt>
      <trkpt lat="37.1927570" lon="-7.4135510">
        <ele>7.0</ele>
        <time>2020-12-22T14:56:26Z</time>
      </trkpt>
      <trkpt lat="37.1927720" lon="-7.4135510">
        <ele>7.0</ele>
        <time>2020-12-22T14:56:27Z</time>
      </trkpt>
      <trkpt lat="37.1927830" lon="-7.4135500">
        <ele>7.0</ele>
        <time>2020-12-22T14:56:28Z</time>
      </trkpt>
      <trkpt lat="37.1927950" lon="-7.4135470">
        <ele>7.0</ele>
        <time>2020-12-22T14:56:29Z</time>
      </trkpt>
      <trkpt lat="37.1928060" lon="-7.4135430">
        <ele>7.1</ele>
        <time>2020-12-22T14:56:30Z</time>
      </trkpt>
      <trkpt lat="37.1928180" lon="-7.4135370">
        <ele>7.1</ele>
        <time>2020-12-22T14:56:31Z</time>
      </trkpt>
      <trkpt lat="37.1928210" lon="-7.4135330">
        <ele>7.1</ele>
        <time>2020-12-22T14:56:32Z</time>
      </trkpt>
      <trkpt lat="37.1928290" lon="-7.4135280">
        <ele>7.2</ele>
        <time>2020-12-22T14:56:33Z</time>
      </trkpt>
      <trkpt lat="37.1928410" lon="-7.4135240">
        <ele>7.2</ele>
        <time>2020-12-22T14:56:34Z</time>
      </trkpt>
      <trkpt lat="37.1928520" lon="-7.4135220">
        <ele>7.2</ele>
        <time>2020-12-22T14:56:35Z</time>
      </trkpt>
      <trkpt lat="37.1928710" lon="-7.4135190">
        <ele>7.3</ele>
        <time>2020-12-22T14:56:36Z</time>
      </trkpt>
      <trkpt lat="37.1928940" lon="-7.4135180">
        <ele>7.3</ele>
        <time>2020-12-22T14:56:37Z</time>
      </trkpt>
      <trkpt lat="37.1929090" lon="-7.4135180">
        <ele>7.4</ele>
        <time>2020-12-22T14:56:38Z</time>
      </trkpt>
      <trkpt lat="37.1929280" lon="-7.4135190">
        <ele>7.4</ele>
        <time>2020-12-22T14:56:39Z</time>
      </trkpt>
      <trkpt lat="37.1929470" lon="-7.4135230">
        <ele>7.5</ele>
        <time>2020-12-22T14:56:40Z</time>
      </trkpt>
      <trkpt lat="37.1929630" lon="-7.4135260">
        <ele>7.5</ele>
        <time>2020-12-22T14:56:41Z</time>
      </trkpt>
      <trkpt lat="37.1929780" lon="-7.4135280">
        <ele>7.6</ele>
        <time>2020-12-22T14:56:42Z</time>
      </trkpt>
      <trkpt lat="37.1929930" lon="-7.4135320">
        <ele>7.6</ele>
        <time>2020-12-22T14:56:43Z</time>
      </trkpt>
      <trkpt lat="37.1930080" lon="-7.4135370">
        <ele>7.5</ele>
        <time>2020-12-22T14:56:44Z</time>
      </trkpt>
      <trkpt lat="37.1930160" lon="-7.4135440">
        <ele>7.5</ele>
        <time>2020-12-22T14:56:45Z</time>
      </trkpt>
      <trkpt lat="37.1930200" lon="-7.4135580">
        <ele>7.5</ele>
        <time>2020-12-22T14:56:46Z</time>
      </trkpt>
      <trkpt lat="37.1930200" lon="-7.4135800">
        <ele>7.5</ele>
        <time>2020-12-22T14:56:47Z</time>
      </trkpt>
      <trkpt lat="37.1930200" lon="-7.4135920">
        <ele>7.5</ele>
        <time>2020-12-22T14:56:48Z</time>
      </trkpt>
      <trkpt lat="37.1930200" lon="-7.4135990">
        <ele>7.5</ele>
        <time>2020-12-22T14:56:49Z</time>
      </trkpt>
      <trkpt lat="37.1930200" lon="-7.4136030">
        <ele>7.5</ele>
        <time>2020-12-22T14:56:50Z</time>
      </trkpt>
      <trkpt lat="37.1930200" lon="-7.4136050">
        <ele>7.5</ele>
        <time>2020-12-22T14:56:51Z</time>
      </trkpt>
      <trkpt lat="37.1930200" lon="-7.4136070">
        <ele>7.5</ele>
        <time>2020-12-22T14:56:52Z</time>
      </trkpt>
      <trkpt lat="37.1930200" lon="-7.4136090">
        <ele>7.5</ele>
        <time>2020-12-22T14:56:53Z</time>
      </trkpt>
      <trkpt lat="37.1930240" lon="-7.4136100">
        <ele>7.5</ele>
        <time>2020-12-22T14:56:54Z</time>
      </trkpt>
      <trkpt lat="37.1930240" lon="-7.4136110">
        <ele>7.5</ele>
        <time>2020-12-22T14:56:55Z</time>
      </trkpt>
      <trkpt lat="37.1930310" lon="-7.4136140">
        <ele>7.5</ele>
        <time>2020-12-22T14:56:56Z</time>
      </trkpt>
      <trkpt lat="37.1930430" lon="-7.4136200">
        <ele>7.5</ele>
        <time>2020-12-22T14:56:57Z</time>
      </trkpt>
      <trkpt lat="37.1930540" lon="-7.4136270">
        <ele>7.5</ele>
        <time>2020-12-22T14:56:58Z</time>
      </trkpt>
      <trkpt lat="37.1930730" lon="-7.4136310">
        <ele>7.5</ele>
        <time>2020-12-22T14:56:59Z</time>
      </trkpt>
      <trkpt lat="37.1930920" lon="-7.4136330">
        <ele>7.5</ele>
        <time>2020-12-22T14:57:00Z</time>
      </trkpt>
      <trkpt lat="37.1931110" lon="-7.4136340">
        <ele>7.5</ele>
        <time>2020-12-22T14:57:01Z</time>
      </trkpt>
      <trkpt lat="37.1931340" lon="-7.4136380">
        <ele>7.5</ele>
        <time>2020-12-22T14:57:02Z</time>
      </trkpt>
      <trkpt lat="37.1931530" lon="-7.4136440">
        <ele>7.5</ele>
        <time>2020-12-22T14:57:03Z</time>
      </trkpt>
      <trkpt lat="37.1931760" lon="-7.4136520">
        <ele>7.5</ele>
        <time>2020-12-22T14:57:04Z</time>
      </trkpt>
      <trkpt lat="37.1931990" lon="-7.4136640">
        <ele>7.5</ele>
        <time>2020-12-22T14:57:05Z</time>
      </trkpt>
      <trkpt lat="37.1932260" lon="-7.4136760">
        <ele>7.5</ele>
        <time>2020-12-22T14:57:06Z</time>
      </trkpt>
      <trkpt lat="37.1932560" lon="-7.4136900">
        <ele>7.4</ele>
        <time>2020-12-22T14:57:07Z</time>
      </trkpt>
      <trkpt lat="37.1932830" lon="-7.4136990">
        <ele>7.4</ele>
        <time>2020-12-22T14:57:08Z</time>
      </trkpt>
      <trkpt lat="37.1933100" lon="-7.4137030">
        <ele>7.4</ele>
        <time>2020-12-22T14:57:09Z</time>
      </trkpt>
      <trkpt lat="37.1933400" lon="-7.4137110">
        <ele>7.4</ele>
        <time>2020-12-22T14:57:10Z</time>
      </trkpt>
      <trkpt lat="37.1933670" lon="-7.4137210">
        <ele>7.4</ele>
        <time>2020-12-22T14:57:11Z</time>
      </trkpt>
      <trkpt lat="37.1933940" lon="-7.4137300">
        <ele>7.4</ele>
        <time>2020-12-22T14:57:12Z</time>
      </trkpt>
      <trkpt lat="37.1934170" lon="-7.4137390">
        <ele>7.3</ele>
        <time>2020-12-22T14:57:13Z</time>
      </trkpt>
      <trkpt lat="37.1934360" lon="-7.4137470">
        <ele>7.3</ele>
        <time>2020-12-22T14:57:14Z</time>
      </trkpt>
      <trkpt lat="37.1934550" lon="-7.4137540">
        <ele>7.3</ele>
        <time>2020-12-22T14:57:15Z</time>
      </trkpt>
      <trkpt lat="37.1934700" lon="-7.4137600">
        <ele>7.3</ele>
        <time>2020-12-22T14:57:16Z</time>
      </trkpt>
      <trkpt lat="37.1934850" lon="-7.4137660">
        <ele>7.3</ele>
        <time>2020-12-22T14:57:17Z</time>
      </trkpt>
      <trkpt lat="37.1934970" lon="-7.4137730">
        <ele>7.3</ele>
        <time>2020-12-22T14:57:18Z</time>
      </trkpt>
      <trkpt lat="37.1935120" lon="-7.4137790">
        <ele>7.3</ele>
        <time>2020-12-22T14:57:19Z</time>
      </trkpt>
      <trkpt lat="37.1935230" lon="-7.4137870">
        <ele>7.3</ele>
        <time>2020-12-22T14:57:20Z</time>
      </trkpt>
      <trkpt lat="37.1935350" lon="-7.4137930">
        <ele>7.3</ele>
        <time>2020-12-22T14:57:21Z</time>
      </trkpt>
      <trkpt lat="37.1935460" lon="-7.4137960">
        <ele>7.3</ele>
        <time>2020-12-22T14:57:22Z</time>
      </trkpt>
      <trkpt lat="37.1935580" lon="-7.4138010">
        <ele>7.3</ele>
        <time>2020-12-22T14:57:23Z</time>
      </trkpt>
      <trkpt lat="37.1935690" lon="-7.4138060">
        <ele>7.2</ele>
        <time>2020-12-22T14:57:24Z</time>
      </trkpt>
      <trkpt lat="37.1935810" lon="-7.4138100">
        <ele>7.2</ele>
        <time>2020-12-22T14:57:25Z</time>
      </trkpt>
      <trkpt lat="37.1935840" lon="-7.4138090">
        <ele>7.2</ele>
        <time>2020-12-22T14:57:26Z</time>
      </trkpt>
      <trkpt lat="37.1935840" lon="-7.4138050">
        <ele>7.2</ele>
        <time>2020-12-22T14:57:27Z</time>
      </trkpt>
      <trkpt lat="37.1935840" lon="-7.4138030">
        <ele>7.2</ele>
        <time>2020-12-22T14:57:28Z</time>
      </trkpt>
      <trkpt lat="37.1935420" lon="-7.4137730">
        <ele>7.2</ele>
        <time>2020-12-22T14:59:32Z</time>
      </trkpt>
      <trkpt lat="37.1935420" lon="-7.4137740">
        <ele>7.2</ele>
        <time>2020-12-22T14:59:33Z</time>
      </trkpt>
      <trkpt lat="37.1935460" lon="-7.4137770">
        <ele>7.2</ele>
        <time>2020-12-22T14:59:34Z</time>
      </trkpt>
      <trkpt lat="37.1935580" lon="-7.4137830">
        <ele>7.2</ele>
        <time>2020-12-22T14:59:35Z</time>
      </trkpt>
      <trkpt lat="37.1935730" lon="-7.4137890">
        <ele>7.2</ele>
        <time>2020-12-22T14:59:36Z</time>
      </trkpt>
      <trkpt lat="37.1935840" lon="-7.4137950">
        <ele>7.2</ele>
        <time>2020-12-22T14:59:37Z</time>
      </trkpt>
      <trkpt lat="37.1936000" lon="-7.4138000">
        <ele>7.2</ele>
        <time>2020-12-22T14:59:38Z</time>
      </trkpt>
      <trkpt lat="37.1936150" lon="-7.4138030">
        <ele>7.2</ele>
        <time>2020-12-22T14:59:39Z</time>
      </trkpt>
      <trkpt lat="37.1936260" lon="-7.4138070">
        <ele>7.2</ele>
        <time>2020-12-22T14:59:40Z</time>
      </trkpt>
      <trkpt lat="37.1936420" lon="-7.4138130">
        <ele>7.2</ele>
        <time>2020-12-22T14:59:41Z</time>
      </trkpt>
      <trkpt lat="37.1936570" lon="-7.4138190">
        <ele>7.1</ele>
        <time>2020-12-22T14:59:42Z</time>
      </trkpt>
      <trkpt lat="37.1936720" lon="-7.4138250">
        <ele>7.1</ele>
        <time>2020-12-22T14:59:43Z</time>
      </trkpt>
      <trkpt lat="37.1936910" lon="-7.4138320">
        <ele>7.1</ele>
        <time>2020-12-22T14:59:44Z</time>
      </trkpt>
      <trkpt lat="37.1937100" lon="-7.4138400">
        <ele>7.1</ele>
        <time>2020-12-22T14:59:45Z</time>
      </trkpt>
      <trkpt lat="37.1937330" lon="-7.4138500">
        <ele>7.1</ele>
        <time>2020-12-22T14:59:46Z</time>
      </trkpt>
      <trkpt lat="37.1937520" lon="-7.4138610">
        <ele>7.1</ele>
        <time>2020-12-22T14:59:47Z</time>
      </trkpt>
      <trkpt lat="37.1937750" lon="-7.4138700">
        <ele>7.1</ele>
        <time>2020-12-22T14:59:48Z</time>
      </trkpt>
      <trkpt lat="37.1937940" lon="-7.4138740">
        <ele>7.1</ele>
        <time>2020-12-22T14:59:49Z</time>
      </trkpt>
      <trkpt lat="37.1938170" lon="-7.4138730">
        <ele>7.1</ele>
        <time>2020-12-22T14:59:50Z</time>
      </trkpt>
      <trkpt lat="37.1938360" lon="-7.4138770">
        <ele>7.1</ele>
        <time>2020-12-22T14:59:51Z</time>
      </trkpt>
      <trkpt lat="37.1938590" lon="-7.4138820">
        <ele>7.1</ele>
        <time>2020-12-22T14:59:52Z</time>
      </trkpt>
      <trkpt lat="37.1938820" lon="-7.4138860">
        <ele>7.1</ele>
        <time>2020-12-22T14:59:53Z</time>
      </trkpt>
      <trkpt lat="37.1939010" lon="-7.4138950">
        <ele>7.0</ele>
        <time>2020-12-22T14:59:54Z</time>
      </trkpt>
      <trkpt lat="37.1939160" lon="-7.4139050">
        <ele>7.0</ele>
        <time>2020-12-22T14:59:55Z</time>
      </trkpt>
      <trkpt lat="37.1939320" lon="-7.4139130">
        <ele>7.0</ele>
        <time>2020-12-22T14:59:56Z</time>
      </trkpt>
      <trkpt lat="37.1939470" lon="-7.4139220">
        <ele>7.0</ele>
        <time>2020-12-22T14:59:57Z</time>
      </trkpt>
      <trkpt lat="37.1939580" lon="-7.4139330">
        <ele>7.0</ele>
        <time>2020-12-22T14:59:58Z</time>
      </trkpt>
      <trkpt lat="37.1939740" lon="-7.4139410">
        <ele>7.0</ele>
        <time>2020-12-22T14:59:59Z</time>
      </trkpt>
      <trkpt lat="37.1939930" lon="-7.4139460">
        <ele>7.0</ele>
        <time>2020-12-22T15:00:00Z</time>
      </trkpt>
      <trkpt lat="37.1940080" lon="-7.4139540">
        <ele>7.0</ele>
        <time>2020-12-22T15:00:01Z</time>
      </trkpt>
      <trkpt lat="37.1940230" lon="-7.4139620">
        <ele>7.0</ele>
        <time>2020-12-22T15:00:02Z</time>
      </trkpt>
      <trkpt lat="37.1940420" lon="-7.4139690">
        <ele>7.0</ele>
        <time>2020-12-22T15:00:03Z</time>
      </trkpt>
      <trkpt lat="37.1940610" lon="-7.4139740">
        <ele>7.0</ele>
        <time>2020-12-22T15:00:04Z</time>
      </trkpt>
      <trkpt lat="37.1940800" lon="-7.4139810">
        <ele>7.0</ele>
        <time>2020-12-22T15:00:05Z</time>
      </trkpt>
      <trkpt lat="37.1941030" lon="-7.4139890">
        <ele>7.0</ele>
        <time>2020-12-22T15:00:06Z</time>
      </trkpt>
      <trkpt lat="37.1941260" lon="-7.4139960">
        <ele>7.0</ele>
        <time>2020-12-22T15:00:07Z</time>
      </trkpt>
      <trkpt lat="37.1941450" lon="-7.4140020">
        <ele>7.0</ele>
        <time>2020-12-22T15:00:08Z</time>
      </trkpt>
      <trkpt lat="37.1941640" lon="-7.4140110">
        <ele>7.0</ele>
        <time>2020-12-22T15:00:09Z</time>
      </trkpt>
      <trkpt lat="37.1941870" lon="-7.4140190">
        <ele>7.0</ele>
        <time>2020-12-22T15:00:10Z</time>
      </trkpt>
      <trkpt lat="37.1942100" lon="-7.4140260">
        <ele>7.0</ele>
        <time>2020-12-22T15:00:11Z</time>
      </trkpt>
      <trkpt lat="37.1942330" lon="-7.4140330">
        <ele>7.0</ele>
        <time>2020-12-22T15:00:12Z</time>
      </trkpt>
      <trkpt lat="37.1942600" lon="-7.4140360">
        <ele>7.0</ele>
        <time>2020-12-22T15:00:13Z</time>
      </trkpt>
      <trkpt lat="37.1942860" lon="-7.4140400">
        <ele>7.0</ele>
        <time>2020-12-22T15:00:14Z</time>
      </trkpt>
      <trkpt lat="37.1943130" lon="-7.4140510">
        <ele>7.0</ele>
        <time>2020-12-22T15:00:15Z</time>
      </trkpt>
      <trkpt lat="37.1943400" lon="-7.4140620">
        <ele>7.1</ele>
        <time>2020-12-22T15:00:16Z</time>
      </trkpt>
      <trkpt lat="37.1943660" lon="-7.4140720">
        <ele>7.1</ele>
        <time>2020-12-22T15:00:17Z</time>
      </trkpt>
      <trkpt lat="37.1943890" lon="-7.4140800">
        <ele>7.0</ele>
        <time>2020-12-22T15:00:18Z</time>
      </trkpt>
      <trkpt lat="37.1944160" lon="-7.4140870">
        <ele>7.0</ele>
        <time>2020-12-22T15:00:19Z</time>
      </trkpt>
      <trkpt lat="37.1944390" lon="-7.4140950">
        <ele>7.0</ele>
        <time>2020-12-22T15:00:20Z</time>
      </trkpt>
      <trkpt lat="37.1944620" lon="-7.4141030">
        <ele>7.0</ele>
        <time>2020-12-22T15:00:21Z</time>
      </trkpt>
      <trkpt lat="37.1944850" lon="-7.4141110">
        <ele>7.0</ele>
        <time>2020-12-22T15:00:22Z</time>
      </trkpt>
      <trkpt lat="37.1945040" lon="-7.4141190">
        <ele>7.0</ele>
        <time>2020-12-22T15:00:23Z</time>
      </trkpt>
      <trkpt lat="37.1945270" lon="-7.4141260">
        <ele>6.8</ele>
        <time>2020-12-22T15:00:24Z</time>
      </trkpt>
      <trkpt lat="37.1945420" lon="-7.4141340">
        <ele>6.7</ele>
        <time>2020-12-22T15:00:25Z</time>
      </trkpt>
      <trkpt lat="37.1945570" lon="-7.4141450">
        <ele>6.8</ele>
        <time>2020-12-22T15:00:26Z</time>
      </trkpt>
      <trkpt lat="37.1945720" lon="-7.4141600">
        <ele>6.7</ele>
        <time>2020-12-22T15:00:27Z</time>
      </trkpt>
      <trkpt lat="37.1945800" lon="-7.4141760">
        <ele>6.5</ele>
        <time>2020-12-22T15:00:28Z</time>
      </trkpt>
      <trkpt lat="37.1945800" lon="-7.4141950">
        <ele>6.7</ele>
        <time>2020-12-22T15:00:29Z</time>
      </trkpt>
      <trkpt lat="37.1945720" lon="-7.4142110">
        <ele>6.8</ele>
        <time>2020-12-22T15:00:30Z</time>
      </trkpt>
      <trkpt lat="37.1945690" lon="-7.4142240">
        <ele>6.7</ele>
        <time>2020-12-22T15:00:31Z</time>
      </trkpt>
      <trkpt lat="37.1945690" lon="-7.4142350">
        <ele>6.9</ele>
        <time>2020-12-22T15:00:32Z</time>
      </trkpt>
      <trkpt lat="37.1945690" lon="-7.4142450">
        <ele>6.8</ele>
        <time>2020-12-22T15:00:33Z</time>
      </trkpt>
      <trkpt lat="37.1945650" lon="-7.4142580">
        <ele>6.7</ele>
        <time>2020-12-22T15:00:34Z</time>
      </trkpt>
      <trkpt lat="37.1945650" lon="-7.4142690">
        <ele>6.6</ele>
        <time>2020-12-22T15:00:35Z</time>
      </trkpt>
      <trkpt lat="37.1945610" lon="-7.4142770">
        <ele>6.9</ele>
        <time>2020-12-22T15:00:36Z</time>
      </trkpt>
      <trkpt lat="37.1945570" lon="-7.4142860">
        <ele>6.8</ele>
        <time>2020-12-22T15:00:37Z</time>
      </trkpt>
      <trkpt lat="37.1945530" lon="-7.4142990">
        <ele>6.7</ele>
        <time>2020-12-22T15:00:38Z</time>
      </trkpt>
      <trkpt lat="37.1945500" lon="-7.4143190">
        <ele>7.0</ele>
        <time>2020-12-22T15:00:39Z</time>
      </trkpt>
      <trkpt lat="37.1945500" lon="-7.4143500">
        <ele>7.0</ele>
        <time>2020-12-22T15:00:40Z</time>
      </trkpt>
      <trkpt lat="37.1945420" lon="-7.4143880">
        <ele>7.1</ele>
        <time>2020-12-22T15:00:41Z</time>
      </trkpt>
      <trkpt lat="37.1945340" lon="-7.4144250">
        <ele>7.1</ele>
        <time>2020-12-22T15:00:42Z</time>
      </trkpt>
      <trkpt lat="37.1945300" lon="-7.4144620">
        <ele>7.2</ele>
        <time>2020-12-22T15:00:43Z</time>
      </trkpt>
      <trkpt lat="37.1945270" lon="-7.4144990">
        <ele>7.2</ele>
        <time>2020-12-22T15:00:44Z</time>
      </trkpt>
      <trkpt lat="37.1945340" lon="-7.4145290">
        <ele>7.3</ele>
        <time>2020-12-22T15:00:45Z</time>
      </trkpt>
      <trkpt lat="37.1945380" lon="-7.4145520">
        <ele>7.3</ele>
        <time>2020-12-22T15:00:46Z</time>
      </trkpt>
      <trkpt lat="37.1945340" lon="-7.4145710">
        <ele>7.3</ele>
        <time>2020-12-22T15:00:47Z</time>
      </trkpt>
      <trkpt lat="37.1945300" lon="-7.4145870">
        <ele>7.4</ele>
        <time>2020-12-22T15:00:48Z</time>
      </trkpt>
      <trkpt lat="37.1945040" lon="-7.4146060">
        <ele>7.4</ele>
        <time>2020-12-22T15:01:25Z</time>
      </trkpt>
      <trkpt lat="37.1945000" lon="-7.4146190">
        <ele>7.4</ele>
        <time>2020-12-22T15:01:26Z</time>
      </trkpt>
      <trkpt lat="37.1944920" lon="-7.4146350">
        <ele>7.4</ele>
        <time>2020-12-22T15:01:27Z</time>
      </trkpt>
      <trkpt lat="37.1944850" lon="-7.4146540">
        <ele>7.5</ele>
        <time>2020-12-22T15:01:28Z</time>
      </trkpt>
      <trkpt lat="37.1944770" lon="-7.4146780">
        <ele>7.5</ele>
        <time>2020-12-22T15:01:29Z</time>
      </trkpt>
      <trkpt lat="37.1944730" lon="-7.4147040">
        <ele>7.5</ele>
        <time>2020-12-22T15:01:30Z</time>
      </trkpt>
      <trkpt lat="37.1944660" lon="-7.4147300">
        <ele>7.6</ele>
        <time>2020-12-22T15:01:31Z</time>
      </trkpt>
      <trkpt lat="37.1944620" lon="-7.4147520">
        <ele>7.6</ele>
        <time>2020-12-22T15:01:32Z</time>
      </trkpt>
      <trkpt lat="37.1944580" lon="-7.4147730">
        <ele>7.6</ele>
        <time>2020-12-22T15:01:33Z</time>
      </trkpt>
      <trkpt lat="37.1944540" lon="-7.4147940">
        <ele>7.6</ele>
        <time>2020-12-22T15:01:34Z</time>
      </trkpt>
      <trkpt lat="37.1944500" lon="-7.4148170">
        <ele>7.6</ele>
        <time>2020-12-22T15:01:35Z</time>
      </trkpt>
      <trkpt lat="37.1944470" lon="-7.4148440">
        <ele>7.6</ele>
        <time>2020-12-22T15:01:36Z</time>
      </trkpt>
      <trkpt lat="37.1944470" lon="-7.4148730">
        <ele>7.6</ele>
        <time>2020-12-22T15:01:37Z</time>
      </trkpt>
      <trkpt lat="37.1944430" lon="-7.4149040">
        <ele>7.6</ele>
        <time>2020-12-22T15:01:38Z</time>
      </trkpt>
      <trkpt lat="37.1944350" lon="-7.4149370">
        <ele>7.6</ele>
        <time>2020-12-22T15:01:39Z</time>
      </trkpt>
      <trkpt lat="37.1944270" lon="-7.4149700">
        <ele>7.6</ele>
        <time>2020-12-22T15:01:40Z</time>
      </trkpt>
      <trkpt lat="37.1944200" lon="-7.4150030">
        <ele>7.6</ele>
        <time>2020-12-22T15:01:41Z</time>
      </trkpt>
      <trkpt lat="37.1944160" lon="-7.4150320">
        <ele>7.6</ele>
        <time>2020-12-22T15:01:42Z</time>
      </trkpt>
      <trkpt lat="37.1944080" lon="-7.4150610">
        <ele>7.6</ele>
        <time>2020-12-22T15:01:43Z</time>
      </trkpt>
      <trkpt lat="37.1944010" lon="-7.4150920">
        <ele>7.7</ele>
        <time>2020-12-22T15:01:44Z</time>
      </trkpt>
      <trkpt lat="37.1943930" lon="-7.4151210">
        <ele>7.7</ele>
        <time>2020-12-22T15:01:45Z</time>
      </trkpt>
      <trkpt lat="37.1943820" lon="-7.4151510">
        <ele>7.7</ele>
        <time>2020-12-22T15:01:46Z</time>
      </trkpt>
      <trkpt lat="37.1943700" lon="-7.4151810">
        <ele>7.7</ele>
        <time>2020-12-22T15:01:47Z</time>
      </trkpt>
      <trkpt lat="37.1943590" lon="-7.4152100">
        <ele>7.7</ele>
        <time>2020-12-22T15:01:48Z</time>
      </trkpt>
      <trkpt lat="37.1943510" lon="-7.4152390">
        <ele>7.7</ele>
        <time>2020-12-22T15:01:49Z</time>
      </trkpt>
      <trkpt lat="37.1943470" lon="-7.4152660">
        <ele>7.7</ele>
        <time>2020-12-22T15:01:50Z</time>
      </trkpt>
      <trkpt lat="37.1943440" lon="-7.4152940">
        <ele>7.7</ele>
        <time>2020-12-22T15:01:51Z</time>
      </trkpt>
      <trkpt lat="37.1943360" lon="-7.4153230">
        <ele>7.7</ele>
        <time>2020-12-22T15:01:52Z</time>
      </trkpt>
      <trkpt lat="37.1943280" lon="-7.4153540">
        <ele>7.7</ele>
        <time>2020-12-22T15:01:53Z</time>
      </trkpt>
      <trkpt lat="37.1943210" lon="-7.4153870">
        <ele>7.7</ele>
        <time>2020-12-22T15:01:54Z</time>
      </trkpt>
      <trkpt lat="37.1943130" lon="-7.4154220">
        <ele>7.7</ele>
        <time>2020-12-22T15:01:55Z</time>
      </trkpt>
      <trkpt lat="37.1943050" lon="-7.4154560">
        <ele>7.7</ele>
        <time>2020-12-22T15:01:56Z</time>
      </trkpt>
      <trkpt lat="37.1943020" lon="-7.4154890">
        <ele>7.7</ele>
        <time>2020-12-22T15:01:57Z</time>
      </trkpt>
      <trkpt lat="37.1942940" lon="-7.4155220">
        <ele>7.7</ele>
        <time>2020-12-22T15:01:58Z</time>
      </trkpt>
      <trkpt lat="37.1942860" lon="-7.4155530">
        <ele>7.7</ele>
        <time>2020-12-22T15:01:59Z</time>
      </trkpt>
      <trkpt lat="37.1942830" lon="-7.4155810">
        <ele>7.7</ele>
        <time>2020-12-22T15:02:00Z</time>
      </trkpt>
      <trkpt lat="37.1942750" lon="-7.4156030">
        <ele>7.8</ele>
        <time>2020-12-22T15:02:01Z</time>
      </trkpt>
      <trkpt lat="37.1942710" lon="-7.4156240">
        <ele>7.8</ele>
        <time>2020-12-22T15:02:02Z</time>
      </trkpt>
      <trkpt lat="37.1942670" lon="-7.4156470">
        <ele>7.8</ele>
        <time>2020-12-22T15:02:03Z</time>
      </trkpt>
      <trkpt lat="37.1942630" lon="-7.4156720">
        <ele>7.8</ele>
        <time>2020-12-22T15:02:04Z</time>
      </trkpt>
      <trkpt lat="37.1942600" lon="-7.4156960">
        <ele>7.8</ele>
        <time>2020-12-22T15:02:05Z</time>
      </trkpt>
      <trkpt lat="37.1942560" lon="-7.4157170">
        <ele>7.8</ele>
        <time>2020-12-22T15:02:06Z</time>
      </trkpt>
      <trkpt lat="37.1942520" lon="-7.4157390">
        <ele>7.8</ele>
        <time>2020-12-22T15:02:07Z</time>
      </trkpt>
      <trkpt lat="37.1942560" lon="-7.4157640">
        <ele>7.8</ele>
        <time>2020-12-22T15:02:08Z</time>
      </trkpt>
      <trkpt lat="37.1942560" lon="-7.4157880">
        <ele>7.8</ele>
        <time>2020-12-22T15:02:09Z</time>
      </trkpt>
      <trkpt lat="37.1942560" lon="-7.4158110">
        <ele>7.8</ele>
        <time>2020-12-22T15:02:10Z</time>
      </trkpt>
      <trkpt lat="37.1942480" lon="-7.4158330">
        <ele>7.8</ele>
        <time>2020-12-22T15:02:11Z</time>
      </trkpt>
      <trkpt lat="37.1942440" lon="-7.4158550">
        <ele>7.8</ele>
        <time>2020-12-22T15:02:12Z</time>
      </trkpt>
      <trkpt lat="37.1942410" lon="-7.4158770">
        <ele>7.8</ele>
        <time>2020-12-22T15:02:13Z</time>
      </trkpt>
      <trkpt lat="37.1942370" lon="-7.4158990">
        <ele>7.8</ele>
        <time>2020-12-22T15:02:14Z</time>
      </trkpt>
      <trkpt lat="37.1942290" lon="-7.4159200">
        <ele>7.8</ele>
        <time>2020-12-22T15:02:15Z</time>
      </trkpt>
      <trkpt lat="37.1942210" lon="-7.4159390">
        <ele>7.8</ele>
        <time>2020-12-22T15:02:16Z</time>
      </trkpt>
      <trkpt lat="37.1942100" lon="-7.4159560">
        <ele>7.8</ele>
        <time>2020-12-22T15:02:17Z</time>
      </trkpt>
      <trkpt lat="37.1941990" lon="-7.4159740">
        <ele>7.8</ele>
        <time>2020-12-22T15:02:18Z</time>
      </trkpt>
      <trkpt lat="37.1941910" lon="-7.4159960">
        <ele>7.7</ele>
        <time>2020-12-22T15:02:19Z</time>
      </trkpt>
      <trkpt lat="37.1941830" lon="-7.4160240">
        <ele>7.7</ele>
        <time>2020-12-22T15:02:20Z</time>
      </trkpt>
      <trkpt lat="37.1941720" lon="-7.4160550">
        <ele>7.7</ele>
        <time>2020-12-22T15:02:21Z</time>
      </trkpt>
      <trkpt lat="37.1941640" lon="-7.4160890">
        <ele>7.7</ele>
        <time>2020-12-22T15:02:22Z</time>
      </trkpt>
      <trkpt lat="37.1941600" lon="-7.4161230">
        <ele>7.7</ele>
        <time>2020-12-22T15:02:23Z</time>
      </trkpt>
      <trkpt lat="37.1941600" lon="-7.4161520">
        <ele>7.7</ele>
        <time>2020-12-22T15:02:24Z</time>
      </trkpt>
      <trkpt lat="37.1941600" lon="-7.4161830">
        <ele>7.7</ele>
        <time>2020-12-22T15:02:25Z</time>
      </trkpt>
      <trkpt lat="37.1941600" lon="-7.4162170">
        <ele>7.7</ele>
        <time>2020-12-22T15:02:26Z</time>
      </trkpt>
      <trkpt lat="37.1941640" lon="-7.4162500">
        <ele>7.7</ele>
        <time>2020-12-22T15:02:27Z</time>
      </trkpt>
      <trkpt lat="37.1941570" lon="-7.4162800">
        <ele>7.7</ele>
        <time>2020-12-22T15:02:28Z</time>
      </trkpt>
      <trkpt lat="37.1941490" lon="-7.4163090">
        <ele>7.7</ele>
        <time>2020-12-22T15:02:29Z</time>
      </trkpt>
      <trkpt lat="37.1941410" lon="-7.4163360">
        <ele>7.7</ele>
        <time>2020-12-22T15:02:30Z</time>
      </trkpt>
      <trkpt lat="37.1941340" lon="-7.4163600">
        <ele>7.7</ele>
        <time>2020-12-22T15:02:31Z</time>
      </trkpt>
      <trkpt lat="37.1941220" lon="-7.4163830">
        <ele>7.7</ele>
        <time>2020-12-22T15:02:32Z</time>
      </trkpt>
      <trkpt lat="37.1941180" lon="-7.4164090">
        <ele>7.6</ele>
        <time>2020-12-22T15:02:33Z</time>
      </trkpt>
      <trkpt lat="37.1941180" lon="-7.4164350">
        <ele>7.6</ele>
        <time>2020-12-22T15:02:34Z</time>
      </trkpt>
      <trkpt lat="37.1941260" lon="-7.4164560">
        <ele>7.6</ele>
        <time>2020-12-22T15:02:35Z</time>
      </trkpt>
      <trkpt lat="37.1941410" lon="-7.4164720">
        <ele>7.6</ele>
        <time>2020-12-22T15:02:36Z</time>
      </trkpt>
      <trkpt lat="37.1941570" lon="-7.4164840">
        <ele>7.6</ele>
        <time>2020-12-22T15:02:37Z</time>
      </trkpt>
      <trkpt lat="37.1941760" lon="-7.4164910">
        <ele>7.5</ele>
        <time>2020-12-22T15:02:38Z</time>
      </trkpt>
      <trkpt lat="37.1941950" lon="-7.4164940">
        <ele>7.5</ele>
        <time>2020-12-22T15:02:39Z</time>
      </trkpt>
      <trkpt lat="37.1942180" lon="-7.4164990">
        <ele>7.5</ele>
        <time>2020-12-22T15:02:40Z</time>
      </trkpt>
      <trkpt lat="37.1942410" lon="-7.4165050">
        <ele>7.5</ele>
        <time>2020-12-22T15:02:41Z</time>
      </trkpt>
      <trkpt lat="37.1942600" lon="-7.4165130">
        <ele>7.5</ele>
        <time>2020-12-22T15:02:42Z</time>
      </trkpt>
      <trkpt lat="37.1942790" lon="-7.4165190">
        <ele>7.5</ele>
        <time>2020-12-22T15:02:43Z</time>
      </trkpt>
      <trkpt lat="37.1942980" lon="-7.4165260">
        <ele>7.4</ele>
        <time>2020-12-22T15:02:44Z</time>
      </trkpt>
      <trkpt lat="37.1943170" lon="-7.4165390">
        <ele>7.4</ele>
        <time>2020-12-22T15:02:45Z</time>
      </trkpt>
      <trkpt lat="37.1943320" lon="-7.4165550">
        <ele>7.4</ele>
        <time>2020-12-22T15:02:46Z</time>
      </trkpt>
      <trkpt lat="37.1943470" lon="-7.4165640">
        <ele>7.4</ele>
        <time>2020-12-22T15:02:47Z</time>
      </trkpt>
      <trkpt lat="37.1943660" lon="-7.4165690">
        <ele>7.4</ele>
        <time>2020-12-22T15:02:48Z</time>
      </trkpt>
      <trkpt lat="37.1943820" lon="-7.4165730">
        <ele>7.4</ele>
        <time>2020-12-22T15:02:49Z</time>
      </trkpt>
      <trkpt lat="37.1944050" lon="-7.4165790">
        <ele>7.4</ele>
        <time>2020-12-22T15:02:50Z</time>
      </trkpt>
      <trkpt lat="37.1944270" lon="-7.4165870">
        <ele>7.3</ele>
        <time>2020-12-22T15:02:51Z</time>
      </trkpt>
      <trkpt lat="37.1944500" lon="-7.4165950">
        <ele>7.3</ele>
        <time>2020-12-22T15:02:52Z</time>
      </trkpt>
      <trkpt lat="37.1944730" lon="-7.4166010">
        <ele>7.3</ele>
        <time>2020-12-22T15:02:53Z</time>
      </trkpt>
      <trkpt lat="37.1944960" lon="-7.4166040">
        <ele>7.3</ele>
        <time>2020-12-22T15:02:54Z</time>
      </trkpt>
      <trkpt lat="37.1945150" lon="-7.4166080">
        <ele>7.3</ele>
        <time>2020-12-22T15:02:55Z</time>
      </trkpt>
      <trkpt lat="37.1945340" lon="-7.4166140">
        <ele>7.3</ele>
        <time>2020-12-22T15:02:56Z</time>
      </trkpt>
      <trkpt lat="37.1945530" lon="-7.4166200">
        <ele>7.2</ele>
        <time>2020-12-22T15:02:57Z</time>
      </trkpt>
      <trkpt lat="37.1945720" lon="-7.4166230">
        <ele>7.2</ele>
        <time>2020-12-22T15:02:58Z</time>
      </trkpt>
      <trkpt lat="37.1945880" lon="-7.4166240">
        <ele>7.2</ele>
        <time>2020-12-22T15:02:59Z</time>
      </trkpt>
      <trkpt lat="37.1945910" lon="-7.4166240">
        <ele>7.2</ele>
        <time>2020-12-22T15:03:00Z</time>
      </trkpt>
      <trkpt lat="37.1945990" lon="-7.4166280">
        <ele>7.2</ele>
        <time>2020-12-22T15:03:01Z</time>
      </trkpt>
      <trkpt lat="37.1946330" lon="-7.4166730">
        <ele>7.2</ele>
        <time>2020-12-22T15:03:37Z</time>
      </trkpt>
      <trkpt lat="37.1946450" lon="-7.4166760">
        <ele>7.1</ele>
        <time>2020-12-22T15:03:38Z</time>
      </trkpt>
      <trkpt lat="37.1946560" lon="-7.4166800">
        <ele>7.1</ele>
        <time>2020-12-22T15:03:39Z</time>
      </trkpt>
      <trkpt lat="37.1946720" lon="-7.4166820">
        <ele>7.1</ele>
        <time>2020-12-22T15:03:40Z</time>
      </trkpt>
      <trkpt lat="37.1946830" lon="-7.4166870">
        <ele>7.1</ele>
        <time>2020-12-22T15:03:41Z</time>
      </trkpt>
      <trkpt lat="37.1946870" lon="-7.4167030">
        <ele>7.1</ele>
        <time>2020-12-22T15:03:42Z</time>
      </trkpt>
      <trkpt lat="37.1946830" lon="-7.4167210">
        <ele>7.1</ele>
        <time>2020-12-22T15:03:43Z</time>
      </trkpt>
      <trkpt lat="37.1946790" lon="-7.4167400">
        <ele>7.1</ele>
        <time>2020-12-22T15:03:44Z</time>
      </trkpt>
      <trkpt lat="37.1946830" lon="-7.4167580">
        <ele>7.1</ele>
        <time>2020-12-22T15:03:45Z</time>
      </trkpt>
      <trkpt lat="37.1946830" lon="-7.4167730">
        <ele>7.1</ele>
        <time>2020-12-22T15:03:46Z</time>
      </trkpt>
      <trkpt lat="37.1946790" lon="-7.4167850">
        <ele>7.1</ele>
        <time>2020-12-22T15:03:47Z</time>
      </trkpt>
      <trkpt lat="37.1946790" lon="-7.4167970">
        <ele>7.1</ele>
        <time>2020-12-22T15:03:48Z</time>
      </trkpt>
      <trkpt lat="37.1946750" lon="-7.4168070">
        <ele>7.1</ele>
        <time>2020-12-22T15:03:49Z</time>
      </trkpt>
      <trkpt lat="37.1946720" lon="-7.4168150">
        <ele>7.1</ele>
        <time>2020-12-22T15:03:50Z</time>
      </trkpt>
      <trkpt lat="37.1946640" lon="-7.4168180">
        <ele>7.1</ele>
        <time>2020-12-22T15:03:51Z</time>
      </trkpt>
      <trkpt lat="37.1946560" lon="-7.4168150">
        <ele>7.1</ele>
        <time>2020-12-22T15:03:52Z</time>
      </trkpt>
      <trkpt lat="37.1946450" lon="-7.4168080">
        <ele>7.1</ele>
        <time>2020-12-22T15:03:53Z</time>
      </trkpt>
      <trkpt lat="37.1946410" lon="-7.4168050">
        <ele>7.1</ele>
        <time>2020-12-22T15:03:54Z</time>
      </trkpt>
      <trkpt lat="37.1946260" lon="-7.4167950">
        <ele>7.1</ele>
        <time>2020-12-22T15:03:59Z</time>
      </trkpt>
      <trkpt lat="37.1946180" lon="-7.4167940">
        <ele>7.1</ele>
        <time>2020-12-22T15:04:00Z</time>
      </trkpt>
      <trkpt lat="37.1946140" lon="-7.4167960">
        <ele>7.1</ele>
        <time>2020-12-22T15:04:01Z</time>
      </trkpt>
      <trkpt lat="37.1946110" lon="-7.4167990">
        <ele>7.1</ele>
        <time>2020-12-22T15:04:02Z</time>
      </trkpt>
      <trkpt lat="37.1946070" lon="-7.4168020">
        <ele>7.1</ele>
        <time>2020-12-22T15:04:03Z</time>
      </trkpt>
      <trkpt lat="37.1946070" lon="-7.4168050">
        <ele>7.1</ele>
        <time>2020-12-22T15:04:04Z</time>
      </trkpt>
      <trkpt lat="37.1946450" lon="-7.4168710">
        <ele>7.1</ele>
        <time>2020-12-22T15:07:03Z</time>
      </trkpt>
      <trkpt lat="37.1946490" lon="-7.4168800">
        <ele>7.1</ele>
        <time>2020-12-22T15:07:04Z</time>
      </trkpt>
      <trkpt lat="37.1946530" lon="-7.4168930">
        <ele>7.1</ele>
        <time>2020-12-22T15:07:05Z</time>
      </trkpt>
      <trkpt lat="37.1946450" lon="-7.4169110">
        <ele>7.1</ele>
        <time>2020-12-22T15:07:06Z</time>
      </trkpt>
      <trkpt lat="37.1946370" lon="-7.4169310">
        <ele>7.1</ele>
        <time>2020-12-22T15:07:07Z</time>
      </trkpt>
      <trkpt lat="37.1946220" lon="-7.4169490">
        <ele>7.1</ele>
        <time>2020-12-22T15:07:08Z</time>
      </trkpt>
      <trkpt lat="37.1946030" lon="-7.4169590">
        <ele>7.1</ele>
        <time>2020-12-22T15:07:09Z</time>
      </trkpt>
      <trkpt lat="37.1945880" lon="-7.4169640">
        <ele>7.1</ele>
        <time>2020-12-22T15:07:10Z</time>
      </trkpt>
      <trkpt lat="37.1945720" lon="-7.4169690">
        <ele>7.1</ele>
        <time>2020-12-22T15:07:11Z</time>
      </trkpt>
      <trkpt lat="37.1945570" lon="-7.4169730">
        <ele>7.1</ele>
        <time>2020-12-22T15:07:12Z</time>
      </trkpt>
      <trkpt lat="37.1945530" lon="-7.4169740">
        <ele>7.1</ele>
        <time>2020-12-22T15:07:13Z</time>
      </trkpt>
      <trkpt lat="37.1945500" lon="-7.4169730">
        <ele>7.1</ele>
        <time>2020-12-22T15:07:14Z</time>
      </trkpt>
      <trkpt lat="37.1945500" lon="-7.4169790">
        <ele>7.1</ele>
        <time>2020-12-22T15:07:15Z</time>
      </trkpt>
      <trkpt lat="37.1945500" lon="-7.4169890">
        <ele>7.1</ele>
        <time>2020-12-22T15:07:16Z</time>
      </trkpt>
      <trkpt lat="37.1945530" lon="-7.4170030">
        <ele>7.1</ele>
        <time>2020-12-22T15:07:17Z</time>
      </trkpt>
      <trkpt lat="37.1945610" lon="-7.4170220">
        <ele>7.2</ele>
        <time>2020-12-22T15:07:18Z</time>
      </trkpt>
      <trkpt lat="37.1945610" lon="-7.4170400">
        <ele>7.2</ele>
        <time>2020-12-22T15:07:19Z</time>
      </trkpt>
      <trkpt lat="37.1945570" lon="-7.4170590">
        <ele>7.2</ele>
        <time>2020-12-22T15:07:20Z</time>
      </trkpt>
      <trkpt lat="37.1945570" lon="-7.4170780">
        <ele>7.2</ele>
        <time>2020-12-22T15:07:21Z</time>
      </trkpt>
      <trkpt lat="37.1945610" lon="-7.4170920">
        <ele>7.2</ele>
        <time>2020-12-22T15:07:22Z</time>
      </trkpt>
      <trkpt lat="37.1945610" lon="-7.4171060">
        <ele>7.2</ele>
        <time>2020-12-22T15:07:23Z</time>
      </trkpt>
      <trkpt lat="37.1945610" lon="-7.4171250">
        <ele>7.2</ele>
        <time>2020-12-22T15:07:24Z</time>
      </trkpt>
      <trkpt lat="37.1945570" lon="-7.4171450">
        <ele>7.2</ele>
        <time>2020-12-22T15:07:25Z</time>
      </trkpt>
      <trkpt lat="37.1945570" lon="-7.4171670">
        <ele>7.2</ele>
        <time>2020-12-22T15:07:26Z</time>
      </trkpt>
      <trkpt lat="37.1945610" lon="-7.4171900">
        <ele>7.2</ele>
        <time>2020-12-22T15:07:27Z</time>
      </trkpt>
      <trkpt lat="37.1945570" lon="-7.4172120">
        <ele>7.2</ele>
        <time>2020-12-22T15:07:28Z</time>
      </trkpt>
      <trkpt lat="37.1945530" lon="-7.4172310">
        <ele>7.2</ele>
        <time>2020-12-22T15:07:29Z</time>
      </trkpt>
      <trkpt lat="37.1945460" lon="-7.4172460">
        <ele>7.2</ele>
        <time>2020-12-22T15:07:30Z</time>
      </trkpt>
      <trkpt lat="37.1945420" lon="-7.4172620">
        <ele>7.2</ele>
        <time>2020-12-22T15:07:31Z</time>
      </trkpt>
      <trkpt lat="37.1945380" lon="-7.4172780">
        <ele>7.2</ele>
        <time>2020-12-22T15:07:32Z</time>
      </trkpt>
      <trkpt lat="37.1945340" lon="-7.4172940">
        <ele>7.2</ele>
        <time>2020-12-22T15:07:33Z</time>
      </trkpt>
      <trkpt lat="37.1945270" lon="-7.4173080">
        <ele>7.2</ele>
        <time>2020-12-22T15:07:34Z</time>
      </trkpt>
      <trkpt lat="37.1945190" lon="-7.4173190">
        <ele>7.2</ele>
        <time>2020-12-22T15:07:35Z</time>
      </trkpt>
      <trkpt lat="37.1945110" lon="-7.4173290">
        <ele>7.2</ele>
        <time>2020-12-22T15:07:36Z</time>
      </trkpt>
      <trkpt lat="37.1944960" lon="-7.4173340">
        <ele>7.2</ele>
        <time>2020-12-22T15:07:37Z</time>
      </trkpt>
      <trkpt lat="37.1944770" lon="-7.4173300">
        <ele>7.1</ele>
        <time>2020-12-22T15:07:38Z</time>
      </trkpt>
      <trkpt lat="37.1944620" lon="-7.4173230">
        <ele>7.1</ele>
        <time>2020-12-22T15:07:39Z</time>
      </trkpt>
      <trkpt lat="37.1944470" lon="-7.4173220">
        <ele>7.1</ele>
        <time>2020-12-22T15:07:40Z</time>
      </trkpt>
      <trkpt lat="37.1944270" lon="-7.4173200">
        <ele>7.1</ele>
        <time>2020-12-22T15:07:41Z</time>
      </trkpt>
      <trkpt lat="37.1944080" lon="-7.4173170">
        <ele>7.1</ele>
        <time>2020-12-22T15:07:42Z</time>
      </trkpt>
      <trkpt lat="37.1943890" lon="-7.4173150">
        <ele>7.1</ele>
        <time>2020-12-22T15:07:43Z</time>
      </trkpt>
      <trkpt lat="37.1943660" lon="-7.4173100">
        <ele>7.1</ele>
        <time>2020-12-22T15:07:44Z</time>
      </trkpt>
      <trkpt lat="37.1943440" lon="-7.4173060">
        <ele>7.1</ele>
        <time>2020-12-22T15:07:45Z</time>
      </trkpt>
      <trkpt lat="37.1943250" lon="-7.4173030">
        <ele>7.1</ele>
        <time>2020-12-22T15:07:46Z</time>
      </trkpt>
      <trkpt lat="37.1943130" lon="-7.4172980">
        <ele>7.1</ele>
        <time>2020-12-22T15:07:47Z</time>
      </trkpt>
      <trkpt lat="37.1943020" lon="-7.4172940">
        <ele>7.1</ele>
        <time>2020-12-22T15:07:48Z</time>
      </trkpt>
      <trkpt lat="37.1942860" lon="-7.4172910">
        <ele>7.1</ele>
        <time>2020-12-22T15:07:49Z</time>
      </trkpt>
      <trkpt lat="37.1942630" lon="-7.4172850">
        <ele>7.1</ele>
        <time>2020-12-22T15:07:50Z</time>
      </trkpt>
      <trkpt lat="37.1942370" lon="-7.4172780">
        <ele>7.1</ele>
        <time>2020-12-22T15:07:51Z</time>
      </trkpt>
      <trkpt lat="37.1942140" lon="-7.4172700">
        <ele>7.1</ele>
        <time>2020-12-22T15:07:52Z</time>
      </trkpt>
      <trkpt lat="37.1941870" lon="-7.4172630">
        <ele>7.2</ele>
        <time>2020-12-22T15:07:53Z</time>
      </trkpt>
      <trkpt lat="37.1941640" lon="-7.4172570">
        <ele>7.2</ele>
        <time>2020-12-22T15:07:54Z</time>
      </trkpt>
      <trkpt lat="37.1941380" lon="-7.4172520">
        <ele>7.2</ele>
        <time>2020-12-22T15:07:55Z</time>
      </trkpt>
      <trkpt lat="37.1941150" lon="-7.4172440">
        <ele>7.2</ele>
        <time>2020-12-22T15:07:56Z</time>
      </trkpt>
      <trkpt lat="37.1940880" lon="-7.4172380">
        <ele>7.3</ele>
        <time>2020-12-22T15:07:57Z</time>
      </trkpt>
      <trkpt lat="37.1940650" lon="-7.4172330">
        <ele>7.3</ele>
        <time>2020-12-22T15:07:58Z</time>
      </trkpt>
      <trkpt lat="37.1940420" lon="-7.4172290">
        <ele>7.3</ele>
        <time>2020-12-22T15:07:59Z</time>
      </trkpt>
      <trkpt lat="37.1940190" lon="-7.4172230">
        <ele>7.3</ele>
        <time>2020-12-22T15:08:00Z</time>
      </trkpt>
      <trkpt lat="37.1940000" lon="-7.4172200">
        <ele>7.4</ele>
        <time>2020-12-22T15:08:01Z</time>
      </trkpt>
      <trkpt lat="37.1939810" lon="-7.4172180">
        <ele>7.4</ele>
        <time>2020-12-22T15:08:02Z</time>
      </trkpt>
      <trkpt lat="37.1939620" lon="-7.4172190">
        <ele>7.4</ele>
        <time>2020-12-22T15:08:03Z</time>
      </trkpt>
      <trkpt lat="37.1939430" lon="-7.4172180">
        <ele>7.5</ele>
        <time>2020-12-22T15:08:04Z</time>
      </trkpt>
      <trkpt lat="37.1939240" lon="-7.4172140">
        <ele>7.5</ele>
        <time>2020-12-22T15:08:05Z</time>
      </trkpt>
      <trkpt lat="37.1939010" lon="-7.4172070">
        <ele>7.5</ele>
        <time>2020-12-22T15:08:06Z</time>
      </trkpt>
      <trkpt lat="37.1938780" lon="-7.4171980">
        <ele>7.5</ele>
        <time>2020-12-22T15:08:07Z</time>
      </trkpt>
      <trkpt lat="37.1938510" lon="-7.4171920">
        <ele>7.5</ele>
        <time>2020-12-22T15:08:08Z</time>
      </trkpt>
      <trkpt lat="37.1938250" lon="-7.4171850">
        <ele>7.5</ele>
        <time>2020-12-22T15:08:09Z</time>
      </trkpt>
      <trkpt lat="37.1938020" lon="-7.4171740">
        <ele>7.5</ele>
        <time>2020-12-22T15:08:10Z</time>
      </trkpt>
      <trkpt lat="37.1937790" lon="-7.4171600">
        <ele>7.5</ele>
        <time>2020-12-22T15:08:11Z</time>
      </trkpt>
      <trkpt lat="37.1937560" lon="-7.4171470">
        <ele>7.5</ele>
        <time>2020-12-22T15:08:12Z</time>
      </trkpt>
      <trkpt lat="37.1937290" lon="-7.4171410">
        <ele>7.5</ele>
        <time>2020-12-22T15:08:13Z</time>
      </trkpt>
      <trkpt lat="37.1937100" lon="-7.4171370">
        <ele>7.5</ele>
        <time>2020-12-22T15:08:14Z</time>
      </trkpt>
      <trkpt lat="37.1936870" lon="-7.4171320">
        <ele>7.4</ele>
        <time>2020-12-22T15:08:15Z</time>
      </trkpt>
      <trkpt lat="37.1936650" lon="-7.4171240">
        <ele>7.4</ele>
        <time>2020-12-22T15:08:16Z</time>
      </trkpt>
      <trkpt lat="37.1936490" lon="-7.4171140">
        <ele>7.4</ele>
        <time>2020-12-22T15:08:17Z</time>
      </trkpt>
      <trkpt lat="37.1936300" lon="-7.4171030">
        <ele>7.4</ele>
        <time>2020-12-22T15:08:18Z</time>
      </trkpt>
      <trkpt lat="37.1936110" lon="-7.4170890">
        <ele>7.4</ele>
        <time>2020-12-22T15:08:19Z</time>
      </trkpt>
      <trkpt lat="37.1935880" lon="-7.4170730">
        <ele>7.4</ele>
        <time>2020-12-22T15:08:20Z</time>
      </trkpt>
      <trkpt lat="37.1935650" lon="-7.4170600">
        <ele>7.4</ele>
        <time>2020-12-22T15:08:21Z</time>
      </trkpt>
      <trkpt lat="37.1935500" lon="-7.4170510">
        <ele>7.4</ele>
        <time>2020-12-22T15:08:22Z</time>
      </trkpt>
      <trkpt lat="37.1935310" lon="-7.4170450">
        <ele>7.4</ele>
        <time>2020-12-22T15:08:23Z</time>
      </trkpt>
      <trkpt lat="37.1935120" lon="-7.4170380">
        <ele>7.4</ele>
        <time>2020-12-22T15:08:24Z</time>
      </trkpt>
      <trkpt lat="37.1934930" lon="-7.4170320">
        <ele>7.4</ele>
        <time>2020-12-22T15:08:25Z</time>
      </trkpt>
      <trkpt lat="37.1934780" lon="-7.4170290">
        <ele>7.4</ele>
        <time>2020-12-22T15:08:26Z</time>
      </trkpt>
      <trkpt lat="37.1934620" lon="-7.4170300">
        <ele>7.4</ele>
        <time>2020-12-22T15:08:27Z</time>
      </trkpt>
      <trkpt lat="37.1934550" lon="-7.4170340">
        <ele>7.4</ele>
        <time>2020-12-22T15:08:28Z</time>
      </trkpt>
      <trkpt lat="37.1934470" lon="-7.4170390">
        <ele>7.4</ele>
        <time>2020-12-22T15:08:29Z</time>
      </trkpt>
      <trkpt lat="37.1934430" lon="-7.4170430">
        <ele>7.4</ele>
        <time>2020-12-22T15:08:30Z</time>
      </trkpt>
      <trkpt lat="37.1933940" lon="-7.4170820">
        <ele>7.4</ele>
        <time>2020-12-22T15:08:53Z</time>
      </trkpt>
      <trkpt lat="37.1933820" lon="-7.4170890">
        <ele>7.4</ele>
        <time>2020-12-22T15:08:54Z</time>
      </trkpt>
      <trkpt lat="37.1933750" lon="-7.4171000">
        <ele>7.4</ele>
        <time>2020-12-22T15:08:55Z</time>
      </trkpt>
      <trkpt lat="37.1933670" lon="-7.4171130">
        <ele>7.4</ele>
        <time>2020-12-22T15:08:56Z</time>
      </trkpt>
      <trkpt lat="37.1933590" lon="-7.4171290">
        <ele>7.4</ele>
        <time>2020-12-22T15:08:57Z</time>
      </trkpt>
      <trkpt lat="37.1933560" lon="-7.4171460">
        <ele>7.4</ele>
        <time>2020-12-22T15:08:58Z</time>
      </trkpt>
      <trkpt lat="37.1933520" lon="-7.4171640">
        <ele>7.4</ele>
        <time>2020-12-22T15:08:59Z</time>
      </trkpt>
      <trkpt lat="37.1933480" lon="-7.4171810">
        <ele>7.4</ele>
        <time>2020-12-22T15:09:00Z</time>
      </trkpt>
      <trkpt lat="37.1933480" lon="-7.4172020">
        <ele>7.4</ele>
        <time>2020-12-22T15:09:01Z</time>
      </trkpt>
      <trkpt lat="37.1933440" lon="-7.4172210">
        <ele>7.4</ele>
        <time>2020-12-22T15:09:02Z</time>
      </trkpt>
      <trkpt lat="37.1933400" lon="-7.4172390">
        <ele>7.4</ele>
        <time>2020-12-22T15:09:03Z</time>
      </trkpt>
      <trkpt lat="37.1933360" lon="-7.4172570">
        <ele>7.4</ele>
        <time>2020-12-22T15:09:04Z</time>
      </trkpt>
      <trkpt lat="37.1933360" lon="-7.4172750">
        <ele>7.4</ele>
        <time>2020-12-22T15:09:05Z</time>
      </trkpt>
      <trkpt lat="37.1933360" lon="-7.4172920">
        <ele>7.4</ele>
        <time>2020-12-22T15:09:06Z</time>
      </trkpt>
      <trkpt lat="37.1933290" lon="-7.4173090">
        <ele>7.4</ele>
        <time>2020-12-22T15:09:07Z</time>
      </trkpt>
      <trkpt lat="37.1933210" lon="-7.4173280">
        <ele>7.4</ele>
        <time>2020-12-22T15:09:08Z</time>
      </trkpt>
      <trkpt lat="37.1933140" lon="-7.4173470">
        <ele>7.5</ele>
        <time>2020-12-22T15:09:09Z</time>
      </trkpt>
      <trkpt lat="37.1933100" lon="-7.4173660">
        <ele>7.5</ele>
        <time>2020-12-22T15:09:10Z</time>
      </trkpt>
      <trkpt lat="37.1933060" lon="-7.4173870">
        <ele>7.5</ele>
        <time>2020-12-22T15:09:11Z</time>
      </trkpt>
      <trkpt lat="37.1933020" lon="-7.4174080">
        <ele>7.5</ele>
        <time>2020-12-22T15:09:12Z</time>
      </trkpt>
      <trkpt lat="37.1932950" lon="-7.4174300">
        <ele>7.5</ele>
        <time>2020-12-22T15:09:13Z</time>
      </trkpt>
      <trkpt lat="37.1932910" lon="-7.4174530">
        <ele>7.5</ele>
        <time>2020-12-22T15:09:14Z</time>
      </trkpt>
      <trkpt lat="37.1932870" lon="-7.4174760">
        <ele>7.5</ele>
        <time>2020-12-22T15:09:15Z</time>
      </trkpt>
      <trkpt lat="37.1932830" lon="-7.4175010">
        <ele>7.5</ele>
        <time>2020-12-22T15:09:16Z</time>
      </trkpt>
      <trkpt lat="37.1932790" lon="-7.4175280">
        <ele>7.6</ele>
        <time>2020-12-22T15:09:17Z</time>
      </trkpt>
      <trkpt lat="37.1932750" lon="-7.4175530">
        <ele>7.6</ele>
        <time>2020-12-22T15:09:18Z</time>
      </trkpt>
      <trkpt lat="37.1932720" lon="-7.4175770">
        <ele>7.6</ele>
        <time>2020-12-22T15:09:19Z</time>
      </trkpt>
      <trkpt lat="37.1932720" lon="-7.4175990">
        <ele>7.6</ele>
        <time>2020-12-22T15:09:20Z</time>
      </trkpt>
      <trkpt lat="37.1932680" lon="-7.4176200">
        <ele>7.6</ele>
        <time>2020-12-22T15:09:21Z</time>
      </trkpt>
      <trkpt lat="37.1932680" lon="-7.4176400">
        <ele>7.6</ele>
        <time>2020-12-22T15:09:22Z</time>
      </trkpt>
      <trkpt lat="37.1932640" lon="-7.4176610">
        <ele>7.7</ele>
        <time>2020-12-22T15:09:23Z</time>
      </trkpt>
      <trkpt lat="37.1932600" lon="-7.4176810">
        <ele>7.7</ele>
        <time>2020-12-22T15:09:24Z</time>
      </trkpt>
      <trkpt lat="37.1932560" lon="-7.4176990">
        <ele>7.7</ele>
        <time>2020-12-22T15:09:25Z</time>
      </trkpt>
      <trkpt lat="37.1932490" lon="-7.4177140">
        <ele>7.7</ele>
        <time>2020-12-22T15:09:26Z</time>
      </trkpt>
      <trkpt lat="37.1932490" lon="-7.4177280">
        <ele>7.7</ele>
        <time>2020-12-22T15:09:27Z</time>
      </trkpt>
      <trkpt lat="37.1932560" lon="-7.4177490">
        <ele>7.7</ele>
        <time>2020-12-22T15:09:28Z</time>
      </trkpt>
      <trkpt lat="37.1932720" lon="-7.4177740">
        <ele>7.7</ele>
        <time>2020-12-22T15:09:29Z</time>
      </trkpt>
      <trkpt lat="37.1932790" lon="-7.4177970">
        <ele>7.7</ele>
        <time>2020-12-22T15:09:30Z</time>
      </trkpt>
      <trkpt lat="37.1932830" lon="-7.4178160">
        <ele>7.7</ele>
        <time>2020-12-22T15:09:31Z</time>
      </trkpt>
      <trkpt lat="37.1932790" lon="-7.4178290">
        <ele>7.7</ele>
        <time>2020-12-22T15:09:32Z</time>
      </trkpt>
      <trkpt lat="37.1932720" lon="-7.4178390">
        <ele>7.7</ele>
        <time>2020-12-22T15:09:33Z</time>
      </trkpt>
      <trkpt lat="37.1932370" lon="-7.4179140">
        <ele>7.7</ele>
        <time>2020-12-22T15:09:56Z</time>
      </trkpt>
      <trkpt lat="37.1932370" lon="-7.4179240">
        <ele>7.7</ele>
        <time>2020-12-22T15:09:57Z</time>
      </trkpt>
      <trkpt lat="37.1932330" lon="-7.4179320">
        <ele>7.7</ele>
        <time>2020-12-22T15:09:58Z</time>
      </trkpt>
      <trkpt lat="37.1932300" lon="-7.4179400">
        <ele>7.7</ele>
        <time>2020-12-22T15:09:59Z</time>
      </trkpt>
      <trkpt lat="37.1932220" lon="-7.4179450">
        <ele>7.7</ele>
        <time>2020-12-22T15:10:00Z</time>
      </trkpt>
      <trkpt lat="37.1932180" lon="-7.4179470">
        <ele>7.7</ele>
        <time>2020-12-22T15:10:01Z</time>
      </trkpt>
      <trkpt lat="37.1932180" lon="-7.4179500">
        <ele>7.7</ele>
        <time>2020-12-22T15:10:02Z</time>
      </trkpt>
      <trkpt lat="37.1932140" lon="-7.4179510">
        <ele>7.6</ele>
        <time>2020-12-22T15:10:03Z</time>
      </trkpt>
      <trkpt lat="37.1932140" lon="-7.4179520">
        <ele>7.6</ele>
        <time>2020-12-22T15:10:04Z</time>
      </trkpt>
      <trkpt lat="37.1932110" lon="-7.4179530">
        <ele>7.6</ele>
        <time>2020-12-22T15:10:05Z</time>
      </trkpt>
      <trkpt lat="37.1932750" lon="-7.4179800">
        <ele>7.6</ele>
        <time>2020-12-22T15:11:17Z</time>
      </trkpt>
      <trkpt lat="37.1932790" lon="-7.4179850">
        <ele>7.6</ele>
        <time>2020-12-22T15:11:18Z</time>
      </trkpt>
      <trkpt lat="37.1932790" lon="-7.4179870">
        <ele>7.6</ele>
        <time>2020-12-22T15:11:19Z</time>
      </trkpt>
      <trkpt lat="37.1932790" lon="-7.4179890">
        <ele>7.6</ele>
        <time>2020-12-22T15:11:20Z</time>
      </trkpt>
      <trkpt lat="37.1932830" lon="-7.4179900">
        <ele>7.6</ele>
        <time>2020-12-22T15:11:21Z</time>
      </trkpt>
      <trkpt lat="37.1932830" lon="-7.4179900">
        <ele>7.6</ele>
        <time>2020-12-22T15:11:22Z</time>
      </trkpt>
      <trkpt lat="37.1932680" lon="-7.4181130">
        <ele>7.7</ele>
        <time>2020-12-22T15:14:46Z</time>
      </trkpt>
      <trkpt lat="37.1932790" lon="-7.4181220">
        <ele>7.7</ele>
        <time>2020-12-22T15:14:47Z</time>
      </trkpt>
      <trkpt lat="37.1932950" lon="-7.4181300">
        <ele>7.7</ele>
        <time>2020-12-22T15:14:48Z</time>
      </trkpt>
      <trkpt lat="37.1933060" lon="-7.4181370">
        <ele>7.7</ele>
        <time>2020-12-22T15:14:49Z</time>
      </trkpt>
      <trkpt lat="37.1933170" lon="-7.4181440">
        <ele>7.6</ele>
        <time>2020-12-22T15:14:50Z</time>
      </trkpt>
      <trkpt lat="37.1933330" lon="-7.4181500">
        <ele>7.6</ele>
        <time>2020-12-22T15:14:51Z</time>
      </trkpt>
      <trkpt lat="37.1933480" lon="-7.4181580">
        <ele>7.6</ele>
        <time>2020-12-22T15:14:52Z</time>
      </trkpt>
      <trkpt lat="37.1933590" lon="-7.4181670">
        <ele>7.6</ele>
        <time>2020-12-22T15:14:53Z</time>
      </trkpt>
      <trkpt lat="37.1933780" lon="-7.4181770">
        <ele>7.6</ele>
        <time>2020-12-22T15:14:54Z</time>
      </trkpt>
      <trkpt lat="37.1933940" lon="-7.4181860">
        <ele>7.6</ele>
        <time>2020-12-22T15:14:55Z</time>
      </trkpt>
      <trkpt lat="37.1934090" lon="-7.4181940">
        <ele>7.6</ele>
        <time>2020-12-22T15:14:56Z</time>
      </trkpt>
      <trkpt lat="37.1934200" lon="-7.4182030">
        <ele>7.6</ele>
        <time>2020-12-22T15:14:57Z</time>
      </trkpt>
      <trkpt lat="37.1934360" lon="-7.4182110">
        <ele>7.6</ele>
        <time>2020-12-22T15:14:58Z</time>
      </trkpt>
      <trkpt lat="37.1934470" lon="-7.4182180">
        <ele>7.6</ele>
        <time>2020-12-22T15:14:59Z</time>
      </trkpt>
      <trkpt lat="37.1934620" lon="-7.4182230">
        <ele>7.6</ele>
        <time>2020-12-22T15:15:00Z</time>
      </trkpt>
      <trkpt lat="37.1934740" lon="-7.4182280">
        <ele>7.6</ele>
        <time>2020-12-22T15:15:01Z</time>
      </trkpt>
      <trkpt lat="37.1934890" lon="-7.4182320">
        <ele>7.6</ele>
        <time>2020-12-22T15:15:02Z</time>
      </trkpt>
      <trkpt lat="37.1935040" lon="-7.4182360">
        <ele>7.5</ele>
        <time>2020-12-22T15:15:03Z</time>
      </trkpt>
      <trkpt lat="37.1935160" lon="-7.4182400">
        <ele>7.5</ele>
        <time>2020-12-22T15:15:04Z</time>
      </trkpt>
      <trkpt lat="37.1935310" lon="-7.4182460">
        <ele>7.5</ele>
        <time>2020-12-22T15:15:05Z</time>
      </trkpt>
      <trkpt lat="37.1935420" lon="-7.4182520">
        <ele>7.5</ele>
        <time>2020-12-22T15:15:06Z</time>
      </trkpt>
      <trkpt lat="37.1935540" lon="-7.4182580">
        <ele>7.5</ele>
        <time>2020-12-22T15:15:07Z</time>
      </trkpt>
      <trkpt lat="37.1935650" lon="-7.4182640">
        <ele>7.5</ele>
        <time>2020-12-22T15:15:08Z</time>
      </trkpt>
      <trkpt lat="37.1935730" lon="-7.4182710">
        <ele>7.5</ele>
        <time>2020-12-22T15:15:09Z</time>
      </trkpt>
      <trkpt lat="37.1935840" lon="-7.4182770">
        <ele>7.5</ele>
        <time>2020-12-22T15:15:10Z</time>
      </trkpt>
      <trkpt lat="37.1935920" lon="-7.4182840">
        <ele>7.5</ele>
        <time>2020-12-22T15:15:11Z</time>
      </trkpt>
      <trkpt lat="37.1936030" lon="-7.4182930">
        <ele>7.5</ele>
        <time>2020-12-22T15:15:12Z</time>
      </trkpt>
      <trkpt lat="37.1936110" lon="-7.4183010">
        <ele>7.5</ele>
        <time>2020-12-22T15:15:13Z</time>
      </trkpt>
      <trkpt lat="37.1936230" lon="-7.4183090">
        <ele>7.5</ele>
        <time>2020-12-22T15:15:14Z</time>
      </trkpt>
      <trkpt lat="37.1936300" lon="-7.4183150">
        <ele>7.5</ele>
        <time>2020-12-22T15:15:15Z</time>
      </trkpt>
      <trkpt lat="37.1936420" lon="-7.4183210">
        <ele>7.5</ele>
        <time>2020-12-22T15:15:16Z</time>
      </trkpt>
      <trkpt lat="37.1936530" lon="-7.4183260">
        <ele>7.5</ele>
        <time>2020-12-22T15:15:17Z</time>
      </trkpt>
      <trkpt lat="37.1936650" lon="-7.4183300">
        <ele>7.5</ele>
        <time>2020-12-22T15:15:18Z</time>
      </trkpt>
      <trkpt lat="37.1936760" lon="-7.4183330">
        <ele>7.5</ele>
        <time>2020-12-22T15:15:19Z</time>
      </trkpt>
      <trkpt lat="37.1936840" lon="-7.4183410">
        <ele>7.5</ele>
        <time>2020-12-22T15:15:20Z</time>
      </trkpt>
      <trkpt lat="37.1936870" lon="-7.4183520">
        <ele>7.5</ele>
        <time>2020-12-22T15:15:21Z</time>
      </trkpt>
      <trkpt lat="37.1936910" lon="-7.4183650">
        <ele>7.5</ele>
        <time>2020-12-22T15:15:22Z</time>
      </trkpt>
      <trkpt lat="37.1936910" lon="-7.4183780">
        <ele>7.5</ele>
        <time>2020-12-22T15:15:23Z</time>
      </trkpt>
      <trkpt lat="37.1936910" lon="-7.4183900">
        <ele>7.5</ele>
        <time>2020-12-22T15:15:24Z</time>
      </trkpt>
      <trkpt lat="37.1936910" lon="-7.4184020">
        <ele>7.5</ele>
        <time>2020-12-22T15:15:25Z</time>
      </trkpt>
      <trkpt lat="37.1936910" lon="-7.4184130">
        <ele>7.5</ele>
        <time>2020-12-22T15:15:26Z</time>
      </trkpt>
      <trkpt lat="37.1936910" lon="-7.4184250">
        <ele>7.5</ele>
        <time>2020-12-22T15:15:27Z</time>
      </trkpt>
      <trkpt lat="37.1936910" lon="-7.4184350">
        <ele>7.5</ele>
        <time>2020-12-22T15:15:28Z</time>
      </trkpt>
      <trkpt lat="37.1936950" lon="-7.4184310">
        <ele>7.5</ele>
        <time>2020-12-22T15:15:38Z</time>
      </trkpt>
      <trkpt lat="37.1937070" lon="-7.4184350">
        <ele>7.5</ele>
        <time>2020-12-22T15:15:39Z</time>
      </trkpt>
      <trkpt lat="37.1937180" lon="-7.4184390">
        <ele>7.5</ele>
        <time>2020-12-22T15:15:40Z</time>
      </trkpt>
      <trkpt lat="37.1937290" lon="-7.4184440">
        <ele>7.5</ele>
        <time>2020-12-22T15:15:41Z</time>
      </trkpt>
      <trkpt lat="37.1937410" lon="-7.4184480">
        <ele>7.5</ele>
        <time>2020-12-22T15:15:42Z</time>
      </trkpt>
      <trkpt lat="37.1937480" lon="-7.4184520">
        <ele>7.5</ele>
        <time>2020-12-22T15:15:43Z</time>
      </trkpt>
      <trkpt lat="37.1937600" lon="-7.4184550">
        <ele>7.5</ele>
        <time>2020-12-22T15:15:44Z</time>
      </trkpt>
      <trkpt lat="37.1937680" lon="-7.4184550">
        <ele>7.5</ele>
        <time>2020-12-22T15:15:45Z</time>
      </trkpt>
      <trkpt lat="37.1937710" lon="-7.4184520">
        <ele>7.5</ele>
        <time>2020-12-22T15:15:46Z</time>
      </trkpt>
      <trkpt lat="37.1937790" lon="-7.4184420">
        <ele>7.5</ele>
        <time>2020-12-22T15:15:47Z</time>
      </trkpt>
      <trkpt lat="37.1937830" lon="-7.4184330">
        <ele>7.5</ele>
        <time>2020-12-22T15:15:48Z</time>
      </trkpt>
      <trkpt lat="37.1937790" lon="-7.4184290">
        <ele>7.5</ele>
        <time>2020-12-22T15:15:49Z</time>
      </trkpt>
      <trkpt lat="37.1936870" lon="-7.4184690">
        <ele>7.5</ele>
        <time>2020-12-22T15:16:56Z</time>
      </trkpt>
      <trkpt lat="37.1936610" lon="-7.4184460">
        <ele>7.5</ele>
        <time>2020-12-22T15:16:57Z</time>
      </trkpt>
      <trkpt lat="37.1936450" lon="-7.4184290">
        <ele>7.5</ele>
        <time>2020-12-22T15:16:58Z</time>
      </trkpt>
      <trkpt lat="37.1936380" lon="-7.4184210">
        <ele>7.5</ele>
        <time>2020-12-22T15:16:59Z</time>
      </trkpt>
      <trkpt lat="37.1936300" lon="-7.4184100">
        <ele>7.5</ele>
        <time>2020-12-22T15:17:00Z</time>
      </trkpt>
      <trkpt lat="37.1936230" lon="-7.4183970">
        <ele>7.5</ele>
        <time>2020-12-22T15:17:01Z</time>
      </trkpt>
      <trkpt lat="37.1936150" lon="-7.4183860">
        <ele>7.5</ele>
        <time>2020-12-22T15:17:02Z</time>
      </trkpt>
      <trkpt lat="37.1936030" lon="-7.4183760">
        <ele>7.5</ele>
        <time>2020-12-22T15:17:03Z</time>
      </trkpt>
      <trkpt lat="37.1935880" lon="-7.4183680">
        <ele>7.5</ele>
        <time>2020-12-22T15:17:04Z</time>
      </trkpt>
      <trkpt lat="37.1935730" lon="-7.4183600">
        <ele>7.5</ele>
        <time>2020-12-22T15:17:05Z</time>
      </trkpt>
      <trkpt lat="37.1935620" lon="-7.4183510">
        <ele>7.5</ele>
        <time>2020-12-22T15:17:06Z</time>
      </trkpt>
      <trkpt lat="37.1935460" lon="-7.4183420">
        <ele>7.5</ele>
        <time>2020-12-22T15:17:07Z</time>
      </trkpt>
      <trkpt lat="37.1935310" lon="-7.4183330">
        <ele>7.5</ele>
        <time>2020-12-22T15:17:08Z</time>
      </trkpt>
      <trkpt lat="37.1935200" lon="-7.4183240">
        <ele>7.5</ele>
        <time>2020-12-22T15:17:09Z</time>
      </trkpt>
      <trkpt lat="37.1935080" lon="-7.4183170">
        <ele>7.5</ele>
        <time>2020-12-22T15:17:10Z</time>
      </trkpt>
      <trkpt lat="37.1934930" lon="-7.4183100">
        <ele>7.5</ele>
        <time>2020-12-22T15:17:11Z</time>
      </trkpt>
      <trkpt lat="37.1934810" lon="-7.4183030">
        <ele>7.5</ele>
        <time>2020-12-22T15:17:12Z</time>
      </trkpt>
      <trkpt lat="37.1934660" lon="-7.4182940">
        <ele>7.5</ele>
        <time>2020-12-22T15:17:13Z</time>
      </trkpt>
      <trkpt lat="37.1934550" lon="-7.4182850">
        <ele>7.6</ele>
        <time>2020-12-22T15:17:14Z</time>
      </trkpt>
      <trkpt lat="37.1934430" lon="-7.4182750">
        <ele>7.6</ele>
        <time>2020-12-22T15:17:15Z</time>
      </trkpt>
      <trkpt lat="37.1934280" lon="-7.4182660">
        <ele>7.6</ele>
        <time>2020-12-22T15:17:16Z</time>
      </trkpt>
      <trkpt lat="37.1934130" lon="-7.4182570">
        <ele>7.6</ele>
        <time>2020-12-22T15:17:17Z</time>
      </trkpt>
      <trkpt lat="37.1933970" lon="-7.4182500">
        <ele>7.6</ele>
        <time>2020-12-22T15:17:18Z</time>
      </trkpt>
      <trkpt lat="37.1933820" lon="-7.4182410">
        <ele>7.6</ele>
        <time>2020-12-22T15:17:19Z</time>
      </trkpt>
      <trkpt lat="37.1933710" lon="-7.4182300">
        <ele>7.6</ele>
        <time>2020-12-22T15:17:20Z</time>
      </trkpt>
      <trkpt lat="37.1933560" lon="-7.4182160">
        <ele>7.6</ele>
        <time>2020-12-22T15:17:21Z</time>
      </trkpt>
      <trkpt lat="37.1933440" lon="-7.4182000">
        <ele>7.6</ele>
        <time>2020-12-22T15:17:22Z</time>
      </trkpt>
      <trkpt lat="37.1933290" lon="-7.4181860">
        <ele>7.6</ele>
        <time>2020-12-22T15:17:23Z</time>
      </trkpt>
      <trkpt lat="37.1933140" lon="-7.4181730">
        <ele>7.6</ele>
        <time>2020-12-22T15:17:24Z</time>
      </trkpt>
      <trkpt lat="37.1932980" lon="-7.4181610">
        <ele>7.6</ele>
        <time>2020-12-22T15:17:25Z</time>
      </trkpt>
      <trkpt lat="37.1932830" lon="-7.4181470">
        <ele>7.6</ele>
        <time>2020-12-22T15:17:26Z</time>
      </trkpt>
      <trkpt lat="37.1932680" lon="-7.4181310">
        <ele>7.7</ele>
        <time>2020-12-22T15:17:27Z</time>
      </trkpt>
      <trkpt lat="37.1932530" lon="-7.4181150">
        <ele>7.7</ele>
        <time>2020-12-22T15:17:28Z</time>
      </trkpt>
      <trkpt lat="37.1932410" lon="-7.4181020">
        <ele>7.7</ele>
        <time>2020-12-22T15:17:29Z</time>
      </trkpt>
      <trkpt lat="37.1932260" lon="-7.4180930">
        <ele>7.7</ele>
        <time>2020-12-22T15:17:30Z</time>
      </trkpt>
      <trkpt lat="37.1932140" lon="-7.4180870">
        <ele>7.7</ele>
        <time>2020-12-22T15:17:31Z</time>
      </trkpt>
      <trkpt lat="37.1932030" lon="-7.4180820">
        <ele>7.7</ele>
        <time>2020-12-22T15:17:32Z</time>
      </trkpt>
      <trkpt lat="37.1931950" lon="-7.4180770">
        <ele>7.7</ele>
        <time>2020-12-22T15:17:33Z</time>
      </trkpt>
      <trkpt lat="37.1931920" lon="-7.4180690">
        <ele>7.7</ele>
        <time>2020-12-22T15:17:34Z</time>
      </trkpt>
      <trkpt lat="37.1931880" lon="-7.4180590">
        <ele>7.7</ele>
        <time>2020-12-22T15:17:35Z</time>
      </trkpt>
      <trkpt lat="37.1931840" lon="-7.4180470">
        <ele>7.7</ele>
        <time>2020-12-22T15:17:36Z</time>
      </trkpt>
      <trkpt lat="37.1931800" lon="-7.4180330">
        <ele>7.7</ele>
        <time>2020-12-22T15:17:37Z</time>
      </trkpt>
      <trkpt lat="37.1931760" lon="-7.4180190">
        <ele>7.7</ele>
        <time>2020-12-22T15:17:38Z</time>
      </trkpt>
      <trkpt lat="37.1931720" lon="-7.4180070">
        <ele>7.7</ele>
        <time>2020-12-22T15:17:39Z</time>
      </trkpt>
      <trkpt lat="37.1931690" lon="-7.4179960">
        <ele>7.7</ele>
        <time>2020-12-22T15:17:40Z</time>
      </trkpt>
      <trkpt lat="37.1931610" lon="-7.4179870">
        <ele>7.7</ele>
        <time>2020-12-22T15:17:41Z</time>
      </trkpt>
      <trkpt lat="37.1931530" lon="-7.4179790">
        <ele>7.7</ele>
        <time>2020-12-22T15:17:42Z</time>
      </trkpt>
      <trkpt lat="37.1931530" lon="-7.4179730">
        <ele>7.7</ele>
        <time>2020-12-22T15:17:43Z</time>
      </trkpt>
      <trkpt lat="37.1931530" lon="-7.4179730">
        <ele>7.7</ele>
        <time>2020-12-22T15:17:44Z</time>
      </trkpt>
      <trkpt lat="37.1932830" lon="-7.4182600">
        <ele>7.7</ele>
        <time>2020-12-22T15:47:45Z</time>
      </trkpt>
      <trkpt lat="37.1932980" lon="-7.4182650">
        <ele>7.6</ele>
        <time>2020-12-22T15:47:46Z</time>
      </trkpt>
      <trkpt lat="37.1933100" lon="-7.4182670">
        <ele>7.6</ele>
        <time>2020-12-22T15:47:47Z</time>
      </trkpt>
      <trkpt lat="37.1933250" lon="-7.4182660">
        <ele>7.6</ele>
        <time>2020-12-22T15:47:48Z</time>
      </trkpt>
      <trkpt lat="37.1933400" lon="-7.4182640">
        <ele>7.6</ele>
        <time>2020-12-22T15:47:49Z</time>
      </trkpt>
      <trkpt lat="37.1933630" lon="-7.4182620">
        <ele>7.6</ele>
        <time>2020-12-22T15:47:50Z</time>
      </trkpt>
      <trkpt lat="37.1933900" lon="-7.4182630">
        <ele>7.6</ele>
        <time>2020-12-22T15:47:51Z</time>
      </trkpt>
      <trkpt lat="37.1934160" lon="-7.4182660">
        <ele>7.6</ele>
        <time>2020-12-22T15:47:52Z</time>
      </trkpt>
      <trkpt lat="37.1934430" lon="-7.4182730">
        <ele>7.6</ele>
        <time>2020-12-22T15:47:53Z</time>
      </trkpt>
      <trkpt lat="37.1934660" lon="-7.4182810">
        <ele>7.6</ele>
        <time>2020-12-22T15:47:54Z</time>
      </trkpt>
      <trkpt lat="37.1934890" lon="-7.4182900">
        <ele>7.6</ele>
        <time>2020-12-22T15:47:55Z</time>
      </trkpt>
      <trkpt lat="37.1935000" lon="-7.4183210">
        <ele>7.5</ele>
        <time>2020-12-22T15:47:56Z</time>
      </trkpt>
      <trkpt lat="37.1935080" lon="-7.4183350">
        <ele>7.5</ele>
        <time>2020-12-22T15:47:57Z</time>
      </trkpt>
      <trkpt lat="37.1935200" lon="-7.4183500">
        <ele>7.5</ele>
        <time>2020-12-22T15:47:58Z</time>
      </trkpt>
      <trkpt lat="37.1935270" lon="-7.4183620">
        <ele>7.5</ele>
        <time>2020-12-22T15:47:59Z</time>
      </trkpt>
      <trkpt lat="37.1935230" lon="-7.4183800">
        <ele>7.5</ele>
        <time>2020-12-22T15:48:00Z</time>
      </trkpt>
      <trkpt lat="37.1935230" lon="-7.4183940">
        <ele>7.5</ele>
        <time>2020-12-22T15:48:01Z</time>
      </trkpt>
      <trkpt lat="37.1935230" lon="-7.4184090">
        <ele>7.5</ele>
        <time>2020-12-22T15:48:02Z</time>
      </trkpt>
      <trkpt lat="37.1935230" lon="-7.4184110">
        <ele>7.5</ele>
        <time>2020-12-22T15:48:03Z</time>
      </trkpt>
      <trkpt lat="37.1935230" lon="-7.4184100">
        <ele>7.5</ele>
        <time>2020-12-22T15:48:04Z</time>
      </trkpt>
      <trkpt lat="37.1935310" lon="-7.4184150">
        <ele>7.5</ele>
        <time>2020-12-22T15:48:05Z</time>
      </trkpt>
      <trkpt lat="37.1935460" lon="-7.4184290">
        <ele>7.5</ele>
        <time>2020-12-22T15:48:06Z</time>
      </trkpt>
      <trkpt lat="37.1935580" lon="-7.4184350">
        <ele>7.5</ele>
        <time>2020-12-22T15:48:07Z</time>
      </trkpt>
      <trkpt lat="37.1935690" lon="-7.4184360">
        <ele>7.5</ele>
        <time>2020-12-22T15:48:08Z</time>
      </trkpt>
      <trkpt lat="37.1935730" lon="-7.4184320">
        <ele>7.5</ele>
        <time>2020-12-22T15:48:09Z</time>
      </trkpt>
      <trkpt lat="37.1935810" lon="-7.4184340">
        <ele>7.5</ele>
        <time>2020-12-22T15:48:10Z</time>
      </trkpt>
      <trkpt lat="37.1935880" lon="-7.4184390">
        <ele>7.5</ele>
        <time>2020-12-22T15:48:11Z</time>
      </trkpt>
      <trkpt lat="37.1936030" lon="-7.4184460">
        <ele>7.5</ele>
        <time>2020-12-22T15:48:12Z</time>
      </trkpt>
      <trkpt lat="37.1936110" lon="-7.4184540">
        <ele>7.5</ele>
        <time>2020-12-22T15:48:13Z</time>
      </trkpt>
      <trkpt lat="37.1936190" lon="-7.4184660">
        <ele>7.4</ele>
        <time>2020-12-22T15:48:14Z</time>
      </trkpt>
      <trkpt lat="37.1936150" lon="-7.4184760">
        <ele>7.4</ele>
        <time>2020-12-22T15:48:15Z</time>
      </trkpt>
      <trkpt lat="37.1936230" lon="-7.4184830">
        <ele>7.4</ele>
        <time>2020-12-22T15:48:16Z</time>
      </trkpt>
      <trkpt lat="37.1936300" lon="-7.4184890">
        <ele>7.4</ele>
        <time>2020-12-22T15:48:17Z</time>
      </trkpt>
      <trkpt lat="37.1936340" lon="-7.4184930">
        <ele>7.4</ele>
        <time>2020-12-22T15:48:18Z</time>
      </trkpt>
      <trkpt lat="37.1936420" lon="-7.4184980">
        <ele>7.4</ele>
        <time>2020-12-22T15:48:19Z</time>
      </trkpt>
      <trkpt lat="37.1936450" lon="-7.4185050">
        <ele>7.4</ele>
        <time>2020-12-22T15:48:20Z</time>
      </trkpt>
      <trkpt lat="37.1936490" lon="-7.4185160">
        <ele>7.3</ele>
        <time>2020-12-22T15:48:21Z</time>
      </trkpt>
      <trkpt lat="37.1936490" lon="-7.4185290">
        <ele>7.3</ele>
        <time>2020-12-22T15:48:22Z</time>
      </trkpt>
      <trkpt lat="37.1936420" lon="-7.4185450">
        <ele>7.3</ele>
        <time>2020-12-22T15:48:23Z</time>
      </trkpt>
      <trkpt lat="37.1936380" lon="-7.4185600">
        <ele>7.3</ele>
        <time>2020-12-22T15:48:24Z</time>
      </trkpt>
      <trkpt lat="37.1936300" lon="-7.4185750">
        <ele>7.2</ele>
        <time>2020-12-22T15:48:25Z</time>
      </trkpt>
      <trkpt lat="37.1936260" lon="-7.4185890">
        <ele>7.2</ele>
        <time>2020-12-22T15:48:26Z</time>
      </trkpt>
      <trkpt lat="37.1936230" lon="-7.4186030">
        <ele>7.2</ele>
        <time>2020-12-22T15:48:27Z</time>
      </trkpt>
      <trkpt lat="37.1936190" lon="-7.4186180">
        <ele>7.2</ele>
        <time>2020-12-22T15:48:28Z</time>
      </trkpt>
      <trkpt lat="37.1936150" lon="-7.4186330">
        <ele>7.2</ele>
        <time>2020-12-22T15:48:29Z</time>
      </trkpt>
      <trkpt lat="37.1936070" lon="-7.4186480">
        <ele>7.2</ele>
        <time>2020-12-22T15:48:30Z</time>
      </trkpt>
      <trkpt lat="37.1936030" lon="-7.4186650">
        <ele>7.1</ele>
        <time>2020-12-22T15:48:31Z</time>
      </trkpt>
      <trkpt lat="37.1936000" lon="-7.4186800">
        <ele>7.1</ele>
        <time>2020-12-22T15:48:32Z</time>
      </trkpt>
      <trkpt lat="37.1936000" lon="-7.4186920">
        <ele>7.1</ele>
        <time>2020-12-22T15:48:33Z</time>
      </trkpt>
      <trkpt lat="37.1936000" lon="-7.4187050">
        <ele>7.1</ele>
        <time>2020-12-22T15:48:34Z</time>
      </trkpt>
      <trkpt lat="37.1936000" lon="-7.4187200">
        <ele>7.1</ele>
        <time>2020-12-22T15:48:35Z</time>
      </trkpt>
      <trkpt lat="37.1935960" lon="-7.4187330">
        <ele>7.1</ele>
        <time>2020-12-22T15:48:36Z</time>
      </trkpt>
      <trkpt lat="37.1935960" lon="-7.4187460">
        <ele>7.0</ele>
        <time>2020-12-22T15:48:37Z</time>
      </trkpt>
      <trkpt lat="37.1935960" lon="-7.4187580">
        <ele>7.0</ele>
        <time>2020-12-22T15:48:38Z</time>
      </trkpt>
      <trkpt lat="37.1935960" lon="-7.4187730">
        <ele>7.0</ele>
        <time>2020-12-22T15:48:39Z</time>
      </trkpt>
      <trkpt lat="37.1935960" lon="-7.4187870">
        <ele>7.0</ele>
        <time>2020-12-22T15:48:40Z</time>
      </trkpt>
      <trkpt lat="37.1936000" lon="-7.4188060">
        <ele>7.0</ele>
        <time>2020-12-22T15:48:41Z</time>
      </trkpt>
      <trkpt lat="37.1936000" lon="-7.4188250">
        <ele>7.0</ele>
        <time>2020-12-22T15:48:42Z</time>
      </trkpt>
      <trkpt lat="37.1936000" lon="-7.4188460">
        <ele>6.9</ele>
        <time>2020-12-22T15:48:43Z</time>
      </trkpt>
      <trkpt lat="37.1936000" lon="-7.4188650">
        <ele>6.9</ele>
        <time>2020-12-22T15:48:44Z</time>
      </trkpt>
      <trkpt lat="37.1936000" lon="-7.4188840">
        <ele>6.9</ele>
        <time>2020-12-22T15:48:45Z</time>
      </trkpt>
      <trkpt lat="37.1936000" lon="-7.4189020">
        <ele>6.9</ele>
        <time>2020-12-22T15:48:46Z</time>
      </trkpt>
      <trkpt lat="37.1935960" lon="-7.4189180">
        <ele>6.9</ele>
        <time>2020-12-22T15:48:47Z</time>
      </trkpt>
      <trkpt lat="37.1935960" lon="-7.4189340">
        <ele>6.9</ele>
        <time>2020-12-22T15:48:48Z</time>
      </trkpt>
      <trkpt lat="37.1935920" lon="-7.4189470">
        <ele>6.8</ele>
        <time>2020-12-22T15:48:49Z</time>
      </trkpt>
      <trkpt lat="37.1935880" lon="-7.4189620">
        <ele>6.8</ele>
        <time>2020-12-22T15:48:50Z</time>
      </trkpt>
      <trkpt lat="37.1935840" lon="-7.4189830">
        <ele>6.8</ele>
        <time>2020-12-22T15:48:51Z</time>
      </trkpt>
      <trkpt lat="37.1935810" lon="-7.4190010">
        <ele>6.8</ele>
        <time>2020-12-22T15:48:52Z</time>
      </trkpt>
      <trkpt lat="37.1935770" lon="-7.4190080">
        <ele>6.8</ele>
        <time>2020-12-22T15:48:53Z</time>
      </trkpt>
      <trkpt lat="37.1935770" lon="-7.4190090">
        <ele>6.8</ele>
        <time>2020-12-22T15:48:54Z</time>
      </trkpt>
      <trkpt lat="37.1935770" lon="-7.4190090">
        <ele>6.8</ele>
        <time>2020-12-22T15:48:55Z</time>
      </trkpt>
      <trkpt lat="37.1935730" lon="-7.4190090">
        <ele>6.8</ele>
        <time>2020-12-22T15:48:56Z</time>
      </trkpt>
      <trkpt lat="37.1935730" lon="-7.4190090">
        <ele>6.8</ele>
        <time>2020-12-22T15:48:57Z</time>
      </trkpt>
      <trkpt lat="37.1935500" lon="-7.4190110">
        <ele>6.8</ele>
        <time>2020-12-22T15:49:07Z</time>
      </trkpt>
      <trkpt lat="37.1935420" lon="-7.4190140">
        <ele>6.7</ele>
        <time>2020-12-22T15:49:08Z</time>
      </trkpt>
      <trkpt lat="37.1935350" lon="-7.4190190">
        <ele>6.7</ele>
        <time>2020-12-22T15:49:09Z</time>
      </trkpt>
      <trkpt lat="37.1935230" lon="-7.4190250">
        <ele>6.7</ele>
        <time>2020-12-22T15:49:10Z</time>
      </trkpt>
      <trkpt lat="37.1935080" lon="-7.4190320">
        <ele>6.7</ele>
        <time>2020-12-22T15:49:11Z</time>
      </trkpt>
      <trkpt lat="37.1934970" lon="-7.4190390">
        <ele>6.7</ele>
        <time>2020-12-22T15:49:12Z</time>
      </trkpt>
      <trkpt lat="37.1934850" lon="-7.4190460">
        <ele>6.7</ele>
        <time>2020-12-22T15:49:13Z</time>
      </trkpt>
      <trkpt lat="37.1934780" lon="-7.4190530">
        <ele>6.7</ele>
        <time>2020-12-22T15:49:14Z</time>
      </trkpt>
      <trkpt lat="37.1934700" lon="-7.4190600">
        <ele>6.7</ele>
        <time>2020-12-22T15:49:15Z</time>
      </trkpt>
      <trkpt lat="37.1934620" lon="-7.4190640">
        <ele>6.7</ele>
        <time>2020-12-22T15:49:16Z</time>
      </trkpt>
      <trkpt lat="37.1934550" lon="-7.4190680">
        <ele>6.6</ele>
        <time>2020-12-22T15:49:17Z</time>
      </trkpt>
      <trkpt lat="37.1934470" lon="-7.4190730">
        <ele>6.6</ele>
        <time>2020-12-22T15:49:18Z</time>
      </trkpt>
      <trkpt lat="37.1934360" lon="-7.4190790">
        <ele>6.6</ele>
        <time>2020-12-22T15:49:19Z</time>
      </trkpt>
      <trkpt lat="37.1934320" lon="-7.4190830">
        <ele>6.6</ele>
        <time>2020-12-22T15:49:20Z</time>
      </trkpt>
      <trkpt lat="37.1934240" lon="-7.4190850">
        <ele>6.6</ele>
        <time>2020-12-22T15:49:21Z</time>
      </trkpt>
      <trkpt lat="37.1934200" lon="-7.4190860">
        <ele>6.6</ele>
        <time>2020-12-22T15:49:22Z</time>
      </trkpt>
      <trkpt lat="37.1934130" lon="-7.4190860">
        <ele>6.6</ele>
        <time>2020-12-22T15:49:23Z</time>
      </trkpt>
      <trkpt lat="37.1934090" lon="-7.4190870">
        <ele>6.6</ele>
        <time>2020-12-22T15:49:24Z</time>
      </trkpt>
      <trkpt lat="37.1934050" lon="-7.4190880">
        <ele>6.6</ele>
        <time>2020-12-22T15:49:25Z</time>
      </trkpt>
      <trkpt lat="37.1933900" lon="-7.4191020">
        <ele>6.6</ele>
        <time>2020-12-22T15:49:27Z</time>
      </trkpt>
      <trkpt lat="37.1933780" lon="-7.4191090">
        <ele>6.6</ele>
        <time>2020-12-22T15:49:28Z</time>
      </trkpt>
      <trkpt lat="37.1933710" lon="-7.4191150">
        <ele>6.6</ele>
        <time>2020-12-22T15:49:29Z</time>
      </trkpt>
      <trkpt lat="37.1933630" lon="-7.4191200">
        <ele>6.6</ele>
        <time>2020-12-22T15:49:30Z</time>
      </trkpt>
      <trkpt lat="37.1933520" lon="-7.4191270">
        <ele>6.6</ele>
        <time>2020-12-22T15:49:31Z</time>
      </trkpt>
      <trkpt lat="37.1933440" lon="-7.4191340">
        <ele>6.6</ele>
        <time>2020-12-22T15:49:32Z</time>
      </trkpt>
      <trkpt lat="37.1933330" lon="-7.4191440">
        <ele>6.6</ele>
        <time>2020-12-22T15:49:33Z</time>
      </trkpt>
      <trkpt lat="37.1933180" lon="-7.4191560">
        <ele>6.6</ele>
        <time>2020-12-22T15:49:34Z</time>
      </trkpt>
      <trkpt lat="37.1933060" lon="-7.4191660">
        <ele>6.6</ele>
        <time>2020-12-22T15:49:35Z</time>
      </trkpt>
      <trkpt lat="37.1932910" lon="-7.4191770">
        <ele>6.6</ele>
        <time>2020-12-22T15:49:36Z</time>
      </trkpt>
      <trkpt lat="37.1932760" lon="-7.4191870">
        <ele>6.6</ele>
        <time>2020-12-22T15:49:37Z</time>
      </trkpt>
      <trkpt lat="37.1932640" lon="-7.4191990">
        <ele>6.6</ele>
        <time>2020-12-22T15:49:38Z</time>
      </trkpt>
      <trkpt lat="37.1932490" lon="-7.4192100">
        <ele>6.6</ele>
        <time>2020-12-22T15:49:39Z</time>
      </trkpt>
      <trkpt lat="37.1932340" lon="-7.4192200">
        <ele>6.6</ele>
        <time>2020-12-22T15:49:40Z</time>
      </trkpt>
      <trkpt lat="37.1932180" lon="-7.4192320">
        <ele>6.6</ele>
        <time>2020-12-22T15:49:41Z</time>
      </trkpt>
      <trkpt lat="37.1931990" lon="-7.4192440">
        <ele>6.6</ele>
        <time>2020-12-22T15:49:42Z</time>
      </trkpt>
      <trkpt lat="37.1931840" lon="-7.4192560">
        <ele>6.6</ele>
        <time>2020-12-22T15:49:43Z</time>
      </trkpt>
      <trkpt lat="37.1931690" lon="-7.4192700">
        <ele>6.6</ele>
        <time>2020-12-22T15:49:44Z</time>
      </trkpt>
      <trkpt lat="37.1931530" lon="-7.4192850">
        <ele>6.6</ele>
        <time>2020-12-22T15:49:45Z</time>
      </trkpt>
      <trkpt lat="37.1931380" lon="-7.4193010">
        <ele>6.6</ele>
        <time>2020-12-22T15:49:46Z</time>
      </trkpt>
      <trkpt lat="37.1931270" lon="-7.4193190">
        <ele>6.6</ele>
        <time>2020-12-22T15:49:47Z</time>
      </trkpt>
      <trkpt lat="37.1931110" lon="-7.4193380">
        <ele>6.6</ele>
        <time>2020-12-22T15:49:48Z</time>
      </trkpt>
      <trkpt lat="37.1930960" lon="-7.4193590">
        <ele>6.6</ele>
        <time>2020-12-22T15:49:49Z</time>
      </trkpt>
      <trkpt lat="37.1930770" lon="-7.4193780">
        <ele>6.6</ele>
        <time>2020-12-22T15:49:50Z</time>
      </trkpt>
      <trkpt lat="37.1930620" lon="-7.4193950">
        <ele>6.6</ele>
        <time>2020-12-22T15:49:51Z</time>
      </trkpt>
      <trkpt lat="37.1930430" lon="-7.4194110">
        <ele>6.6</ele>
        <time>2020-12-22T15:49:52Z</time>
      </trkpt>
      <trkpt lat="37.1930200" lon="-7.4194210">
        <ele>6.7</ele>
        <time>2020-12-22T15:49:53Z</time>
      </trkpt>
      <trkpt lat="37.1930010" lon="-7.4194360">
        <ele>6.7</ele>
        <time>2020-12-22T15:49:54Z</time>
      </trkpt>
      <trkpt lat="37.1929860" lon="-7.4194490">
        <ele>6.7</ele>
        <time>2020-12-22T15:49:55Z</time>
      </trkpt>
      <trkpt lat="37.1929700" lon="-7.4194600">
        <ele>6.7</ele>
        <time>2020-12-22T15:49:56Z</time>
      </trkpt>
      <trkpt lat="37.1929510" lon="-7.4194730">
        <ele>6.7</ele>
        <time>2020-12-22T15:49:57Z</time>
      </trkpt>
      <trkpt lat="37.1929360" lon="-7.4194890">
        <ele>6.7</ele>
        <time>2020-12-22T15:49:58Z</time>
      </trkpt>
      <trkpt lat="37.1929170" lon="-7.4195090">
        <ele>6.8</ele>
        <time>2020-12-22T15:49:59Z</time>
      </trkpt>
      <trkpt lat="37.1928980" lon="-7.4195310">
        <ele>6.8</ele>
        <time>2020-12-22T15:50:00Z</time>
      </trkpt>
      <trkpt lat="37.1928750" lon="-7.4195480">
        <ele>6.9</ele>
        <time>2020-12-22T15:50:01Z</time>
      </trkpt>
      <trkpt lat="37.1928630" lon="-7.4195610">
        <ele>6.9</ele>
        <time>2020-12-22T15:50:02Z</time>
      </trkpt>
      <trkpt lat="37.1928520" lon="-7.4195780">
        <ele>6.9</ele>
        <time>2020-12-22T15:50:03Z</time>
      </trkpt>
      <trkpt lat="37.1928410" lon="-7.4195960">
        <ele>6.9</ele>
        <time>2020-12-22T15:50:04Z</time>
      </trkpt>
      <trkpt lat="37.1928290" lon="-7.4196100">
        <ele>7.0</ele>
        <time>2020-12-22T15:50:05Z</time>
      </trkpt>
      <trkpt lat="37.1928180" lon="-7.4196240">
        <ele>7.0</ele>
        <time>2020-12-22T15:50:06Z</time>
      </trkpt>
      <trkpt lat="37.1928030" lon="-7.4196340">
        <ele>7.0</ele>
        <time>2020-12-22T15:50:07Z</time>
      </trkpt>
      <trkpt lat="37.1927910" lon="-7.4196410">
        <ele>7.0</ele>
        <time>2020-12-22T15:50:08Z</time>
      </trkpt>
      <trkpt lat="37.1927760" lon="-7.4196480">
        <ele>7.6</ele>
        <time>2020-12-22T15:50:09Z</time>
      </trkpt>
      <trkpt lat="37.1927640" lon="-7.4196530">
        <ele>7.7</ele>
        <time>2020-12-22T15:50:10Z</time>
      </trkpt>
      <trkpt lat="37.1927450" lon="-7.4196500">
        <ele>7.9</ele>
        <time>2020-12-22T15:50:11Z</time>
      </trkpt>
      <trkpt lat="37.1927300" lon="-7.4196500">
        <ele>8.0</ele>
        <time>2020-12-22T15:50:12Z</time>
      </trkpt>
      <trkpt lat="37.1927150" lon="-7.4196540">
        <ele>8.1</ele>
        <time>2020-12-22T15:50:13Z</time>
      </trkpt>
      <trkpt lat="37.1927030" lon="-7.4196490">
        <ele>8.2</ele>
        <time>2020-12-22T15:50:14Z</time>
      </trkpt>
      <trkpt lat="37.1926920" lon="-7.4196400">
        <ele>8.3</ele>
        <time>2020-12-22T15:50:15Z</time>
      </trkpt>
      <trkpt lat="37.1926770" lon="-7.4196340">
        <ele>8.4</ele>
        <time>2020-12-22T15:50:16Z</time>
      </trkpt>
      <trkpt lat="37.1926650" lon="-7.4196300">
        <ele>8.5</ele>
        <time>2020-12-22T15:50:17Z</time>
      </trkpt>
      <trkpt lat="37.1926540" lon="-7.4196240">
        <ele>8.6</ele>
        <time>2020-12-22T15:50:18Z</time>
      </trkpt>
      <trkpt lat="37.1926420" lon="-7.4196190">
        <ele>8.7</ele>
        <time>2020-12-22T15:50:19Z</time>
      </trkpt>
      <trkpt lat="37.1926350" lon="-7.4196120">
        <ele>8.7</ele>
        <time>2020-12-22T15:50:20Z</time>
      </trkpt>
      <trkpt lat="37.1926230" lon="-7.4196080">
        <ele>8.8</ele>
        <time>2020-12-22T15:50:21Z</time>
      </trkpt>
      <trkpt lat="37.1926160" lon="-7.4196080">
        <ele>8.9</ele>
        <time>2020-12-22T15:50:22Z</time>
      </trkpt>
      <trkpt lat="37.1926080" lon="-7.4196110">
        <ele>9.0</ele>
        <time>2020-12-22T15:50:23Z</time>
      </trkpt>
      <trkpt lat="37.1925960" lon="-7.4196200">
        <ele>9.1</ele>
        <time>2020-12-22T15:50:24Z</time>
      </trkpt>
      <trkpt lat="37.1925770" lon="-7.4196350">
        <ele>9.2</ele>
        <time>2020-12-22T15:50:25Z</time>
      </trkpt>
      <trkpt lat="37.1925620" lon="-7.4196450">
        <ele>9.4</ele>
        <time>2020-12-22T15:50:26Z</time>
      </trkpt>
      <trkpt lat="37.1925470" lon="-7.4196460">
        <ele>9.4</ele>
        <time>2020-12-22T15:50:27Z</time>
      </trkpt>
      <trkpt lat="37.1925320" lon="-7.4196400">
        <ele>9.4</ele>
        <time>2020-12-22T15:50:28Z</time>
      </trkpt>
      <trkpt lat="37.1925130" lon="-7.4196350">
        <ele>9.3</ele>
        <time>2020-12-22T15:50:29Z</time>
      </trkpt>
      <trkpt lat="37.1924970" lon="-7.4196310">
        <ele>9.2</ele>
        <time>2020-12-22T15:50:30Z</time>
      </trkpt>
      <trkpt lat="37.1924780" lon="-7.4196290">
        <ele>9.2</ele>
        <time>2020-12-22T15:50:31Z</time>
      </trkpt>
      <trkpt lat="37.1924590" lon="-7.4196290">
        <ele>9.1</ele>
        <time>2020-12-22T15:50:32Z</time>
      </trkpt>
      <trkpt lat="37.1924400" lon="-7.4196210">
        <ele>9.1</ele>
        <time>2020-12-22T15:50:33Z</time>
      </trkpt>
      <trkpt lat="37.1924210" lon="-7.4196090">
        <ele>9.0</ele>
        <time>2020-12-22T15:50:34Z</time>
      </trkpt>
      <trkpt lat="37.1924020" lon="-7.4196020">
        <ele>8.9</ele>
        <time>2020-12-22T15:50:35Z</time>
      </trkpt>
      <trkpt lat="37.1923830" lon="-7.4195990">
        <ele>8.9</ele>
        <time>2020-12-22T15:50:36Z</time>
      </trkpt>
      <trkpt lat="37.1923600" lon="-7.4196010">
        <ele>8.8</ele>
        <time>2020-12-22T15:50:37Z</time>
      </trkpt>
      <trkpt lat="37.1923450" lon="-7.4196100">
        <ele>8.7</ele>
        <time>2020-12-22T15:50:38Z</time>
      </trkpt>
      <trkpt lat="37.1923330" lon="-7.4196200">
        <ele>8.7</ele>
        <time>2020-12-22T15:50:39Z</time>
      </trkpt>
      <trkpt lat="37.1923290" lon="-7.4196270">
        <ele>8.7</ele>
        <time>2020-12-22T15:50:40Z</time>
      </trkpt>
      <trkpt lat="37.1923290" lon="-7.4196390">
        <ele>8.7</ele>
        <time>2020-12-22T15:50:41Z</time>
      </trkpt>
      <trkpt lat="37.1923290" lon="-7.4196500">
        <ele>8.6</ele>
        <time>2020-12-22T15:50:42Z</time>
      </trkpt>
      <trkpt lat="37.1923260" lon="-7.4196570">
        <ele>8.6</ele>
        <time>2020-12-22T15:50:43Z</time>
      </trkpt>
      <trkpt lat="37.1923260" lon="-7.4196660">
        <ele>8.3</ele>
        <time>2020-12-22T15:50:44Z</time>
      </trkpt>
      <trkpt lat="37.1923220" lon="-7.4196740">
        <ele>8.3</ele>
        <time>2020-12-22T15:50:45Z</time>
      </trkpt>
      <trkpt lat="37.1923220" lon="-7.4196850">
        <ele>8.2</ele>
        <time>2020-12-22T15:50:46Z</time>
      </trkpt>
      <trkpt lat="37.1923260" lon="-7.4196980">
        <ele>8.2</ele>
        <time>2020-12-22T15:50:47Z</time>
      </trkpt>
      <trkpt lat="37.1923290" lon="-7.4197110">
        <ele>8.2</ele>
        <time>2020-12-22T15:50:48Z</time>
      </trkpt>
      <trkpt lat="37.1923330" lon="-7.4197220">
        <ele>8.2</ele>
        <time>2020-12-22T15:50:49Z</time>
      </trkpt>
      <trkpt lat="37.1923370" lon="-7.4197360">
        <ele>8.2</ele>
        <time>2020-12-22T15:50:50Z</time>
      </trkpt>
      <trkpt lat="37.1923370" lon="-7.4197540">
        <ele>8.2</ele>
        <time>2020-12-22T15:50:51Z</time>
      </trkpt>
      <trkpt lat="37.1923330" lon="-7.4197690">
        <ele>8.2</ele>
        <time>2020-12-22T15:50:52Z</time>
      </trkpt>
      <trkpt lat="37.1923290" lon="-7.4197820">
        <ele>8.2</ele>
        <time>2020-12-22T15:50:53Z</time>
      </trkpt>
      <trkpt lat="37.1923290" lon="-7.4197950">
        <ele>8.2</ele>
        <time>2020-12-22T15:50:54Z</time>
      </trkpt>
      <trkpt lat="37.1923290" lon="-7.4198090">
        <ele>8.2</ele>
        <time>2020-12-22T15:50:55Z</time>
      </trkpt>
      <trkpt lat="37.1923290" lon="-7.4198240">
        <ele>8.2</ele>
        <time>2020-12-22T15:50:56Z</time>
      </trkpt>
      <trkpt lat="37.1923290" lon="-7.4198380">
        <ele>8.2</ele>
        <time>2020-12-22T15:50:57Z</time>
      </trkpt>
      <trkpt lat="37.1923330" lon="-7.4198570">
        <ele>8.2</ele>
        <time>2020-12-22T15:50:58Z</time>
      </trkpt>
      <trkpt lat="37.1923370" lon="-7.4198760">
        <ele>8.2</ele>
        <time>2020-12-22T15:50:59Z</time>
      </trkpt>
      <trkpt lat="37.1923410" lon="-7.4198930">
        <ele>8.2</ele>
        <time>2020-12-22T15:51:00Z</time>
      </trkpt>
      <trkpt lat="37.1923450" lon="-7.4199090">
        <ele>8.2</ele>
        <time>2020-12-22T15:51:01Z</time>
      </trkpt>
      <trkpt lat="37.1923450" lon="-7.4199240">
        <ele>8.2</ele>
        <time>2020-12-22T15:51:02Z</time>
      </trkpt>
      <trkpt lat="37.1923480" lon="-7.4199380">
        <ele>8.2</ele>
        <time>2020-12-22T15:51:03Z</time>
      </trkpt>
      <trkpt lat="37.1923450" lon="-7.4199500">
        <ele>8.2</ele>
        <time>2020-12-22T15:51:04Z</time>
      </trkpt>
      <trkpt lat="37.1923450" lon="-7.4199670">
        <ele>8.2</ele>
        <time>2020-12-22T15:51:05Z</time>
      </trkpt>
      <trkpt lat="37.1923410" lon="-7.4199850">
        <ele>8.2</ele>
        <time>2020-12-22T15:51:06Z</time>
      </trkpt>
      <trkpt lat="37.1923330" lon="-7.4200100">
        <ele>8.2</ele>
        <time>2020-12-22T15:51:07Z</time>
      </trkpt>
      <trkpt lat="37.1923220" lon="-7.4200380">
        <ele>8.1</ele>
        <time>2020-12-22T15:51:08Z</time>
      </trkpt>
      <trkpt lat="37.1923140" lon="-7.4200620">
        <ele>8.1</ele>
        <time>2020-12-22T15:51:09Z</time>
      </trkpt>
      <trkpt lat="37.1923070" lon="-7.4200850">
        <ele>8.1</ele>
        <time>2020-12-22T15:51:10Z</time>
      </trkpt>
      <trkpt lat="37.1922990" lon="-7.4201110">
        <ele>8.1</ele>
        <time>2020-12-22T15:51:11Z</time>
      </trkpt>
      <trkpt lat="37.1922880" lon="-7.4201350">
        <ele>8.1</ele>
        <time>2020-12-22T15:51:12Z</time>
      </trkpt>
      <trkpt lat="37.1922800" lon="-7.4201570">
        <ele>8.1</ele>
        <time>2020-12-22T15:51:13Z</time>
      </trkpt>
      <trkpt lat="37.1922720" lon="-7.4201770">
        <ele>8.1</ele>
        <time>2020-12-22T15:51:14Z</time>
      </trkpt>
      <trkpt lat="37.1922650" lon="-7.4201950">
        <ele>8.1</ele>
        <time>2020-12-22T15:51:15Z</time>
      </trkpt>
      <trkpt lat="37.1922610" lon="-7.4202090">
        <ele>8.1</ele>
        <time>2020-12-22T15:51:16Z</time>
      </trkpt>
      <trkpt lat="37.1922530" lon="-7.4202230">
        <ele>8.1</ele>
        <time>2020-12-22T15:51:17Z</time>
      </trkpt>
      <trkpt lat="37.1922490" lon="-7.4202420">
        <ele>8.1</ele>
        <time>2020-12-22T15:51:18Z</time>
      </trkpt>
      <trkpt lat="37.1922420" lon="-7.4202560">
        <ele>8.1</ele>
        <time>2020-12-22T15:51:19Z</time>
      </trkpt>
      <trkpt lat="37.1922420" lon="-7.4202640">
        <ele>8.1</ele>
        <time>2020-12-22T15:51:20Z</time>
      </trkpt>
      <trkpt lat="37.1922380" lon="-7.4202760">
        <ele>8.1</ele>
        <time>2020-12-22T15:51:21Z</time>
      </trkpt>
      <trkpt lat="37.1922340" lon="-7.4202900">
        <ele>8.1</ele>
        <time>2020-12-22T15:51:22Z</time>
      </trkpt>
      <trkpt lat="37.1922340" lon="-7.4203030">
        <ele>8.1</ele>
        <time>2020-12-22T15:51:23Z</time>
      </trkpt>
      <trkpt lat="37.1922340" lon="-7.4203150">
        <ele>8.1</ele>
        <time>2020-12-22T15:51:24Z</time>
      </trkpt>
      <trkpt lat="37.1922300" lon="-7.4203280">
        <ele>8.1</ele>
        <time>2020-12-22T15:51:25Z</time>
      </trkpt>
      <trkpt lat="37.1922260" lon="-7.4203430">
        <ele>8.1</ele>
        <time>2020-12-22T15:51:26Z</time>
      </trkpt>
      <trkpt lat="37.1922150" lon="-7.4203610">
        <ele>8.1</ele>
        <time>2020-12-22T15:51:27Z</time>
      </trkpt>
      <trkpt lat="37.1921920" lon="-7.4203760">
        <ele>8.1</ele>
        <time>2020-12-22T15:51:28Z</time>
      </trkpt>
      <trkpt lat="37.1921730" lon="-7.4203840">
        <ele>8.1</ele>
        <time>2020-12-22T15:51:29Z</time>
      </trkpt>
      <trkpt lat="37.1921540" lon="-7.4203890">
        <ele>8.1</ele>
        <time>2020-12-22T15:51:30Z</time>
      </trkpt>
      <trkpt lat="37.1921270" lon="-7.4203900">
        <ele>8.1</ele>
        <time>2020-12-22T15:51:31Z</time>
      </trkpt>
      <trkpt lat="37.1921010" lon="-7.4203790">
        <ele>8.1</ele>
        <time>2020-12-22T15:51:32Z</time>
      </trkpt>
      <trkpt lat="37.1920780" lon="-7.4203650">
        <ele>8.1</ele>
        <time>2020-12-22T15:51:33Z</time>
      </trkpt>
      <trkpt lat="37.1920510" lon="-7.4203580">
        <ele>8.0</ele>
        <time>2020-12-22T15:51:34Z</time>
      </trkpt>
      <trkpt lat="37.1920240" lon="-7.4203680">
        <ele>8.0</ele>
        <time>2020-12-22T15:51:35Z</time>
      </trkpt>
      <trkpt lat="37.1920010" lon="-7.4203890">
        <ele>8.0</ele>
        <time>2020-12-22T15:51:36Z</time>
      </trkpt>
      <trkpt lat="37.1919860" lon="-7.4204070">
        <ele>8.0</ele>
        <time>2020-12-22T15:51:37Z</time>
      </trkpt>
      <trkpt lat="37.1919750" lon="-7.4204170">
        <ele>7.9</ele>
        <time>2020-12-22T15:51:38Z</time>
      </trkpt>
      <trkpt lat="37.1919670" lon="-7.4204200">
        <ele>7.9</ele>
        <time>2020-12-22T15:51:39Z</time>
      </trkpt>
      <trkpt lat="37.1919480" lon="-7.4204160">
        <ele>7.9</ele>
        <time>2020-12-22T15:51:40Z</time>
      </trkpt>
      <trkpt lat="37.1919290" lon="-7.4204070">
        <ele>7.9</ele>
        <time>2020-12-22T15:51:41Z</time>
      </trkpt>
      <trkpt lat="37.1919140" lon="-7.4203940">
        <ele>7.9</ele>
        <time>2020-12-22T15:51:42Z</time>
      </trkpt>
      <trkpt lat="37.1918980" lon="-7.4203880">
        <ele>7.8</ele>
        <time>2020-12-22T15:51:43Z</time>
      </trkpt>
      <trkpt lat="37.1918750" lon="-7.4203850">
        <ele>7.8</ele>
        <time>2020-12-22T15:51:44Z</time>
      </trkpt>
      <trkpt lat="37.1918530" lon="-7.4203830">
        <ele>7.8</ele>
        <time>2020-12-22T15:51:45Z</time>
      </trkpt>
      <trkpt lat="37.1918340" lon="-7.4203810">
        <ele>7.8</ele>
        <time>2020-12-22T15:51:46Z</time>
      </trkpt>
      <trkpt lat="37.1918150" lon="-7.4203730">
        <ele>7.8</ele>
        <time>2020-12-22T15:51:47Z</time>
      </trkpt>
      <trkpt lat="37.1917950" lon="-7.4203690">
        <ele>7.8</ele>
        <time>2020-12-22T15:51:48Z</time>
      </trkpt>
      <trkpt lat="37.1917760" lon="-7.4203690">
        <ele>7.7</ele>
        <time>2020-12-22T15:51:49Z</time>
      </trkpt>
      <trkpt lat="37.1917570" lon="-7.4203680">
        <ele>7.7</ele>
        <time>2020-12-22T15:51:50Z</time>
      </trkpt>
      <trkpt lat="37.1917340" lon="-7.4203690">
        <ele>7.7</ele>
        <time>2020-12-22T15:51:51Z</time>
      </trkpt>
      <trkpt lat="37.1917080" lon="-7.4203660">
        <ele>7.7</ele>
        <time>2020-12-22T15:51:52Z</time>
      </trkpt>
      <trkpt lat="37.1916850" lon="-7.4203590">
        <ele>7.7</ele>
        <time>2020-12-22T15:51:53Z</time>
      </trkpt>
      <trkpt lat="37.1916620" lon="-7.4203560">
        <ele>7.7</ele>
        <time>2020-12-22T15:51:54Z</time>
      </trkpt>
      <trkpt lat="37.1916350" lon="-7.4203510">
        <ele>7.7</ele>
        <time>2020-12-22T15:51:55Z</time>
      </trkpt>
      <trkpt lat="37.1916120" lon="-7.4203420">
        <ele>7.7</ele>
        <time>2020-12-22T15:51:56Z</time>
      </trkpt>
      <trkpt lat="37.1915850" lon="-7.4203300">
        <ele>7.6</ele>
        <time>2020-12-22T15:51:57Z</time>
      </trkpt>
      <trkpt lat="37.1915630" lon="-7.4203200">
        <ele>7.6</ele>
        <time>2020-12-22T15:51:58Z</time>
      </trkpt>
      <trkpt lat="37.1915400" lon="-7.4203100">
        <ele>7.6</ele>
        <time>2020-12-22T15:51:59Z</time>
      </trkpt>
      <trkpt lat="37.1915210" lon="-7.4202970">
        <ele>7.6</ele>
        <time>2020-12-22T15:52:00Z</time>
      </trkpt>
      <trkpt lat="37.1915010" lon="-7.4202810">
        <ele>7.6</ele>
        <time>2020-12-22T15:52:01Z</time>
      </trkpt>
      <trkpt lat="37.1914830" lon="-7.4202670">
        <ele>7.6</ele>
        <time>2020-12-22T15:52:02Z</time>
      </trkpt>
      <trkpt lat="37.1914670" lon="-7.4202580">
        <ele>7.6</ele>
        <time>2020-12-22T15:52:03Z</time>
      </trkpt>
      <trkpt lat="37.1914480" lon="-7.4202500">
        <ele>7.6</ele>
        <time>2020-12-22T15:52:04Z</time>
      </trkpt>
      <trkpt lat="37.1914250" lon="-7.4202420">
        <ele>7.5</ele>
        <time>2020-12-22T15:52:05Z</time>
      </trkpt>
      <trkpt lat="37.1914100" lon="-7.4202360">
        <ele>7.5</ele>
        <time>2020-12-22T15:52:06Z</time>
      </trkpt>
      <trkpt lat="37.1913910" lon="-7.4202320">
        <ele>7.5</ele>
        <time>2020-12-22T15:52:07Z</time>
      </trkpt>
      <trkpt lat="37.1913720" lon="-7.4202280">
        <ele>7.5</ele>
        <time>2020-12-22T15:52:08Z</time>
      </trkpt>
      <trkpt lat="37.1913490" lon="-7.4202260">
        <ele>7.5</ele>
        <time>2020-12-22T15:52:09Z</time>
      </trkpt>
      <trkpt lat="37.1913340" lon="-7.4202200">
        <ele>7.5</ele>
        <time>2020-12-22T15:52:10Z</time>
      </trkpt>
      <trkpt lat="37.1913150" lon="-7.4202120">
        <ele>7.5</ele>
        <time>2020-12-22T15:52:11Z</time>
      </trkpt>
      <trkpt lat="37.1912960" lon="-7.4202040">
        <ele>7.5</ele>
        <time>2020-12-22T15:52:12Z</time>
      </trkpt>
      <trkpt lat="37.1912730" lon="-7.4201940">
        <ele>7.5</ele>
        <time>2020-12-22T15:52:13Z</time>
      </trkpt>
      <trkpt lat="37.1912420" lon="-7.4201840">
        <ele>7.5</ele>
        <time>2020-12-22T15:52:14Z</time>
      </trkpt>
      <trkpt lat="37.1912120" lon="-7.4201730">
        <ele>7.5</ele>
        <time>2020-12-22T15:52:15Z</time>
      </trkpt>
      <trkpt lat="37.1911850" lon="-7.4201620">
        <ele>7.5</ele>
        <time>2020-12-22T15:52:16Z</time>
      </trkpt>
      <trkpt lat="37.1911580" lon="-7.4201510">
        <ele>7.5</ele>
        <time>2020-12-22T15:52:17Z</time>
      </trkpt>
      <trkpt lat="37.1911320" lon="-7.4201390">
        <ele>7.5</ele>
        <time>2020-12-22T15:52:18Z</time>
      </trkpt>
      <trkpt lat="37.1911090" lon="-7.4201290">
        <ele>7.5</ele>
        <time>2020-12-22T15:52:19Z</time>
      </trkpt>
      <trkpt lat="37.1910820" lon="-7.4201200">
        <ele>7.5</ele>
        <time>2020-12-22T15:52:20Z</time>
      </trkpt>
      <trkpt lat="37.1910590" lon="-7.4201120">
        <ele>7.5</ele>
        <time>2020-12-22T15:52:21Z</time>
      </trkpt>
      <trkpt lat="37.1910400" lon="-7.4201030">
        <ele>7.5</ele>
        <time>2020-12-22T15:52:22Z</time>
      </trkpt>
      <trkpt lat="37.1910170" lon="-7.4200930">
        <ele>7.5</ele>
        <time>2020-12-22T15:52:23Z</time>
      </trkpt>
      <trkpt lat="37.1909980" lon="-7.4200840">
        <ele>7.5</ele>
        <time>2020-12-22T15:52:24Z</time>
      </trkpt>
      <trkpt lat="37.1909790" lon="-7.4200760">
        <ele>7.5</ele>
        <time>2020-12-22T15:52:25Z</time>
      </trkpt>
      <trkpt lat="37.1909520" lon="-7.4200680">
        <ele>7.5</ele>
        <time>2020-12-22T15:52:26Z</time>
      </trkpt>
      <trkpt lat="37.1909290" lon="-7.4200570">
        <ele>7.5</ele>
        <time>2020-12-22T15:52:27Z</time>
      </trkpt>
      <trkpt lat="37.1909030" lon="-7.4200470">
        <ele>7.5</ele>
        <time>2020-12-22T15:52:28Z</time>
      </trkpt>
      <trkpt lat="37.1908730" lon="-7.4200390">
        <ele>7.5</ele>
        <time>2020-12-22T15:52:29Z</time>
      </trkpt>
      <trkpt lat="37.1908460" lon="-7.4200300">
        <ele>7.5</ele>
        <time>2020-12-22T15:52:30Z</time>
      </trkpt>
      <trkpt lat="37.1908190" lon="-7.4200190">
        <ele>7.5</ele>
        <time>2020-12-22T15:52:31Z</time>
      </trkpt>
      <trkpt lat="37.1907960" lon="-7.4200090">
        <ele>7.5</ele>
        <time>2020-12-22T15:52:32Z</time>
      </trkpt>
      <trkpt lat="37.1907730" lon="-7.4199990">
        <ele>7.5</ele>
        <time>2020-12-22T15:52:33Z</time>
      </trkpt>
      <trkpt lat="37.1907540" lon="-7.4199790">
        <ele>7.5</ele>
        <time>2020-12-22T15:52:34Z</time>
      </trkpt>
      <trkpt lat="37.1907390" lon="-7.4199550">
        <ele>7.5</ele>
        <time>2020-12-22T15:52:35Z</time>
      </trkpt>
      <trkpt lat="37.1907200" lon="-7.4199340">
        <ele>7.5</ele>
        <time>2020-12-22T15:52:36Z</time>
      </trkpt>
      <trkpt lat="37.1906930" lon="-7.4199170">
        <ele>7.5</ele>
        <time>2020-12-22T15:52:37Z</time>
      </trkpt>
      <trkpt lat="37.1906700" lon="-7.4199040">
        <ele>7.5</ele>
        <time>2020-12-22T15:52:38Z</time>
      </trkpt>
      <trkpt lat="37.1906470" lon="-7.4198960">
        <ele>7.5</ele>
        <time>2020-12-22T15:52:39Z</time>
      </trkpt>
      <trkpt lat="37.1906280" lon="-7.4198870">
        <ele>7.5</ele>
        <time>2020-12-22T15:52:40Z</time>
      </trkpt>
      <trkpt lat="37.1906090" lon="-7.4198780">
        <ele>7.6</ele>
        <time>2020-12-22T15:52:41Z</time>
      </trkpt>
      <trkpt lat="37.1905860" lon="-7.4198720">
        <ele>7.6</ele>
        <time>2020-12-22T15:52:42Z</time>
      </trkpt>
      <trkpt lat="37.1905590" lon="-7.4198700">
        <ele>7.6</ele>
        <time>2020-12-22T15:52:43Z</time>
      </trkpt>
      <trkpt lat="37.1905320" lon="-7.4198730">
        <ele>7.6</ele>
        <time>2020-12-22T15:52:44Z</time>
      </trkpt>
      <trkpt lat="37.1905060" lon="-7.4198760">
        <ele>7.6</ele>
        <time>2020-12-22T15:52:45Z</time>
      </trkpt>
      <trkpt lat="37.1904790" lon="-7.4198780">
        <ele>7.6</ele>
        <time>2020-12-22T15:52:46Z</time>
      </trkpt>
      <trkpt lat="37.1904560" lon="-7.4198750">
        <ele>7.6</ele>
        <time>2020-12-22T15:52:47Z</time>
      </trkpt>
      <trkpt lat="37.1904300" lon="-7.4198680">
        <ele>7.6</ele>
        <time>2020-12-22T15:52:48Z</time>
      </trkpt>
      <trkpt lat="37.1904030" lon="-7.4198610">
        <ele>7.6</ele>
        <time>2020-12-22T15:52:49Z</time>
      </trkpt>
      <trkpt lat="37.1903800" lon="-7.4198520">
        <ele>7.6</ele>
        <time>2020-12-22T15:52:50Z</time>
      </trkpt>
      <trkpt lat="37.1903540" lon="-7.4198400">
        <ele>7.6</ele>
        <time>2020-12-22T15:52:51Z</time>
      </trkpt>
      <trkpt lat="37.1903310" lon="-7.4198290">
        <ele>7.6</ele>
        <time>2020-12-22T15:52:52Z</time>
      </trkpt>
      <trkpt lat="37.1903040" lon="-7.4198210">
        <ele>7.6</ele>
        <time>2020-12-22T15:52:53Z</time>
      </trkpt>
      <trkpt lat="37.1902770" lon="-7.4198090">
        <ele>7.6</ele>
        <time>2020-12-22T15:52:54Z</time>
      </trkpt>
      <trkpt lat="37.1902580" lon="-7.4197940">
        <ele>7.6</ele>
        <time>2020-12-22T15:52:55Z</time>
      </trkpt>
      <trkpt lat="37.1902390" lon="-7.4197750">
        <ele>7.6</ele>
        <time>2020-12-22T15:52:56Z</time>
      </trkpt>
      <trkpt lat="37.1902240" lon="-7.4197480">
        <ele>7.6</ele>
        <time>2020-12-22T15:52:57Z</time>
      </trkpt>
      <trkpt lat="37.1902200" lon="-7.4197150">
        <ele>7.6</ele>
        <time>2020-12-22T15:52:58Z</time>
      </trkpt>
      <trkpt lat="37.1902200" lon="-7.4196870">
        <ele>7.6</ele>
        <time>2020-12-22T15:52:59Z</time>
      </trkpt>
      <trkpt lat="37.1902310" lon="-7.4196640">
        <ele>7.6</ele>
        <time>2020-12-22T15:53:00Z</time>
      </trkpt>
      <trkpt lat="37.1902430" lon="-7.4196530">
        <ele>7.6</ele>
        <time>2020-12-22T15:53:01Z</time>
      </trkpt>
      <trkpt lat="37.1902540" lon="-7.4196400">
        <ele>7.6</ele>
        <time>2020-12-22T15:53:02Z</time>
      </trkpt>
      <trkpt lat="37.1902700" lon="-7.4196210">
        <ele>7.6</ele>
        <time>2020-12-22T15:53:03Z</time>
      </trkpt>
      <trkpt lat="37.1902920" lon="-7.4196080">
        <ele>7.6</ele>
        <time>2020-12-22T15:53:04Z</time>
      </trkpt>
      <trkpt lat="37.1903110" lon="-7.4196090">
        <ele>7.6</ele>
        <time>2020-12-22T15:53:05Z</time>
      </trkpt>
      <trkpt lat="37.1903310" lon="-7.4196170">
        <ele>7.6</ele>
        <time>2020-12-22T15:53:06Z</time>
      </trkpt>
      <trkpt lat="37.1903460" lon="-7.4196240">
        <ele>7.6</ele>
        <time>2020-12-22T15:53:07Z</time>
      </trkpt>
      <trkpt lat="37.1903610" lon="-7.4196300">
        <ele>7.6</ele>
        <time>2020-12-22T15:53:08Z</time>
      </trkpt>
      <trkpt lat="37.1903760" lon="-7.4196290">
        <ele>7.6</ele>
        <time>2020-12-22T15:53:09Z</time>
      </trkpt>
      <trkpt lat="37.1903880" lon="-7.4196180">
        <ele>7.6</ele>
        <time>2020-12-22T15:53:10Z</time>
      </trkpt>
      <trkpt lat="37.1904030" lon="-7.4196030">
        <ele>7.6</ele>
        <time>2020-12-22T15:53:11Z</time>
      </trkpt>
      <trkpt lat="37.1904110" lon="-7.4195860">
        <ele>7.6</ele>
        <time>2020-12-22T15:53:12Z</time>
      </trkpt>
      <trkpt lat="37.1904140" lon="-7.4195650">
        <ele>7.6</ele>
        <time>2020-12-22T15:53:13Z</time>
      </trkpt>
      <trkpt lat="37.1904140" lon="-7.4195470">
        <ele>7.6</ele>
        <time>2020-12-22T15:53:14Z</time>
      </trkpt>
      <trkpt lat="37.1904180" lon="-7.4195320">
        <ele>7.6</ele>
        <time>2020-12-22T15:53:15Z</time>
      </trkpt>
      <trkpt lat="37.1904220" lon="-7.4195180">
        <ele>7.6</ele>
        <time>2020-12-22T15:53:16Z</time>
      </trkpt>
      <trkpt lat="37.1904220" lon="-7.4195030">
        <ele>7.6</ele>
        <time>2020-12-22T15:53:17Z</time>
      </trkpt>
      <trkpt lat="37.1904220" lon="-7.4194840">
        <ele>7.6</ele>
        <time>2020-12-22T15:53:18Z</time>
      </trkpt>
      <trkpt lat="37.1904260" lon="-7.4194630">
        <ele>7.6</ele>
        <time>2020-12-22T15:53:19Z</time>
      </trkpt>
      <trkpt lat="37.1904300" lon="-7.4194420">
        <ele>7.6</ele>
        <time>2020-12-22T15:53:20Z</time>
      </trkpt>
      <trkpt lat="37.1904330" lon="-7.4194160">
        <ele>7.6</ele>
        <time>2020-12-22T15:53:21Z</time>
      </trkpt>
      <trkpt lat="37.1904370" lon="-7.4193890">
        <ele>7.6</ele>
        <time>2020-12-22T15:53:22Z</time>
      </trkpt>
      <trkpt lat="37.1904410" lon="-7.4193630">
        <ele>7.6</ele>
        <time>2020-12-22T15:53:23Z</time>
      </trkpt>
      <trkpt lat="37.1904450" lon="-7.4193390">
        <ele>7.6</ele>
        <time>2020-12-22T15:53:24Z</time>
      </trkpt>
      <trkpt lat="37.1904490" lon="-7.4193150">
        <ele>7.6</ele>
        <time>2020-12-22T15:53:25Z</time>
      </trkpt>
      <trkpt lat="37.1904560" lon="-7.4192860">
        <ele>7.6</ele>
        <time>2020-12-22T15:53:26Z</time>
      </trkpt>
      <trkpt lat="37.1904640" lon="-7.4192520">
        <ele>7.6</ele>
        <time>2020-12-22T15:53:27Z</time>
      </trkpt>
      <trkpt lat="37.1904760" lon="-7.4192170">
        <ele>7.6</ele>
        <time>2020-12-22T15:53:28Z</time>
      </trkpt>
      <trkpt lat="37.1904830" lon="-7.4191860">
        <ele>7.5</ele>
        <time>2020-12-22T15:53:29Z</time>
      </trkpt>
      <trkpt lat="37.1904940" lon="-7.4191550">
        <ele>7.5</ele>
        <time>2020-12-22T15:53:30Z</time>
      </trkpt>
      <trkpt lat="37.1905020" lon="-7.4191190">
        <ele>7.5</ele>
        <time>2020-12-22T15:53:31Z</time>
      </trkpt>
      <trkpt lat="37.1905060" lon="-7.4190820">
        <ele>7.5</ele>
        <time>2020-12-22T15:53:32Z</time>
      </trkpt>
      <trkpt lat="37.1905140" lon="-7.4190480">
        <ele>7.5</ele>
        <time>2020-12-22T15:53:33Z</time>
      </trkpt>
      <trkpt lat="37.1905210" lon="-7.4190170">
        <ele>7.5</ele>
        <time>2020-12-22T15:53:34Z</time>
      </trkpt>
      <trkpt lat="37.1905290" lon="-7.4189830">
        <ele>7.5</ele>
        <time>2020-12-22T15:53:35Z</time>
      </trkpt>
      <trkpt lat="37.1905330" lon="-7.4189510">
        <ele>7.5</ele>
        <time>2020-12-22T15:53:36Z</time>
      </trkpt>
      <trkpt lat="37.1905370" lon="-7.4189190">
        <ele>7.5</ele>
        <time>2020-12-22T15:53:37Z</time>
      </trkpt>
      <trkpt lat="37.1905400" lon="-7.4188900">
        <ele>7.5</ele>
        <time>2020-12-22T15:53:38Z</time>
      </trkpt>
      <trkpt lat="37.1905480" lon="-7.4188620">
        <ele>7.5</ele>
        <time>2020-12-22T15:53:39Z</time>
      </trkpt>
      <trkpt lat="37.1905560" lon="-7.4188380">
        <ele>7.5</ele>
        <time>2020-12-22T15:53:40Z</time>
      </trkpt>
      <trkpt lat="37.1905630" lon="-7.4188170">
        <ele>7.5</ele>
        <time>2020-12-22T15:53:41Z</time>
      </trkpt>
      <trkpt lat="37.1905630" lon="-7.4187930">
        <ele>7.4</ele>
        <time>2020-12-22T15:53:42Z</time>
      </trkpt>
      <trkpt lat="37.1905630" lon="-7.4187670">
        <ele>7.4</ele>
        <time>2020-12-22T15:53:43Z</time>
      </trkpt>
      <trkpt lat="37.1905710" lon="-7.4187410">
        <ele>7.4</ele>
        <time>2020-12-22T15:53:44Z</time>
      </trkpt>
      <trkpt lat="37.1905750" lon="-7.4187140">
        <ele>7.4</ele>
        <time>2020-12-22T15:53:45Z</time>
      </trkpt>
      <trkpt lat="37.1905820" lon="-7.4186880">
        <ele>7.4</ele>
        <time>2020-12-22T15:53:46Z</time>
      </trkpt>
      <trkpt lat="37.1905860" lon="-7.4186580">
        <ele>7.4</ele>
        <time>2020-12-22T15:53:47Z</time>
      </trkpt>
      <trkpt lat="37.1905940" lon="-7.4186240">
        <ele>7.4</ele>
        <time>2020-12-22T15:53:48Z</time>
      </trkpt>
      <trkpt lat="37.1906010" lon="-7.4185870">
        <ele>7.4</ele>
        <time>2020-12-22T15:53:49Z</time>
      </trkpt>
      <trkpt lat="37.1906090" lon="-7.4185500">
        <ele>7.4</ele>
        <time>2020-12-22T15:53:50Z</time>
      </trkpt>
      <trkpt lat="37.1906170" lon="-7.4185140">
        <ele>7.4</ele>
        <time>2020-12-22T15:53:51Z</time>
      </trkpt>
      <trkpt lat="37.1906240" lon="-7.4184800">
        <ele>7.4</ele>
        <time>2020-12-22T15:53:52Z</time>
      </trkpt>
      <trkpt lat="37.1906360" lon="-7.4184480">
        <ele>7.4</ele>
        <time>2020-12-22T15:53:53Z</time>
      </trkpt>
      <trkpt lat="37.1906430" lon="-7.4184160">
        <ele>7.4</ele>
        <time>2020-12-22T15:53:54Z</time>
      </trkpt>
      <trkpt lat="37.1906470" lon="-7.4183850">
        <ele>7.4</ele>
        <time>2020-12-22T15:53:55Z</time>
      </trkpt>
      <trkpt lat="37.1906550" lon="-7.4183590">
        <ele>7.4</ele>
        <time>2020-12-22T15:53:56Z</time>
      </trkpt>
      <trkpt lat="37.1906590" lon="-7.4183340">
        <ele>7.4</ele>
        <time>2020-12-22T15:53:57Z</time>
      </trkpt>
      <trkpt lat="37.1906660" lon="-7.4183080">
        <ele>7.4</ele>
        <time>2020-12-22T15:53:58Z</time>
      </trkpt>
      <trkpt lat="37.1906700" lon="-7.4182850">
        <ele>7.4</ele>
        <time>2020-12-22T15:53:59Z</time>
      </trkpt>
      <trkpt lat="37.1906700" lon="-7.4182630">
        <ele>7.4</ele>
        <time>2020-12-22T15:54:00Z</time>
      </trkpt>
      <trkpt lat="37.1906780" lon="-7.4182430">
        <ele>7.4</ele>
        <time>2020-12-22T15:54:01Z</time>
      </trkpt>
      <trkpt lat="37.1906810" lon="-7.4182200">
        <ele>7.4</ele>
        <time>2020-12-22T15:54:02Z</time>
      </trkpt>
      <trkpt lat="37.1906850" lon="-7.4181930">
        <ele>7.4</ele>
        <time>2020-12-22T15:54:03Z</time>
      </trkpt>
      <trkpt lat="37.1906970" lon="-7.4181670">
        <ele>7.4</ele>
        <time>2020-12-22T15:54:04Z</time>
      </trkpt>
      <trkpt lat="37.1907040" lon="-7.4181350">
        <ele>7.4</ele>
        <time>2020-12-22T15:54:05Z</time>
      </trkpt>
      <trkpt lat="37.1907120" lon="-7.4181020">
        <ele>7.4</ele>
        <time>2020-12-22T15:54:06Z</time>
      </trkpt>
      <trkpt lat="37.1907200" lon="-7.4180730">
        <ele>7.4</ele>
        <time>2020-12-22T15:54:07Z</time>
      </trkpt>
      <trkpt lat="37.1907270" lon="-7.4180440">
        <ele>7.4</ele>
        <time>2020-12-22T15:54:08Z</time>
      </trkpt>
      <trkpt lat="37.1907390" lon="-7.4180160">
        <ele>7.4</ele>
        <time>2020-12-22T15:54:09Z</time>
      </trkpt>
      <trkpt lat="37.1907500" lon="-7.4179910">
        <ele>7.4</ele>
        <time>2020-12-22T15:54:10Z</time>
      </trkpt>
      <trkpt lat="37.1907620" lon="-7.4179690">
        <ele>7.4</ele>
        <time>2020-12-22T15:54:11Z</time>
      </trkpt>
      <trkpt lat="37.1907690" lon="-7.4179420">
        <ele>7.4</ele>
        <time>2020-12-22T15:54:12Z</time>
      </trkpt>
      <trkpt lat="37.1907620" lon="-7.4179160">
        <ele>7.4</ele>
        <time>2020-12-22T15:54:13Z</time>
      </trkpt>
      <trkpt lat="37.1907460" lon="-7.4178930">
        <ele>7.5</ele>
        <time>2020-12-22T15:54:14Z</time>
      </trkpt>
      <trkpt lat="37.1907310" lon="-7.4178740">
        <ele>7.5</ele>
        <time>2020-12-22T15:54:15Z</time>
      </trkpt>
      <trkpt lat="37.1907200" lon="-7.4178570">
        <ele>7.5</ele>
        <time>2020-12-22T15:54:16Z</time>
      </trkpt>
      <trkpt lat="37.1907080" lon="-7.4178380">
        <ele>7.5</ele>
        <time>2020-12-22T15:54:17Z</time>
      </trkpt>
      <trkpt lat="37.1906970" lon="-7.4178160">
        <ele>7.5</ele>
        <time>2020-12-22T15:54:18Z</time>
      </trkpt>
      <trkpt lat="37.1906810" lon="-7.4177930">
        <ele>7.6</ele>
        <time>2020-12-22T15:54:19Z</time>
      </trkpt>
      <trkpt lat="37.1906660" lon="-7.4177700">
        <ele>7.6</ele>
        <time>2020-12-22T15:54:20Z</time>
      </trkpt>
      <trkpt lat="37.1906470" lon="-7.4177450">
        <ele>7.6</ele>
        <time>2020-12-22T15:54:21Z</time>
      </trkpt>
      <trkpt lat="37.1906280" lon="-7.4177200">
        <ele>7.6</ele>
        <time>2020-12-22T15:54:22Z</time>
      </trkpt>
      <trkpt lat="37.1906050" lon="-7.4176960">
        <ele>7.6</ele>
        <time>2020-12-22T15:54:23Z</time>
      </trkpt>
      <trkpt lat="37.1905860" lon="-7.4176730">
        <ele>7.6</ele>
        <time>2020-12-22T15:54:24Z</time>
      </trkpt>
      <trkpt lat="37.1905710" lon="-7.4176520">
        <ele>7.5</ele>
        <time>2020-12-22T15:54:25Z</time>
      </trkpt>
      <trkpt lat="37.1905550" lon="-7.4176330">
        <ele>7.5</ele>
        <time>2020-12-22T15:54:26Z</time>
      </trkpt>
      <trkpt lat="37.1905400" lon="-7.4176130">
        <ele>7.5</ele>
        <time>2020-12-22T15:54:27Z</time>
      </trkpt>
      <trkpt lat="37.1905250" lon="-7.4175910">
        <ele>7.5</ele>
        <time>2020-12-22T15:54:28Z</time>
      </trkpt>
      <trkpt lat="37.1905100" lon="-7.4175700">
        <ele>7.5</ele>
        <time>2020-12-22T15:54:29Z</time>
      </trkpt>
      <trkpt lat="37.1904910" lon="-7.4175500">
        <ele>7.5</ele>
        <time>2020-12-22T15:54:30Z</time>
      </trkpt>
      <trkpt lat="37.1904720" lon="-7.4175330">
        <ele>7.5</ele>
        <time>2020-12-22T15:54:31Z</time>
      </trkpt>
      <trkpt lat="37.1904530" lon="-7.4175210">
        <ele>7.5</ele>
        <time>2020-12-22T15:54:32Z</time>
      </trkpt>
      <trkpt lat="37.1904300" lon="-7.4175070">
        <ele>7.5</ele>
        <time>2020-12-22T15:54:33Z</time>
      </trkpt>
      <trkpt lat="37.1904030" lon="-7.4174930">
        <ele>7.5</ele>
        <time>2020-12-22T15:54:34Z</time>
      </trkpt>
      <trkpt lat="37.1903730" lon="-7.4174800">
        <ele>7.5</ele>
        <time>2020-12-22T15:54:35Z</time>
      </trkpt>
      <trkpt lat="37.1903460" lon="-7.4174670">
        <ele>7.4</ele>
        <time>2020-12-22T15:54:36Z</time>
      </trkpt>
      <trkpt lat="37.1903190" lon="-7.4174510">
        <ele>7.4</ele>
        <time>2020-12-22T15:54:37Z</time>
      </trkpt>
      <trkpt lat="37.1902960" lon="-7.4174320">
        <ele>7.4</ele>
        <time>2020-12-22T15:54:38Z</time>
      </trkpt>
      <trkpt lat="37.1902770" lon="-7.4174130">
        <ele>7.4</ele>
        <time>2020-12-22T15:54:39Z</time>
      </trkpt>
      <trkpt lat="37.1902550" lon="-7.4174000">
        <ele>7.4</ele>
        <time>2020-12-22T15:54:40Z</time>
      </trkpt>
      <trkpt lat="37.1902280" lon="-7.4173910">
        <ele>7.4</ele>
        <time>2020-12-22T15:54:41Z</time>
      </trkpt>
      <trkpt lat="37.1901970" lon="-7.4173810">
        <ele>7.4</ele>
        <time>2020-12-22T15:54:42Z</time>
      </trkpt>
      <trkpt lat="37.1901700" lon="-7.4173690">
        <ele>7.4</ele>
        <time>2020-12-22T15:54:43Z</time>
      </trkpt>
      <trkpt lat="37.1901400" lon="-7.4173590">
        <ele>7.4</ele>
        <time>2020-12-22T15:54:44Z</time>
      </trkpt>
      <trkpt lat="37.1901130" lon="-7.4173470">
        <ele>7.4</ele>
        <time>2020-12-22T15:54:45Z</time>
      </trkpt>
      <trkpt lat="37.1900900" lon="-7.4173350">
        <ele>7.4</ele>
        <time>2020-12-22T15:54:46Z</time>
      </trkpt>
      <trkpt lat="37.1900680" lon="-7.4173240">
        <ele>7.4</ele>
        <time>2020-12-22T15:54:47Z</time>
      </trkpt>
      <trkpt lat="37.1900450" lon="-7.4173140">
        <ele>7.4</ele>
        <time>2020-12-22T15:54:48Z</time>
      </trkpt>
      <trkpt lat="37.1900220" lon="-7.4173060">
        <ele>7.4</ele>
        <time>2020-12-22T15:54:49Z</time>
      </trkpt>
      <trkpt lat="37.1900030" lon="-7.4172990">
        <ele>7.4</ele>
        <time>2020-12-22T15:54:50Z</time>
      </trkpt>
      <trkpt lat="37.1899800" lon="-7.4172930">
        <ele>7.4</ele>
        <time>2020-12-22T15:54:51Z</time>
      </trkpt>
      <trkpt lat="37.1899600" lon="-7.4172810">
        <ele>7.4</ele>
        <time>2020-12-22T15:54:52Z</time>
      </trkpt>
      <trkpt lat="37.1899380" lon="-7.4172710">
        <ele>7.4</ele>
        <time>2020-12-22T15:54:53Z</time>
      </trkpt>
      <trkpt lat="37.1899110" lon="-7.4172670">
        <ele>7.5</ele>
        <time>2020-12-22T15:54:54Z</time>
      </trkpt>
      <trkpt lat="37.1898770" lon="-7.4172600">
        <ele>7.5</ele>
        <time>2020-12-22T15:54:55Z</time>
      </trkpt>
      <trkpt lat="37.1898430" lon="-7.4172510">
        <ele>7.5</ele>
        <time>2020-12-22T15:54:56Z</time>
      </trkpt>
      <trkpt lat="37.1898120" lon="-7.4172400">
        <ele>7.5</ele>
        <time>2020-12-22T15:54:57Z</time>
      </trkpt>
      <trkpt lat="37.1897740" lon="-7.4172290">
        <ele>7.5</ele>
        <time>2020-12-22T15:54:58Z</time>
      </trkpt>
      <trkpt lat="37.1897390" lon="-7.4172280">
        <ele>7.5</ele>
        <time>2020-12-22T15:54:59Z</time>
      </trkpt>
      <trkpt lat="37.1897020" lon="-7.4172330">
        <ele>7.5</ele>
        <time>2020-12-22T15:55:00Z</time>
      </trkpt>
      <trkpt lat="37.1896670" lon="-7.4172310">
        <ele>7.5</ele>
        <time>2020-12-22T15:55:01Z</time>
      </trkpt>
      <trkpt lat="37.1896330" lon="-7.4172230">
        <ele>7.5</ele>
        <time>2020-12-22T15:55:02Z</time>
      </trkpt>
      <trkpt lat="37.1896020" lon="-7.4172100">
        <ele>7.5</ele>
        <time>2020-12-22T15:55:03Z</time>
      </trkpt>
      <trkpt lat="37.1895750" lon="-7.4171940">
        <ele>7.5</ele>
        <time>2020-12-22T15:55:04Z</time>
      </trkpt>
      <trkpt lat="37.1895490" lon="-7.4171820">
        <ele>7.5</ele>
        <time>2020-12-22T15:55:05Z</time>
      </trkpt>
      <trkpt lat="37.1895180" lon="-7.4171780">
        <ele>7.5</ele>
        <time>2020-12-22T15:55:06Z</time>
      </trkpt>
      <trkpt lat="37.1894920" lon="-7.4171790">
        <ele>7.5</ele>
        <time>2020-12-22T15:55:07Z</time>
      </trkpt>
      <trkpt lat="37.1894690" lon="-7.4171760">
        <ele>7.5</ele>
        <time>2020-12-22T15:55:08Z</time>
      </trkpt>
      <trkpt lat="37.1894420" lon="-7.4171730">
        <ele>7.5</ele>
        <time>2020-12-22T15:55:09Z</time>
      </trkpt>
      <trkpt lat="37.1894110" lon="-7.4171690">
        <ele>7.5</ele>
        <time>2020-12-22T15:55:10Z</time>
      </trkpt>
      <trkpt lat="37.1893770" lon="-7.4171610">
        <ele>7.5</ele>
        <time>2020-12-22T15:55:11Z</time>
      </trkpt>
      <trkpt lat="37.1893430" lon="-7.4171490">
        <ele>7.5</ele>
        <time>2020-12-22T15:55:12Z</time>
      </trkpt>
      <trkpt lat="37.1893090" lon="-7.4171380">
        <ele>7.5</ele>
        <time>2020-12-22T15:55:13Z</time>
      </trkpt>
      <trkpt lat="37.1892740" lon="-7.4171270">
        <ele>7.5</ele>
        <time>2020-12-22T15:55:14Z</time>
      </trkpt>
      <trkpt lat="37.1892430" lon="-7.4171140">
        <ele>7.5</ele>
        <time>2020-12-22T15:55:15Z</time>
      </trkpt>
      <trkpt lat="37.1892130" lon="-7.4171030">
        <ele>7.5</ele>
        <time>2020-12-22T15:55:16Z</time>
      </trkpt>
      <trkpt lat="37.1891830" lon="-7.4170940">
        <ele>7.5</ele>
        <time>2020-12-22T15:55:17Z</time>
      </trkpt>
      <trkpt lat="37.1891520" lon="-7.4170870">
        <ele>7.5</ele>
        <time>2020-12-22T15:55:18Z</time>
      </trkpt>
      <trkpt lat="37.1891260" lon="-7.4170780">
        <ele>7.5</ele>
        <time>2020-12-22T15:55:19Z</time>
      </trkpt>
      <trkpt lat="37.1890950" lon="-7.4170660">
        <ele>7.5</ele>
        <time>2020-12-22T15:55:20Z</time>
      </trkpt>
      <trkpt lat="37.1890720" lon="-7.4170560">
        <ele>7.5</ele>
        <time>2020-12-22T15:55:21Z</time>
      </trkpt>
      <trkpt lat="37.1890450" lon="-7.4170450">
        <ele>7.5</ele>
        <time>2020-12-22T15:55:22Z</time>
      </trkpt>
      <trkpt lat="37.1890180" lon="-7.4170370">
        <ele>7.5</ele>
        <time>2020-12-22T15:55:23Z</time>
      </trkpt>
      <trkpt lat="37.1889880" lon="-7.4170250">
        <ele>7.6</ele>
        <time>2020-12-22T15:55:24Z</time>
      </trkpt>
      <trkpt lat="37.1889570" lon="-7.4170050">
        <ele>7.6</ele>
        <time>2020-12-22T15:55:25Z</time>
      </trkpt>
      <trkpt lat="37.1889270" lon="-7.4169890">
        <ele>7.6</ele>
        <time>2020-12-22T15:55:26Z</time>
      </trkpt>
      <trkpt lat="37.1888960" lon="-7.4169950">
        <ele>7.6</ele>
        <time>2020-12-22T15:55:27Z</time>
      </trkpt>
      <trkpt lat="37.1888700" lon="-7.4170080">
        <ele>7.6</ele>
        <time>2020-12-22T15:55:28Z</time>
      </trkpt>
      <trkpt lat="37.1888430" lon="-7.4170100">
        <ele>7.6</ele>
        <time>2020-12-22T15:55:29Z</time>
      </trkpt>
      <trkpt lat="37.1888120" lon="-7.4170070">
        <ele>7.6</ele>
        <time>2020-12-22T15:55:30Z</time>
      </trkpt>
      <trkpt lat="37.1887820" lon="-7.4170020">
        <ele>7.6</ele>
        <time>2020-12-22T15:55:31Z</time>
      </trkpt>
      <trkpt lat="37.1887560" lon="-7.4169970">
        <ele>7.6</ele>
        <time>2020-12-22T15:55:32Z</time>
      </trkpt>
      <trkpt lat="37.1887280" lon="-7.4169910">
        <ele>7.6</ele>
        <time>2020-12-22T15:55:33Z</time>
      </trkpt>
      <trkpt lat="37.1887060" lon="-7.4169840">
        <ele>7.6</ele>
        <time>2020-12-22T15:55:34Z</time>
      </trkpt>
      <trkpt lat="37.1886830" lon="-7.4169780">
        <ele>7.6</ele>
        <time>2020-12-22T15:55:35Z</time>
      </trkpt>
      <trkpt lat="37.1886600" lon="-7.4169760">
        <ele>7.6</ele>
        <time>2020-12-22T15:55:36Z</time>
      </trkpt>
      <trkpt lat="37.1886410" lon="-7.4169740">
        <ele>7.6</ele>
        <time>2020-12-22T15:55:37Z</time>
      </trkpt>
      <trkpt lat="37.1886220" lon="-7.4169700">
        <ele>7.6</ele>
        <time>2020-12-22T15:55:38Z</time>
      </trkpt>
      <trkpt lat="37.1885990" lon="-7.4169670">
        <ele>7.6</ele>
        <time>2020-12-22T15:55:39Z</time>
      </trkpt>
      <trkpt lat="37.1885720" lon="-7.4169630">
        <ele>7.6</ele>
        <time>2020-12-22T15:55:40Z</time>
      </trkpt>
      <trkpt lat="37.1885450" lon="-7.4169560">
        <ele>7.6</ele>
        <time>2020-12-22T15:55:41Z</time>
      </trkpt>
      <trkpt lat="37.1885190" lon="-7.4169470">
        <ele>7.6</ele>
        <time>2020-12-22T15:55:42Z</time>
      </trkpt>
      <trkpt lat="37.1884960" lon="-7.4169280">
        <ele>7.6</ele>
        <time>2020-12-22T15:55:43Z</time>
      </trkpt>
      <trkpt lat="37.1884770" lon="-7.4169020">
        <ele>7.6</ele>
        <time>2020-12-22T15:55:44Z</time>
      </trkpt>
      <trkpt lat="37.1884580" lon="-7.4168860">
        <ele>7.6</ele>
        <time>2020-12-22T15:55:45Z</time>
      </trkpt>
      <trkpt lat="37.1884310" lon="-7.4168790">
        <ele>7.6</ele>
        <time>2020-12-22T15:55:46Z</time>
      </trkpt>
      <trkpt lat="37.1884080" lon="-7.4168730">
        <ele>7.6</ele>
        <time>2020-12-22T15:55:47Z</time>
      </trkpt>
      <trkpt lat="37.1883850" lon="-7.4168640">
        <ele>7.6</ele>
        <time>2020-12-22T15:55:48Z</time>
      </trkpt>
      <trkpt lat="37.1883550" lon="-7.4168550">
        <ele>7.6</ele>
        <time>2020-12-22T15:55:49Z</time>
      </trkpt>
      <trkpt lat="37.1883280" lon="-7.4168480">
        <ele>7.6</ele>
        <time>2020-12-22T15:55:50Z</time>
      </trkpt>
      <trkpt lat="37.1883010" lon="-7.4168420">
        <ele>7.6</ele>
        <time>2020-12-22T15:55:51Z</time>
      </trkpt>
      <trkpt lat="37.1882710" lon="-7.4168340">
        <ele>7.7</ele>
        <time>2020-12-22T15:55:52Z</time>
      </trkpt>
      <trkpt lat="37.1882440" lon="-7.4168260">
        <ele>7.7</ele>
        <time>2020-12-22T15:55:53Z</time>
      </trkpt>
      <trkpt lat="37.1882210" lon="-7.4168180">
        <ele>7.7</ele>
        <time>2020-12-22T15:55:54Z</time>
      </trkpt>
      <trkpt lat="37.1881980" lon="-7.4168110">
        <ele>7.7</ele>
        <time>2020-12-22T15:55:55Z</time>
      </trkpt>
      <trkpt lat="37.1881680" lon="-7.4168010">
        <ele>7.7</ele>
        <time>2020-12-22T15:55:56Z</time>
      </trkpt>
      <trkpt lat="37.1881370" lon="-7.4167900">
        <ele>7.7</ele>
        <time>2020-12-22T15:55:57Z</time>
      </trkpt>
      <trkpt lat="37.1881030" lon="-7.4167790">
        <ele>7.8</ele>
        <time>2020-12-22T15:55:58Z</time>
      </trkpt>
      <trkpt lat="37.1880690" lon="-7.4167710">
        <ele>7.8</ele>
        <time>2020-12-22T15:55:59Z</time>
      </trkpt>
      <trkpt lat="37.1880340" lon="-7.4167610">
        <ele>7.8</ele>
        <time>2020-12-22T15:56:00Z</time>
      </trkpt>
      <trkpt lat="37.1880070" lon="-7.4167530">
        <ele>7.9</ele>
        <time>2020-12-22T15:56:01Z</time>
      </trkpt>
      <trkpt lat="37.1879810" lon="-7.4167460">
        <ele>7.9</ele>
        <time>2020-12-22T15:56:02Z</time>
      </trkpt>
      <trkpt lat="37.1879580" lon="-7.4167390">
        <ele>7.9</ele>
        <time>2020-12-22T15:56:03Z</time>
      </trkpt>
      <trkpt lat="37.1879350" lon="-7.4167300">
        <ele>8.0</ele>
        <time>2020-12-22T15:56:04Z</time>
      </trkpt>
      <trkpt lat="37.1879120" lon="-7.4167190">
        <ele>8.0</ele>
        <time>2020-12-22T15:56:05Z</time>
      </trkpt>
      <trkpt lat="37.1878850" lon="-7.4167090">
        <ele>8.0</ele>
        <time>2020-12-22T15:56:06Z</time>
      </trkpt>
      <trkpt lat="37.1878550" lon="-7.4167010">
        <ele>8.1</ele>
        <time>2020-12-22T15:56:07Z</time>
      </trkpt>
      <trkpt lat="37.1878240" lon="-7.4166940">
        <ele>8.1</ele>
        <time>2020-12-22T15:56:08Z</time>
      </trkpt>
      <trkpt lat="37.1877940" lon="-7.4166870">
        <ele>8.1</ele>
        <time>2020-12-22T15:56:09Z</time>
      </trkpt>
      <trkpt lat="37.1877670" lon="-7.4166750">
        <ele>8.2</ele>
        <time>2020-12-22T15:56:10Z</time>
      </trkpt>
      <trkpt lat="37.1877480" lon="-7.4166600">
        <ele>8.2</ele>
        <time>2020-12-22T15:56:11Z</time>
      </trkpt>
      <trkpt lat="37.1877250" lon="-7.4166500">
        <ele>8.2</ele>
        <time>2020-12-22T15:56:12Z</time>
      </trkpt>
      <trkpt lat="37.1877060" lon="-7.4166440">
        <ele>8.2</ele>
        <time>2020-12-22T15:56:13Z</time>
      </trkpt>
      <trkpt lat="37.1876870" lon="-7.4166420">
        <ele>8.3</ele>
        <time>2020-12-22T15:56:14Z</time>
      </trkpt>
      <trkpt lat="37.1876680" lon="-7.4166460">
        <ele>8.3</ele>
        <time>2020-12-22T15:56:15Z</time>
      </trkpt>
      <trkpt lat="37.1876560" lon="-7.4166470">
        <ele>8.3</ele>
        <time>2020-12-22T15:56:16Z</time>
      </trkpt>
      <trkpt lat="37.1876410" lon="-7.4166400">
        <ele>8.3</ele>
        <time>2020-12-22T15:56:17Z</time>
      </trkpt>
      <trkpt lat="37.1876220" lon="-7.4166310">
        <ele>8.4</ele>
        <time>2020-12-22T15:56:18Z</time>
      </trkpt>
      <trkpt lat="37.1875990" lon="-7.4166250">
        <ele>8.4</ele>
        <time>2020-12-22T15:56:19Z</time>
      </trkpt>
      <trkpt lat="37.1875760" lon="-7.4166240">
        <ele>8.4</ele>
        <time>2020-12-22T15:56:20Z</time>
      </trkpt>
      <trkpt lat="37.1875570" lon="-7.4166280">
        <ele>8.5</ele>
        <time>2020-12-22T15:56:21Z</time>
      </trkpt>
      <trkpt lat="37.1875420" lon="-7.4166310">
        <ele>8.5</ele>
        <time>2020-12-22T15:56:22Z</time>
      </trkpt>
      <trkpt lat="37.1875230" lon="-7.4166350">
        <ele>8.5</ele>
        <time>2020-12-22T15:56:23Z</time>
      </trkpt>
      <trkpt lat="37.1875000" lon="-7.4166410">
        <ele>8.5</ele>
        <time>2020-12-22T15:56:24Z</time>
      </trkpt>
      <trkpt lat="37.1874770" lon="-7.4166460">
        <ele>8.5</ele>
        <time>2020-12-22T15:56:25Z</time>
      </trkpt>
      <trkpt lat="37.1874540" lon="-7.4166530">
        <ele>8.6</ele>
        <time>2020-12-22T15:56:26Z</time>
      </trkpt>
      <trkpt lat="37.1874310" lon="-7.4166620">
        <ele>8.6</ele>
        <time>2020-12-22T15:56:27Z</time>
      </trkpt>
      <trkpt lat="37.1874040" lon="-7.4166700">
        <ele>8.6</ele>
        <time>2020-12-22T15:56:28Z</time>
      </trkpt>
      <trkpt lat="37.1873820" lon="-7.4166810">
        <ele>8.6</ele>
        <time>2020-12-22T15:56:29Z</time>
      </trkpt>
      <trkpt lat="37.1873550" lon="-7.4166960">
        <ele>8.6</ele>
        <time>2020-12-22T15:56:30Z</time>
      </trkpt>
      <trkpt lat="37.1873320" lon="-7.4167170">
        <ele>8.6</ele>
        <time>2020-12-22T15:56:31Z</time>
      </trkpt>
      <trkpt lat="37.1873170" lon="-7.4167380">
        <ele>8.6</ele>
        <time>2020-12-22T15:56:32Z</time>
      </trkpt>
      <trkpt lat="37.1873020" lon="-7.4167590">
        <ele>8.6</ele>
        <time>2020-12-22T15:56:33Z</time>
      </trkpt>
      <trkpt lat="37.1872940" lon="-7.4167800">
        <ele>8.6</ele>
        <time>2020-12-22T15:56:34Z</time>
      </trkpt>
      <trkpt lat="37.1872860" lon="-7.4167990">
        <ele>8.6</ele>
        <time>2020-12-22T15:56:35Z</time>
      </trkpt>
      <trkpt lat="37.1872750" lon="-7.4168160">
        <ele>8.6</ele>
        <time>2020-12-22T15:56:36Z</time>
      </trkpt>
      <trkpt lat="37.1872670" lon="-7.4168320">
        <ele>8.6</ele>
        <time>2020-12-22T15:56:37Z</time>
      </trkpt>
      <trkpt lat="37.1872600" lon="-7.4168480">
        <ele>8.6</ele>
        <time>2020-12-22T15:56:38Z</time>
      </trkpt>
      <trkpt lat="37.1872480" lon="-7.4168660">
        <ele>8.6</ele>
        <time>2020-12-22T15:56:39Z</time>
      </trkpt>
      <trkpt lat="37.1872440" lon="-7.4168860">
        <ele>8.6</ele>
        <time>2020-12-22T15:56:40Z</time>
      </trkpt>
      <trkpt lat="37.1872410" lon="-7.4169020">
        <ele>8.6</ele>
        <time>2020-12-22T15:56:41Z</time>
      </trkpt>
      <trkpt lat="37.1872370" lon="-7.4169090">
        <ele>8.6</ele>
        <time>2020-12-22T15:56:42Z</time>
      </trkpt>
      <trkpt lat="37.1872370" lon="-7.4169020">
        <ele>8.6</ele>
        <time>2020-12-22T15:56:43Z</time>
      </trkpt>
      <trkpt lat="37.1872410" lon="-7.4168970">
        <ele>8.6</ele>
        <time>2020-12-22T15:56:44Z</time>
      </trkpt>
      <trkpt lat="37.1872440" lon="-7.4168930">
        <ele>8.6</ele>
        <time>2020-12-22T15:56:45Z</time>
      </trkpt>
      <trkpt lat="37.1872440" lon="-7.4168920">
        <ele>8.6</ele>
        <time>2020-12-22T15:56:46Z</time>
      </trkpt>
      <trkpt lat="37.1872440" lon="-7.4169060">
        <ele>8.6</ele>
        <time>2020-12-22T15:56:51Z</time>
      </trkpt>
      <trkpt lat="37.1872370" lon="-7.4169200">
        <ele>8.6</ele>
        <time>2020-12-22T15:56:52Z</time>
      </trkpt>
      <trkpt lat="37.1872250" lon="-7.4169420">
        <ele>8.6</ele>
        <time>2020-12-22T15:56:53Z</time>
      </trkpt>
      <trkpt lat="37.1872140" lon="-7.4169720">
        <ele>8.6</ele>
        <time>2020-12-22T15:56:54Z</time>
      </trkpt>
      <trkpt lat="37.1872020" lon="-7.4170060">
        <ele>8.6</ele>
        <time>2020-12-22T15:56:55Z</time>
      </trkpt>
      <trkpt lat="37.1871910" lon="-7.4170430">
        <ele>8.6</ele>
        <time>2020-12-22T15:56:56Z</time>
      </trkpt>
      <trkpt lat="37.1871800" lon="-7.4170820">
        <ele>8.6</ele>
        <time>2020-12-22T15:56:57Z</time>
      </trkpt>
      <trkpt lat="37.1871680" lon="-7.4171210">
        <ele>8.6</ele>
        <time>2020-12-22T15:56:58Z</time>
      </trkpt>
      <trkpt lat="37.1871530" lon="-7.4171570">
        <ele>8.6</ele>
        <time>2020-12-22T15:56:59Z</time>
      </trkpt>
      <trkpt lat="37.1871410" lon="-7.4171930">
        <ele>8.6</ele>
        <time>2020-12-22T15:57:00Z</time>
      </trkpt>
      <trkpt lat="37.1871260" lon="-7.4172310">
        <ele>8.6</ele>
        <time>2020-12-22T15:57:01Z</time>
      </trkpt>
      <trkpt lat="37.1871150" lon="-7.4172670">
        <ele>8.6</ele>
        <time>2020-12-22T15:57:02Z</time>
      </trkpt>
      <trkpt lat="37.1871030" lon="-7.4173050">
        <ele>8.6</ele>
        <time>2020-12-22T15:57:03Z</time>
      </trkpt>
      <trkpt lat="37.1870880" lon="-7.4173440">
        <ele>8.6</ele>
        <time>2020-12-22T15:57:04Z</time>
      </trkpt>
      <trkpt lat="37.1870770" lon="-7.4173820">
        <ele>8.5</ele>
        <time>2020-12-22T15:57:05Z</time>
      </trkpt>
      <trkpt lat="37.1870690" lon="-7.4174200">
        <ele>8.5</ele>
        <time>2020-12-22T15:57:06Z</time>
      </trkpt>
      <trkpt lat="37.1870540" lon="-7.4174560">
        <ele>8.5</ele>
        <time>2020-12-22T15:57:07Z</time>
      </trkpt>
      <trkpt lat="37.1870420" lon="-7.4174910">
        <ele>8.5</ele>
        <time>2020-12-22T15:57:08Z</time>
      </trkpt>
      <trkpt lat="37.1870310" lon="-7.4175260">
        <ele>8.5</ele>
        <time>2020-12-22T15:57:09Z</time>
      </trkpt>
      <trkpt lat="37.1870190" lon="-7.4175620">
        <ele>8.5</ele>
        <time>2020-12-22T15:57:10Z</time>
      </trkpt>
      <trkpt lat="37.1870080" lon="-7.4175980">
        <ele>8.5</ele>
        <time>2020-12-22T15:57:11Z</time>
      </trkpt>
      <trkpt lat="37.1870000" lon="-7.4176340">
        <ele>8.5</ele>
        <time>2020-12-22T15:57:12Z</time>
      </trkpt>
      <trkpt lat="37.1869890" lon="-7.4176700">
        <ele>8.5</ele>
        <time>2020-12-22T15:57:13Z</time>
      </trkpt>
      <trkpt lat="37.1869810" lon="-7.4177060">
        <ele>8.5</ele>
        <time>2020-12-22T15:57:14Z</time>
      </trkpt>
      <trkpt lat="37.1869700" lon="-7.4177410">
        <ele>8.4</ele>
        <time>2020-12-22T15:57:15Z</time>
      </trkpt>
      <trkpt lat="37.1869580" lon="-7.4177760">
        <ele>8.4</ele>
        <time>2020-12-22T15:57:16Z</time>
      </trkpt>
      <trkpt lat="37.1869470" lon="-7.4178110">
        <ele>8.4</ele>
        <time>2020-12-22T15:57:17Z</time>
      </trkpt>
      <trkpt lat="37.1869390" lon="-7.4178450">
        <ele>8.4</ele>
        <time>2020-12-22T15:57:18Z</time>
      </trkpt>
      <trkpt lat="37.1869320" lon="-7.4178780">
        <ele>8.4</ele>
        <time>2020-12-22T15:57:19Z</time>
      </trkpt>
      <trkpt lat="37.1869200" lon="-7.4179110">
        <ele>8.4</ele>
        <time>2020-12-22T15:57:20Z</time>
      </trkpt>
      <trkpt lat="37.1869130" lon="-7.4179430">
        <ele>8.4</ele>
        <time>2020-12-22T15:57:21Z</time>
      </trkpt>
      <trkpt lat="37.1869010" lon="-7.4179740">
        <ele>8.4</ele>
        <time>2020-12-22T15:57:22Z</time>
      </trkpt>
      <trkpt lat="37.1868970" lon="-7.4180050">
        <ele>8.4</ele>
        <time>2020-12-22T15:57:23Z</time>
      </trkpt>
      <trkpt lat="37.1868860" lon="-7.4180340">
        <ele>8.4</ele>
        <time>2020-12-22T15:57:24Z</time>
      </trkpt>
      <trkpt lat="37.1868780" lon="-7.4180630">
        <ele>8.3</ele>
        <time>2020-12-22T15:57:25Z</time>
      </trkpt>
      <trkpt lat="37.1868710" lon="-7.4180910">
        <ele>8.3</ele>
        <time>2020-12-22T15:57:26Z</time>
      </trkpt>
      <trkpt lat="37.1868590" lon="-7.4181210">
        <ele>8.3</ele>
        <time>2020-12-22T15:57:27Z</time>
      </trkpt>
      <trkpt lat="37.1868440" lon="-7.4181570">
        <ele>8.3</ele>
        <time>2020-12-22T15:57:28Z</time>
      </trkpt>
      <trkpt lat="37.1868330" lon="-7.4181990">
        <ele>8.3</ele>
        <time>2020-12-22T15:57:29Z</time>
      </trkpt>
      <trkpt lat="37.1868210" lon="-7.4182420">
        <ele>8.3</ele>
        <time>2020-12-22T15:57:30Z</time>
      </trkpt>
      <trkpt lat="37.1868100" lon="-7.4182830">
        <ele>8.3</ele>
        <time>2020-12-22T15:57:31Z</time>
      </trkpt>
      <trkpt lat="37.1867980" lon="-7.4183280">
        <ele>8.2</ele>
        <time>2020-12-22T15:57:32Z</time>
      </trkpt>
      <trkpt lat="37.1867870" lon="-7.4183700">
        <ele>8.2</ele>
        <time>2020-12-22T15:57:33Z</time>
      </trkpt>
      <trkpt lat="37.1867750" lon="-7.4184120">
        <ele>8.2</ele>
        <time>2020-12-22T15:57:34Z</time>
      </trkpt>
      <trkpt lat="37.1867640" lon="-7.4184530">
        <ele>8.2</ele>
        <time>2020-12-22T15:57:35Z</time>
      </trkpt>
      <trkpt lat="37.1867530" lon="-7.4184950">
        <ele>8.2</ele>
        <time>2020-12-22T15:57:36Z</time>
      </trkpt>
      <trkpt lat="37.1867410" lon="-7.4185370">
        <ele>8.2</ele>
        <time>2020-12-22T15:57:37Z</time>
      </trkpt>
      <trkpt lat="37.1867300" lon="-7.4185770">
        <ele>8.1</ele>
        <time>2020-12-22T15:57:38Z</time>
      </trkpt>
      <trkpt lat="37.1867140" lon="-7.4186170">
        <ele>8.1</ele>
        <time>2020-12-22T15:57:39Z</time>
      </trkpt>
      <trkpt lat="37.1866990" lon="-7.4186570">
        <ele>8.1</ele>
        <time>2020-12-22T15:57:40Z</time>
      </trkpt>
      <trkpt lat="37.1866840" lon="-7.4187000">
        <ele>8.1</ele>
        <time>2020-12-22T15:57:41Z</time>
      </trkpt>
      <trkpt lat="37.1866730" lon="-7.4187390">
        <ele>8.1</ele>
        <time>2020-12-22T15:57:42Z</time>
      </trkpt>
      <trkpt lat="37.1866570" lon="-7.4187780">
        <ele>8.1</ele>
        <time>2020-12-22T15:57:43Z</time>
      </trkpt>
      <trkpt lat="37.1866500" lon="-7.4188160">
        <ele>8.1</ele>
        <time>2020-12-22T15:57:44Z</time>
      </trkpt>
      <trkpt lat="37.1866380" lon="-7.4188530">
        <ele>8.1</ele>
        <time>2020-12-22T15:57:45Z</time>
      </trkpt>
      <trkpt lat="37.1866270" lon="-7.4188900">
        <ele>8.1</ele>
        <time>2020-12-22T15:57:46Z</time>
      </trkpt>
      <trkpt lat="37.1866150" lon="-7.4189250">
        <ele>8.1</ele>
        <time>2020-12-22T15:57:47Z</time>
      </trkpt>
      <trkpt lat="37.1866040" lon="-7.4189600">
        <ele>8.1</ele>
        <time>2020-12-22T15:57:48Z</time>
      </trkpt>
      <trkpt lat="37.1865960" lon="-7.4189940">
        <ele>8.1</ele>
        <time>2020-12-22T15:57:49Z</time>
      </trkpt>
      <trkpt lat="37.1865850" lon="-7.4190250">
        <ele>8.1</ele>
        <time>2020-12-22T15:57:50Z</time>
      </trkpt>
      <trkpt lat="37.1865770" lon="-7.4190600">
        <ele>8.1</ele>
        <time>2020-12-22T15:57:51Z</time>
      </trkpt>
      <trkpt lat="37.1865690" lon="-7.4190910">
        <ele>8.0</ele>
        <time>2020-12-22T15:57:52Z</time>
      </trkpt>
      <trkpt lat="37.1865580" lon="-7.4191210">
        <ele>8.0</ele>
        <time>2020-12-22T15:57:53Z</time>
      </trkpt>
      <trkpt lat="37.1865500" lon="-7.4191510">
        <ele>8.0</ele>
        <time>2020-12-22T15:57:54Z</time>
      </trkpt>
      <trkpt lat="37.1865390" lon="-7.4191800">
        <ele>8.0</ele>
        <time>2020-12-22T15:57:55Z</time>
      </trkpt>
      <trkpt lat="37.1865270" lon="-7.4192080">
        <ele>8.0</ele>
        <time>2020-12-22T15:57:56Z</time>
      </trkpt>
      <trkpt lat="37.1865200" lon="-7.4192370">
        <ele>8.0</ele>
        <time>2020-12-22T15:57:57Z</time>
      </trkpt>
      <trkpt lat="37.1865120" lon="-7.4192650">
        <ele>8.0</ele>
        <time>2020-12-22T15:57:58Z</time>
      </trkpt>
      <trkpt lat="37.1865080" lon="-7.4192920">
        <ele>8.0</ele>
        <time>2020-12-22T15:57:59Z</time>
      </trkpt>
      <trkpt lat="37.1865010" lon="-7.4193160">
        <ele>8.0</ele>
        <time>2020-12-22T15:58:00Z</time>
      </trkpt>
      <trkpt lat="37.1864890" lon="-7.4193450">
        <ele>8.0</ele>
        <time>2020-12-22T15:58:01Z</time>
      </trkpt>
      <trkpt lat="37.1864820" lon="-7.4193790">
        <ele>8.0</ele>
        <time>2020-12-22T15:58:02Z</time>
      </trkpt>
      <trkpt lat="37.1864700" lon="-7.4194160">
        <ele>8.0</ele>
        <time>2020-12-22T15:58:03Z</time>
      </trkpt>
      <trkpt lat="37.1864620" lon="-7.4194550">
        <ele>8.0</ele>
        <time>2020-12-22T15:58:04Z</time>
      </trkpt>
      <trkpt lat="37.1864510" lon="-7.4194940">
        <ele>8.0</ele>
        <time>2020-12-22T15:58:05Z</time>
      </trkpt>
      <trkpt lat="37.1864400" lon="-7.4195320">
        <ele>8.0</ele>
        <time>2020-12-22T15:58:06Z</time>
      </trkpt>
      <trkpt lat="37.1864280" lon="-7.4195690">
        <ele>8.0</ele>
        <time>2020-12-22T15:58:07Z</time>
      </trkpt>
      <trkpt lat="37.1864170" lon="-7.4196040">
        <ele>8.0</ele>
        <time>2020-12-22T15:58:08Z</time>
      </trkpt>
      <trkpt lat="37.1864050" lon="-7.4196380">
        <ele>8.0</ele>
        <time>2020-12-22T15:58:09Z</time>
      </trkpt>
      <trkpt lat="37.1863980" lon="-7.4196740">
        <ele>8.0</ele>
        <time>2020-12-22T15:58:10Z</time>
      </trkpt>
      <trkpt lat="37.1863860" lon="-7.4197070">
        <ele>8.0</ele>
        <time>2020-12-22T15:58:11Z</time>
      </trkpt>
      <trkpt lat="37.1863750" lon="-7.4197390">
        <ele>8.0</ele>
        <time>2020-12-22T15:58:12Z</time>
      </trkpt>
      <trkpt lat="37.1863670" lon="-7.4197700">
        <ele>8.0</ele>
        <time>2020-12-22T15:58:13Z</time>
      </trkpt>
      <trkpt lat="37.1863600" lon="-7.4198010">
        <ele>8.0</ele>
        <time>2020-12-22T15:58:14Z</time>
      </trkpt>
      <trkpt lat="37.1863480" lon="-7.4198310">
        <ele>8.0</ele>
        <time>2020-12-22T15:58:15Z</time>
      </trkpt>
      <trkpt lat="37.1863400" lon="-7.4198610">
        <ele>8.0</ele>
        <time>2020-12-22T15:58:16Z</time>
      </trkpt>
      <trkpt lat="37.1863330" lon="-7.4198910">
        <ele>8.0</ele>
        <time>2020-12-22T15:58:17Z</time>
      </trkpt>
      <trkpt lat="37.1863250" lon="-7.4199140">
        <ele>8.0</ele>
        <time>2020-12-22T15:58:18Z</time>
      </trkpt>
      <trkpt lat="37.1863180" lon="-7.4199260">
        <ele>8.0</ele>
        <time>2020-12-22T15:58:19Z</time>
      </trkpt>
      <trkpt lat="37.1862720" lon="-7.4200640">
        <ele>8.0</ele>
        <time>2020-12-22T16:01:17Z</time>
      </trkpt>
      <trkpt lat="37.1862570" lon="-7.4200980">
        <ele>8.0</ele>
        <time>2020-12-22T16:01:18Z</time>
      </trkpt>
      <trkpt lat="37.1862450" lon="-7.4201360">
        <ele>8.0</ele>
        <time>2020-12-22T16:01:19Z</time>
      </trkpt>
      <trkpt lat="37.1862300" lon="-7.4201730">
        <ele>8.0</ele>
        <time>2020-12-22T16:01:20Z</time>
      </trkpt>
      <trkpt lat="37.1862180" lon="-7.4202110">
        <ele>8.0</ele>
        <time>2020-12-22T16:01:21Z</time>
      </trkpt>
      <trkpt lat="37.1862070" lon="-7.4202500">
        <ele>8.0</ele>
        <time>2020-12-22T16:01:22Z</time>
      </trkpt>
      <trkpt lat="37.1861910" lon="-7.4202930">
        <ele>8.1</ele>
        <time>2020-12-22T16:01:23Z</time>
      </trkpt>
      <trkpt lat="37.1861760" lon="-7.4203340">
        <ele>8.1</ele>
        <time>2020-12-22T16:01:24Z</time>
      </trkpt>
      <trkpt lat="37.1861650" lon="-7.4203760">
        <ele>8.1</ele>
        <time>2020-12-22T16:01:25Z</time>
      </trkpt>
      <trkpt lat="37.1861500" lon="-7.4204140">
        <ele>8.1</ele>
        <time>2020-12-22T16:01:26Z</time>
      </trkpt>
      <trkpt lat="37.1861380" lon="-7.4204500">
        <ele>8.1</ele>
        <time>2020-12-22T16:01:27Z</time>
      </trkpt>
      <trkpt lat="37.1861310" lon="-7.4204860">
        <ele>8.2</ele>
        <time>2020-12-22T16:01:28Z</time>
      </trkpt>
      <trkpt lat="37.1861230" lon="-7.4205220">
        <ele>8.2</ele>
        <time>2020-12-22T16:01:29Z</time>
      </trkpt>
      <trkpt lat="37.1861150" lon="-7.4205540">
        <ele>8.2</ele>
        <time>2020-12-22T16:01:30Z</time>
      </trkpt>
      <trkpt lat="37.1861080" lon="-7.4205850">
        <ele>8.2</ele>
        <time>2020-12-22T16:01:31Z</time>
      </trkpt>
      <trkpt lat="37.1861000" lon="-7.4206150">
        <ele>8.2</ele>
        <time>2020-12-22T16:01:32Z</time>
      </trkpt>
      <trkpt lat="37.1860890" lon="-7.4206460">
        <ele>8.2</ele>
        <time>2020-12-22T16:01:33Z</time>
      </trkpt>
      <trkpt lat="37.1860810" lon="-7.4206820">
        <ele>8.2</ele>
        <time>2020-12-22T16:01:34Z</time>
      </trkpt>
      <trkpt lat="37.1860700" lon="-7.4207190">
        <ele>8.3</ele>
        <time>2020-12-22T16:01:35Z</time>
      </trkpt>
      <trkpt lat="37.1860580" lon="-7.4207580">
        <ele>8.3</ele>
        <time>2020-12-22T16:01:36Z</time>
      </trkpt>
      <trkpt lat="37.1860470" lon="-7.4207970">
        <ele>8.3</ele>
        <time>2020-12-22T16:01:37Z</time>
      </trkpt>
      <trkpt lat="37.1860390" lon="-7.4208370">
        <ele>8.3</ele>
        <time>2020-12-22T16:01:38Z</time>
      </trkpt>
      <trkpt lat="37.1860280" lon="-7.4208760">
        <ele>8.4</ele>
        <time>2020-12-22T16:01:39Z</time>
      </trkpt>
      <trkpt lat="37.1860160" lon="-7.4209130">
        <ele>8.4</ele>
        <time>2020-12-22T16:01:40Z</time>
      </trkpt>
      <trkpt lat="37.1860050" lon="-7.4209470">
        <ele>8.4</ele>
        <time>2020-12-22T16:01:41Z</time>
      </trkpt>
      <trkpt lat="37.1860010" lon="-7.4209810">
        <ele>8.4</ele>
        <time>2020-12-22T16:01:42Z</time>
      </trkpt>
      <trkpt lat="37.1859890" lon="-7.4210120">
        <ele>8.4</ele>
        <time>2020-12-22T16:01:43Z</time>
      </trkpt>
      <trkpt lat="37.1859820" lon="-7.4210430">
        <ele>8.4</ele>
        <time>2020-12-22T16:01:44Z</time>
      </trkpt>
      <trkpt lat="37.1859700" lon="-7.4210760">
        <ele>8.5</ele>
        <time>2020-12-22T16:01:45Z</time>
      </trkpt>
      <trkpt lat="37.1859550" lon="-7.4211120">
        <ele>8.5</ele>
        <time>2020-12-22T16:01:46Z</time>
      </trkpt>
      <trkpt lat="37.1859440" lon="-7.4211510">
        <ele>8.5</ele>
        <time>2020-12-22T16:01:47Z</time>
      </trkpt>
      <trkpt lat="37.1859360" lon="-7.4211950">
        <ele>8.5</ele>
        <time>2020-12-22T16:01:48Z</time>
      </trkpt>
      <trkpt lat="37.1859320" lon="-7.4212400">
        <ele>8.5</ele>
        <time>2020-12-22T16:01:49Z</time>
      </trkpt>
      <trkpt lat="37.1859320" lon="-7.4212850">
        <ele>8.5</ele>
        <time>2020-12-22T16:01:50Z</time>
      </trkpt>
      <trkpt lat="37.1859400" lon="-7.4213320">
        <ele>8.5</ele>
        <time>2020-12-22T16:01:51Z</time>
      </trkpt>
      <trkpt lat="37.1859550" lon="-7.4213750">
        <ele>8.5</ele>
        <time>2020-12-22T16:01:52Z</time>
      </trkpt>
      <trkpt lat="37.1859740" lon="-7.4214160">
        <ele>8.5</ele>
        <time>2020-12-22T16:01:53Z</time>
      </trkpt>
      <trkpt lat="37.1859970" lon="-7.4214550">
        <ele>8.5</ele>
        <time>2020-12-22T16:01:54Z</time>
      </trkpt>
      <trkpt lat="37.1860160" lon="-7.4214950">
        <ele>8.5</ele>
        <time>2020-12-22T16:01:55Z</time>
      </trkpt>
      <trkpt lat="37.1860430" lon="-7.4215320">
        <ele>8.5</ele>
        <time>2020-12-22T16:01:56Z</time>
      </trkpt>
      <trkpt lat="37.1860730" lon="-7.4215640">
        <ele>8.4</ele>
        <time>2020-12-22T16:01:57Z</time>
      </trkpt>
      <trkpt lat="37.1861070" lon="-7.4215920">
        <ele>8.4</ele>
        <time>2020-12-22T16:01:58Z</time>
      </trkpt>
      <trkpt lat="37.1861340" lon="-7.4216240">
        <ele>8.4</ele>
        <time>2020-12-22T16:01:59Z</time>
      </trkpt>
      <trkpt lat="37.1861460" lon="-7.4216600">
        <ele>8.5</ele>
        <time>2020-12-22T16:02:00Z</time>
      </trkpt>
      <trkpt lat="37.1861420" lon="-7.4216890">
        <ele>8.5</ele>
        <time>2020-12-22T16:02:01Z</time>
      </trkpt>
      <trkpt lat="37.1861310" lon="-7.4217110">
        <ele>8.5</ele>
        <time>2020-12-22T16:02:02Z</time>
      </trkpt>
      <trkpt lat="37.1861270" lon="-7.4217300">
        <ele>8.6</ele>
        <time>2020-12-22T16:02:03Z</time>
      </trkpt>
      <trkpt lat="37.1861270" lon="-7.4217460">
        <ele>8.6</ele>
        <time>2020-12-22T16:02:04Z</time>
      </trkpt>
      <trkpt lat="37.1861270" lon="-7.4217580">
        <ele>8.6</ele>
        <time>2020-12-22T16:02:05Z</time>
      </trkpt>
      <trkpt lat="37.1861150" lon="-7.4217680">
        <ele>8.6</ele>
        <time>2020-12-22T16:02:06Z</time>
      </trkpt>
      <trkpt lat="37.1861000" lon="-7.4217720">
        <ele>8.6</ele>
        <time>2020-12-22T16:02:07Z</time>
      </trkpt>
      <trkpt lat="37.1860770" lon="-7.4217660">
        <ele>8.6</ele>
        <time>2020-12-22T16:02:08Z</time>
      </trkpt>
      <trkpt lat="37.1860550" lon="-7.4217590">
        <ele>8.6</ele>
        <time>2020-12-22T16:02:09Z</time>
      </trkpt>
      <trkpt lat="37.1860320" lon="-7.4217520">
        <ele>8.7</ele>
        <time>2020-12-22T16:02:10Z</time>
      </trkpt>
      <trkpt lat="37.1860160" lon="-7.4217470">
        <ele>8.7</ele>
        <time>2020-12-22T16:02:11Z</time>
      </trkpt>
      <trkpt lat="37.1860010" lon="-7.4217440">
        <ele>8.7</ele>
        <time>2020-12-22T16:02:12Z</time>
      </trkpt>
      <trkpt lat="37.1859890" lon="-7.4217410">
        <ele>8.7</ele>
        <time>2020-12-22T16:02:13Z</time>
      </trkpt>
      <trkpt lat="37.1859820" lon="-7.4217350">
        <ele>8.7</ele>
        <time>2020-12-22T16:02:15Z</time>
      </trkpt>
      <trkpt lat="37.1859670" lon="-7.4217350">
        <ele>8.7</ele>
        <time>2020-12-22T16:02:16Z</time>
      </trkpt>
      <trkpt lat="37.1859510" lon="-7.4217380">
        <ele>8.7</ele>
        <time>2020-12-22T16:02:17Z</time>
      </trkpt>
      <trkpt lat="37.1859360" lon="-7.4217430">
        <ele>8.8</ele>
        <time>2020-12-22T16:02:18Z</time>
      </trkpt>
      <trkpt lat="37.1859170" lon="-7.4217500">
        <ele>8.8</ele>
        <time>2020-12-22T16:02:19Z</time>
      </trkpt>
      <trkpt lat="37.1859020" lon="-7.4217560">
        <ele>8.8</ele>
        <time>2020-12-22T16:02:20Z</time>
      </trkpt>
      <trkpt lat="37.1858980" lon="-7.4217560">
        <ele>8.8</ele>
        <time>2020-12-22T16:02:21Z</time>
      </trkpt>
      <trkpt lat="37.1859020" lon="-7.4217570">
        <ele>8.8</ele>
        <time>2020-12-22T16:02:22Z</time>
      </trkpt>
      <trkpt lat="37.1859020" lon="-7.4217570">
        <ele>8.8</ele>
        <time>2020-12-22T16:02:23Z</time>
      </trkpt>
      <trkpt lat="37.1859050" lon="-7.4217580">
        <ele>8.8</ele>
        <time>2020-12-22T16:02:24Z</time>
      </trkpt>
      <trkpt lat="37.1859050" lon="-7.4217590">
        <ele>8.8</ele>
        <time>2020-12-22T16:02:25Z</time>
      </trkpt>
      <trkpt lat="37.1859020" lon="-7.4217620">
        <ele>8.8</ele>
        <time>2020-12-22T16:02:26Z</time>
      </trkpt>
      <trkpt lat="37.1858940" lon="-7.4217680">
        <ele>8.8</ele>
        <time>2020-12-22T16:02:27Z</time>
      </trkpt>
      <trkpt lat="37.1858790" lon="-7.4217760">
        <ele>8.8</ele>
        <time>2020-12-22T16:02:28Z</time>
      </trkpt>
      <trkpt lat="37.1858640" lon="-7.4217870">
        <ele>8.8</ele>
        <time>2020-12-22T16:02:29Z</time>
      </trkpt>
      <trkpt lat="37.1858480" lon="-7.4217970">
        <ele>8.8</ele>
        <time>2020-12-22T16:02:30Z</time>
      </trkpt>
      <trkpt lat="37.1858290" lon="-7.4218070">
        <ele>8.8</ele>
        <time>2020-12-22T16:02:31Z</time>
      </trkpt>
      <trkpt lat="37.1858100" lon="-7.4218230">
        <ele>8.8</ele>
        <time>2020-12-22T16:02:32Z</time>
      </trkpt>
      <trkpt lat="37.1857910" lon="-7.4218410">
        <ele>8.9</ele>
        <time>2020-12-22T16:02:33Z</time>
      </trkpt>
      <trkpt lat="37.1857720" lon="-7.4218620">
        <ele>8.9</ele>
        <time>2020-12-22T16:02:34Z</time>
      </trkpt>
      <trkpt lat="37.1857490" lon="-7.4218870">
        <ele>8.9</ele>
        <time>2020-12-22T16:02:35Z</time>
      </trkpt>
      <trkpt lat="37.1857300" lon="-7.4219160">
        <ele>8.9</ele>
        <time>2020-12-22T16:02:36Z</time>
      </trkpt>
      <trkpt lat="37.1857150" lon="-7.4219450">
        <ele>8.9</ele>
        <time>2020-12-22T16:02:37Z</time>
      </trkpt>
      <trkpt lat="37.1857030" lon="-7.4219740">
        <ele>8.9</ele>
        <time>2020-12-22T16:02:38Z</time>
      </trkpt>
      <trkpt lat="37.1856960" lon="-7.4220020">
        <ele>8.9</ele>
        <time>2020-12-22T16:02:39Z</time>
      </trkpt>
      <trkpt lat="37.1856880" lon="-7.4220290">
        <ele>8.9</ele>
        <time>2020-12-22T16:02:40Z</time>
      </trkpt>
      <trkpt lat="37.1856810" lon="-7.4220570">
        <ele>8.9</ele>
        <time>2020-12-22T16:02:41Z</time>
      </trkpt>
      <trkpt lat="37.1856690" lon="-7.4220890">
        <ele>9.0</ele>
        <time>2020-12-22T16:02:42Z</time>
      </trkpt>
      <trkpt lat="37.1856610" lon="-7.4221190">
        <ele>9.0</ele>
        <time>2020-12-22T16:02:43Z</time>
      </trkpt>
      <trkpt lat="37.1856540" lon="-7.4221490">
        <ele>9.0</ele>
        <time>2020-12-22T16:02:44Z</time>
      </trkpt>
      <trkpt lat="37.1856460" lon="-7.4221770">
        <ele>9.0</ele>
        <time>2020-12-22T16:02:45Z</time>
      </trkpt>
      <trkpt lat="37.1856350" lon="-7.4222030">
        <ele>9.0</ele>
        <time>2020-12-22T16:02:46Z</time>
      </trkpt>
      <trkpt lat="37.1856270" lon="-7.4222300">
        <ele>9.0</ele>
        <time>2020-12-22T16:02:47Z</time>
      </trkpt>
      <trkpt lat="37.1856190" lon="-7.4222590">
        <ele>9.0</ele>
        <time>2020-12-22T16:02:48Z</time>
      </trkpt>
      <trkpt lat="37.1856120" lon="-7.4222890">
        <ele>9.0</ele>
        <time>2020-12-22T16:02:49Z</time>
      </trkpt>
      <trkpt lat="37.1856000" lon="-7.4223210">
        <ele>9.0</ele>
        <time>2020-12-22T16:02:50Z</time>
      </trkpt>
      <trkpt lat="37.1855890" lon="-7.4223550">
        <ele>9.0</ele>
        <time>2020-12-22T16:02:51Z</time>
      </trkpt>
      <trkpt lat="37.1855810" lon="-7.4223900">
        <ele>9.1</ele>
        <time>2020-12-22T16:02:52Z</time>
      </trkpt>
      <trkpt lat="37.1855700" lon="-7.4224250">
        <ele>9.1</ele>
        <time>2020-12-22T16:02:53Z</time>
      </trkpt>
      <trkpt lat="37.1855580" lon="-7.4224590">
        <ele>9.1</ele>
        <time>2020-12-22T16:02:54Z</time>
      </trkpt>
      <trkpt lat="37.1855510" lon="-7.4224900">
        <ele>9.1</ele>
        <time>2020-12-22T16:02:55Z</time>
      </trkpt>
      <trkpt lat="37.1855430" lon="-7.4225200">
        <ele>9.1</ele>
        <time>2020-12-22T16:02:56Z</time>
      </trkpt>
      <trkpt lat="37.1855350" lon="-7.4225480">
        <ele>9.2</ele>
        <time>2020-12-22T16:02:57Z</time>
      </trkpt>
      <trkpt lat="37.1855240" lon="-7.4225770">
        <ele>9.2</ele>
        <time>2020-12-22T16:02:58Z</time>
      </trkpt>
      <trkpt lat="37.1855160" lon="-7.4226090">
        <ele>9.2</ele>
        <time>2020-12-22T16:02:59Z</time>
      </trkpt>
      <trkpt lat="37.1855090" lon="-7.4226420">
        <ele>9.2</ele>
        <time>2020-12-22T16:03:00Z</time>
      </trkpt>
      <trkpt lat="37.1855050" lon="-7.4226700">
        <ele>9.3</ele>
        <time>2020-12-22T16:03:01Z</time>
      </trkpt>
      <trkpt lat="37.1854970" lon="-7.4226960">
        <ele>9.3</ele>
        <time>2020-12-22T16:03:02Z</time>
      </trkpt>
      <trkpt lat="37.1854900" lon="-7.4227210">
        <ele>9.3</ele>
        <time>2020-12-22T16:03:03Z</time>
      </trkpt>
      <trkpt lat="37.1854820" lon="-7.4227440">
        <ele>9.3</ele>
        <time>2020-12-22T16:03:04Z</time>
      </trkpt>
      <trkpt lat="37.1854780" lon="-7.4227700">
        <ele>9.3</ele>
        <time>2020-12-22T16:03:05Z</time>
      </trkpt>
      <trkpt lat="37.1854710" lon="-7.4227970">
        <ele>9.3</ele>
        <time>2020-12-22T16:03:06Z</time>
      </trkpt>
      <trkpt lat="37.1854630" lon="-7.4228220">
        <ele>9.4</ele>
        <time>2020-12-22T16:03:07Z</time>
      </trkpt>
      <trkpt lat="37.1854550" lon="-7.4228490">
        <ele>9.4</ele>
        <time>2020-12-22T16:03:08Z</time>
      </trkpt>
      <trkpt lat="37.1854480" lon="-7.4228770">
        <ele>9.4</ele>
        <time>2020-12-22T16:03:09Z</time>
      </trkpt>
      <trkpt lat="37.1854360" lon="-7.4229020">
        <ele>9.4</ele>
        <time>2020-12-22T16:03:10Z</time>
      </trkpt>
      <trkpt lat="37.1854290" lon="-7.4229290">
        <ele>9.4</ele>
        <time>2020-12-22T16:03:11Z</time>
      </trkpt>
      <trkpt lat="37.1854290" lon="-7.4229520">
        <ele>9.4</ele>
        <time>2020-12-22T16:03:12Z</time>
      </trkpt>
      <trkpt lat="37.1854320" lon="-7.4230060">
        <ele>9.5</ele>
        <time>2020-12-22T16:03:33Z</time>
      </trkpt>
      <trkpt lat="37.1854290" lon="-7.4230250">
        <ele>9.5</ele>
        <time>2020-12-22T16:03:34Z</time>
      </trkpt>
      <trkpt lat="37.1854250" lon="-7.4230530">
        <ele>9.5</ele>
        <time>2020-12-22T16:03:35Z</time>
      </trkpt>
      <trkpt lat="37.1854170" lon="-7.4230920">
        <ele>9.5</ele>
        <time>2020-12-22T16:03:36Z</time>
      </trkpt>
      <trkpt lat="37.1854100" lon="-7.4231320">
        <ele>9.5</ele>
        <time>2020-12-22T16:03:37Z</time>
      </trkpt>
      <trkpt lat="37.1853980" lon="-7.4231770">
        <ele>9.6</ele>
        <time>2020-12-22T16:03:38Z</time>
      </trkpt>
      <trkpt lat="37.1853870" lon="-7.4232290">
        <ele>9.6</ele>
        <time>2020-12-22T16:03:39Z</time>
      </trkpt>
      <trkpt lat="37.1853680" lon="-7.4232830">
        <ele>9.6</ele>
        <time>2020-12-22T16:03:40Z</time>
      </trkpt>
      <trkpt lat="37.1853490" lon="-7.4233390">
        <ele>9.7</ele>
        <time>2020-12-22T16:03:41Z</time>
      </trkpt>
      <trkpt lat="37.1853070" lon="-7.4234010">
        <ele>9.7</ele>
        <time>2020-12-22T16:03:42Z</time>
      </trkpt>
      <trkpt lat="37.1852880" lon="-7.4234490">
        <ele>9.7</ele>
        <time>2020-12-22T16:03:43Z</time>
      </trkpt>
      <trkpt lat="37.1852720" lon="-7.4234980">
        <ele>9.8</ele>
        <time>2020-12-22T16:03:44Z</time>
      </trkpt>
      <trkpt lat="37.1852570" lon="-7.4235490">
        <ele>9.8</ele>
        <time>2020-12-22T16:03:45Z</time>
      </trkpt>
      <trkpt lat="37.1852420" lon="-7.4236000">
        <ele>9.8</ele>
        <time>2020-12-22T16:03:46Z</time>
      </trkpt>
      <trkpt lat="37.1852270" lon="-7.4236540">
        <ele>9.9</ele>
        <time>2020-12-22T16:03:47Z</time>
      </trkpt>
      <trkpt lat="37.1852110" lon="-7.4237080">
        <ele>9.9</ele>
        <time>2020-12-22T16:03:48Z</time>
      </trkpt>
      <trkpt lat="37.1851960" lon="-7.4237650">
        <ele>9.9</ele>
        <time>2020-12-22T16:03:49Z</time>
      </trkpt>
      <trkpt lat="37.1851810" lon="-7.4238140">
        <ele>9.9</ele>
        <time>2020-12-22T16:03:50Z</time>
      </trkpt>
      <trkpt lat="37.1851620" lon="-7.4238660">
        <ele>9.9</ele>
        <time>2020-12-22T16:03:51Z</time>
      </trkpt>
      <trkpt lat="37.1851430" lon="-7.4239150">
        <ele>9.9</ele>
        <time>2020-12-22T16:03:52Z</time>
      </trkpt>
      <trkpt lat="37.1851240" lon="-7.4239630">
        <ele>9.9</ele>
        <time>2020-12-22T16:03:53Z</time>
      </trkpt>
      <trkpt lat="37.1851080" lon="-7.4240100">
        <ele>9.9</ele>
        <time>2020-12-22T16:03:54Z</time>
      </trkpt>
      <trkpt lat="37.1850970" lon="-7.4240590">
        <ele>9.9</ele>
        <time>2020-12-22T16:03:55Z</time>
      </trkpt>
      <trkpt lat="37.1850780" lon="-7.4241050">
        <ele>9.9</ele>
        <time>2020-12-22T16:03:56Z</time>
      </trkpt>
      <trkpt lat="37.1850630" lon="-7.4241510">
        <ele>9.9</ele>
        <time>2020-12-22T16:03:57Z</time>
      </trkpt>
      <trkpt lat="37.1850470" lon="-7.4241970">
        <ele>9.9</ele>
        <time>2020-12-22T16:03:58Z</time>
      </trkpt>
      <trkpt lat="37.1850280" lon="-7.4242420">
        <ele>9.9</ele>
        <time>2020-12-22T16:03:59Z</time>
      </trkpt>
      <trkpt lat="37.1850170" lon="-7.4242890">
        <ele>9.9</ele>
        <time>2020-12-22T16:04:00Z</time>
      </trkpt>
      <trkpt lat="37.1850050" lon="-7.4243330">
        <ele>9.9</ele>
        <time>2020-12-22T16:04:01Z</time>
      </trkpt>
      <trkpt lat="37.1849900" lon="-7.4243810">
        <ele>9.9</ele>
        <time>2020-12-22T16:04:02Z</time>
      </trkpt>
      <trkpt lat="37.1849750" lon="-7.4244290">
        <ele>9.9</ele>
        <time>2020-12-22T16:04:03Z</time>
      </trkpt>
      <trkpt lat="37.1849630" lon="-7.4244740">
        <ele>9.8</ele>
        <time>2020-12-22T16:04:04Z</time>
      </trkpt>
      <trkpt lat="37.1849480" lon="-7.4245180">
        <ele>9.8</ele>
        <time>2020-12-22T16:04:05Z</time>
      </trkpt>
      <trkpt lat="37.1849330" lon="-7.4245620">
        <ele>9.8</ele>
        <time>2020-12-22T16:04:06Z</time>
      </trkpt>
      <trkpt lat="37.1849210" lon="-7.4246050">
        <ele>9.8</ele>
        <time>2020-12-22T16:04:07Z</time>
      </trkpt>
      <trkpt lat="37.1849060" lon="-7.4246500">
        <ele>9.8</ele>
        <time>2020-12-22T16:04:08Z</time>
      </trkpt>
      <trkpt lat="37.1848910" lon="-7.4246960">
        <ele>9.8</ele>
        <time>2020-12-22T16:04:09Z</time>
      </trkpt>
      <trkpt lat="37.1848790" lon="-7.4247400">
        <ele>9.8</ele>
        <time>2020-12-22T16:04:10Z</time>
      </trkpt>
      <trkpt lat="37.1848640" lon="-7.4247860">
        <ele>9.8</ele>
        <time>2020-12-22T16:04:11Z</time>
      </trkpt>
      <trkpt lat="37.1848530" lon="-7.4248340">
        <ele>9.8</ele>
        <time>2020-12-22T16:04:12Z</time>
      </trkpt>
      <trkpt lat="37.1848380" lon="-7.4248790">
        <ele>9.7</ele>
        <time>2020-12-22T16:04:13Z</time>
      </trkpt>
      <trkpt lat="37.1848260" lon="-7.4249260">
        <ele>9.7</ele>
        <time>2020-12-22T16:04:14Z</time>
      </trkpt>
      <trkpt lat="37.1848150" lon="-7.4249710">
        <ele>9.7</ele>
        <time>2020-12-22T16:04:15Z</time>
      </trkpt>
      <trkpt lat="37.1847990" lon="-7.4250170">
        <ele>9.7</ele>
        <time>2020-12-22T16:04:16Z</time>
      </trkpt>
      <trkpt lat="37.1847880" lon="-7.4250650">
        <ele>9.7</ele>
        <time>2020-12-22T16:04:17Z</time>
      </trkpt>
      <trkpt lat="37.1847760" lon="-7.4251130">
        <ele>9.7</ele>
        <time>2020-12-22T16:04:18Z</time>
      </trkpt>
      <trkpt lat="37.1847610" lon="-7.4251610">
        <ele>9.7</ele>
        <time>2020-12-22T16:04:19Z</time>
      </trkpt>
      <trkpt lat="37.1847500" lon="-7.4252070">
        <ele>9.7</ele>
        <time>2020-12-22T16:04:20Z</time>
      </trkpt>
      <trkpt lat="37.1847340" lon="-7.4252520">
        <ele>9.7</ele>
        <time>2020-12-22T16:04:21Z</time>
      </trkpt>
      <trkpt lat="37.1847230" lon="-7.4252950">
        <ele>9.7</ele>
        <time>2020-12-22T16:04:22Z</time>
      </trkpt>
      <trkpt lat="37.1847080" lon="-7.4253410">
        <ele>9.7</ele>
        <time>2020-12-22T16:04:23Z</time>
      </trkpt>
      <trkpt lat="37.1846920" lon="-7.4253890">
        <ele>9.7</ele>
        <time>2020-12-22T16:04:24Z</time>
      </trkpt>
      <trkpt lat="37.1846770" lon="-7.4254360">
        <ele>9.7</ele>
        <time>2020-12-22T16:04:25Z</time>
      </trkpt>
      <trkpt lat="37.1846580" lon="-7.4254920">
        <ele>9.7</ele>
        <time>2020-12-22T16:04:26Z</time>
      </trkpt>
      <trkpt lat="37.1846470" lon="-7.4255470">
        <ele>9.7</ele>
        <time>2020-12-22T16:04:27Z</time>
      </trkpt>
      <trkpt lat="37.1846310" lon="-7.4256000">
        <ele>9.8</ele>
        <time>2020-12-22T16:04:28Z</time>
      </trkpt>
      <trkpt lat="37.1846200" lon="-7.4256460">
        <ele>9.8</ele>
        <time>2020-12-22T16:04:29Z</time>
      </trkpt>
      <trkpt lat="37.1846160" lon="-7.4256850">
        <ele>9.8</ele>
        <time>2020-12-22T16:04:30Z</time>
      </trkpt>
      <trkpt lat="37.1845970" lon="-7.4257330">
        <ele>9.7</ele>
        <time>2020-12-22T16:04:31Z</time>
      </trkpt>
      <trkpt lat="37.1845820" lon="-7.4257810">
        <ele>9.7</ele>
        <time>2020-12-22T16:04:32Z</time>
      </trkpt>
      <trkpt lat="37.1845700" lon="-7.4258290">
        <ele>9.7</ele>
        <time>2020-12-22T16:04:33Z</time>
      </trkpt>
      <trkpt lat="37.1845590" lon="-7.4258800">
        <ele>9.7</ele>
        <time>2020-12-22T16:04:34Z</time>
      </trkpt>
      <trkpt lat="37.1845440" lon="-7.4259240">
        <ele>9.7</ele>
        <time>2020-12-22T16:04:35Z</time>
      </trkpt>
      <trkpt lat="37.1845320" lon="-7.4259680">
        <ele>9.7</ele>
        <time>2020-12-22T16:04:36Z</time>
      </trkpt>
      <trkpt lat="37.1845170" lon="-7.4260140">
        <ele>9.7</ele>
        <time>2020-12-22T16:04:37Z</time>
      </trkpt>
      <trkpt lat="37.1845020" lon="-7.4260600">
        <ele>9.7</ele>
        <time>2020-12-22T16:04:38Z</time>
      </trkpt>
      <trkpt lat="37.1844900" lon="-7.4261090">
        <ele>9.7</ele>
        <time>2020-12-22T16:04:39Z</time>
      </trkpt>
      <trkpt lat="37.1844750" lon="-7.4261580">
        <ele>9.6</ele>
        <time>2020-12-22T16:04:40Z</time>
      </trkpt>
      <trkpt lat="37.1844600" lon="-7.4262070">
        <ele>9.6</ele>
        <time>2020-12-22T16:04:41Z</time>
      </trkpt>
      <trkpt lat="37.1844450" lon="-7.4262580">
        <ele>9.6</ele>
        <time>2020-12-22T16:04:42Z</time>
      </trkpt>
      <trkpt lat="37.1844290" lon="-7.4263080">
        <ele>9.6</ele>
        <time>2020-12-22T16:04:43Z</time>
      </trkpt>
      <trkpt lat="37.1844180" lon="-7.4263580">
        <ele>9.6</ele>
        <time>2020-12-22T16:04:44Z</time>
      </trkpt>
      <trkpt lat="37.1844020" lon="-7.4264090">
        <ele>9.6</ele>
        <time>2020-12-22T16:04:45Z</time>
      </trkpt>
      <trkpt lat="37.1843870" lon="-7.4264590">
        <ele>9.6</ele>
        <time>2020-12-22T16:04:46Z</time>
      </trkpt>
      <trkpt lat="37.1843720" lon="-7.4265090">
        <ele>9.6</ele>
        <time>2020-12-22T16:04:47Z</time>
      </trkpt>
      <trkpt lat="37.1843570" lon="-7.4265590">
        <ele>9.6</ele>
        <time>2020-12-22T16:04:48Z</time>
      </trkpt>
      <trkpt lat="37.1843450" lon="-7.4266100">
        <ele>9.6</ele>
        <time>2020-12-22T16:04:49Z</time>
      </trkpt>
      <trkpt lat="37.1843340" lon="-7.4266590">
        <ele>9.6</ele>
        <time>2020-12-22T16:04:50Z</time>
      </trkpt>
      <trkpt lat="37.1843150" lon="-7.4267070">
        <ele>9.6</ele>
        <time>2020-12-22T16:04:51Z</time>
      </trkpt>
      <trkpt lat="37.1843030" lon="-7.4267560">
        <ele>9.6</ele>
        <time>2020-12-22T16:04:52Z</time>
      </trkpt>
      <trkpt lat="37.1842880" lon="-7.4268050">
        <ele>9.6</ele>
        <time>2020-12-22T16:04:53Z</time>
      </trkpt>
      <trkpt lat="37.1842770" lon="-7.4268510">
        <ele>9.6</ele>
        <time>2020-12-22T16:04:54Z</time>
      </trkpt>
      <trkpt lat="37.1842610" lon="-7.4269030">
        <ele>9.6</ele>
        <time>2020-12-22T16:04:55Z</time>
      </trkpt>
      <trkpt lat="37.1842460" lon="-7.4269510">
        <ele>9.6</ele>
        <time>2020-12-22T16:04:56Z</time>
      </trkpt>
      <trkpt lat="37.1842310" lon="-7.4269980">
        <ele>9.6</ele>
        <time>2020-12-22T16:04:57Z</time>
      </trkpt>
      <trkpt lat="37.1842190" lon="-7.4270450">
        <ele>9.6</ele>
        <time>2020-12-22T16:04:58Z</time>
      </trkpt>
      <trkpt lat="37.1842040" lon="-7.4270880">
        <ele>9.5</ele>
        <time>2020-12-22T16:04:59Z</time>
      </trkpt>
      <trkpt lat="37.1841930" lon="-7.4271310">
        <ele>9.5</ele>
        <time>2020-12-22T16:05:00Z</time>
      </trkpt>
      <trkpt lat="37.1841770" lon="-7.4271730">
        <ele>9.5</ele>
        <time>2020-12-22T16:05:01Z</time>
      </trkpt>
      <trkpt lat="37.1841620" lon="-7.4272170">
        <ele>9.5</ele>
        <time>2020-12-22T16:05:02Z</time>
      </trkpt>
      <trkpt lat="37.1841510" lon="-7.4272640">
        <ele>9.5</ele>
        <time>2020-12-22T16:05:03Z</time>
      </trkpt>
      <trkpt lat="37.1841390" lon="-7.4273150">
        <ele>9.4</ele>
        <time>2020-12-22T16:05:04Z</time>
      </trkpt>
      <trkpt lat="37.1841240" lon="-7.4273650">
        <ele>9.4</ele>
        <time>2020-12-22T16:05:05Z</time>
      </trkpt>
      <trkpt lat="37.1841090" lon="-7.4274170">
        <ele>9.4</ele>
        <time>2020-12-22T16:05:06Z</time>
      </trkpt>
      <trkpt lat="37.1840970" lon="-7.4274680">
        <ele>9.4</ele>
        <time>2020-12-22T16:05:07Z</time>
      </trkpt>
      <trkpt lat="37.1840820" lon="-7.4275200">
        <ele>9.4</ele>
        <time>2020-12-22T16:05:08Z</time>
      </trkpt>
      <trkpt lat="37.1840670" lon="-7.4275700">
        <ele>9.4</ele>
        <time>2020-12-22T16:05:09Z</time>
      </trkpt>
      <trkpt lat="37.1840520" lon="-7.4276180">
        <ele>9.4</ele>
        <time>2020-12-22T16:05:10Z</time>
      </trkpt>
      <trkpt lat="37.1840360" lon="-7.4276640">
        <ele>9.4</ele>
        <time>2020-12-22T16:05:11Z</time>
      </trkpt>
      <trkpt lat="37.1840250" lon="-7.4277110">
        <ele>9.3</ele>
        <time>2020-12-22T16:05:12Z</time>
      </trkpt>
      <trkpt lat="37.1840100" lon="-7.4277560">
        <ele>9.3</ele>
        <time>2020-12-22T16:05:13Z</time>
      </trkpt>
      <trkpt lat="37.1839980" lon="-7.4278010">
        <ele>9.3</ele>
        <time>2020-12-22T16:05:14Z</time>
      </trkpt>
      <trkpt lat="37.1839870" lon="-7.4278480">
        <ele>9.3</ele>
        <time>2020-12-22T16:05:15Z</time>
      </trkpt>
      <trkpt lat="37.1839680" lon="-7.4278940">
        <ele>9.3</ele>
        <time>2020-12-22T16:05:16Z</time>
      </trkpt>
      <trkpt lat="37.1839520" lon="-7.4279430">
        <ele>9.3</ele>
        <time>2020-12-22T16:05:17Z</time>
      </trkpt>
      <trkpt lat="37.1839370" lon="-7.4279920">
        <ele>9.3</ele>
        <time>2020-12-22T16:05:18Z</time>
      </trkpt>
      <trkpt lat="37.1839220" lon="-7.4280430">
        <ele>9.3</ele>
        <time>2020-12-22T16:05:19Z</time>
      </trkpt>
      <trkpt lat="37.1839070" lon="-7.4280930">
        <ele>9.3</ele>
        <time>2020-12-22T16:05:20Z</time>
      </trkpt>
      <trkpt lat="37.1838870" lon="-7.4281430">
        <ele>9.3</ele>
        <time>2020-12-22T16:05:21Z</time>
      </trkpt>
      <trkpt lat="37.1838760" lon="-7.4281930">
        <ele>9.3</ele>
        <time>2020-12-22T16:05:22Z</time>
      </trkpt>
      <trkpt lat="37.1838650" lon="-7.4282450">
        <ele>9.3</ele>
        <time>2020-12-22T16:05:23Z</time>
      </trkpt>
      <trkpt lat="37.1838490" lon="-7.4282960">
        <ele>9.3</ele>
        <time>2020-12-22T16:05:24Z</time>
      </trkpt>
      <trkpt lat="37.1838340" lon="-7.4283450">
        <ele>9.3</ele>
        <time>2020-12-22T16:05:25Z</time>
      </trkpt>
      <trkpt lat="37.1838190" lon="-7.4283900">
        <ele>9.3</ele>
        <time>2020-12-22T16:05:26Z</time>
      </trkpt>
      <trkpt lat="37.1838040" lon="-7.4284310">
        <ele>9.3</ele>
        <time>2020-12-22T16:05:27Z</time>
      </trkpt>
      <trkpt lat="37.1837880" lon="-7.4284700">
        <ele>9.3</ele>
        <time>2020-12-22T16:05:28Z</time>
      </trkpt>
      <trkpt lat="37.1837770" lon="-7.4285090">
        <ele>9.3</ele>
        <time>2020-12-22T16:05:29Z</time>
      </trkpt>
      <trkpt lat="37.1837650" lon="-7.4285490">
        <ele>9.3</ele>
        <time>2020-12-22T16:05:30Z</time>
      </trkpt>
      <trkpt lat="37.1837540" lon="-7.4285880">
        <ele>9.3</ele>
        <time>2020-12-22T16:05:31Z</time>
      </trkpt>
      <trkpt lat="37.1837430" lon="-7.4286300">
        <ele>9.3</ele>
        <time>2020-12-22T16:05:32Z</time>
      </trkpt>
      <trkpt lat="37.1837270" lon="-7.4286760">
        <ele>9.3</ele>
        <time>2020-12-22T16:05:33Z</time>
      </trkpt>
      <trkpt lat="37.1837160" lon="-7.4287250">
        <ele>9.3</ele>
        <time>2020-12-22T16:05:34Z</time>
      </trkpt>
      <trkpt lat="37.1837040" lon="-7.4287750">
        <ele>9.3</ele>
        <time>2020-12-22T16:05:35Z</time>
      </trkpt>
      <trkpt lat="37.1836930" lon="-7.4288250">
        <ele>9.3</ele>
        <time>2020-12-22T16:05:36Z</time>
      </trkpt>
      <trkpt lat="37.1836780" lon="-7.4288720">
        <ele>9.2</ele>
        <time>2020-12-22T16:05:37Z</time>
      </trkpt>
      <trkpt lat="37.1836660" lon="-7.4289190">
        <ele>9.2</ele>
        <time>2020-12-22T16:05:38Z</time>
      </trkpt>
      <trkpt lat="37.1836550" lon="-7.4289670">
        <ele>9.2</ele>
        <time>2020-12-22T16:05:39Z</time>
      </trkpt>
      <trkpt lat="37.1836400" lon="-7.4290140">
        <ele>9.2</ele>
        <time>2020-12-22T16:05:40Z</time>
      </trkpt>
      <trkpt lat="37.1836280" lon="-7.4290590">
        <ele>9.2</ele>
        <time>2020-12-22T16:05:41Z</time>
      </trkpt>
      <trkpt lat="37.1836130" lon="-7.4291030">
        <ele>9.2</ele>
        <time>2020-12-22T16:05:42Z</time>
      </trkpt>
      <trkpt lat="37.1836020" lon="-7.4291440">
        <ele>9.2</ele>
        <time>2020-12-22T16:05:43Z</time>
      </trkpt>
      <trkpt lat="37.1835860" lon="-7.4291910">
        <ele>9.2</ele>
        <time>2020-12-22T16:05:44Z</time>
      </trkpt>
      <trkpt lat="37.1835710" lon="-7.4292360">
        <ele>9.2</ele>
        <time>2020-12-22T16:05:45Z</time>
      </trkpt>
      <trkpt lat="37.1835560" lon="-7.4292820">
        <ele>9.2</ele>
        <time>2020-12-22T16:05:46Z</time>
      </trkpt>
      <trkpt lat="37.1835400" lon="-7.4293310">
        <ele>9.2</ele>
        <time>2020-12-22T16:05:47Z</time>
      </trkpt>
      <trkpt lat="37.1835290" lon="-7.4293770">
        <ele>9.2</ele>
        <time>2020-12-22T16:05:48Z</time>
      </trkpt>
      <trkpt lat="37.1835180" lon="-7.4294220">
        <ele>9.2</ele>
        <time>2020-12-22T16:05:49Z</time>
      </trkpt>
      <trkpt lat="37.1835020" lon="-7.4294690">
        <ele>9.2</ele>
        <time>2020-12-22T16:05:50Z</time>
      </trkpt>
      <trkpt lat="37.1834870" lon="-7.4295150">
        <ele>9.2</ele>
        <time>2020-12-22T16:05:51Z</time>
      </trkpt>
      <trkpt lat="37.1834760" lon="-7.4295630">
        <ele>9.2</ele>
        <time>2020-12-22T16:05:52Z</time>
      </trkpt>
      <trkpt lat="37.1834600" lon="-7.4296110">
        <ele>9.2</ele>
        <time>2020-12-22T16:05:53Z</time>
      </trkpt>
      <trkpt lat="37.1834450" lon="-7.4296610">
        <ele>9.2</ele>
        <time>2020-12-22T16:05:54Z</time>
      </trkpt>
      <trkpt lat="37.1834340" lon="-7.4297080">
        <ele>9.2</ele>
        <time>2020-12-22T16:05:55Z</time>
      </trkpt>
      <trkpt lat="37.1834180" lon="-7.4297540">
        <ele>9.2</ele>
        <time>2020-12-22T16:05:56Z</time>
      </trkpt>
      <trkpt lat="37.1834030" lon="-7.4297990">
        <ele>9.2</ele>
        <time>2020-12-22T16:05:57Z</time>
      </trkpt>
      <trkpt lat="37.1833920" lon="-7.4298470">
        <ele>9.2</ele>
        <time>2020-12-22T16:05:58Z</time>
      </trkpt>
      <trkpt lat="37.1833760" lon="-7.4298950">
        <ele>9.2</ele>
        <time>2020-12-22T16:05:59Z</time>
      </trkpt>
      <trkpt lat="37.1833610" lon="-7.4299420">
        <ele>9.2</ele>
        <time>2020-12-22T16:06:00Z</time>
      </trkpt>
      <trkpt lat="37.1833500" lon="-7.4299900">
        <ele>9.2</ele>
        <time>2020-12-22T16:06:01Z</time>
      </trkpt>
      <trkpt lat="37.1833380" lon="-7.4300380">
        <ele>9.2</ele>
        <time>2020-12-22T16:06:02Z</time>
      </trkpt>
      <trkpt lat="37.1833230" lon="-7.4300840">
        <ele>9.2</ele>
        <time>2020-12-22T16:06:03Z</time>
      </trkpt>
      <trkpt lat="37.1833120" lon="-7.4301300">
        <ele>9.2</ele>
        <time>2020-12-22T16:06:04Z</time>
      </trkpt>
      <trkpt lat="37.1833000" lon="-7.4301770">
        <ele>9.2</ele>
        <time>2020-12-22T16:06:05Z</time>
      </trkpt>
      <trkpt lat="37.1832850" lon="-7.4302240">
        <ele>9.2</ele>
        <time>2020-12-22T16:06:06Z</time>
      </trkpt>
      <trkpt lat="37.1832700" lon="-7.4302720">
        <ele>9.2</ele>
        <time>2020-12-22T16:06:07Z</time>
      </trkpt>
      <trkpt lat="37.1832580" lon="-7.4303190">
        <ele>9.2</ele>
        <time>2020-12-22T16:06:08Z</time>
      </trkpt>
      <trkpt lat="37.1832390" lon="-7.4303650">
        <ele>9.2</ele>
        <time>2020-12-22T16:06:09Z</time>
      </trkpt>
      <trkpt lat="37.1832240" lon="-7.4304100">
        <ele>9.2</ele>
        <time>2020-12-22T16:06:10Z</time>
      </trkpt>
      <trkpt lat="37.1832120" lon="-7.4304570">
        <ele>9.2</ele>
        <time>2020-12-22T16:06:11Z</time>
      </trkpt>
      <trkpt lat="37.1831970" lon="-7.4305060">
        <ele>9.2</ele>
        <time>2020-12-22T16:06:12Z</time>
      </trkpt>
      <trkpt lat="37.1831820" lon="-7.4305540">
        <ele>9.2</ele>
        <time>2020-12-22T16:06:13Z</time>
      </trkpt>
      <trkpt lat="37.1831700" lon="-7.4305970">
        <ele>9.3</ele>
        <time>2020-12-22T16:06:14Z</time>
      </trkpt>
      <trkpt lat="37.1831590" lon="-7.4306400">
        <ele>9.3</ele>
        <time>2020-12-22T16:06:15Z</time>
      </trkpt>
      <trkpt lat="37.1831440" lon="-7.4306850">
        <ele>9.3</ele>
        <time>2020-12-22T16:06:16Z</time>
      </trkpt>
      <trkpt lat="37.1831290" lon="-7.4307290">
        <ele>9.3</ele>
        <time>2020-12-22T16:06:17Z</time>
      </trkpt>
      <trkpt lat="37.1831130" lon="-7.4307760">
        <ele>9.3</ele>
        <time>2020-12-22T16:06:18Z</time>
      </trkpt>
      <trkpt lat="37.1830980" lon="-7.4308250">
        <ele>9.3</ele>
        <time>2020-12-22T16:06:19Z</time>
      </trkpt>
      <trkpt lat="37.1830830" lon="-7.4308730">
        <ele>9.4</ele>
        <time>2020-12-22T16:06:20Z</time>
      </trkpt>
      <trkpt lat="37.1830670" lon="-7.4309210">
        <ele>9.4</ele>
        <time>2020-12-22T16:06:21Z</time>
      </trkpt>
      <trkpt lat="37.1830520" lon="-7.4309680">
        <ele>9.4</ele>
        <time>2020-12-22T16:06:22Z</time>
      </trkpt>
      <trkpt lat="37.1830370" lon="-7.4310140">
        <ele>9.4</ele>
        <time>2020-12-22T16:06:23Z</time>
      </trkpt>
      <trkpt lat="37.1830220" lon="-7.4310590">
        <ele>9.4</ele>
        <time>2020-12-22T16:06:24Z</time>
      </trkpt>
      <trkpt lat="37.1830100" lon="-7.4311010">
        <ele>9.4</ele>
        <time>2020-12-22T16:06:25Z</time>
      </trkpt>
      <trkpt lat="37.1829950" lon="-7.4311430">
        <ele>9.4</ele>
        <time>2020-12-22T16:06:26Z</time>
      </trkpt>
      <trkpt lat="37.1829840" lon="-7.4311810">
        <ele>9.4</ele>
        <time>2020-12-22T16:06:27Z</time>
      </trkpt>
      <trkpt lat="37.1829680" lon="-7.4312230">
        <ele>9.4</ele>
        <time>2020-12-22T16:06:28Z</time>
      </trkpt>
      <trkpt lat="37.1829570" lon="-7.4312670">
        <ele>9.4</ele>
        <time>2020-12-22T16:06:29Z</time>
      </trkpt>
      <trkpt lat="37.1829450" lon="-7.4313120">
        <ele>9.4</ele>
        <time>2020-12-22T16:06:30Z</time>
      </trkpt>
      <trkpt lat="37.1829300" lon="-7.4313570">
        <ele>9.4</ele>
        <time>2020-12-22T16:06:31Z</time>
      </trkpt>
      <trkpt lat="37.1829150" lon="-7.4314050">
        <ele>9.4</ele>
        <time>2020-12-22T16:06:32Z</time>
      </trkpt>
      <trkpt lat="37.1829030" lon="-7.4314500">
        <ele>9.5</ele>
        <time>2020-12-22T16:06:33Z</time>
      </trkpt>
      <trkpt lat="37.1828920" lon="-7.4314920">
        <ele>9.5</ele>
        <time>2020-12-22T16:06:34Z</time>
      </trkpt>
      <trkpt lat="37.1828800" lon="-7.4315330">
        <ele>9.5</ele>
        <time>2020-12-22T16:06:35Z</time>
      </trkpt>
      <trkpt lat="37.1828650" lon="-7.4315740">
        <ele>9.5</ele>
        <time>2020-12-22T16:06:36Z</time>
      </trkpt>
      <trkpt lat="37.1828540" lon="-7.4316170">
        <ele>9.5</ele>
        <time>2020-12-22T16:06:37Z</time>
      </trkpt>
      <trkpt lat="37.1828390" lon="-7.4316620">
        <ele>9.5</ele>
        <time>2020-12-22T16:06:38Z</time>
      </trkpt>
      <trkpt lat="37.1828270" lon="-7.4317080">
        <ele>9.5</ele>
        <time>2020-12-22T16:06:39Z</time>
      </trkpt>
      <trkpt lat="37.1828160" lon="-7.4317550">
        <ele>9.5</ele>
        <time>2020-12-22T16:06:40Z</time>
      </trkpt>
      <trkpt lat="37.1828040" lon="-7.4318010">
        <ele>9.5</ele>
        <time>2020-12-22T16:06:41Z</time>
      </trkpt>
      <trkpt lat="37.1827890" lon="-7.4318460">
        <ele>9.5</ele>
        <time>2020-12-22T16:06:42Z</time>
      </trkpt>
      <trkpt lat="37.1827740" lon="-7.4318930">
        <ele>9.5</ele>
        <time>2020-12-22T16:06:43Z</time>
      </trkpt>
      <trkpt lat="37.1827580" lon="-7.4319400">
        <ele>9.5</ele>
        <time>2020-12-22T16:06:44Z</time>
      </trkpt>
      <trkpt lat="37.1827430" lon="-7.4319880">
        <ele>9.5</ele>
        <time>2020-12-22T16:06:45Z</time>
      </trkpt>
      <trkpt lat="37.1827280" lon="-7.4320350">
        <ele>9.5</ele>
        <time>2020-12-22T16:06:46Z</time>
      </trkpt>
      <trkpt lat="37.1827130" lon="-7.4320820">
        <ele>9.5</ele>
        <time>2020-12-22T16:06:47Z</time>
      </trkpt>
      <trkpt lat="37.1826970" lon="-7.4321270">
        <ele>9.5</ele>
        <time>2020-12-22T16:06:48Z</time>
      </trkpt>
      <trkpt lat="37.1826820" lon="-7.4321750">
        <ele>9.5</ele>
        <time>2020-12-22T16:06:49Z</time>
      </trkpt>
      <trkpt lat="37.1826710" lon="-7.4322210">
        <ele>9.5</ele>
        <time>2020-12-22T16:06:50Z</time>
      </trkpt>
      <trkpt lat="37.1826550" lon="-7.4322680">
        <ele>9.5</ele>
        <time>2020-12-22T16:06:51Z</time>
      </trkpt>
      <trkpt lat="37.1826400" lon="-7.4323140">
        <ele>9.5</ele>
        <time>2020-12-22T16:06:52Z</time>
      </trkpt>
      <trkpt lat="37.1826290" lon="-7.4323600">
        <ele>9.5</ele>
        <time>2020-12-22T16:06:53Z</time>
      </trkpt>
      <trkpt lat="37.1826140" lon="-7.4324070">
        <ele>9.5</ele>
        <time>2020-12-22T16:06:54Z</time>
      </trkpt>
      <trkpt lat="37.1825980" lon="-7.4324550">
        <ele>9.5</ele>
        <time>2020-12-22T16:06:55Z</time>
      </trkpt>
      <trkpt lat="37.1825790" lon="-7.4325010">
        <ele>9.6</ele>
        <time>2020-12-22T16:06:56Z</time>
      </trkpt>
      <trkpt lat="37.1825640" lon="-7.4325470">
        <ele>9.6</ele>
        <time>2020-12-22T16:06:57Z</time>
      </trkpt>
      <trkpt lat="37.1825520" lon="-7.4325930">
        <ele>9.6</ele>
        <time>2020-12-22T16:06:58Z</time>
      </trkpt>
      <trkpt lat="37.1825410" lon="-7.4326380">
        <ele>9.6</ele>
        <time>2020-12-22T16:06:59Z</time>
      </trkpt>
      <trkpt lat="37.1825260" lon="-7.4326790">
        <ele>9.6</ele>
        <time>2020-12-22T16:07:00Z</time>
      </trkpt>
      <trkpt lat="37.1825100" lon="-7.4327220">
        <ele>9.6</ele>
        <time>2020-12-22T16:07:01Z</time>
      </trkpt>
      <trkpt lat="37.1824990" lon="-7.4327670">
        <ele>9.6</ele>
        <time>2020-12-22T16:07:02Z</time>
      </trkpt>
      <trkpt lat="37.1824880" lon="-7.4328110">
        <ele>9.6</ele>
        <time>2020-12-22T16:07:03Z</time>
      </trkpt>
      <trkpt lat="37.1824760" lon="-7.4328560">
        <ele>9.6</ele>
        <time>2020-12-22T16:07:04Z</time>
      </trkpt>
      <trkpt lat="37.1824650" lon="-7.4329010">
        <ele>9.6</ele>
        <time>2020-12-22T16:07:05Z</time>
      </trkpt>
      <trkpt lat="37.1824530" lon="-7.4329460">
        <ele>9.6</ele>
        <time>2020-12-22T16:07:06Z</time>
      </trkpt>
      <trkpt lat="37.1824380" lon="-7.4329890">
        <ele>9.6</ele>
        <time>2020-12-22T16:07:07Z</time>
      </trkpt>
      <trkpt lat="37.1824230" lon="-7.4330320">
        <ele>9.6</ele>
        <time>2020-12-22T16:07:08Z</time>
      </trkpt>
      <trkpt lat="37.1824090" lon="-7.4330790">
        <ele>9.6</ele>
        <time>2020-12-22T16:07:09Z</time>
      </trkpt>
      <trkpt lat="37.1823960" lon="-7.4331250">
        <ele>9.6</ele>
        <time>2020-12-22T16:07:10Z</time>
      </trkpt>
      <trkpt lat="37.1823810" lon="-7.4331730">
        <ele>9.6</ele>
        <time>2020-12-22T16:07:11Z</time>
      </trkpt>
      <trkpt lat="37.1823650" lon="-7.4332150">
        <ele>9.6</ele>
        <time>2020-12-22T16:07:12Z</time>
      </trkpt>
      <trkpt lat="37.1823580" lon="-7.4332550">
        <ele>9.6</ele>
        <time>2020-12-22T16:07:13Z</time>
      </trkpt>
      <trkpt lat="37.1823460" lon="-7.4332950">
        <ele>9.6</ele>
        <time>2020-12-22T16:07:14Z</time>
      </trkpt>
      <trkpt lat="37.1823310" lon="-7.4333330">
        <ele>9.6</ele>
        <time>2020-12-22T16:07:15Z</time>
      </trkpt>
      <trkpt lat="37.1823200" lon="-7.4333740">
        <ele>9.6</ele>
        <time>2020-12-22T16:07:16Z</time>
      </trkpt>
      <trkpt lat="37.1823080" lon="-7.4334120">
        <ele>9.6</ele>
        <time>2020-12-22T16:07:17Z</time>
      </trkpt>
      <trkpt lat="37.1822970" lon="-7.4334470">
        <ele>9.6</ele>
        <time>2020-12-22T16:07:18Z</time>
      </trkpt>
      <trkpt lat="37.1822890" lon="-7.4334840">
        <ele>9.6</ele>
        <time>2020-12-22T16:07:19Z</time>
      </trkpt>
      <trkpt lat="37.1822740" lon="-7.4335240">
        <ele>9.6</ele>
        <time>2020-12-22T16:07:20Z</time>
      </trkpt>
      <trkpt lat="37.1822590" lon="-7.4335680">
        <ele>9.6</ele>
        <time>2020-12-22T16:07:21Z</time>
      </trkpt>
      <trkpt lat="37.1822470" lon="-7.4336180">
        <ele>9.6</ele>
        <time>2020-12-22T16:07:22Z</time>
      </trkpt>
      <trkpt lat="37.1822320" lon="-7.4336700">
        <ele>9.7</ele>
        <time>2020-12-22T16:07:23Z</time>
      </trkpt>
      <trkpt lat="37.1822130" lon="-7.4337210">
        <ele>9.7</ele>
        <time>2020-12-22T16:07:24Z</time>
      </trkpt>
      <trkpt lat="37.1821980" lon="-7.4337730">
        <ele>9.7</ele>
        <time>2020-12-22T16:07:25Z</time>
      </trkpt>
      <trkpt lat="37.1821820" lon="-7.4338240">
        <ele>9.7</ele>
        <time>2020-12-22T16:07:26Z</time>
      </trkpt>
      <trkpt lat="37.1821670" lon="-7.4338710">
        <ele>9.7</ele>
        <time>2020-12-22T16:07:27Z</time>
      </trkpt>
      <trkpt lat="37.1821560" lon="-7.4339190">
        <ele>9.7</ele>
        <time>2020-12-22T16:07:28Z</time>
      </trkpt>
      <trkpt lat="37.1821400" lon="-7.4339670">
        <ele>9.7</ele>
        <time>2020-12-22T16:07:29Z</time>
      </trkpt>
      <trkpt lat="37.1821290" lon="-7.4340120">
        <ele>9.7</ele>
        <time>2020-12-22T16:07:30Z</time>
      </trkpt>
      <trkpt lat="37.1821180" lon="-7.4340560">
        <ele>9.7</ele>
        <time>2020-12-22T16:07:31Z</time>
      </trkpt>
      <trkpt lat="37.1821020" lon="-7.4341050">
        <ele>9.7</ele>
        <time>2020-12-22T16:07:32Z</time>
      </trkpt>
      <trkpt lat="37.1820910" lon="-7.4341530">
        <ele>9.7</ele>
        <time>2020-12-22T16:07:33Z</time>
      </trkpt>
      <trkpt lat="37.1820760" lon="-7.4341990">
        <ele>9.7</ele>
        <time>2020-12-22T16:07:34Z</time>
      </trkpt>
      <trkpt lat="37.1820640" lon="-7.4342420">
        <ele>9.7</ele>
        <time>2020-12-22T16:07:35Z</time>
      </trkpt>
      <trkpt lat="37.1820530" lon="-7.4342840">
        <ele>9.7</ele>
        <time>2020-12-22T16:07:36Z</time>
      </trkpt>
      <trkpt lat="37.1820410" lon="-7.4343280">
        <ele>9.7</ele>
        <time>2020-12-22T16:07:37Z</time>
      </trkpt>
      <trkpt lat="37.1820260" lon="-7.4343730">
        <ele>9.7</ele>
        <time>2020-12-22T16:07:38Z</time>
      </trkpt>
      <trkpt lat="37.1820070" lon="-7.4344190">
        <ele>9.7</ele>
        <time>2020-12-22T16:07:39Z</time>
      </trkpt>
      <trkpt lat="37.1819920" lon="-7.4344670">
        <ele>9.7</ele>
        <time>2020-12-22T16:07:40Z</time>
      </trkpt>
      <trkpt lat="37.1819760" lon="-7.4345150">
        <ele>9.7</ele>
        <time>2020-12-22T16:07:41Z</time>
      </trkpt>
      <trkpt lat="37.1819650" lon="-7.4345630">
        <ele>9.7</ele>
        <time>2020-12-22T16:07:42Z</time>
      </trkpt>
      <trkpt lat="37.1819500" lon="-7.4346100">
        <ele>9.7</ele>
        <time>2020-12-22T16:07:43Z</time>
      </trkpt>
      <trkpt lat="37.1819380" lon="-7.4346580">
        <ele>9.7</ele>
        <time>2020-12-22T16:07:44Z</time>
      </trkpt>
      <trkpt lat="37.1819230" lon="-7.4347080">
        <ele>9.7</ele>
        <time>2020-12-22T16:07:45Z</time>
      </trkpt>
      <trkpt lat="37.1819080" lon="-7.4347570">
        <ele>9.8</ele>
        <time>2020-12-22T16:07:46Z</time>
      </trkpt>
      <trkpt lat="37.1818960" lon="-7.4348040">
        <ele>9.8</ele>
        <time>2020-12-22T16:07:47Z</time>
      </trkpt>
      <trkpt lat="37.1818850" lon="-7.4348500">
        <ele>9.8</ele>
        <time>2020-12-22T16:07:48Z</time>
      </trkpt>
      <trkpt lat="37.1818690" lon="-7.4348970">
        <ele>9.8</ele>
        <time>2020-12-22T16:07:49Z</time>
      </trkpt>
      <trkpt lat="37.1818580" lon="-7.4349460">
        <ele>9.8</ele>
        <time>2020-12-22T16:07:50Z</time>
      </trkpt>
      <trkpt lat="37.1818470" lon="-7.4349950">
        <ele>9.8</ele>
        <time>2020-12-22T16:07:51Z</time>
      </trkpt>
      <trkpt lat="37.1818310" lon="-7.4350440">
        <ele>9.8</ele>
        <time>2020-12-22T16:07:52Z</time>
      </trkpt>
      <trkpt lat="37.1818160" lon="-7.4350940">
        <ele>9.8</ele>
        <time>2020-12-22T16:07:53Z</time>
      </trkpt>
      <trkpt lat="37.1818010" lon="-7.4351400">
        <ele>9.8</ele>
        <time>2020-12-22T16:07:54Z</time>
      </trkpt>
      <trkpt lat="37.1817860" lon="-7.4351860">
        <ele>9.8</ele>
        <time>2020-12-22T16:07:55Z</time>
      </trkpt>
      <trkpt lat="37.1817740" lon="-7.4352300">
        <ele>9.8</ele>
        <time>2020-12-22T16:07:56Z</time>
      </trkpt>
      <trkpt lat="37.1817630" lon="-7.4352760">
        <ele>9.8</ele>
        <time>2020-12-22T16:07:57Z</time>
      </trkpt>
      <trkpt lat="37.1817470" lon="-7.4353200">
        <ele>9.8</ele>
        <time>2020-12-22T16:07:58Z</time>
      </trkpt>
      <trkpt lat="37.1817320" lon="-7.4353660">
        <ele>9.8</ele>
        <time>2020-12-22T16:07:59Z</time>
      </trkpt>
      <trkpt lat="37.1817210" lon="-7.4354130">
        <ele>9.8</ele>
        <time>2020-12-22T16:08:00Z</time>
      </trkpt>
      <trkpt lat="37.1817090" lon="-7.4354580">
        <ele>9.8</ele>
        <time>2020-12-22T16:08:01Z</time>
      </trkpt>
      <trkpt lat="37.1816980" lon="-7.4355030">
        <ele>9.8</ele>
        <time>2020-12-22T16:08:02Z</time>
      </trkpt>
      <trkpt lat="37.1816830" lon="-7.4355490">
        <ele>9.8</ele>
        <time>2020-12-22T16:08:03Z</time>
      </trkpt>
      <trkpt lat="37.1816670" lon="-7.4355940">
        <ele>9.8</ele>
        <time>2020-12-22T16:08:04Z</time>
      </trkpt>
      <trkpt lat="37.1816560" lon="-7.4356390">
        <ele>9.8</ele>
        <time>2020-12-22T16:08:05Z</time>
      </trkpt>
      <trkpt lat="37.1816410" lon="-7.4356840">
        <ele>9.8</ele>
        <time>2020-12-22T16:08:06Z</time>
      </trkpt>
      <trkpt lat="37.1816250" lon="-7.4357270">
        <ele>9.8</ele>
        <time>2020-12-22T16:08:07Z</time>
      </trkpt>
      <trkpt lat="37.1816140" lon="-7.4357710">
        <ele>9.8</ele>
        <time>2020-12-22T16:08:08Z</time>
      </trkpt>
      <trkpt lat="37.1816030" lon="-7.4358120">
        <ele>9.8</ele>
        <time>2020-12-22T16:08:09Z</time>
      </trkpt>
      <trkpt lat="37.1815870" lon="-7.4358510">
        <ele>9.8</ele>
        <time>2020-12-22T16:08:10Z</time>
      </trkpt>
      <trkpt lat="37.1815760" lon="-7.4358880">
        <ele>9.8</ele>
        <time>2020-12-22T16:08:11Z</time>
      </trkpt>
      <trkpt lat="37.1815610" lon="-7.4359270">
        <ele>9.8</ele>
        <time>2020-12-22T16:08:12Z</time>
      </trkpt>
      <trkpt lat="37.1815450" lon="-7.4359690">
        <ele>9.8</ele>
        <time>2020-12-22T16:08:13Z</time>
      </trkpt>
      <trkpt lat="37.1815340" lon="-7.4360160">
        <ele>9.8</ele>
        <time>2020-12-22T16:08:14Z</time>
      </trkpt>
      <trkpt lat="37.1815190" lon="-7.4360620">
        <ele>9.8</ele>
        <time>2020-12-22T16:08:15Z</time>
      </trkpt>
      <trkpt lat="37.1815030" lon="-7.4361090">
        <ele>9.8</ele>
        <time>2020-12-22T16:08:16Z</time>
      </trkpt>
      <trkpt lat="37.1814920" lon="-7.4361540">
        <ele>9.8</ele>
        <time>2020-12-22T16:08:17Z</time>
      </trkpt>
      <trkpt lat="37.1814770" lon="-7.4361990">
        <ele>9.8</ele>
        <time>2020-12-22T16:08:18Z</time>
      </trkpt>
      <trkpt lat="37.1814650" lon="-7.4362420">
        <ele>9.8</ele>
        <time>2020-12-22T16:08:19Z</time>
      </trkpt>
      <trkpt lat="37.1814540" lon="-7.4362850">
        <ele>9.8</ele>
        <time>2020-12-22T16:08:20Z</time>
      </trkpt>
      <trkpt lat="37.1814420" lon="-7.4363300">
        <ele>9.8</ele>
        <time>2020-12-22T16:08:21Z</time>
      </trkpt>
      <trkpt lat="37.1814270" lon="-7.4363760">
        <ele>9.8</ele>
        <time>2020-12-22T16:08:22Z</time>
      </trkpt>
      <trkpt lat="37.1814160" lon="-7.4364240">
        <ele>9.8</ele>
        <time>2020-12-22T16:08:23Z</time>
      </trkpt>
      <trkpt lat="37.1814010" lon="-7.4364700">
        <ele>9.7</ele>
        <time>2020-12-22T16:08:24Z</time>
      </trkpt>
      <trkpt lat="37.1813890" lon="-7.4365180">
        <ele>9.7</ele>
        <time>2020-12-22T16:08:25Z</time>
      </trkpt>
      <trkpt lat="37.1813740" lon="-7.4365650">
        <ele>9.7</ele>
        <time>2020-12-22T16:08:26Z</time>
      </trkpt>
      <trkpt lat="37.1813580" lon="-7.4366110">
        <ele>9.7</ele>
        <time>2020-12-22T16:08:27Z</time>
      </trkpt>
      <trkpt lat="37.1813430" lon="-7.4366560">
        <ele>9.6</ele>
        <time>2020-12-22T16:08:28Z</time>
      </trkpt>
      <trkpt lat="37.1813320" lon="-7.4367010">
        <ele>9.6</ele>
        <time>2020-12-22T16:08:29Z</time>
      </trkpt>
      <trkpt lat="37.1813160" lon="-7.4367480">
        <ele>9.6</ele>
        <time>2020-12-22T16:08:30Z</time>
      </trkpt>
      <trkpt lat="37.1813010" lon="-7.4367970">
        <ele>9.6</ele>
        <time>2020-12-22T16:08:31Z</time>
      </trkpt>
      <trkpt lat="37.1812900" lon="-7.4368490">
        <ele>9.6</ele>
        <time>2020-12-22T16:08:32Z</time>
      </trkpt>
      <trkpt lat="37.1812780" lon="-7.4369070">
        <ele>9.5</ele>
        <time>2020-12-22T16:08:33Z</time>
      </trkpt>
      <trkpt lat="37.1812670" lon="-7.4369570">
        <ele>9.5</ele>
        <time>2020-12-22T16:08:34Z</time>
      </trkpt>
      <trkpt lat="37.1812480" lon="-7.4370080">
        <ele>9.5</ele>
        <time>2020-12-22T16:08:35Z</time>
      </trkpt>
      <trkpt lat="37.1812250" lon="-7.4370570">
        <ele>9.4</ele>
        <time>2020-12-22T16:08:36Z</time>
      </trkpt>
      <trkpt lat="37.1812170" lon="-7.4371010">
        <ele>9.4</ele>
        <time>2020-12-22T16:08:37Z</time>
      </trkpt>
      <trkpt lat="37.1811980" lon="-7.4371540">
        <ele>9.4</ele>
        <time>2020-12-22T16:08:38Z</time>
      </trkpt>
      <trkpt lat="37.1811830" lon="-7.4372050">
        <ele>9.3</ele>
        <time>2020-12-22T16:08:39Z</time>
      </trkpt>
      <trkpt lat="37.1811710" lon="-7.4372540">
        <ele>9.3</ele>
        <time>2020-12-22T16:08:40Z</time>
      </trkpt>
      <trkpt lat="37.1811600" lon="-7.4373040">
        <ele>9.3</ele>
        <time>2020-12-22T16:08:41Z</time>
      </trkpt>
      <trkpt lat="37.1811490" lon="-7.4373530">
        <ele>9.2</ele>
        <time>2020-12-22T16:08:42Z</time>
      </trkpt>
      <trkpt lat="37.1811300" lon="-7.4374050">
        <ele>9.2</ele>
        <time>2020-12-22T16:08:43Z</time>
      </trkpt>
      <trkpt lat="37.1811140" lon="-7.4374560">
        <ele>9.1</ele>
        <time>2020-12-22T16:08:44Z</time>
      </trkpt>
      <trkpt lat="37.1810990" lon="-7.4375080">
        <ele>9.1</ele>
        <time>2020-12-22T16:08:45Z</time>
      </trkpt>
      <trkpt lat="37.1810800" lon="-7.4375600">
        <ele>9.1</ele>
        <time>2020-12-22T16:08:46Z</time>
      </trkpt>
      <trkpt lat="37.1810650" lon="-7.4376120">
        <ele>9.0</ele>
        <time>2020-12-22T16:08:47Z</time>
      </trkpt>
      <trkpt lat="37.1810460" lon="-7.4376690">
        <ele>9.0</ele>
        <time>2020-12-22T16:08:48Z</time>
      </trkpt>
      <trkpt lat="37.1810340" lon="-7.4377210">
        <ele>9.0</ele>
        <time>2020-12-22T16:08:49Z</time>
      </trkpt>
      <trkpt lat="37.1810150" lon="-7.4377680">
        <ele>9.0</ele>
        <time>2020-12-22T16:08:50Z</time>
      </trkpt>
      <trkpt lat="37.1810000" lon="-7.4378190">
        <ele>8.9</ele>
        <time>2020-12-22T16:08:51Z</time>
      </trkpt>
      <trkpt lat="37.1809810" lon="-7.4378660">
        <ele>8.9</ele>
        <time>2020-12-22T16:08:52Z</time>
      </trkpt>
      <trkpt lat="37.1809730" lon="-7.4379180">
        <ele>8.8</ele>
        <time>2020-12-22T16:08:53Z</time>
      </trkpt>
      <trkpt lat="37.1809580" lon="-7.4379680">
        <ele>8.8</ele>
        <time>2020-12-22T16:08:54Z</time>
      </trkpt>
      <trkpt lat="37.1809430" lon="-7.4380190">
        <ele>8.8</ele>
        <time>2020-12-22T16:08:55Z</time>
      </trkpt>
      <trkpt lat="37.1809270" lon="-7.4380710">
        <ele>8.7</ele>
        <time>2020-12-22T16:08:56Z</time>
      </trkpt>
      <trkpt lat="37.1809120" lon="-7.4381240">
        <ele>8.7</ele>
        <time>2020-12-22T16:08:57Z</time>
      </trkpt>
      <trkpt lat="37.1808970" lon="-7.4381740">
        <ele>8.7</ele>
        <time>2020-12-22T16:08:58Z</time>
      </trkpt>
      <trkpt lat="37.1808850" lon="-7.4382240">
        <ele>8.7</ele>
        <time>2020-12-22T16:08:59Z</time>
      </trkpt>
      <trkpt lat="37.1808700" lon="-7.4382730">
        <ele>8.6</ele>
        <time>2020-12-22T16:09:00Z</time>
      </trkpt>
      <trkpt lat="37.1808550" lon="-7.4383230">
        <ele>8.6</ele>
        <time>2020-12-22T16:09:01Z</time>
      </trkpt>
      <trkpt lat="37.1808360" lon="-7.4383740">
        <ele>8.6</ele>
        <time>2020-12-22T16:09:02Z</time>
      </trkpt>
      <trkpt lat="37.1808240" lon="-7.4384260">
        <ele>8.6</ele>
        <time>2020-12-22T16:09:03Z</time>
      </trkpt>
      <trkpt lat="37.1808090" lon="-7.4384760">
        <ele>8.5</ele>
        <time>2020-12-22T16:09:04Z</time>
      </trkpt>
      <trkpt lat="37.1807900" lon="-7.4385260">
        <ele>8.5</ele>
        <time>2020-12-22T16:09:05Z</time>
      </trkpt>
      <trkpt lat="37.1807750" lon="-7.4385740">
        <ele>8.5</ele>
        <time>2020-12-22T16:09:06Z</time>
      </trkpt>
      <trkpt lat="37.1807600" lon="-7.4386210">
        <ele>8.5</ele>
        <time>2020-12-22T16:09:07Z</time>
      </trkpt>
      <trkpt lat="37.1807480" lon="-7.4386680">
        <ele>8.4</ele>
        <time>2020-12-22T16:09:08Z</time>
      </trkpt>
      <trkpt lat="37.1807330" lon="-7.4387120">
        <ele>8.4</ele>
        <time>2020-12-22T16:09:09Z</time>
      </trkpt>
      <trkpt lat="37.1807170" lon="-7.4387600">
        <ele>8.4</ele>
        <time>2020-12-22T16:09:10Z</time>
      </trkpt>
      <trkpt lat="37.1807060" lon="-7.4388100">
        <ele>8.3</ele>
        <time>2020-12-22T16:09:11Z</time>
      </trkpt>
      <trkpt lat="37.1806910" lon="-7.4388620">
        <ele>8.3</ele>
        <time>2020-12-22T16:09:12Z</time>
      </trkpt>
      <trkpt lat="37.1806680" lon="-7.4389170">
        <ele>8.3</ele>
        <time>2020-12-22T16:09:13Z</time>
      </trkpt>
      <trkpt lat="37.1806530" lon="-7.4389670">
        <ele>8.2</ele>
        <time>2020-12-22T16:09:14Z</time>
      </trkpt>
      <trkpt lat="37.1806410" lon="-7.4390170">
        <ele>8.2</ele>
        <time>2020-12-22T16:09:15Z</time>
      </trkpt>
      <trkpt lat="37.1806260" lon="-7.4390670">
        <ele>8.2</ele>
        <time>2020-12-22T16:09:16Z</time>
      </trkpt>
      <trkpt lat="37.1806180" lon="-7.4391160">
        <ele>8.2</ele>
        <time>2020-12-22T16:09:17Z</time>
      </trkpt>
      <trkpt lat="37.1805990" lon="-7.4391620">
        <ele>8.2</ele>
        <time>2020-12-22T16:09:18Z</time>
      </trkpt>
      <trkpt lat="37.1805840" lon="-7.4392110">
        <ele>8.1</ele>
        <time>2020-12-22T16:09:19Z</time>
      </trkpt>
      <trkpt lat="37.1805730" lon="-7.4392630">
        <ele>8.1</ele>
        <time>2020-12-22T16:09:20Z</time>
      </trkpt>
      <trkpt lat="37.1805570" lon="-7.4393130">
        <ele>8.1</ele>
        <time>2020-12-22T16:09:21Z</time>
      </trkpt>
      <trkpt lat="37.1805420" lon="-7.4393630">
        <ele>8.1</ele>
        <time>2020-12-22T16:09:22Z</time>
      </trkpt>
      <trkpt lat="37.1805270" lon="-7.4394190">
        <ele>8.1</ele>
        <time>2020-12-22T16:09:23Z</time>
      </trkpt>
      <trkpt lat="37.1805120" lon="-7.4394700">
        <ele>8.0</ele>
        <time>2020-12-22T16:09:24Z</time>
      </trkpt>
      <trkpt lat="37.1805000" lon="-7.4395190">
        <ele>8.0</ele>
        <time>2020-12-22T16:09:25Z</time>
      </trkpt>
      <trkpt lat="37.1804850" lon="-7.4395680">
        <ele>8.0</ele>
        <time>2020-12-22T16:09:26Z</time>
      </trkpt>
      <trkpt lat="37.1804700" lon="-7.4396170">
        <ele>8.0</ele>
        <time>2020-12-22T16:09:27Z</time>
      </trkpt>
      <trkpt lat="37.1804540" lon="-7.4396650">
        <ele>7.9</ele>
        <time>2020-12-22T16:09:28Z</time>
      </trkpt>
      <trkpt lat="37.1804390" lon="-7.4397120">
        <ele>7.9</ele>
        <time>2020-12-22T16:09:29Z</time>
      </trkpt>
      <trkpt lat="37.1804240" lon="-7.4397640">
        <ele>7.9</ele>
        <time>2020-12-22T16:09:30Z</time>
      </trkpt>
      <trkpt lat="37.1804080" lon="-7.4398200">
        <ele>7.8</ele>
        <time>2020-12-22T16:09:31Z</time>
      </trkpt>
      <trkpt lat="37.1803970" lon="-7.4398700">
        <ele>7.8</ele>
        <time>2020-12-22T16:09:32Z</time>
      </trkpt>
      <trkpt lat="37.1803820" lon="-7.4399230">
        <ele>7.8</ele>
        <time>2020-12-22T16:09:33Z</time>
      </trkpt>
      <trkpt lat="37.1803630" lon="-7.4399760">
        <ele>7.7</ele>
        <time>2020-12-22T16:09:34Z</time>
      </trkpt>
      <trkpt lat="37.1803510" lon="-7.4400260">
        <ele>7.7</ele>
        <time>2020-12-22T16:09:35Z</time>
      </trkpt>
      <trkpt lat="37.1803400" lon="-7.4400760">
        <ele>7.7</ele>
        <time>2020-12-22T16:09:36Z</time>
      </trkpt>
      <trkpt lat="37.1803250" lon="-7.4401260">
        <ele>7.6</ele>
        <time>2020-12-22T16:09:37Z</time>
      </trkpt>
      <trkpt lat="37.1803130" lon="-7.4401770">
        <ele>7.6</ele>
        <time>2020-12-22T16:09:38Z</time>
      </trkpt>
      <trkpt lat="37.1802860" lon="-7.4402320">
        <ele>7.6</ele>
        <time>2020-12-22T16:09:39Z</time>
      </trkpt>
      <trkpt lat="37.1802710" lon="-7.4402800">
        <ele>7.6</ele>
        <time>2020-12-22T16:09:40Z</time>
      </trkpt>
      <trkpt lat="37.1802560" lon="-7.4403290">
        <ele>7.5</ele>
        <time>2020-12-22T16:09:41Z</time>
      </trkpt>
      <trkpt lat="37.1802410" lon="-7.4403820">
        <ele>7.5</ele>
        <time>2020-12-22T16:09:42Z</time>
      </trkpt>
      <trkpt lat="37.1802290" lon="-7.4404320">
        <ele>7.5</ele>
        <time>2020-12-22T16:09:43Z</time>
      </trkpt>
      <trkpt lat="37.1802140" lon="-7.4404860">
        <ele>7.4</ele>
        <time>2020-12-22T16:09:44Z</time>
      </trkpt>
      <trkpt lat="37.1801910" lon="-7.4405520">
        <ele>7.4</ele>
        <time>2020-12-22T16:09:45Z</time>
      </trkpt>
      <trkpt lat="37.1801720" lon="-7.4406290">
        <ele>7.4</ele>
        <time>2020-12-22T16:09:46Z</time>
      </trkpt>
      <trkpt lat="37.1801490" lon="-7.4407100">
        <ele>7.3</ele>
        <time>2020-12-22T16:09:47Z</time>
      </trkpt>
      <trkpt lat="37.1801260" lon="-7.4407930">
        <ele>7.3</ele>
        <time>2020-12-22T16:09:48Z</time>
      </trkpt>
      <trkpt lat="37.1801030" lon="-7.4408770">
        <ele>7.2</ele>
        <time>2020-12-22T16:09:49Z</time>
      </trkpt>
      <trkpt lat="37.1800770" lon="-7.4409640">
        <ele>7.2</ele>
        <time>2020-12-22T16:09:50Z</time>
      </trkpt>
      <trkpt lat="37.1800460" lon="-7.4410450">
        <ele>7.2</ele>
        <time>2020-12-22T16:09:51Z</time>
      </trkpt>
      <trkpt lat="37.1800160" lon="-7.4411290">
        <ele>7.1</ele>
        <time>2020-12-22T16:09:52Z</time>
      </trkpt>
      <trkpt lat="37.1799820" lon="-7.4412090">
        <ele>7.1</ele>
        <time>2020-12-22T16:09:53Z</time>
      </trkpt>
      <trkpt lat="37.1799580" lon="-7.4412970">
        <ele>7.1</ele>
        <time>2020-12-22T16:09:54Z</time>
      </trkpt>
      <trkpt lat="37.1799320" lon="-7.4413810">
        <ele>7.1</ele>
        <time>2020-12-22T16:09:55Z</time>
      </trkpt>
      <trkpt lat="37.1799090" lon="-7.4414740">
        <ele>7.1</ele>
        <time>2020-12-22T16:09:56Z</time>
      </trkpt>
      <trkpt lat="37.1798780" lon="-7.4415660">
        <ele>7.1</ele>
        <time>2020-12-22T16:09:57Z</time>
      </trkpt>
      <trkpt lat="37.1798440" lon="-7.4416670">
        <ele>7.1</ele>
        <time>2020-12-22T16:09:58Z</time>
      </trkpt>
      <trkpt lat="37.1798140" lon="-7.4417580">
        <ele>7.1</ele>
        <time>2020-12-22T16:09:59Z</time>
      </trkpt>
      <trkpt lat="37.1797870" lon="-7.4418510">
        <ele>7.0</ele>
        <time>2020-12-22T16:10:00Z</time>
      </trkpt>
      <trkpt lat="37.1797640" lon="-7.4419460">
        <ele>7.0</ele>
        <time>2020-12-22T16:10:01Z</time>
      </trkpt>
      <trkpt lat="37.1797340" lon="-7.4420440">
        <ele>7.0</ele>
        <time>2020-12-22T16:10:02Z</time>
      </trkpt>
      <trkpt lat="37.1797070" lon="-7.4421370">
        <ele>7.0</ele>
        <time>2020-12-22T16:10:03Z</time>
      </trkpt>
      <trkpt lat="37.1796800" lon="-7.4422300">
        <ele>7.1</ele>
        <time>2020-12-22T16:10:04Z</time>
      </trkpt>
      <trkpt lat="37.1796500" lon="-7.4423160">
        <ele>7.1</ele>
        <time>2020-12-22T16:10:05Z</time>
      </trkpt>
      <trkpt lat="37.1796150" lon="-7.4424020">
        <ele>7.1</ele>
        <time>2020-12-22T16:10:06Z</time>
      </trkpt>
      <trkpt lat="37.1795880" lon="-7.4424890">
        <ele>7.1</ele>
        <time>2020-12-22T16:10:07Z</time>
      </trkpt>
      <trkpt lat="37.1795620" lon="-7.4425730">
        <ele>7.1</ele>
        <time>2020-12-22T16:10:08Z</time>
      </trkpt>
      <trkpt lat="37.1795430" lon="-7.4426560">
        <ele>7.1</ele>
        <time>2020-12-22T16:10:09Z</time>
      </trkpt>
      <trkpt lat="37.1795240" lon="-7.4427330">
        <ele>7.1</ele>
        <time>2020-12-22T16:10:10Z</time>
      </trkpt>
      <trkpt lat="37.1794970" lon="-7.4428090">
        <ele>7.1</ele>
        <time>2020-12-22T16:10:11Z</time>
      </trkpt>
      <trkpt lat="37.1794740" lon="-7.4428860">
        <ele>7.2</ele>
        <time>2020-12-22T16:10:12Z</time>
      </trkpt>
      <trkpt lat="37.1794550" lon="-7.4429600">
        <ele>7.2</ele>
        <time>2020-12-22T16:10:13Z</time>
      </trkpt>
      <trkpt lat="37.1794430" lon="-7.4430330">
        <ele>7.2</ele>
        <time>2020-12-22T16:10:14Z</time>
      </trkpt>
      <trkpt lat="37.1794240" lon="-7.4431020">
        <ele>7.3</ele>
        <time>2020-12-22T16:10:15Z</time>
      </trkpt>
      <trkpt lat="37.1794170" lon="-7.4431670">
        <ele>7.3</ele>
        <time>2020-12-22T16:10:16Z</time>
      </trkpt>
      <trkpt lat="37.1794020" lon="-7.4432350">
        <ele>7.3</ele>
        <time>2020-12-22T16:10:17Z</time>
      </trkpt>
      <trkpt lat="37.1793940" lon="-7.4433060">
        <ele>7.3</ele>
        <time>2020-12-22T16:10:18Z</time>
      </trkpt>
      <trkpt lat="37.1793900" lon="-7.4433710">
        <ele>7.3</ele>
        <time>2020-12-22T16:10:19Z</time>
      </trkpt>
      <trkpt lat="37.1793900" lon="-7.4434330">
        <ele>7.3</ele>
        <time>2020-12-22T16:10:20Z</time>
      </trkpt>
      <trkpt lat="37.1793820" lon="-7.4434950">
        <ele>7.3</ele>
        <time>2020-12-22T16:10:21Z</time>
      </trkpt>
      <trkpt lat="37.1793710" lon="-7.4435420">
        <ele>7.4</ele>
        <time>2020-12-22T16:10:22Z</time>
      </trkpt>
      <trkpt lat="37.1793630" lon="-7.4435760">
        <ele>7.4</ele>
        <time>2020-12-22T16:10:23Z</time>
      </trkpt>
      <trkpt lat="37.1793630" lon="-7.4436080">
        <ele>7.4</ele>
        <time>2020-12-22T16:10:24Z</time>
      </trkpt>
      <trkpt lat="37.1793590" lon="-7.4436320">
        <ele>7.4</ele>
        <time>2020-12-22T16:10:25Z</time>
      </trkpt>
      <trkpt lat="37.1793480" lon="-7.4436430">
        <ele>7.4</ele>
        <time>2020-12-22T16:10:26Z</time>
      </trkpt>
      <trkpt lat="37.1793330" lon="-7.4436680">
        <ele>7.4</ele>
        <time>2020-12-22T16:11:09Z</time>
      </trkpt>
      <trkpt lat="37.1793330" lon="-7.4436830">
        <ele>7.4</ele>
        <time>2020-12-22T16:11:10Z</time>
      </trkpt>
      <trkpt lat="37.1793290" lon="-7.4436960">
        <ele>7.4</ele>
        <time>2020-12-22T16:11:11Z</time>
      </trkpt>
      <trkpt lat="37.1793250" lon="-7.4437110">
        <ele>7.4</ele>
        <time>2020-12-22T16:11:12Z</time>
      </trkpt>
      <trkpt lat="37.1793210" lon="-7.4437280">
        <ele>7.4</ele>
        <time>2020-12-22T16:11:13Z</time>
      </trkpt>
      <trkpt lat="37.1793140" lon="-7.4437470">
        <ele>7.4</ele>
        <time>2020-12-22T16:11:14Z</time>
      </trkpt>
      <trkpt lat="37.1793100" lon="-7.4437670">
        <ele>7.4</ele>
        <time>2020-12-22T16:11:15Z</time>
      </trkpt>
      <trkpt lat="37.1793020" lon="-7.4437900">
        <ele>7.5</ele>
        <time>2020-12-22T16:11:16Z</time>
      </trkpt>
      <trkpt lat="37.1792910" lon="-7.4438160">
        <ele>7.5</ele>
        <time>2020-12-22T16:11:17Z</time>
      </trkpt>
      <trkpt lat="37.1792870" lon="-7.4438430">
        <ele>7.5</ele>
        <time>2020-12-22T16:11:18Z</time>
      </trkpt>
      <trkpt lat="37.1792790" lon="-7.4438710">
        <ele>7.5</ele>
        <time>2020-12-22T16:11:19Z</time>
      </trkpt>
      <trkpt lat="37.1792790" lon="-7.4439020">
        <ele>7.5</ele>
        <time>2020-12-22T16:11:20Z</time>
      </trkpt>
      <trkpt lat="37.1792790" lon="-7.4439340">
        <ele>7.5</ele>
        <time>2020-12-22T16:11:21Z</time>
      </trkpt>
      <trkpt lat="37.1792790" lon="-7.4439680">
        <ele>7.6</ele>
        <time>2020-12-22T16:11:22Z</time>
      </trkpt>
      <trkpt lat="37.1792910" lon="-7.4440030">
        <ele>7.6</ele>
        <time>2020-12-22T16:11:23Z</time>
      </trkpt>
      <trkpt lat="37.1793020" lon="-7.4440400">
        <ele>7.6</ele>
        <time>2020-12-22T16:11:24Z</time>
      </trkpt>
      <trkpt lat="37.1793100" lon="-7.4440760">
        <ele>7.6</ele>
        <time>2020-12-22T16:11:25Z</time>
      </trkpt>
      <trkpt lat="37.1793100" lon="-7.4441060">
        <ele>7.6</ele>
        <time>2020-12-22T16:11:26Z</time>
      </trkpt>
      <trkpt lat="37.1793140" lon="-7.4441370">
        <ele>7.7</ele>
        <time>2020-12-22T16:11:27Z</time>
      </trkpt>
      <trkpt lat="37.1793170" lon="-7.4441670">
        <ele>7.7</ele>
        <time>2020-12-22T16:11:28Z</time>
      </trkpt>
      <trkpt lat="37.1793290" lon="-7.4441930">
        <ele>7.7</ele>
        <time>2020-12-22T16:11:29Z</time>
      </trkpt>
      <trkpt lat="37.1793370" lon="-7.4442160">
        <ele>7.7</ele>
        <time>2020-12-22T16:11:30Z</time>
      </trkpt>
      <trkpt lat="37.1793440" lon="-7.4442310">
        <ele>7.7</ele>
        <time>2020-12-22T16:11:31Z</time>
      </trkpt>
      <trkpt lat="37.1793480" lon="-7.4442350">
        <ele>7.7</ele>
        <time>2020-12-22T16:11:32Z</time>
      </trkpt>
      <trkpt lat="37.1793480" lon="-7.4442370">
        <ele>7.7</ele>
        <time>2020-12-22T16:11:33Z</time>
      </trkpt>
      <trkpt lat="37.1793480" lon="-7.4442370">
        <ele>7.7</ele>
        <time>2020-12-22T16:11:34Z</time>
      </trkpt>
      <trkpt lat="37.1793480" lon="-7.4442370">
        <ele>7.7</ele>
        <time>2020-12-22T16:11:35Z</time>
      </trkpt>
      <trkpt lat="37.1793520" lon="-7.4442360">
        <ele>7.7</ele>
        <time>2020-12-22T16:11:36Z</time>
      </trkpt>
      <trkpt lat="37.1793590" lon="-7.4442470">
        <ele>7.7</ele>
        <time>2020-12-22T16:11:52Z</time>
      </trkpt>
      <trkpt lat="37.1793630" lon="-7.4442660">
        <ele>7.7</ele>
        <time>2020-12-22T16:11:53Z</time>
      </trkpt>
      <trkpt lat="37.1793710" lon="-7.4442800">
        <ele>7.7</ele>
        <time>2020-12-22T16:11:54Z</time>
      </trkpt>
      <trkpt lat="37.1793750" lon="-7.4442910">
        <ele>7.7</ele>
        <time>2020-12-22T16:11:55Z</time>
      </trkpt>
      <trkpt lat="37.1793780" lon="-7.4443000">
        <ele>7.7</ele>
        <time>2020-12-22T16:11:56Z</time>
      </trkpt>
      <trkpt lat="37.1793780" lon="-7.4443070">
        <ele>7.7</ele>
        <time>2020-12-22T16:11:57Z</time>
      </trkpt>
      <trkpt lat="37.1793860" lon="-7.4443150">
        <ele>7.7</ele>
        <time>2020-12-22T16:11:58Z</time>
      </trkpt>
      <trkpt lat="37.1793940" lon="-7.4443330">
        <ele>7.7</ele>
        <time>2020-12-22T16:11:59Z</time>
      </trkpt>
      <trkpt lat="37.1794090" lon="-7.4443520">
        <ele>7.7</ele>
        <time>2020-12-22T16:12:00Z</time>
      </trkpt>
      <trkpt lat="37.1794240" lon="-7.4443680">
        <ele>7.7</ele>
        <time>2020-12-22T16:12:01Z</time>
      </trkpt>
      <trkpt lat="37.1794430" lon="-7.4443820">
        <ele>7.7</ele>
        <time>2020-12-22T16:12:02Z</time>
      </trkpt>
      <trkpt lat="37.1794590" lon="-7.4443920">
        <ele>7.7</ele>
        <time>2020-12-22T16:12:03Z</time>
      </trkpt>
      <trkpt lat="37.1794770" lon="-7.4444000">
        <ele>7.7</ele>
        <time>2020-12-22T16:12:04Z</time>
      </trkpt>
      <trkpt lat="37.1794970" lon="-7.4444110">
        <ele>7.7</ele>
        <time>2020-12-22T16:12:05Z</time>
      </trkpt>
      <trkpt lat="37.1795200" lon="-7.4444220">
        <ele>7.7</ele>
        <time>2020-12-22T16:12:06Z</time>
      </trkpt>
      <trkpt lat="37.1795350" lon="-7.4444330">
        <ele>7.7</ele>
        <time>2020-12-22T16:12:07Z</time>
      </trkpt>
      <trkpt lat="37.1795500" lon="-7.4444430">
        <ele>7.7</ele>
        <time>2020-12-22T16:12:08Z</time>
      </trkpt>
      <trkpt lat="37.1795650" lon="-7.4444520">
        <ele>7.7</ele>
        <time>2020-12-22T16:12:09Z</time>
      </trkpt>
      <trkpt lat="37.1795880" lon="-7.4444640">
        <ele>7.7</ele>
        <time>2020-12-22T16:12:10Z</time>
      </trkpt>
      <trkpt lat="37.1796110" lon="-7.4444770">
        <ele>7.7</ele>
        <time>2020-12-22T16:12:11Z</time>
      </trkpt>
      <trkpt lat="37.1796300" lon="-7.4444900">
        <ele>7.7</ele>
        <time>2020-12-22T16:12:12Z</time>
      </trkpt>
      <trkpt lat="37.1796530" lon="-7.4445030">
        <ele>7.7</ele>
        <time>2020-12-22T16:12:13Z</time>
      </trkpt>
      <trkpt lat="37.1796720" lon="-7.4445130">
        <ele>7.7</ele>
        <time>2020-12-22T16:12:14Z</time>
      </trkpt>
      <trkpt lat="37.1796910" lon="-7.4445240">
        <ele>7.8</ele>
        <time>2020-12-22T16:12:15Z</time>
      </trkpt>
      <trkpt lat="37.1797070" lon="-7.4445350">
        <ele>7.8</ele>
        <time>2020-12-22T16:12:16Z</time>
      </trkpt>
      <trkpt lat="37.1797220" lon="-7.4445460">
        <ele>7.8</ele>
        <time>2020-12-22T16:12:17Z</time>
      </trkpt>
      <trkpt lat="37.1797410" lon="-7.4445570">
        <ele>7.8</ele>
        <time>2020-12-22T16:12:18Z</time>
      </trkpt>
      <trkpt lat="37.1797640" lon="-7.4445690">
        <ele>7.8</ele>
        <time>2020-12-22T16:12:19Z</time>
      </trkpt>
      <trkpt lat="37.1797870" lon="-7.4445810">
        <ele>7.8</ele>
        <time>2020-12-22T16:12:20Z</time>
      </trkpt>
      <trkpt lat="37.1798090" lon="-7.4445950">
        <ele>7.8</ele>
        <time>2020-12-22T16:12:21Z</time>
      </trkpt>
      <trkpt lat="37.1798320" lon="-7.4446100">
        <ele>7.8</ele>
        <time>2020-12-22T16:12:22Z</time>
      </trkpt>
      <trkpt lat="37.1798590" lon="-7.4446230">
        <ele>7.9</ele>
        <time>2020-12-22T16:12:23Z</time>
      </trkpt>
      <trkpt lat="37.1798780" lon="-7.4446380">
        <ele>7.9</ele>
        <time>2020-12-22T16:12:24Z</time>
      </trkpt>
      <trkpt lat="37.1799010" lon="-7.4446490">
        <ele>7.9</ele>
        <time>2020-12-22T16:12:25Z</time>
      </trkpt>
      <trkpt lat="37.1799240" lon="-7.4446630">
        <ele>7.9</ele>
        <time>2020-12-22T16:12:26Z</time>
      </trkpt>
      <trkpt lat="37.1799430" lon="-7.4446790">
        <ele>7.9</ele>
        <time>2020-12-22T16:12:27Z</time>
      </trkpt>
      <trkpt lat="37.1799660" lon="-7.4446930">
        <ele>7.9</ele>
        <time>2020-12-22T16:12:28Z</time>
      </trkpt>
      <trkpt lat="37.1799890" lon="-7.4447070">
        <ele>7.9</ele>
        <time>2020-12-22T16:12:29Z</time>
      </trkpt>
      <trkpt lat="37.1800120" lon="-7.4447230">
        <ele>7.9</ele>
        <time>2020-12-22T16:12:30Z</time>
      </trkpt>
      <trkpt lat="37.1800310" lon="-7.4447390">
        <ele>7.9</ele>
        <time>2020-12-22T16:12:31Z</time>
      </trkpt>
      <trkpt lat="37.1800500" lon="-7.4447500">
        <ele>7.9</ele>
        <time>2020-12-22T16:12:32Z</time>
      </trkpt>
      <trkpt lat="37.1800690" lon="-7.4447620">
        <ele>7.9</ele>
        <time>2020-12-22T16:12:33Z</time>
      </trkpt>
      <trkpt lat="37.1800800" lon="-7.4447800">
        <ele>7.9</ele>
        <time>2020-12-22T16:12:34Z</time>
      </trkpt>
      <trkpt lat="37.1800950" lon="-7.4447950">
        <ele>7.9</ele>
        <time>2020-12-22T16:12:35Z</time>
      </trkpt>
      <trkpt lat="37.1801150" lon="-7.4448110">
        <ele>7.9</ele>
        <time>2020-12-22T16:12:36Z</time>
      </trkpt>
      <trkpt lat="37.1801340" lon="-7.4448290">
        <ele>7.9</ele>
        <time>2020-12-22T16:12:37Z</time>
      </trkpt>
      <trkpt lat="37.1801570" lon="-7.4448460">
        <ele>7.9</ele>
        <time>2020-12-22T16:12:38Z</time>
      </trkpt>
      <trkpt lat="37.1801790" lon="-7.4448610">
        <ele>7.9</ele>
        <time>2020-12-22T16:12:39Z</time>
      </trkpt>
      <trkpt lat="37.1802060" lon="-7.4448780">
        <ele>7.9</ele>
        <time>2020-12-22T16:12:40Z</time>
      </trkpt>
      <trkpt lat="37.1802370" lon="-7.4448970">
        <ele>7.9</ele>
        <time>2020-12-22T16:12:41Z</time>
      </trkpt>
      <trkpt lat="37.1802670" lon="-7.4449160">
        <ele>7.9</ele>
        <time>2020-12-22T16:12:42Z</time>
      </trkpt>
      <trkpt lat="37.1802970" lon="-7.4449350">
        <ele>7.9</ele>
        <time>2020-12-22T16:12:43Z</time>
      </trkpt>
      <trkpt lat="37.1803280" lon="-7.4449520">
        <ele>7.9</ele>
        <time>2020-12-22T16:12:44Z</time>
      </trkpt>
      <trkpt lat="37.1803550" lon="-7.4449670">
        <ele>7.9</ele>
        <time>2020-12-22T16:12:45Z</time>
      </trkpt>
      <trkpt lat="37.1803850" lon="-7.4449810">
        <ele>7.9</ele>
        <time>2020-12-22T16:12:46Z</time>
      </trkpt>
      <trkpt lat="37.1804160" lon="-7.4449950">
        <ele>7.9</ele>
        <time>2020-12-22T16:12:47Z</time>
      </trkpt>
      <trkpt lat="37.1804430" lon="-7.4450090">
        <ele>7.9</ele>
        <time>2020-12-22T16:12:48Z</time>
      </trkpt>
      <trkpt lat="37.1804660" lon="-7.4450220">
        <ele>7.9</ele>
        <time>2020-12-22T16:12:49Z</time>
      </trkpt>
      <trkpt lat="37.1804920" lon="-7.4450330">
        <ele>7.9</ele>
        <time>2020-12-22T16:12:50Z</time>
      </trkpt>
      <trkpt lat="37.1805150" lon="-7.4450430">
        <ele>7.9</ele>
        <time>2020-12-22T16:12:51Z</time>
      </trkpt>
      <trkpt lat="37.1805340" lon="-7.4450520">
        <ele>7.9</ele>
        <time>2020-12-22T16:12:52Z</time>
      </trkpt>
      <trkpt lat="37.1805570" lon="-7.4450630">
        <ele>7.9</ele>
        <time>2020-12-22T16:12:53Z</time>
      </trkpt>
      <trkpt lat="37.1805760" lon="-7.4450740">
        <ele>7.9</ele>
        <time>2020-12-22T16:12:54Z</time>
      </trkpt>
      <trkpt lat="37.1805950" lon="-7.4450830">
        <ele>8.0</ele>
        <time>2020-12-22T16:12:55Z</time>
      </trkpt>
      <trkpt lat="37.1806140" lon="-7.4450890">
        <ele>8.0</ele>
        <time>2020-12-22T16:12:56Z</time>
      </trkpt>
      <trkpt lat="37.1806370" lon="-7.4450940">
        <ele>8.0</ele>
        <time>2020-12-22T16:12:57Z</time>
      </trkpt>
      <trkpt lat="37.1806560" lon="-7.4451010">
        <ele>8.0</ele>
        <time>2020-12-22T16:12:58Z</time>
      </trkpt>
      <trkpt lat="37.1806750" lon="-7.4451120">
        <ele>8.0</ele>
        <time>2020-12-22T16:12:59Z</time>
      </trkpt>
      <trkpt lat="37.1806980" lon="-7.4451230">
        <ele>8.0</ele>
        <time>2020-12-22T16:13:00Z</time>
      </trkpt>
      <trkpt lat="37.1807250" lon="-7.4451360">
        <ele>8.0</ele>
        <time>2020-12-22T16:13:01Z</time>
      </trkpt>
      <trkpt lat="37.1807560" lon="-7.4451480">
        <ele>8.0</ele>
        <time>2020-12-22T16:13:02Z</time>
      </trkpt>
      <trkpt lat="37.1807900" lon="-7.4451590">
        <ele>8.0</ele>
        <time>2020-12-22T16:13:03Z</time>
      </trkpt>
      <trkpt lat="37.1808200" lon="-7.4451800">
        <ele>8.0</ele>
        <time>2020-12-22T16:13:04Z</time>
      </trkpt>
      <trkpt lat="37.1808470" lon="-7.4452090">
        <ele>8.0</ele>
        <time>2020-12-22T16:13:05Z</time>
      </trkpt>
      <trkpt lat="37.1808660" lon="-7.4452430">
        <ele>8.0</ele>
        <time>2020-12-22T16:13:06Z</time>
      </trkpt>
      <trkpt lat="37.1808740" lon="-7.4452820">
        <ele>8.0</ele>
        <time>2020-12-22T16:13:07Z</time>
      </trkpt>
      <trkpt lat="37.1808780" lon="-7.4453230">
        <ele>8.0</ele>
        <time>2020-12-22T16:13:08Z</time>
      </trkpt>
      <trkpt lat="37.1808780" lon="-7.4453650">
        <ele>8.0</ele>
        <time>2020-12-22T16:13:09Z</time>
      </trkpt>
      <trkpt lat="37.1808780" lon="-7.4454050">
        <ele>8.0</ele>
        <time>2020-12-22T16:13:10Z</time>
      </trkpt>
      <trkpt lat="37.1808780" lon="-7.4454440">
        <ele>8.0</ele>
        <time>2020-12-22T16:13:11Z</time>
      </trkpt>
      <trkpt lat="37.1808780" lon="-7.4454810">
        <ele>8.0</ele>
        <time>2020-12-22T16:13:12Z</time>
      </trkpt>
      <trkpt lat="37.1808780" lon="-7.4455190">
        <ele>8.0</ele>
        <time>2020-12-22T16:13:13Z</time>
      </trkpt>
      <trkpt lat="37.1808810" lon="-7.4455530">
        <ele>8.0</ele>
        <time>2020-12-22T16:13:14Z</time>
      </trkpt>
      <trkpt lat="37.1808890" lon="-7.4455870">
        <ele>8.0</ele>
        <time>2020-12-22T16:13:15Z</time>
      </trkpt>
      <trkpt lat="37.1808890" lon="-7.4456210">
        <ele>8.0</ele>
        <time>2020-12-22T16:13:16Z</time>
      </trkpt>
      <trkpt lat="37.1808930" lon="-7.4456560">
        <ele>8.0</ele>
        <time>2020-12-22T16:13:17Z</time>
      </trkpt>
      <trkpt lat="37.1808970" lon="-7.4456920">
        <ele>8.0</ele>
        <time>2020-12-22T16:13:18Z</time>
      </trkpt>
      <trkpt lat="37.1808970" lon="-7.4457280">
        <ele>8.0</ele>
        <time>2020-12-22T16:13:19Z</time>
      </trkpt>
      <trkpt lat="37.1809010" lon="-7.4457660">
        <ele>8.0</ele>
        <time>2020-12-22T16:13:20Z</time>
      </trkpt>
      <trkpt lat="37.1809010" lon="-7.4458080">
        <ele>8.0</ele>
        <time>2020-12-22T16:13:21Z</time>
      </trkpt>
      <trkpt lat="37.1809040" lon="-7.4458510">
        <ele>8.0</ele>
        <time>2020-12-22T16:13:22Z</time>
      </trkpt>
      <trkpt lat="37.1809080" lon="-7.4458960">
        <ele>8.0</ele>
        <time>2020-12-22T16:13:23Z</time>
      </trkpt>
      <trkpt lat="37.1809080" lon="-7.4459420">
        <ele>8.0</ele>
        <time>2020-12-22T16:13:24Z</time>
      </trkpt>
      <trkpt lat="37.1809120" lon="-7.4459900">
        <ele>8.0</ele>
        <time>2020-12-22T16:13:25Z</time>
      </trkpt>
      <trkpt lat="37.1809160" lon="-7.4460390">
        <ele>8.0</ele>
        <time>2020-12-22T16:13:26Z</time>
      </trkpt>
      <trkpt lat="37.1809200" lon="-7.4460900">
        <ele>8.0</ele>
        <time>2020-12-22T16:13:27Z</time>
      </trkpt>
      <trkpt lat="37.1809230" lon="-7.4461420">
        <ele>8.0</ele>
        <time>2020-12-22T16:13:28Z</time>
      </trkpt>
      <trkpt lat="37.1809270" lon="-7.4461920">
        <ele>8.0</ele>
        <time>2020-12-22T16:13:29Z</time>
      </trkpt>
      <trkpt lat="37.1809270" lon="-7.4462390">
        <ele>8.0</ele>
        <time>2020-12-22T16:13:30Z</time>
      </trkpt>
      <trkpt lat="37.1809310" lon="-7.4462820">
        <ele>8.0</ele>
        <time>2020-12-22T16:13:31Z</time>
      </trkpt>
      <trkpt lat="37.1809310" lon="-7.4463240">
        <ele>8.0</ele>
        <time>2020-12-22T16:13:32Z</time>
      </trkpt>
      <trkpt lat="37.1809350" lon="-7.4463630">
        <ele>7.9</ele>
        <time>2020-12-22T16:13:33Z</time>
      </trkpt>
      <trkpt lat="37.1809390" lon="-7.4463990">
        <ele>7.9</ele>
        <time>2020-12-22T16:13:34Z</time>
      </trkpt>
      <trkpt lat="37.1809350" lon="-7.4464340">
        <ele>7.9</ele>
        <time>2020-12-22T16:13:35Z</time>
      </trkpt>
      <trkpt lat="37.1809390" lon="-7.4464690">
        <ele>7.9</ele>
        <time>2020-12-22T16:13:36Z</time>
      </trkpt>
      <trkpt lat="37.1809420" lon="-7.4465080">
        <ele>7.9</ele>
        <time>2020-12-22T16:13:37Z</time>
      </trkpt>
      <trkpt lat="37.1809460" lon="-7.4465510">
        <ele>7.9</ele>
        <time>2020-12-22T16:13:38Z</time>
      </trkpt>
      <trkpt lat="37.1809500" lon="-7.4466000">
        <ele>7.9</ele>
        <time>2020-12-22T16:13:39Z</time>
      </trkpt>
      <trkpt lat="37.1809540" lon="-7.4466490">
        <ele>7.9</ele>
        <time>2020-12-22T16:13:40Z</time>
      </trkpt>
      <trkpt lat="37.1809540" lon="-7.4467010">
        <ele>7.9</ele>
        <time>2020-12-22T16:13:41Z</time>
      </trkpt>
      <trkpt lat="37.1809580" lon="-7.4467520">
        <ele>7.9</ele>
        <time>2020-12-22T16:13:42Z</time>
      </trkpt>
      <trkpt lat="37.1809620" lon="-7.4468030">
        <ele>7.9</ele>
        <time>2020-12-22T16:13:43Z</time>
      </trkpt>
      <trkpt lat="37.1809620" lon="-7.4468530">
        <ele>7.9</ele>
        <time>2020-12-22T16:13:44Z</time>
      </trkpt>
      <trkpt lat="37.1809620" lon="-7.4469060">
        <ele>7.9</ele>
        <time>2020-12-22T16:13:45Z</time>
      </trkpt>
      <trkpt lat="37.1809650" lon="-7.4469580">
        <ele>7.9</ele>
        <time>2020-12-22T16:13:46Z</time>
      </trkpt>
      <trkpt lat="37.1809690" lon="-7.4470090">
        <ele>8.0</ele>
        <time>2020-12-22T16:13:47Z</time>
      </trkpt>
      <trkpt lat="37.1809730" lon="-7.4470580">
        <ele>8.0</ele>
        <time>2020-12-22T16:13:48Z</time>
      </trkpt>
      <trkpt lat="37.1809730" lon="-7.4471060">
        <ele>8.0</ele>
        <time>2020-12-22T16:13:49Z</time>
      </trkpt>
      <trkpt lat="37.1809730" lon="-7.4471520">
        <ele>8.1</ele>
        <time>2020-12-22T16:13:50Z</time>
      </trkpt>
      <trkpt lat="37.1809730" lon="-7.4471970">
        <ele>8.1</ele>
        <time>2020-12-22T16:13:51Z</time>
      </trkpt>
      <trkpt lat="37.1809730" lon="-7.4472430">
        <ele>8.1</ele>
        <time>2020-12-22T16:13:52Z</time>
      </trkpt>
      <trkpt lat="37.1809690" lon="-7.4472910">
        <ele>8.2</ele>
        <time>2020-12-22T16:13:53Z</time>
      </trkpt>
      <trkpt lat="37.1809690" lon="-7.4473420">
        <ele>8.2</ele>
        <time>2020-12-22T16:13:54Z</time>
      </trkpt>
      <trkpt lat="37.1809730" lon="-7.4473950">
        <ele>8.3</ele>
        <time>2020-12-22T16:13:55Z</time>
      </trkpt>
      <trkpt lat="37.1809770" lon="-7.4474460">
        <ele>8.3</ele>
        <time>2020-12-22T16:13:56Z</time>
      </trkpt>
      <trkpt lat="37.1809810" lon="-7.4474970">
        <ele>8.4</ele>
        <time>2020-12-22T16:13:57Z</time>
      </trkpt>
      <trkpt lat="37.1809840" lon="-7.4475500">
        <ele>8.4</ele>
        <time>2020-12-22T16:13:58Z</time>
      </trkpt>
      <trkpt lat="37.1809920" lon="-7.4475980">
        <ele>8.4</ele>
        <time>2020-12-22T16:13:59Z</time>
      </trkpt>
      <trkpt lat="37.1809990" lon="-7.4476450">
        <ele>8.4</ele>
        <time>2020-12-22T16:14:00Z</time>
      </trkpt>
      <trkpt lat="37.1810030" lon="-7.4476930">
        <ele>8.5</ele>
        <time>2020-12-22T16:14:01Z</time>
      </trkpt>
      <trkpt lat="37.1810040" lon="-7.4477400">
        <ele>8.5</ele>
        <time>2020-12-22T16:14:02Z</time>
      </trkpt>
      <trkpt lat="37.1810040" lon="-7.4477870">
        <ele>8.5</ele>
        <time>2020-12-22T16:14:03Z</time>
      </trkpt>
      <trkpt lat="37.1810040" lon="-7.4478310">
        <ele>8.6</ele>
        <time>2020-12-22T16:14:04Z</time>
      </trkpt>
      <trkpt lat="37.1810040" lon="-7.4478740">
        <ele>8.6</ele>
        <time>2020-12-22T16:14:05Z</time>
      </trkpt>
      <trkpt lat="37.1810070" lon="-7.4479160">
        <ele>8.6</ele>
        <time>2020-12-22T16:14:06Z</time>
      </trkpt>
      <trkpt lat="37.1810070" lon="-7.4479580">
        <ele>8.6</ele>
        <time>2020-12-22T16:14:07Z</time>
      </trkpt>
      <trkpt lat="37.1810110" lon="-7.4480000">
        <ele>8.7</ele>
        <time>2020-12-22T16:14:08Z</time>
      </trkpt>
      <trkpt lat="37.1810150" lon="-7.4480440">
        <ele>8.7</ele>
        <time>2020-12-22T16:14:09Z</time>
      </trkpt>
      <trkpt lat="37.1810190" lon="-7.4480880">
        <ele>8.7</ele>
        <time>2020-12-22T16:14:10Z</time>
      </trkpt>
      <trkpt lat="37.1810230" lon="-7.4481310">
        <ele>8.7</ele>
        <time>2020-12-22T16:14:11Z</time>
      </trkpt>
      <trkpt lat="37.1810260" lon="-7.4481730">
        <ele>8.6</ele>
        <time>2020-12-22T16:14:12Z</time>
      </trkpt>
      <trkpt lat="37.1810260" lon="-7.4482120">
        <ele>8.6</ele>
        <time>2020-12-22T16:14:13Z</time>
      </trkpt>
      <trkpt lat="37.1810260" lon="-7.4482530">
        <ele>8.6</ele>
        <time>2020-12-22T16:14:14Z</time>
      </trkpt>
      <trkpt lat="37.1810260" lon="-7.4482990">
        <ele>8.6</ele>
        <time>2020-12-22T16:14:15Z</time>
      </trkpt>
      <trkpt lat="37.1810230" lon="-7.4483460">
        <ele>8.6</ele>
        <time>2020-12-22T16:14:16Z</time>
      </trkpt>
      <trkpt lat="37.1810190" lon="-7.4483970">
        <ele>8.6</ele>
        <time>2020-12-22T16:14:17Z</time>
      </trkpt>
      <trkpt lat="37.1810230" lon="-7.4484480">
        <ele>8.6</ele>
        <time>2020-12-22T16:14:18Z</time>
      </trkpt>
      <trkpt lat="37.1810260" lon="-7.4484980">
        <ele>8.6</ele>
        <time>2020-12-22T16:14:19Z</time>
      </trkpt>
      <trkpt lat="37.1810260" lon="-7.4485480">
        <ele>8.6</ele>
        <time>2020-12-22T16:14:20Z</time>
      </trkpt>
      <trkpt lat="37.1810300" lon="-7.4485940">
        <ele>8.6</ele>
        <time>2020-12-22T16:14:21Z</time>
      </trkpt>
      <trkpt lat="37.1810340" lon="-7.4486390">
        <ele>8.6</ele>
        <time>2020-12-22T16:14:22Z</time>
      </trkpt>
      <trkpt lat="37.1810340" lon="-7.4486820">
        <ele>8.6</ele>
        <time>2020-12-22T16:14:23Z</time>
      </trkpt>
      <trkpt lat="37.1810340" lon="-7.4487240">
        <ele>8.6</ele>
        <time>2020-12-22T16:14:24Z</time>
      </trkpt>
      <trkpt lat="37.1810380" lon="-7.4487650">
        <ele>8.6</ele>
        <time>2020-12-22T16:14:25Z</time>
      </trkpt>
      <trkpt lat="37.1810420" lon="-7.4488060">
        <ele>8.6</ele>
        <time>2020-12-22T16:14:26Z</time>
      </trkpt>
      <trkpt lat="37.1810450" lon="-7.4488440">
        <ele>8.6</ele>
        <time>2020-12-22T16:14:27Z</time>
      </trkpt>
      <trkpt lat="37.1810490" lon="-7.4488770">
        <ele>8.6</ele>
        <time>2020-12-22T16:14:28Z</time>
      </trkpt>
      <trkpt lat="37.1810530" lon="-7.4489050">
        <ele>8.6</ele>
        <time>2020-12-22T16:14:29Z</time>
      </trkpt>
      <trkpt lat="37.1810460" lon="-7.4489290">
        <ele>8.6</ele>
        <time>2020-12-22T16:14:30Z</time>
      </trkpt>
      <trkpt lat="37.1810310" lon="-7.4489460">
        <ele>8.6</ele>
        <time>2020-12-22T16:14:31Z</time>
      </trkpt>
      <trkpt lat="37.1810120" lon="-7.4489550">
        <ele>8.6</ele>
        <time>2020-12-22T16:14:32Z</time>
      </trkpt>
      <trkpt lat="37.1809890" lon="-7.4489610">
        <ele>8.6</ele>
        <time>2020-12-22T16:14:33Z</time>
      </trkpt>
      <trkpt lat="37.1809700" lon="-7.4489640">
        <ele>8.6</ele>
        <time>2020-12-22T16:14:34Z</time>
      </trkpt>
      <trkpt lat="37.1809430" lon="-7.4489660">
        <ele>8.6</ele>
        <time>2020-12-22T16:14:35Z</time>
      </trkpt>
      <trkpt lat="37.1809170" lon="-7.4489670">
        <ele>8.6</ele>
        <time>2020-12-22T16:14:36Z</time>
      </trkpt>
      <trkpt lat="37.1808860" lon="-7.4489700">
        <ele>8.6</ele>
        <time>2020-12-22T16:14:37Z</time>
      </trkpt>
      <trkpt lat="37.1808560" lon="-7.4489720">
        <ele>8.6</ele>
        <time>2020-12-22T16:14:38Z</time>
      </trkpt>
      <trkpt lat="37.1808250" lon="-7.4489750">
        <ele>8.6</ele>
        <time>2020-12-22T16:14:39Z</time>
      </trkpt>
      <trkpt lat="37.1807910" lon="-7.4489770">
        <ele>8.6</ele>
        <time>2020-12-22T16:14:40Z</time>
      </trkpt>
      <trkpt lat="37.1807570" lon="-7.4489820">
        <ele>8.6</ele>
        <time>2020-12-22T16:14:41Z</time>
      </trkpt>
      <trkpt lat="37.1807260" lon="-7.4489850">
        <ele>8.6</ele>
        <time>2020-12-22T16:14:42Z</time>
      </trkpt>
      <trkpt lat="37.1806950" lon="-7.4489870">
        <ele>8.6</ele>
        <time>2020-12-22T16:14:43Z</time>
      </trkpt>
      <trkpt lat="37.1806690" lon="-7.4489940">
        <ele>8.6</ele>
        <time>2020-12-22T16:14:44Z</time>
      </trkpt>
      <trkpt lat="37.1806410" lon="-7.4490130">
        <ele>8.5</ele>
        <time>2020-12-22T16:14:45Z</time>
      </trkpt>
      <trkpt lat="37.1806370" lon="-7.4490420">
        <ele>8.4</ele>
        <time>2020-12-22T16:14:46Z</time>
      </trkpt>
      <trkpt lat="37.1806370" lon="-7.4490720">
        <ele>8.3</ele>
        <time>2020-12-22T16:14:47Z</time>
      </trkpt>
      <trkpt lat="37.1806410" lon="-7.4491000">
        <ele>8.3</ele>
        <time>2020-12-22T16:14:48Z</time>
      </trkpt>
      <trkpt lat="37.1806410" lon="-7.4491270">
        <ele>8.2</ele>
        <time>2020-12-22T16:14:49Z</time>
      </trkpt>
      <trkpt lat="37.1806450" lon="-7.4491550">
        <ele>8.2</ele>
        <time>2020-12-22T16:14:50Z</time>
      </trkpt>
      <trkpt lat="37.1806490" lon="-7.4491820">
        <ele>8.1</ele>
        <time>2020-12-22T16:14:51Z</time>
      </trkpt>
      <trkpt lat="37.1806490" lon="-7.4492050">
        <ele>8.0</ele>
        <time>2020-12-22T16:14:52Z</time>
      </trkpt>
      <trkpt lat="37.1806490" lon="-7.4492210">
        <ele>8.0</ele>
        <time>2020-12-22T16:14:53Z</time>
      </trkpt>
      <trkpt lat="37.1806450" lon="-7.4492310">
        <ele>8.0</ele>
        <time>2020-12-22T16:14:54Z</time>
      </trkpt>
      <trkpt lat="37.1806410" lon="-7.4492410">
        <ele>8.0</ele>
        <time>2020-12-22T16:14:55Z</time>
      </trkpt>
      <trkpt lat="37.1806340" lon="-7.4492490">
        <ele>7.9</ele>
        <time>2020-12-22T16:14:56Z</time>
      </trkpt>
      <trkpt lat="37.1806190" lon="-7.4492570">
        <ele>7.9</ele>
        <time>2020-12-22T16:14:57Z</time>
      </trkpt>
      <trkpt lat="37.1805960" lon="-7.4492670">
        <ele>7.8</ele>
        <time>2020-12-22T16:14:58Z</time>
      </trkpt>
      <trkpt lat="37.1805700" lon="-7.4492760">
        <ele>7.7</ele>
        <time>2020-12-22T16:14:59Z</time>
      </trkpt>
      <trkpt lat="37.1805510" lon="-7.4492890">
        <ele>7.7</ele>
        <time>2020-12-22T16:15:00Z</time>
      </trkpt>
      <trkpt lat="37.1805460" lon="-7.4493110">
        <ele>7.7</ele>
        <time>2020-12-22T16:15:01Z</time>
      </trkpt>
      <trkpt lat="37.1805530" lon="-7.4493300">
        <ele>7.7</ele>
        <time>2020-12-22T16:15:02Z</time>
      </trkpt>
      <trkpt lat="37.1805530" lon="-7.4493330">
        <ele>7.7</ele>
        <time>2020-12-22T16:15:03Z</time>
      </trkpt>
      <trkpt lat="37.1805610" lon="-7.4493270">
        <ele>7.7</ele>
        <time>2020-12-22T16:15:04Z</time>
      </trkpt>
      <trkpt lat="37.1805690" lon="-7.4493200">
        <ele>7.7</ele>
        <time>2020-12-22T16:15:05Z</time>
      </trkpt>
      <trkpt lat="37.1805690" lon="-7.4493170">
        <ele>7.7</ele>
        <time>2020-12-22T16:15:06Z</time>
      </trkpt>
      <trkpt lat="37.1805720" lon="-7.4493150">
        <ele>7.7</ele>
        <time>2020-12-22T16:15:07Z</time>
      </trkpt>
      <trkpt lat="37.1805800" lon="-7.4493110">
        <ele>7.7</ele>
        <time>2020-12-22T16:15:08Z</time>
      </trkpt>
      <trkpt lat="37.1805880" lon="-7.4493070">
        <ele>7.7</ele>
        <time>2020-12-22T16:15:09Z</time>
      </trkpt>
      <trkpt lat="37.1806030" lon="-7.4493110">
        <ele>7.7</ele>
        <time>2020-12-22T16:15:10Z</time>
      </trkpt>
      <trkpt lat="37.1806180" lon="-7.4493230">
        <ele>7.7</ele>
        <time>2020-12-22T16:15:11Z</time>
      </trkpt>
      <trkpt lat="37.1806290" lon="-7.4493300">
        <ele>7.7</ele>
        <time>2020-12-22T16:15:12Z</time>
      </trkpt>
      <trkpt lat="37.1806370" lon="-7.4493390">
        <ele>7.4</ele>
        <time>2020-12-22T16:15:13Z</time>
      </trkpt>
      <trkpt lat="37.1806410" lon="-7.4493450">
        <ele>7.4</ele>
        <time>2020-12-22T16:15:14Z</time>
      </trkpt>
      <trkpt lat="37.1806410" lon="-7.4493500">
        <ele>7.4</ele>
        <time>2020-12-22T16:15:15Z</time>
      </trkpt>
      <trkpt lat="37.1806450" lon="-7.4493550">
        <ele>7.4</ele>
        <time>2020-12-22T16:15:16Z</time>
      </trkpt>
      <trkpt lat="37.1806450" lon="-7.4493600">
        <ele>7.4</ele>
        <time>2020-12-22T16:15:17Z</time>
      </trkpt>
      <trkpt lat="37.1806450" lon="-7.4493630">
        <ele>7.4</ele>
        <time>2020-12-22T16:15:18Z</time>
      </trkpt>
      <trkpt lat="37.1806450" lon="-7.4493670">
        <ele>7.4</ele>
        <time>2020-12-22T16:15:19Z</time>
      </trkpt>
      <trkpt lat="37.1807170" lon="-7.4496070">
        <ele>7.2</ele>
        <time>2020-12-22T16:18:19Z</time>
      </trkpt>
      <trkpt lat="37.1807170" lon="-7.4496380">
        <ele>7.2</ele>
        <time>2020-12-22T16:18:20Z</time>
      </trkpt>
      <trkpt lat="37.1807170" lon="-7.4496830">
        <ele>7.1</ele>
        <time>2020-12-22T16:18:21Z</time>
      </trkpt>
      <trkpt lat="37.1807210" lon="-7.4497190">
        <ele>7.1</ele>
        <time>2020-12-22T16:18:22Z</time>
      </trkpt>
      <trkpt lat="37.1807210" lon="-7.4497490">
        <ele>7.1</ele>
        <time>2020-12-22T16:18:23Z</time>
      </trkpt>
      <trkpt lat="37.1807210" lon="-7.4497750">
        <ele>7.1</ele>
        <time>2020-12-22T16:18:24Z</time>
      </trkpt>
      <trkpt lat="37.1807250" lon="-7.4498020">
        <ele>7.1</ele>
        <time>2020-12-22T16:18:25Z</time>
      </trkpt>
      <trkpt lat="37.1807250" lon="-7.4498320">
        <ele>7.1</ele>
        <time>2020-12-22T16:18:26Z</time>
      </trkpt>
      <trkpt lat="37.1807330" lon="-7.4498620">
        <ele>7.1</ele>
        <time>2020-12-22T16:18:27Z</time>
      </trkpt>
      <trkpt lat="37.1807290" lon="-7.4498890">
        <ele>7.1</ele>
        <time>2020-12-22T16:18:28Z</time>
      </trkpt>
      <trkpt lat="37.1807290" lon="-7.4499160">
        <ele>7.2</ele>
        <time>2020-12-22T16:18:29Z</time>
      </trkpt>
      <trkpt lat="37.1807370" lon="-7.4499400">
        <ele>7.2</ele>
        <time>2020-12-22T16:18:30Z</time>
      </trkpt>
      <trkpt lat="37.1807370" lon="-7.4499660">
        <ele>7.2</ele>
        <time>2020-12-22T16:18:31Z</time>
      </trkpt>
      <trkpt lat="37.1807370" lon="-7.4499890">
        <ele>7.2</ele>
        <time>2020-12-22T16:18:32Z</time>
      </trkpt>
      <trkpt lat="37.1807330" lon="-7.4500110">
        <ele>7.2</ele>
        <time>2020-12-22T16:18:33Z</time>
      </trkpt>
      <trkpt lat="37.1807330" lon="-7.4500310">
        <ele>7.2</ele>
        <time>2020-12-22T16:18:34Z</time>
      </trkpt>
      <trkpt lat="37.1807250" lon="-7.4500500">
        <ele>7.2</ele>
        <time>2020-12-22T16:18:35Z</time>
      </trkpt>
      <trkpt lat="37.1807250" lon="-7.4500690">
        <ele>7.2</ele>
        <time>2020-12-22T16:18:36Z</time>
      </trkpt>
      <trkpt lat="37.1807170" lon="-7.4500860">
        <ele>7.2</ele>
        <time>2020-12-22T16:18:37Z</time>
      </trkpt>
      <trkpt lat="37.1807140" lon="-7.4501010">
        <ele>7.2</ele>
        <time>2020-12-22T16:18:38Z</time>
      </trkpt>
      <trkpt lat="37.1807140" lon="-7.4501140">
        <ele>7.2</ele>
        <time>2020-12-22T16:18:39Z</time>
      </trkpt>
      <trkpt lat="37.1807140" lon="-7.4501300">
        <ele>7.2</ele>
        <time>2020-12-22T16:18:40Z</time>
      </trkpt>
      <trkpt lat="37.1807140" lon="-7.4501460">
        <ele>7.2</ele>
        <time>2020-12-22T16:18:41Z</time>
      </trkpt>
      <trkpt lat="37.1807140" lon="-7.4501570">
        <ele>7.2</ele>
        <time>2020-12-22T16:18:42Z</time>
      </trkpt>
      <trkpt lat="37.1807140" lon="-7.4501670">
        <ele>7.2</ele>
        <time>2020-12-22T16:18:43Z</time>
      </trkpt>
      <trkpt lat="37.1807170" lon="-7.4501800">
        <ele>7.2</ele>
        <time>2020-12-22T16:18:44Z</time>
      </trkpt>
      <trkpt lat="37.1807140" lon="-7.4501970">
        <ele>7.2</ele>
        <time>2020-12-22T16:18:45Z</time>
      </trkpt>
      <trkpt lat="37.1807140" lon="-7.4502140">
        <ele>7.2</ele>
        <time>2020-12-22T16:18:46Z</time>
      </trkpt>
      <trkpt lat="37.1807100" lon="-7.4502340">
        <ele>7.2</ele>
        <time>2020-12-22T16:18:47Z</time>
      </trkpt>
      <trkpt lat="37.1807060" lon="-7.4502540">
        <ele>7.3</ele>
        <time>2020-12-22T16:18:48Z</time>
      </trkpt>
      <trkpt lat="37.1807060" lon="-7.4502680">
        <ele>7.4</ele>
        <time>2020-12-22T16:18:49Z</time>
      </trkpt>
      <trkpt lat="37.1807020" lon="-7.4502780">
        <ele>7.4</ele>
        <time>2020-12-22T16:18:50Z</time>
      </trkpt>
      <trkpt lat="37.1806980" lon="-7.4502870">
        <ele>7.5</ele>
        <time>2020-12-22T16:18:51Z</time>
      </trkpt>
      <trkpt lat="37.1806910" lon="-7.4503000">
        <ele>7.5</ele>
        <time>2020-12-22T16:18:52Z</time>
      </trkpt>
      <trkpt lat="37.1806830" lon="-7.4503140">
        <ele>7.6</ele>
        <time>2020-12-22T16:18:53Z</time>
      </trkpt>
      <trkpt lat="37.1806720" lon="-7.4503290">
        <ele>7.7</ele>
        <time>2020-12-22T16:18:54Z</time>
      </trkpt>
      <trkpt lat="37.1806600" lon="-7.4503500">
        <ele>7.8</ele>
        <time>2020-12-22T16:18:55Z</time>
      </trkpt>
      <trkpt lat="37.1806600" lon="-7.4503720">
        <ele>7.9</ele>
        <time>2020-12-22T16:18:56Z</time>
      </trkpt>
      <trkpt lat="37.1806640" lon="-7.4503900">
        <ele>7.9</ele>
        <time>2020-12-22T16:18:57Z</time>
      </trkpt>
      <trkpt lat="37.1806640" lon="-7.4504020">
        <ele>8.0</ele>
        <time>2020-12-22T16:18:58Z</time>
      </trkpt>
      <trkpt lat="37.1806640" lon="-7.4504100">
        <ele>8.0</ele>
        <time>2020-12-22T16:18:59Z</time>
      </trkpt>
      <trkpt lat="37.1806640" lon="-7.4504150">
        <ele>8.0</ele>
        <time>2020-12-22T16:19:00Z</time>
      </trkpt>
      <trkpt lat="37.1806680" lon="-7.4504270">
        <ele>8.1</ele>
        <time>2020-12-22T16:19:01Z</time>
      </trkpt>
      <trkpt lat="37.1806720" lon="-7.4504390">
        <ele>8.1</ele>
        <time>2020-12-22T16:19:02Z</time>
      </trkpt>
      <trkpt lat="37.1806720" lon="-7.4504490">
        <ele>8.2</ele>
        <time>2020-12-22T16:19:03Z</time>
      </trkpt>
      <trkpt lat="37.1806680" lon="-7.4504570">
        <ele>8.2</ele>
        <time>2020-12-22T16:19:04Z</time>
      </trkpt>
      <trkpt lat="37.1806720" lon="-7.4504580">
        <ele>8.2</ele>
        <time>2020-12-22T16:19:05Z</time>
      </trkpt>
      <trkpt lat="37.1806680" lon="-7.4504560">
        <ele>8.3</ele>
        <time>2020-12-22T16:19:06Z</time>
      </trkpt>
      <trkpt lat="37.1806760" lon="-7.4504640">
        <ele>8.3</ele>
        <time>2020-12-22T16:19:07Z</time>
      </trkpt>
      <trkpt lat="37.1806830" lon="-7.4504760">
        <ele>8.4</ele>
        <time>2020-12-22T16:19:08Z</time>
      </trkpt>
      <trkpt lat="37.1806790" lon="-7.4504550">
        <ele>8.5</ele>
        <time>2020-12-22T16:19:17Z</time>
      </trkpt>
      <trkpt lat="37.1806790" lon="-7.4504710">
        <ele>8.6</ele>
        <time>2020-12-22T16:19:18Z</time>
      </trkpt>
      <trkpt lat="37.1806760" lon="-7.4504860">
        <ele>8.6</ele>
        <time>2020-12-22T16:19:19Z</time>
      </trkpt>
      <trkpt lat="37.1806680" lon="-7.4505020">
        <ele>8.7</ele>
        <time>2020-12-22T16:19:20Z</time>
      </trkpt>
      <trkpt lat="37.1806600" lon="-7.4505200">
        <ele>8.8</ele>
        <time>2020-12-22T16:19:21Z</time>
      </trkpt>
      <trkpt lat="37.1806560" lon="-7.4505470">
        <ele>8.9</ele>
        <time>2020-12-22T16:19:22Z</time>
      </trkpt>
      <trkpt lat="37.1806530" lon="-7.4505740">
        <ele>9.1</ele>
        <time>2020-12-22T16:19:23Z</time>
      </trkpt>
      <trkpt lat="37.1806450" lon="-7.4505990">
        <ele>9.2</ele>
        <time>2020-12-22T16:19:24Z</time>
      </trkpt>
      <trkpt lat="37.1806410" lon="-7.4506230">
        <ele>9.3</ele>
        <time>2020-12-22T16:19:25Z</time>
      </trkpt>
      <trkpt lat="37.1806370" lon="-7.4506470">
        <ele>9.4</ele>
        <time>2020-12-22T16:19:26Z</time>
      </trkpt>
      <trkpt lat="37.1806260" lon="-7.4506720">
        <ele>9.5</ele>
        <time>2020-12-22T16:19:27Z</time>
      </trkpt>
      <trkpt lat="37.1806180" lon="-7.4506980">
        <ele>9.5</ele>
        <time>2020-12-22T16:19:28Z</time>
      </trkpt>
      <trkpt lat="37.1806110" lon="-7.4507230">
        <ele>9.6</ele>
        <time>2020-12-22T16:19:29Z</time>
      </trkpt>
      <trkpt lat="37.1806070" lon="-7.4507450">
        <ele>9.6</ele>
        <time>2020-12-22T16:19:30Z</time>
      </trkpt>
      <trkpt lat="37.1806030" lon="-7.4507740">
        <ele>9.6</ele>
        <time>2020-12-22T16:19:31Z</time>
      </trkpt>
      <trkpt lat="37.1805990" lon="-7.4508070">
        <ele>9.7</ele>
        <time>2020-12-22T16:19:32Z</time>
      </trkpt>
      <trkpt lat="37.1805880" lon="-7.4508380">
        <ele>9.7</ele>
        <time>2020-12-22T16:19:33Z</time>
      </trkpt>
      <trkpt lat="37.1805760" lon="-7.4508650">
        <ele>9.7</ele>
        <time>2020-12-22T16:19:34Z</time>
      </trkpt>
      <trkpt lat="37.1805730" lon="-7.4508970">
        <ele>9.8</ele>
        <time>2020-12-22T16:19:35Z</time>
      </trkpt>
      <trkpt lat="37.1805760" lon="-7.4509320">
        <ele>9.8</ele>
        <time>2020-12-22T16:19:36Z</time>
      </trkpt>
      <trkpt lat="37.1805840" lon="-7.4509690">
        <ele>9.8</ele>
        <time>2020-12-22T16:19:37Z</time>
      </trkpt>
      <trkpt lat="37.1805880" lon="-7.4510080">
        <ele>9.9</ele>
        <time>2020-12-22T16:19:38Z</time>
      </trkpt>
      <trkpt lat="37.1805840" lon="-7.4510500">
        <ele>9.9</ele>
        <time>2020-12-22T16:19:39Z</time>
      </trkpt>
      <trkpt lat="37.1805760" lon="-7.4510910">
        <ele>9.9</ele>
        <time>2020-12-22T16:19:40Z</time>
      </trkpt>
      <trkpt lat="37.1805730" lon="-7.4511300">
        <ele>9.9</ele>
        <time>2020-12-22T16:19:41Z</time>
      </trkpt>
      <trkpt lat="37.1805650" lon="-7.4511660">
        <ele>10.0</ele>
        <time>2020-12-22T16:19:42Z</time>
      </trkpt>
      <trkpt lat="37.1805650" lon="-7.4511970">
        <ele>10.0</ele>
        <time>2020-12-22T16:19:43Z</time>
      </trkpt>
      <trkpt lat="37.1805610" lon="-7.4512230">
        <ele>10.0</ele>
        <time>2020-12-22T16:19:44Z</time>
      </trkpt>
      <trkpt lat="37.1805570" lon="-7.4512460">
        <ele>10.0</ele>
        <time>2020-12-22T16:19:45Z</time>
      </trkpt>
      <trkpt lat="37.1805500" lon="-7.4512730">
        <ele>10.1</ele>
        <time>2020-12-22T16:19:46Z</time>
      </trkpt>
      <trkpt lat="37.1805380" lon="-7.4513060">
        <ele>10.1</ele>
        <time>2020-12-22T16:19:47Z</time>
      </trkpt>
      <trkpt lat="37.1805270" lon="-7.4513440">
        <ele>10.1</ele>
        <time>2020-12-22T16:19:48Z</time>
      </trkpt>
      <trkpt lat="37.1805150" lon="-7.4513790">
        <ele>10.2</ele>
        <time>2020-12-22T16:19:49Z</time>
      </trkpt>
      <trkpt lat="37.1805000" lon="-7.4514060">
        <ele>10.2</ele>
        <time>2020-12-22T16:19:50Z</time>
      </trkpt>
      <trkpt lat="37.1804850" lon="-7.4514270">
        <ele>10.2</ele>
        <time>2020-12-22T16:19:51Z</time>
      </trkpt>
      <trkpt lat="37.1804690" lon="-7.4514430">
        <ele>10.5</ele>
        <time>2020-12-22T16:19:52Z</time>
      </trkpt>
      <trkpt lat="37.1804540" lon="-7.4514510">
        <ele>10.6</ele>
        <time>2020-12-22T16:19:53Z</time>
      </trkpt>
      <trkpt lat="37.1804430" lon="-7.4514520">
        <ele>10.6</ele>
        <time>2020-12-22T16:19:54Z</time>
      </trkpt>
      <trkpt lat="37.1804350" lon="-7.4514480">
        <ele>10.7</ele>
        <time>2020-12-22T16:19:55Z</time>
      </trkpt>
      <trkpt lat="37.1804280" lon="-7.4514440">
        <ele>10.7</ele>
        <time>2020-12-22T16:19:56Z</time>
      </trkpt>
      <trkpt lat="37.1804240" lon="-7.4514390">
        <ele>10.8</ele>
        <time>2020-12-22T16:19:57Z</time>
      </trkpt>
      <trkpt lat="37.1804120" lon="-7.4514350">
        <ele>10.8</ele>
        <time>2020-12-22T16:19:58Z</time>
      </trkpt>
      <trkpt lat="37.1804010" lon="-7.4514360">
        <ele>10.9</ele>
        <time>2020-12-22T16:19:59Z</time>
      </trkpt>
      <trkpt lat="37.1803930" lon="-7.4514380">
        <ele>10.9</ele>
        <time>2020-12-22T16:20:00Z</time>
      </trkpt>
      <trkpt lat="37.1803860" lon="-7.4514370">
        <ele>11.0</ele>
        <time>2020-12-22T16:20:01Z</time>
      </trkpt>
      <trkpt lat="37.1803700" lon="-7.4514380">
        <ele>11.0</ele>
        <time>2020-12-22T16:20:02Z</time>
      </trkpt>
      <trkpt lat="37.1803630" lon="-7.4514380">
        <ele>11.1</ele>
        <time>2020-12-22T16:20:03Z</time>
      </trkpt>
      <trkpt lat="37.1803590" lon="-7.4514370">
        <ele>11.1</ele>
        <time>2020-12-22T16:20:04Z</time>
      </trkpt>
      <trkpt lat="37.1803510" lon="-7.4514310">
        <ele>11.2</ele>
        <time>2020-12-22T16:20:05Z</time>
      </trkpt>
      <trkpt lat="37.1803470" lon="-7.4514260">
        <ele>11.2</ele>
        <time>2020-12-22T16:20:06Z</time>
      </trkpt>
      <trkpt lat="37.1803510" lon="-7.4514210">
        <ele>11.2</ele>
        <time>2020-12-22T16:20:07Z</time>
      </trkpt>
      <trkpt lat="37.1803510" lon="-7.4514060">
        <ele>11.3</ele>
        <time>2020-12-22T16:20:08Z</time>
      </trkpt>
      <trkpt lat="37.1803440" lon="-7.4513800">
        <ele>11.4</ele>
        <time>2020-12-22T16:20:09Z</time>
      </trkpt>
      <trkpt lat="37.1803400" lon="-7.4513340">
        <ele>11.6</ele>
        <time>2020-12-22T16:20:10Z</time>
      </trkpt>
      <trkpt lat="37.1803360" lon="-7.4512850">
        <ele>11.8</ele>
        <time>2020-12-22T16:20:11Z</time>
      </trkpt>
      <trkpt lat="37.1803360" lon="-7.4512470">
        <ele>11.9</ele>
        <time>2020-12-22T16:20:12Z</time>
      </trkpt>
      <trkpt lat="37.1803320" lon="-7.4512120">
        <ele>12.1</ele>
        <time>2020-12-22T16:20:13Z</time>
      </trkpt>
      <trkpt lat="37.1803360" lon="-7.4511860">
        <ele>12.2</ele>
        <time>2020-12-22T16:20:14Z</time>
      </trkpt>
      <trkpt lat="37.1803400" lon="-7.4511700">
        <ele>12.3</ele>
        <time>2020-12-22T16:20:15Z</time>
      </trkpt>
      <trkpt lat="37.1803550" lon="-7.4511540">
        <ele>12.4</ele>
        <time>2020-12-22T16:20:16Z</time>
      </trkpt>
      <trkpt lat="37.1803660" lon="-7.4511410">
        <ele>12.5</ele>
        <time>2020-12-22T16:20:17Z</time>
      </trkpt>
      <trkpt lat="37.1803670" lon="-7.4511280">
        <ele>12.5</ele>
        <time>2020-12-22T16:20:18Z</time>
      </trkpt>
      <trkpt lat="37.1803630" lon="-7.4511230">
        <ele>12.5</ele>
        <time>2020-12-22T16:20:19Z</time>
      </trkpt>
      <trkpt lat="37.1803660" lon="-7.4511220">
        <ele>12.6</ele>
        <time>2020-12-22T16:20:20Z</time>
      </trkpt>
      <trkpt lat="37.1803700" lon="-7.4511200">
        <ele>12.6</ele>
        <time>2020-12-22T16:20:21Z</time>
      </trkpt>
      <trkpt lat="37.1803780" lon="-7.4511080">
        <ele>12.6</ele>
        <time>2020-12-22T16:20:22Z</time>
      </trkpt>
      <trkpt lat="37.1803780" lon="-7.4510890">
        <ele>12.7</ele>
        <time>2020-12-22T16:20:23Z</time>
      </trkpt>
      <trkpt lat="37.1803700" lon="-7.4510690">
        <ele>12.8</ele>
        <time>2020-12-22T16:20:24Z</time>
      </trkpt>
      <trkpt lat="37.1803590" lon="-7.4510540">
        <ele>12.9</ele>
        <time>2020-12-22T16:20:25Z</time>
      </trkpt>
      <trkpt lat="37.1803550" lon="-7.4510370">
        <ele>13.0</ele>
        <time>2020-12-22T16:20:26Z</time>
      </trkpt>
      <trkpt lat="37.1803510" lon="-7.4510150">
        <ele>13.1</ele>
        <time>2020-12-22T16:20:27Z</time>
      </trkpt>
      <trkpt lat="37.1803510" lon="-7.4509810">
        <ele>13.1</ele>
        <time>2020-12-22T16:20:28Z</time>
      </trkpt>
      <trkpt lat="37.1803440" lon="-7.4509420">
        <ele>13.1</ele>
        <time>2020-12-22T16:20:29Z</time>
      </trkpt>
      <trkpt lat="37.1803360" lon="-7.4509130">
        <ele>13.1</ele>
        <time>2020-12-22T16:20:30Z</time>
      </trkpt>
      <trkpt lat="37.1803360" lon="-7.4508940">
        <ele>13.1</ele>
        <time>2020-12-22T16:20:31Z</time>
      </trkpt>
      <trkpt lat="37.1803470" lon="-7.4508660">
        <ele>13.1</ele>
        <time>2020-12-22T16:20:32Z</time>
      </trkpt>
      <trkpt lat="37.1803510" lon="-7.4508420">
        <ele>13.1</ele>
        <time>2020-12-22T16:20:33Z</time>
      </trkpt>
      <trkpt lat="37.1803550" lon="-7.4508240">
        <ele>13.1</ele>
        <time>2020-12-22T16:20:34Z</time>
      </trkpt>
      <trkpt lat="37.1803660" lon="-7.4508140">
        <ele>13.1</ele>
        <time>2020-12-22T16:20:35Z</time>
      </trkpt>
      <trkpt lat="37.1803740" lon="-7.4508050">
        <ele>13.1</ele>
        <time>2020-12-22T16:20:36Z</time>
      </trkpt>
      <trkpt lat="37.1803780" lon="-7.4508000">
        <ele>13.1</ele>
        <time>2020-12-22T16:20:37Z</time>
      </trkpt>
      <trkpt lat="37.1803820" lon="-7.4508020">
        <ele>13.1</ele>
        <time>2020-12-22T16:20:38Z</time>
      </trkpt>
      <trkpt lat="37.1803860" lon="-7.4508070">
        <ele>13.1</ele>
        <time>2020-12-22T16:20:39Z</time>
      </trkpt>
      <trkpt lat="37.1803890" lon="-7.4508170">
        <ele>13.1</ele>
        <time>2020-12-22T16:20:40Z</time>
      </trkpt>
      <trkpt lat="37.1803930" lon="-7.4508320">
        <ele>13.1</ele>
        <time>2020-12-22T16:20:41Z</time>
      </trkpt>
      <trkpt lat="37.1803930" lon="-7.4508510">
        <ele>13.1</ele>
        <time>2020-12-22T16:20:42Z</time>
      </trkpt>
      <trkpt lat="37.1803890" lon="-7.4508860">
        <ele>13.1</ele>
        <time>2020-12-22T16:20:43Z</time>
      </trkpt>
      <trkpt lat="37.1803860" lon="-7.4509160">
        <ele>13.1</ele>
        <time>2020-12-22T16:20:44Z</time>
      </trkpt>
      <trkpt lat="37.1803890" lon="-7.4509320">
        <ele>13.1</ele>
        <time>2020-12-22T16:20:45Z</time>
      </trkpt>
      <trkpt lat="37.1803890" lon="-7.4509540">
        <ele>13.1</ele>
        <time>2020-12-22T16:20:46Z</time>
      </trkpt>
      <trkpt lat="37.1803890" lon="-7.4509730">
        <ele>13.1</ele>
        <time>2020-12-22T16:20:47Z</time>
      </trkpt>
      <trkpt lat="37.1803890" lon="-7.4509880">
        <ele>13.1</ele>
        <time>2020-12-22T16:20:48Z</time>
      </trkpt>
    </trkseg>
  </trk>
</gpx>
